<?xml version='1.0' encoding='UTF-8'?><gpx version="1.1" creator="JPX - https://github.com/jenetics/jpx" xmlns="http://www.topografix.com/GPX/1/1"><trk><trkseg><trkpt lat="43.16177474" lon="12.282772262173305"><ele>251.0</ele><time>2026-03-29T07:31:13.998Z</time></trkpt><trkpt lat="43.16183689736197" lon="12.282648401153587"><ele>251.00000000000003</ele><time>2026-03-29T07:31:15.998Z</time></trkpt><trkpt lat="43.16191690498541" lon="12.282488114245906"><ele>251.00000000000003</ele><time>2026-03-29T07:31:17.998Z</time></trkpt><trkpt lat="43.16196570095083" lon="12.282390356668085"><ele>251.0</ele><time>2026-03-29T07:31:18.998Z</time></trkpt><trkpt lat="43.16201475091772" lon="12.282292090282418"><ele>251.0</ele><time>2026-03-29T07:31:19.998Z</time></trkpt><trkpt lat="43.16205798891177" lon="12.28220546734671"><ele>250.8</ele><time>2026-03-29T07:31:20.998Z</time></trkpt><trkpt lat="43.16213800035852" lon="12.282046691043062"><ele>250.60000000000002</ele><time>2026-03-29T07:31:22.997Z</time></trkpt><trkpt lat="43.16218117509668" lon="12.281933895953822"><ele>250.4</ele><time>2026-03-29T07:31:23.997Z</time></trkpt><trkpt lat="43.16223249407659" lon="12.281827724720648"><ele>250.2</ele><time>2026-03-29T07:31:24.997Z</time></trkpt><trkpt lat="43.16228375655002" lon="12.281726433041598"><ele>250.0</ele><time>2026-03-29T07:31:25.997Z</time></trkpt><trkpt lat="43.16233741187279" lon="12.281619007004856"><ele>250.0</ele><time>2026-03-29T07:31:26.997Z</time></trkpt><trkpt lat="43.16238916649912" lon="12.281510821516077"><ele>250.0</ele><time>2026-03-29T07:31:27.997Z</time></trkpt><trkpt lat="43.162464399193844" lon="12.281404536730586"><ele>250.0</ele><time>2026-03-29T07:31:28.997Z</time></trkpt><trkpt lat="43.16253835778602" lon="12.281268677890827"><ele>250.0</ele><time>2026-03-29T07:31:29.997Z</time></trkpt><trkpt lat="43.16259900022579" lon="12.281152335522556"><ele>250.0</ele><time>2026-03-29T07:31:30.997Z</time></trkpt><trkpt lat="43.16264743093796" lon="12.28101905056802"><ele>250.0</ele><time>2026-03-29T07:31:31.997Z</time></trkpt><trkpt lat="43.16271939746913" lon="12.280896599211644"><ele>250.0</ele><time>2026-03-29T07:31:32.997Z</time></trkpt><trkpt lat="43.16279074281894" lon="12.280750552103271"><ele>250.0</ele><time>2026-03-29T07:31:33.997Z</time></trkpt><trkpt lat="43.162878669034896" lon="12.28060387927272"><ele>250.0</ele><time>2026-03-29T07:31:34.997Z</time></trkpt><trkpt lat="43.16294122381487" lon="12.280481313880294"><ele>250.2</ele><time>2026-03-29T07:31:35.997Z</time></trkpt><trkpt lat="43.16299935346963" lon="12.280377597566819"><ele>250.4</ele><time>2026-03-29T07:31:36.997Z</time></trkpt><trkpt lat="43.1630588861483" lon="12.280266401454433"><ele>250.60000000000002</ele><time>2026-03-29T07:31:37.997Z</time></trkpt><trkpt lat="43.16311799706269" lon="12.280150603899257"><ele>250.8</ele><time>2026-03-29T07:31:38.997Z</time></trkpt><trkpt lat="43.16318592427366" lon="12.280024528867703"><ele>251.0</ele><time>2026-03-29T07:31:39.997Z</time></trkpt><trkpt lat="43.16326569880772" lon="12.279863922703647"><ele>251.20000000000002</ele><time>2026-03-29T07:31:40.997Z</time></trkpt><trkpt lat="43.16332167216857" lon="12.279753418295838"><ele>251.40000000000003</ele><time>2026-03-29T07:31:41.997Z</time></trkpt><trkpt lat="43.16338759414589" lon="12.279649331041657"><ele>251.6</ele><time>2026-03-29T07:31:42.997Z</time></trkpt><trkpt lat="43.16346562855719" lon="12.279542965128083"><ele>251.8</ele><time>2026-03-29T07:31:43.997Z</time></trkpt><trkpt lat="43.163574400850926" lon="12.279453292583115"><ele>252.0</ele><time>2026-03-29T07:31:45Z</time></trkpt><trkpt lat="43.16368384809578" lon="12.27937775492566"><ele>252.0</ele><time>2026-03-29T07:31:46Z</time></trkpt><trkpt lat="43.16378462598625" lon="12.279335061548645"><ele>252.0</ele><time>2026-03-29T07:31:47Z</time></trkpt><trkpt lat="43.16387086152737" lon="12.279295731396145"><ele>252.0</ele><time>2026-03-29T07:31:48Z</time></trkpt><trkpt lat="43.163949610986606" lon="12.279274420401878"><ele>252.0</ele><time>2026-03-29T07:31:49Z</time></trkpt><trkpt lat="43.16402664138103" lon="12.27924860282451"><ele>252.0</ele><time>2026-03-29T07:31:50Z</time></trkpt><trkpt lat="43.164100197293436" lon="12.279205389784977"><ele>252.0</ele><time>2026-03-29T07:31:51Z</time></trkpt><trkpt lat="43.16416685795036" lon="12.279203024443678"><ele>252.39999999999998</ele><time>2026-03-29T07:31:52Z</time></trkpt><trkpt lat="43.16425109075596" lon="12.279167139427184"><ele>252.79999999999998</ele><time>2026-03-29T07:31:53Z</time></trkpt><trkpt lat="43.1643411438629" lon="12.279149860449984"><ele>253.2</ele><time>2026-03-29T07:31:54Z</time></trkpt><trkpt lat="43.16444585859861" lon="12.279152923132749"><ele>253.6</ele><time>2026-03-29T07:31:55Z</time></trkpt><trkpt lat="43.164556151025344" lon="12.279151105345814"><ele>254.0</ele><time>2026-03-29T07:31:56Z</time></trkpt><trkpt lat="43.1646411357703" lon="12.279139982700185"><ele>254.0</ele><time>2026-03-29T07:31:57Z</time></trkpt><trkpt lat="43.16472018465629" lon="12.279133265404779"><ele>253.99999999999997</ele><time>2026-03-29T07:31:58Z</time></trkpt><trkpt lat="43.164813203833944" lon="12.279127144560627"><ele>253.99999999999997</ele><time>2026-03-29T07:31:59Z</time></trkpt><trkpt lat="43.16491147631149" lon="12.279122858259443"><ele>254.0</ele><time>2026-03-29T07:32:00Z</time></trkpt><trkpt lat="43.1650047873406" lon="12.27911344284057"><ele>254.0</ele><time>2026-03-29T07:32:01Z</time></trkpt><trkpt lat="43.165101812846835" lon="12.279096122625722"><ele>254.0</ele><time>2026-03-29T07:32:02Z</time></trkpt><trkpt lat="43.16521109016687" lon="12.279053226323068"><ele>254.0</ele><time>2026-03-29T07:32:03Z</time></trkpt><trkpt lat="43.165322272771334" lon="12.278982075752955"><ele>254.0</ele><time>2026-03-29T07:32:04Z</time></trkpt><trkpt lat="43.16542534398889" lon="12.278886133139954"><ele>254.0</ele><time>2026-03-29T07:32:05Z</time></trkpt><trkpt lat="43.165534901433354" lon="12.278793068644125"><ele>253.75</ele><time>2026-03-29T07:32:05.999Z</time></trkpt><trkpt lat="43.16565913881653" lon="12.278717041424995"><ele>253.5</ele><time>2026-03-29T07:32:06.999Z</time></trkpt><trkpt lat="43.165806692675346" lon="12.27869279361196"><ele>253.25</ele><time>2026-03-29T07:32:07.999Z</time></trkpt><trkpt lat="43.16595772978906" lon="12.278637328723189"><ele>253.0</ele><time>2026-03-29T07:32:08.999Z</time></trkpt><trkpt lat="43.166079535525405" lon="12.278622018041238"><ele>254.25</ele><time>2026-03-29T07:32:09.999Z</time></trkpt><trkpt lat="43.16618755188282" lon="12.278609619582141"><ele>255.5</ele><time>2026-03-29T07:32:10.999Z</time></trkpt><trkpt lat="43.16630977465323" lon="12.278592529865662"><ele>256.75</ele><time>2026-03-29T07:32:11.999Z</time></trkpt><trkpt lat="43.166427715479074" lon="12.278581905488181"><ele>258.0</ele><time>2026-03-29T07:32:12.999Z</time></trkpt><trkpt lat="43.166545511916716" lon="12.278556551235873"><ele>259.5</ele><time>2026-03-29T07:32:13.999Z</time></trkpt><trkpt lat="43.16665969505274" lon="12.27853068994677"><ele>261.0</ele><time>2026-03-29T07:32:14.999Z</time></trkpt><trkpt lat="43.16676400373341" lon="12.278510066600235"><ele>262.5</ele><time>2026-03-29T07:32:15.999Z</time></trkpt><trkpt lat="43.166878317617105" lon="12.278482430880752"><ele>264.0</ele><time>2026-03-29T07:32:16.999Z</time></trkpt><trkpt lat="43.16698632217769" lon="12.278421525598883"><ele>264.0</ele><time>2026-03-29T07:32:17.999Z</time></trkpt><trkpt lat="43.16707511337883" lon="12.27839345786316"><ele>264.0</ele><time>2026-03-29T07:32:18.999Z</time></trkpt><trkpt lat="43.16715058443853" lon="12.278425918466603"><ele>264.0</ele><time>2026-03-29T07:32:19.999Z</time></trkpt><trkpt lat="43.167235066121414" lon="12.27849010080652"><ele>264.0</ele><time>2026-03-29T07:32:20.999Z</time></trkpt><trkpt lat="43.16731623928954" lon="12.27859371204864"><ele>264.0</ele><time>2026-03-29T07:32:21.999Z</time></trkpt><trkpt lat="43.16741934354491" lon="12.278647548753888"><ele>266.4</ele><time>2026-03-29T07:32:22.999Z</time></trkpt><trkpt lat="43.167521052597486" lon="12.278696946597433"><ele>268.79999999999995</ele><time>2026-03-29T07:32:23.999Z</time></trkpt><trkpt lat="43.16762143893446" lon="12.278744230240834"><ele>271.20000000000005</ele><time>2026-03-29T07:32:24.999Z</time></trkpt><trkpt lat="43.167695589989876" lon="12.278781613865938"><ele>273.6</ele><time>2026-03-29T07:32:25.999Z</time></trkpt><trkpt lat="43.16777992662091" lon="12.278788945843583"><ele>276.0</ele><time>2026-03-29T07:32:27.999Z</time></trkpt><trkpt lat="43.167814017767306" lon="12.278658892627153"><ele>276.0</ele><time>2026-03-29T07:32:29.999Z</time></trkpt><trkpt lat="43.16779944737165" lon="12.278574833360626"><ele>276.0</ele><time>2026-03-29T07:32:30.999Z</time></trkpt><trkpt lat="43.16777933153941" lon="12.278477464086201"><ele>276.0</ele><time>2026-03-29T07:32:31.999Z</time></trkpt><trkpt lat="43.1677352621286" lon="12.278328738693006"><ele>276.0</ele><time>2026-03-29T07:32:32.999Z</time></trkpt><trkpt lat="43.16768433248922" lon="12.278181734787562"><ele>276.0</ele><time>2026-03-29T07:32:33.999Z</time></trkpt><trkpt lat="43.16762176420529" lon="12.27803487020386"><ele>279.75</ele><time>2026-03-29T07:32:34.999Z</time></trkpt><trkpt lat="43.16759098555819" lon="12.277875663080259"><ele>283.5</ele><time>2026-03-29T07:32:35.999Z</time></trkpt><trkpt lat="43.16754529558753" lon="12.277719106812864"><ele>287.25</ele><time>2026-03-29T07:32:36.999Z</time></trkpt><trkpt lat="43.16748384913671" lon="12.277521014494594"><ele>291.0</ele><time>2026-03-29T07:32:37.999Z</time></trkpt><trkpt lat="43.16740551016276" lon="12.277337506553677"><ele>287.6666666666667</ele><time>2026-03-29T07:32:38.999Z</time></trkpt><trkpt lat="43.16732785947357" lon="12.277145034290218"><ele>284.33333333333337</ele><time>2026-03-29T07:32:39.999Z</time></trkpt><trkpt lat="43.16726410304572" lon="12.276924986572485"><ele>281.0</ele><time>2026-03-29T07:32:40.999Z</time></trkpt><trkpt lat="43.16719476307088" lon="12.276713926399163"><ele>281.0</ele><time>2026-03-29T07:32:41.999Z</time></trkpt><trkpt lat="43.16713169500637" lon="12.276523137051814"><ele>281.0</ele><time>2026-03-29T07:32:42.999Z</time></trkpt><trkpt lat="43.16707844814936" lon="12.27636709410829"><ele>281.0</ele><time>2026-03-29T07:32:43.999Z</time></trkpt><trkpt lat="43.167037410346715" lon="12.276232531031336"><ele>281.0</ele><time>2026-03-29T07:32:44.999Z</time></trkpt><trkpt lat="43.16701016112766" lon="12.276112919536118"><ele>283.40000000000003</ele><time>2026-03-29T07:32:45.999Z</time></trkpt><trkpt lat="43.16703089346289" lon="12.275972765534412"><ele>285.8</ele><time>2026-03-29T07:32:47.999Z</time></trkpt><trkpt lat="43.16716195275281" lon="12.275964135563719"><ele>288.20000000000005</ele><time>2026-03-29T07:32:49.999Z</time></trkpt><trkpt lat="43.16722040921934" lon="12.276024037372144"><ele>290.6</ele><time>2026-03-29T07:32:50.999Z</time></trkpt><trkpt lat="43.16728671235883" lon="12.276131226066266"><ele>293.0</ele><time>2026-03-29T07:32:51.999Z</time></trkpt><trkpt lat="43.16736374837993" lon="12.276258552389882"><ele>295.2</ele><time>2026-03-29T07:32:52.999Z</time></trkpt><trkpt lat="43.16743426133719" lon="12.2763821865296"><ele>297.4</ele><time>2026-03-29T07:32:53.998Z</time></trkpt><trkpt lat="43.167522406422734" lon="12.276472353342166"><ele>299.59999999999997</ele><time>2026-03-29T07:32:54.998Z</time></trkpt><trkpt lat="43.167560985319845" lon="12.276616356213522"><ele>301.8</ele><time>2026-03-29T07:32:55.998Z</time></trkpt><trkpt lat="43.16758768321173" lon="12.276730363012039"><ele>304.0</ele><time>2026-03-29T07:32:56.998Z</time></trkpt><trkpt lat="43.167625334039435" lon="12.276868565525131"><ele>304.0</ele><time>2026-03-29T07:32:57.998Z</time></trkpt><trkpt lat="43.16769868986432" lon="12.277000874336284"><ele>304.0</ele><time>2026-03-29T07:32:58.998Z</time></trkpt><trkpt lat="43.167768374929906" lon="12.277083051157671"><ele>304.0</ele><time>2026-03-29T07:32:59.998Z</time></trkpt><trkpt lat="43.16785786406249" lon="12.277161194453418"><ele>304.0</ele><time>2026-03-29T07:33:00.998Z</time></trkpt><trkpt lat="43.16796224221469" lon="12.277229354553688"><ele>304.0</ele><time>2026-03-29T07:33:01.998Z</time></trkpt><trkpt lat="43.16808560356222" lon="12.277285503580176"><ele>304.2</ele><time>2026-03-29T07:33:02.998Z</time></trkpt><trkpt lat="43.16818532020709" lon="12.277389250111812"><ele>304.4</ele><time>2026-03-29T07:33:03.998Z</time></trkpt><trkpt lat="43.168291191274214" lon="12.277446518451786"><ele>304.6</ele><time>2026-03-29T07:33:04.998Z</time></trkpt><trkpt lat="43.16839821296866" lon="12.277410810136816"><ele>304.8</ele><time>2026-03-29T07:33:06.998Z</time></trkpt><trkpt lat="43.168463540653455" lon="12.277370087786624"><ele>305.0</ele><time>2026-03-29T07:33:07.998Z</time></trkpt><trkpt lat="43.16854045481665" lon="12.277333281978107"><ele>307.2</ele><time>2026-03-29T07:33:08.998Z</time></trkpt><trkpt lat="43.168523371919214" lon="12.277198905842877"><ele>309.4</ele><time>2026-03-29T07:33:09.998Z</time></trkpt><trkpt lat="43.16858064376381" lon="12.277134489287201"><ele>311.6</ele><time>2026-03-29T07:33:10.998Z</time></trkpt><trkpt lat="43.16863967544796" lon="12.277076887686752"><ele>313.8</ele><time>2026-03-29T07:33:11.998Z</time></trkpt><trkpt lat="43.168699012965554" lon="12.277018988201418"><ele>316.0</ele><time>2026-03-29T07:33:12.998Z</time></trkpt><trkpt lat="43.16897393078147" lon="12.277214971704614"><ele>315.2</ele><time>2026-03-29T07:33:14.998Z</time></trkpt><trkpt lat="43.169061367188895" lon="12.277269875799972"><ele>314.40000000000003</ele><time>2026-03-29T07:33:16.998Z</time></trkpt><trkpt lat="43.169135344033876" lon="12.277386464356168"><ele>313.6</ele><time>2026-03-29T07:33:17.998Z</time></trkpt><trkpt lat="43.16923085132834" lon="12.277461830831069"><ele>312.8</ele><time>2026-03-29T07:33:18.998Z</time></trkpt><trkpt lat="43.16931490687955" lon="12.277482203798797"><ele>312.0</ele><time>2026-03-29T07:33:19.998Z</time></trkpt><trkpt lat="43.16938591360007" lon="12.277456542200149"><ele>312.0</ele><time>2026-03-29T07:33:20.998Z</time></trkpt><trkpt lat="43.16947093705089" lon="12.277428366420992"><ele>312.0</ele><time>2026-03-29T07:33:21.998Z</time></trkpt><trkpt lat="43.16958464246061" lon="12.277356819095226"><ele>312.0</ele><time>2026-03-29T07:33:22.998Z</time></trkpt><trkpt lat="43.16972040486512" lon="12.277279793927251"><ele>312.0</ele><time>2026-03-29T07:33:23.998Z</time></trkpt><trkpt lat="43.169856525313136" lon="12.277246563586399"><ele>317.5</ele><time>2026-03-29T07:33:25.998Z</time></trkpt><trkpt lat="43.16992371022195" lon="12.27722115565516"><ele>323.0</ele><time>2026-03-29T07:33:26.998Z</time></trkpt><trkpt lat="43.16999408519958" lon="12.277192297663603"><ele>328.5</ele><time>2026-03-29T07:33:27.998Z</time></trkpt><trkpt lat="43.17005970932341" lon="12.277158218419599"><ele>334.0</ele><time>2026-03-29T07:33:28.998Z</time></trkpt><trkpt lat="43.17012838971585" lon="12.277095067350059"><ele>339.5</ele><time>2026-03-29T07:33:29.998Z</time></trkpt><trkpt lat="43.17021105453233" lon="12.277015663981292"><ele>345.0</ele><time>2026-03-29T07:33:30.998Z</time></trkpt><trkpt lat="43.17026693529386" lon="12.276949930545442"><ele>345.0</ele><time>2026-03-29T07:33:31.998Z</time></trkpt><trkpt lat="43.17037897475853" lon="12.276900897962623"><ele>345.0</ele><time>2026-03-29T07:33:33.998Z</time></trkpt><trkpt lat="43.17045963068549" lon="12.276873021223777"><ele>345.0</ele><time>2026-03-29T07:33:34.998Z</time></trkpt><trkpt lat="43.17054344701077" lon="12.276814987767965"><ele>345.0</ele><time>2026-03-29T07:33:35.997Z</time></trkpt><trkpt lat="43.170580782832175" lon="12.276741258743055"><ele>345.0</ele><time>2026-03-29T07:33:36.997Z</time></trkpt><trkpt lat="43.17060587042037" lon="12.276600842904866"><ele>347.6</ele><time>2026-03-29T07:33:38.997Z</time></trkpt><trkpt lat="43.170627862380606" lon="12.276426627411952"><ele>350.2</ele><time>2026-03-29T07:33:40.997Z</time></trkpt><trkpt lat="43.17064821011466" lon="12.276333748397466"><ele>352.79999999999995</ele><time>2026-03-29T07:33:41.997Z</time></trkpt><trkpt lat="43.17066739173743" lon="12.27622522852199"><ele>355.4</ele><time>2026-03-29T07:33:43.997Z</time></trkpt><trkpt lat="43.170761268653855" lon="12.276207298701745"><ele>358.0</ele><time>2026-03-29T07:33:45.997Z</time></trkpt><trkpt lat="43.17079256359887" lon="12.276052421075242"><ele>359.3333333333333</ele><time>2026-03-29T07:33:47.997Z</time></trkpt><trkpt lat="43.170798918570085" lon="12.275936850275361"><ele>360.66666666666663</ele><time>2026-03-29T07:33:48.997Z</time></trkpt><trkpt lat="43.170815491619265" lon="12.275821209288946"><ele>362.0</ele><time>2026-03-29T07:33:49.997Z</time></trkpt><trkpt lat="43.17083908290543" lon="12.275689496674957"><ele>363.3333333333333</ele><time>2026-03-29T07:33:50.999Z</time></trkpt><trkpt lat="43.17085240566713" lon="12.275581429328978"><ele>364.6666666666667</ele><time>2026-03-29T07:33:51.999Z</time></trkpt><trkpt lat="43.17092098635002" lon="12.27553696057034"><ele>366.0</ele><time>2026-03-29T07:33:55.999Z</time></trkpt><trkpt lat="43.17108009460377" lon="12.27556316461053"><ele>367.5</ele><time>2026-03-29T07:33:57.999Z</time></trkpt><trkpt lat="43.171177125289006" lon="12.275590323976857"><ele>369.0</ele><time>2026-03-29T07:33:58.999Z</time></trkpt><trkpt lat="43.17126265365976" lon="12.275585719389655"><ele>370.5</ele><time>2026-03-29T07:33:59.999Z</time></trkpt><trkpt lat="43.17134089252221" lon="12.2755608714016"><ele>372.0</ele><time>2026-03-29T07:34:00.999Z</time></trkpt><trkpt lat="43.17138131711978" lon="12.27549292057941"><ele>373.5</ele><time>2026-03-29T07:34:01.999Z</time></trkpt><trkpt lat="43.17136099430327" lon="12.275407075539459"><ele>375.0</ele><time>2026-03-29T07:34:02.999Z</time></trkpt><trkpt lat="43.17131049770434" lon="12.27533461057576"><ele>375.0</ele><time>2026-03-29T07:34:03.999Z</time></trkpt><trkpt lat="43.171254558051125" lon="12.275251703662637"><ele>375.0</ele><time>2026-03-29T07:34:04.999Z</time></trkpt><trkpt lat="43.17127467105446" lon="12.27516110257647"><ele>375.0</ele><time>2026-03-29T07:34:06.999Z</time></trkpt><trkpt lat="43.17134304558433" lon="12.27510353572689"><ele>375.0</ele><time>2026-03-29T07:34:08.999Z</time></trkpt><trkpt lat="43.17142510091251" lon="12.275114864474908"><ele>375.0</ele><time>2026-03-29T07:34:09.999Z</time></trkpt><trkpt lat="43.171521482624726" lon="12.275160551675858"><ele>375.0</ele><time>2026-03-29T07:34:10.999Z</time></trkpt><trkpt lat="43.171589989257605" lon="12.275174485305502"><ele>377.6</ele><time>2026-03-29T07:34:11.999Z</time></trkpt><trkpt lat="43.17169627485503" lon="12.275070077424306"><ele>380.2</ele><time>2026-03-29T07:34:13.999Z</time></trkpt><trkpt lat="43.17183435913591" lon="12.275000207298113"><ele>382.79999999999995</ele><time>2026-03-29T07:34:15.999Z</time></trkpt><trkpt lat="43.17190466450423" lon="12.274973596302065"><ele>385.4</ele><time>2026-03-29T07:34:16.999Z</time></trkpt><trkpt lat="43.171957555550726" lon="12.274924160953066"><ele>388.0</ele><time>2026-03-29T07:34:17.999Z</time></trkpt><trkpt lat="43.17201752429169" lon="12.27486535716492"><ele>390.5</ele><time>2026-03-29T07:34:18.999Z</time></trkpt><trkpt lat="43.17211655180802" lon="12.274750770316002"><ele>393.0</ele><time>2026-03-29T07:34:19.999Z</time></trkpt><trkpt lat="43.17220537443068" lon="12.274644485539651"><ele>395.5</ele><time>2026-03-29T07:34:20.999Z</time></trkpt><trkpt lat="43.17227332711546" lon="12.274549910650036"><ele>398.0</ele><time>2026-03-29T07:34:21.999Z</time></trkpt><trkpt lat="43.17234989302631" lon="12.274444842041932"><ele>399.79999999999995</ele><time>2026-03-29T07:34:22.999Z</time></trkpt><trkpt lat="43.17239898173142" lon="12.27436927387295"><ele>401.6</ele><time>2026-03-29T07:34:23.999Z</time></trkpt><trkpt lat="43.17247612364048" lon="12.274257994454885"><ele>403.4</ele><time>2026-03-29T07:34:24.999Z</time></trkpt><trkpt lat="43.17256573055954" lon="12.274138035401807"><ele>405.20000000000005</ele><time>2026-03-29T07:34:25.999Z</time></trkpt><trkpt lat="43.17267323384799" lon="12.274042597146549"><ele>407.0</ele><time>2026-03-29T07:34:26.999Z</time></trkpt><trkpt lat="43.172740160033385" lon="12.273937566303172"><ele>407.75</ele><time>2026-03-29T07:34:27.999Z</time></trkpt><trkpt lat="43.17286272158192" lon="12.273839588895033"><ele>408.5</ele><time>2026-03-29T07:34:28.999Z</time></trkpt><trkpt lat="43.17295623023925" lon="12.273755090004009"><ele>409.25</ele><time>2026-03-29T07:34:29.999Z</time></trkpt><trkpt lat="43.17304421356976" lon="12.273675536572586"><ele>410.0</ele><time>2026-03-29T07:34:30.999Z</time></trkpt><trkpt lat="43.173112961897196" lon="12.273581396057498"><ele>410.0</ele><time>2026-03-29T07:34:31.999Z</time></trkpt><trkpt lat="43.17318686911609" lon="12.273477827106356"><ele>410.0</ele><time>2026-03-29T07:34:32.999Z</time></trkpt><trkpt lat="43.17328218407853" lon="12.273411177481638"><ele>410.0</ele><time>2026-03-29T07:34:33.999Z</time></trkpt><trkpt lat="43.17338273104678" lon="12.273367567526336"><ele>410.0</ele><time>2026-03-29T07:34:34.999Z</time></trkpt><trkpt lat="43.17343875108771" lon="12.273325857411537"><ele>410.0</ele><time>2026-03-29T07:34:35.999Z</time></trkpt><trkpt lat="43.173478892399004" lon="12.273237519001695"><ele>412.0</ele><time>2026-03-29T07:34:36.999Z</time></trkpt><trkpt lat="43.173662319933996" lon="12.273114774757293"><ele>414.0</ele><time>2026-03-29T07:34:38.999Z</time></trkpt><trkpt lat="43.17375557375116" lon="12.273033946374785"><ele>416.0</ele><time>2026-03-29T07:34:39.999Z</time></trkpt><trkpt lat="43.1738289379159" lon="12.272952201055418"><ele>418.0</ele><time>2026-03-29T07:34:40.999Z</time></trkpt><trkpt lat="43.17393617785935" lon="12.272888292450089"><ele>420.0</ele><time>2026-03-29T07:34:41.999Z</time></trkpt><trkpt lat="43.17404081128597" lon="12.27281602909677"><ele>422.0</ele><time>2026-03-29T07:34:42.999Z</time></trkpt><trkpt lat="43.174136248908404" lon="12.27270965422408"><ele>424.0</ele><time>2026-03-29T07:34:43.999Z</time></trkpt><trkpt lat="43.17421930837572" lon="12.27260476786765"><ele>426.0</ele><time>2026-03-29T07:34:44.999Z</time></trkpt><trkpt lat="43.174303138892974" lon="12.272498763890269"><ele>426.0</ele><time>2026-03-29T07:34:45.999Z</time></trkpt><trkpt lat="43.17435501102024" lon="12.272412230145147"><ele>426.0</ele><time>2026-03-29T07:34:46.999Z</time></trkpt><trkpt lat="43.17445011795976" lon="12.272299476807193"><ele>426.0</ele><time>2026-03-29T07:34:47.999Z</time></trkpt><trkpt lat="43.174547694091544" lon="12.272285639143568"><ele>426.0</ele><time>2026-03-29T07:34:48.999Z</time></trkpt><trkpt lat="43.17463437911289" lon="12.272228649615649"><ele>426.0</ele><time>2026-03-29T07:34:49.999Z</time></trkpt><trkpt lat="43.17472697189276" lon="12.272178154089598"><ele>425.0</ele><time>2026-03-29T07:34:50.999Z</time></trkpt><trkpt lat="43.17482964653479" lon="12.272145161246328"><ele>424.0</ele><time>2026-03-29T07:34:51.999Z</time></trkpt><trkpt lat="43.17495014610603" lon="12.272084854707394"><ele>423.0</ele><time>2026-03-29T07:34:52.999Z</time></trkpt><trkpt lat="43.17504681790395" lon="12.272008153257165"><ele>422.0</ele><time>2026-03-29T07:34:53.999Z</time></trkpt><trkpt lat="43.17509305980965" lon="12.271943607197366"><ele>421.0</ele><time>2026-03-29T07:34:55.999Z</time></trkpt><trkpt lat="43.17516834153637" lon="12.27189512821519"><ele>421.00000000000006</ele><time>2026-03-29T07:34:58.998Z</time></trkpt><trkpt lat="43.175230811714826" lon="12.2718555380807"><ele>421.0</ele><time>2026-03-29T07:34:59.998Z</time></trkpt><trkpt lat="43.175304293260616" lon="12.271789183240541"><ele>421.0</ele><time>2026-03-29T07:35:00.998Z</time></trkpt><trkpt lat="43.17538177698906" lon="12.271705239698475"><ele>421.0</ele><time>2026-03-29T07:35:01.998Z</time></trkpt><trkpt lat="43.17543247707949" lon="12.271643229086521"><ele>421.00000000000006</ele><time>2026-03-29T07:35:02.998Z</time></trkpt><trkpt lat="43.175473042465406" lon="12.271528179557938"><ele>421.0</ele><time>2026-03-29T07:35:06.998Z</time></trkpt><trkpt lat="43.175526116315055" lon="12.271393492868205"><ele>420.6</ele><time>2026-03-29T07:35:08.998Z</time></trkpt><trkpt lat="43.175590960843735" lon="12.271298353029715"><ele>420.20000000000005</ele><time>2026-03-29T07:35:10.998Z</time></trkpt><trkpt lat="43.175647981836356" lon="12.271236215369205"><ele>419.79999999999995</ele><time>2026-03-29T07:35:11.998Z</time></trkpt><trkpt lat="43.17571583893549" lon="12.27119409194813"><ele>419.4</ele><time>2026-03-29T07:35:12.998Z</time></trkpt><trkpt lat="43.175822077787956" lon="12.271150090761642"><ele>419.0</ele><time>2026-03-29T07:35:13.998Z</time></trkpt><trkpt lat="43.17593550326107" lon="12.271080919920765"><ele>419.0</ele><time>2026-03-29T07:35:14.998Z</time></trkpt><trkpt lat="43.17604439399326" lon="12.271036183354639"><ele>419.0</ele><time>2026-03-29T07:35:15.998Z</time></trkpt><trkpt lat="43.176146776960536" lon="12.270991478767149"><ele>419.0</ele><time>2026-03-29T07:35:16.998Z</time></trkpt><trkpt lat="43.17624804132789" lon="12.270975565178812"><ele>419.0</ele><time>2026-03-29T07:35:17.998Z</time></trkpt><trkpt lat="43.17634784351991" lon="12.27097452553092"><ele>419.0</ele><time>2026-03-29T07:35:18.998Z</time></trkpt><trkpt lat="43.17642849593069" lon="12.270949165024046"><ele>418.99999999999994</ele><time>2026-03-29T07:35:19.998Z</time></trkpt><trkpt lat="43.17649481318881" lon="12.270878038750931"><ele>419.0</ele><time>2026-03-29T07:35:20.998Z</time></trkpt><trkpt lat="43.17653456318614" lon="12.270797146371173"><ele>419.0</ele><time>2026-03-29T07:35:21.998Z</time></trkpt><trkpt lat="43.17658655232273" lon="12.270701807632172"><ele>419.0</ele><time>2026-03-29T07:35:22.998Z</time></trkpt><trkpt lat="43.17663767290644" lon="12.27059706187129"><ele>418.99999999999994</ele><time>2026-03-29T07:35:23.998Z</time></trkpt><trkpt lat="43.176713809178416" lon="12.270484156011127"><ele>419.0</ele><time>2026-03-29T07:35:24.998Z</time></trkpt><trkpt lat="43.17682594897193" lon="12.270393467398891"><ele>420.6</ele><time>2026-03-29T07:35:25.998Z</time></trkpt><trkpt lat="43.176941847596055" lon="12.270349551635716"><ele>422.2</ele><time>2026-03-29T07:35:26.998Z</time></trkpt><trkpt lat="43.177050890780485" lon="12.270345739490638"><ele>423.80000000000007</ele><time>2026-03-29T07:35:27.998Z</time></trkpt><trkpt lat="43.17716076815302" lon="12.27032721013772"><ele>425.40000000000003</ele><time>2026-03-29T07:35:28.998Z</time></trkpt><trkpt lat="43.177265257519934" lon="12.270309949034884"><ele>427.0</ele><time>2026-03-29T07:35:29.998Z</time></trkpt><trkpt lat="43.17735636113946" lon="12.270297239385826"><ele>428.6666666666667</ele><time>2026-03-29T07:35:30.998Z</time></trkpt><trkpt lat="43.17745497022069" lon="12.2702620583034"><ele>430.33333333333337</ele><time>2026-03-29T07:35:31.998Z</time></trkpt><trkpt lat="43.177482967840014" lon="12.270135769594635"><ele>432.0</ele><time>2026-03-29T07:35:33.998Z</time></trkpt><trkpt lat="43.17751997374912" lon="12.270057853206142"><ele>433.66666666666663</ele><time>2026-03-29T07:37:53.998Z</time></trkpt><trkpt lat="43.17755611665815" lon="12.269984482163474"><ele>435.3333333333333</ele><time>2026-03-29T07:37:55.997Z</time></trkpt><trkpt lat="43.17757863496295" lon="12.26990140028054"><ele>437.0</ele><time>2026-03-29T07:38:01.997Z</time></trkpt><trkpt lat="43.17761707704612" lon="12.26979605726342"><ele>438.8333333333333</ele><time>2026-03-29T07:38:03.999Z</time></trkpt><trkpt lat="43.17763959610616" lon="12.269703709747272"><ele>440.66666666666663</ele><time>2026-03-29T07:38:05.999Z</time></trkpt><trkpt lat="43.177642437400955" lon="12.269566456766615"><ele>442.5</ele><time>2026-03-29T07:38:16.999Z</time></trkpt><trkpt lat="43.17766225709263" lon="12.269428046007706"><ele>444.33333333333337</ele><time>2026-03-29T07:38:18.999Z</time></trkpt><trkpt lat="43.17770357095852" lon="12.269310481992399"><ele>446.1666666666667</ele><time>2026-03-29T07:38:20.999Z</time></trkpt><trkpt lat="43.17775741166898" lon="12.269259783736047"><ele>448.0</ele><time>2026-03-29T07:38:21.999Z</time></trkpt><trkpt lat="43.177813341145324" lon="12.269157062173715"><ele>448.00000000000006</ele><time>2026-03-29T07:38:22.999Z</time></trkpt><trkpt lat="43.17785535124382" lon="12.269047580787985"><ele>448.0</ele><time>2026-03-29T07:38:23.999Z</time></trkpt><trkpt lat="43.17788888101798" lon="12.268965564844967"><ele>448.0</ele><time>2026-03-29T07:38:24.999Z</time></trkpt><trkpt lat="43.17793368144517" lon="12.268886199139315"><ele>448.0</ele><time>2026-03-29T07:38:26.999Z</time></trkpt><trkpt lat="43.177983211379875" lon="12.268784828108483"><ele>448.00000000000006</ele><time>2026-03-29T07:38:27.999Z</time></trkpt><trkpt lat="43.17803213688513" lon="12.268668267281079"><ele>448.0</ele><time>2026-03-29T07:38:28.999Z</time></trkpt><trkpt lat="43.17806288270343" lon="12.268572762948315"><ele>448.00000000000006</ele><time>2026-03-29T07:38:29.999Z</time></trkpt><trkpt lat="43.178104838003634" lon="12.268503290623663"><ele>448.0</ele><time>2026-03-29T07:38:30.999Z</time></trkpt><trkpt lat="43.1781337373209" lon="12.268407795616664"><ele>448.0</ele><time>2026-03-29T07:38:31.999Z</time></trkpt><trkpt lat="43.178154653111875" lon="12.268227339956828"><ele>448.0</ele><time>2026-03-29T07:38:33.999Z</time></trkpt><trkpt lat="43.178154097558696" lon="12.268118238235054"><ele>448.00000000000006</ele><time>2026-03-29T07:38:34.999Z</time></trkpt><trkpt lat="43.17815636558255" lon="12.267991032090556"><ele>448.0</ele><time>2026-03-29T07:38:35.999Z</time></trkpt><trkpt lat="43.1781642250292" lon="12.267849484231185"><ele>446.59999999999997</ele><time>2026-03-29T07:38:36.999Z</time></trkpt><trkpt lat="43.178208829015006" lon="12.267688772721009"><ele>445.19999999999993</ele><time>2026-03-29T07:38:37.999Z</time></trkpt><trkpt lat="43.17823756722052" lon="12.267571380058875"><ele>443.8</ele><time>2026-03-29T07:38:38.999Z</time></trkpt><trkpt lat="43.1782540079392" lon="12.26748501608907"><ele>442.4</ele><time>2026-03-29T07:38:40.999Z</time></trkpt><trkpt lat="43.178310645277506" lon="12.267440966829714"><ele>441.0</ele><time>2026-03-29T07:38:44.999Z</time></trkpt><trkpt lat="43.178449985513225" lon="12.267324390675059"><ele>441.0</ele><time>2026-03-29T07:38:46.999Z</time></trkpt><trkpt lat="43.1785448835411" lon="12.267227611846712"><ele>441.0</ele><time>2026-03-29T07:38:47.999Z</time></trkpt><trkpt lat="43.178618498039704" lon="12.267136004646087"><ele>441.0</ele><time>2026-03-29T07:38:48.999Z</time></trkpt><trkpt lat="43.17869736159955" lon="12.267089268969912"><ele>441.0</ele><time>2026-03-29T07:38:49.999Z</time></trkpt><trkpt lat="43.178664314880436" lon="12.26701359353843"><ele>441.0</ele><time>2026-03-29T07:38:55.999Z</time></trkpt><trkpt lat="43.178635871709524" lon="12.26692708436017"><ele>441.0</ele><time>2026-03-29T07:38:56.999Z</time></trkpt><trkpt lat="43.178608138527885" lon="12.266836798755978"><ele>441.0</ele><time>2026-03-29T07:38:57.999Z</time></trkpt><trkpt lat="43.17862242938024" lon="12.266659459759577"><ele>441.0</ele><time>2026-03-29T07:38:59.999Z</time></trkpt><trkpt lat="43.17862858956108" lon="12.266571921122091"><ele>441.0</ele><time>2026-03-29T07:39:00.999Z</time></trkpt><trkpt lat="43.17862115515525" lon="12.266425858445176"><ele>441.0</ele><time>2026-03-29T07:39:01.999Z</time></trkpt><trkpt lat="43.17861077993006" lon="12.266293622202927"><ele>441.0</ele><time>2026-03-29T07:39:02.999Z</time></trkpt><trkpt lat="43.17860656537814" lon="12.266183719817459"><ele>440.6</ele><time>2026-03-29T07:39:03.999Z</time></trkpt><trkpt lat="43.17860663847826" lon="12.266069315785582"><ele>440.20000000000005</ele><time>2026-03-29T07:39:04.999Z</time></trkpt><trkpt lat="43.17863527032157" lon="12.265959788150399"><ele>439.79999999999995</ele><time>2026-03-29T07:39:05.999Z</time></trkpt><trkpt lat="43.17870732061999" lon="12.26586628942435"><ele>439.4</ele><time>2026-03-29T07:39:06.999Z</time></trkpt><trkpt lat="43.17879744901384" lon="12.265672479110911"><ele>439.0</ele><time>2026-03-29T07:39:08.999Z</time></trkpt><trkpt lat="43.17886200492896" lon="12.265607808442743"><ele>439.5</ele><time>2026-03-29T07:39:09.999Z</time></trkpt><trkpt lat="43.17897832953821" lon="12.2654778354192"><ele>440.0</ele><time>2026-03-29T07:39:11.999Z</time></trkpt><trkpt lat="43.17904746409902" lon="12.265364925390452"><ele>440.5</ele><time>2026-03-29T07:39:12.999Z</time></trkpt><trkpt lat="43.17912456971853" lon="12.26525721206097"><ele>441.0</ele><time>2026-03-29T07:39:13.999Z</time></trkpt><trkpt lat="43.179202597841645" lon="12.265178196848028"><ele>441.0</ele><time>2026-03-29T07:39:14.999Z</time></trkpt><trkpt lat="43.17929035795834" lon="12.265110816161943"><ele>441.0</ele><time>2026-03-29T07:39:15.999Z</time></trkpt><trkpt lat="43.17939600213235" lon="12.265040404834414"><ele>441.0</ele><time>2026-03-29T07:39:16.998Z</time></trkpt><trkpt lat="43.17951542643916" lon="12.264967559583624"><ele>441.0</ele><time>2026-03-29T07:39:17.998Z</time></trkpt><trkpt lat="43.17965107032655" lon="12.264913324121276"><ele>441.0</ele><time>2026-03-29T07:39:18.998Z</time></trkpt><trkpt lat="43.179761445257654" lon="12.264828763608877"><ele>441.0</ele><time>2026-03-29T07:39:19.998Z</time></trkpt><trkpt lat="43.17985833819159" lon="12.264764279193585"><ele>441.0</ele><time>2026-03-29T07:39:20.998Z</time></trkpt><trkpt lat="43.17994106266511" lon="12.264716489753283"><ele>441.0</ele><time>2026-03-29T07:39:21.998Z</time></trkpt><trkpt lat="43.18007491734332" lon="12.264708402053664"><ele>440.6</ele><time>2026-03-29T07:39:22.998Z</time></trkpt><trkpt lat="43.18019139677944" lon="12.26464270094139"><ele>440.20000000000005</ele><time>2026-03-29T07:39:23.998Z</time></trkpt><trkpt lat="43.18024759041561" lon="12.26458504943264"><ele>439.79999999999995</ele><time>2026-03-29T07:39:24.998Z</time></trkpt><trkpt lat="43.180334864229884" lon="12.264455329486502"><ele>439.4</ele><time>2026-03-29T07:39:25.998Z</time></trkpt><trkpt lat="43.180407327317454" lon="12.264342827897396"><ele>439.0</ele><time>2026-03-29T07:39:26.998Z</time></trkpt><trkpt lat="43.18046548814274" lon="12.264215419366444"><ele>439.0</ele><time>2026-03-29T07:39:27.998Z</time></trkpt><trkpt lat="43.18048450758974" lon="12.264077271290798"><ele>439.0</ele><time>2026-03-29T07:39:28.998Z</time></trkpt><trkpt lat="43.18049938999985" lon="12.263947790274253"><ele>439.0</ele><time>2026-03-29T07:39:29.998Z</time></trkpt><trkpt lat="43.18052377686008" lon="12.263815319272558"><ele>439.0</ele><time>2026-03-29T07:39:30.998Z</time></trkpt><trkpt lat="43.180532054677464" lon="12.263685929674491"><ele>439.0</ele><time>2026-03-29T07:39:32.998Z</time></trkpt><trkpt lat="43.18064201968016" lon="12.263619981748747"><ele>441.6</ele><time>2026-03-29T07:39:43.998Z</time></trkpt><trkpt lat="43.18073906052753" lon="12.263558463821871"><ele>444.2</ele><time>2026-03-29T07:39:45.998Z</time></trkpt><trkpt lat="43.18085882161123" lon="12.263505768006118"><ele>446.80000000000007</ele><time>2026-03-29T07:39:47.998Z</time></trkpt><trkpt lat="43.180935566903194" lon="12.26347913809669"><ele>449.40000000000003</ele><time>2026-03-29T07:39:48.998Z</time></trkpt><trkpt lat="43.18105178960997" lon="12.263491746547171"><ele>452.0</ele><time>2026-03-29T07:39:49.998Z</time></trkpt><trkpt lat="43.18116448142904" lon="12.26347232054882"><ele>452.0</ele><time>2026-03-29T07:39:50.998Z</time></trkpt><trkpt lat="43.18127671030273" lon="12.263433763199028"><ele>452.0</ele><time>2026-03-29T07:39:51.998Z</time></trkpt><trkpt lat="43.181362873545275" lon="12.263412715284206"><ele>452.0</ele><time>2026-03-29T07:39:52.998Z</time></trkpt><trkpt lat="43.18159217083522" lon="12.263366367659758"><ele>452.0</ele><time>2026-03-29T07:39:54.998Z</time></trkpt><trkpt lat="43.18169292950836" lon="12.263347920631404"><ele>449.20000000000005</ele><time>2026-03-29T07:39:55.998Z</time></trkpt><trkpt lat="43.18179987294383" lon="12.263331617390113"><ele>446.40000000000003</ele><time>2026-03-29T07:39:56.998Z</time></trkpt><trkpt lat="43.181918071323835" lon="12.263319627223694"><ele>443.59999999999997</ele><time>2026-03-29T07:39:57.998Z</time></trkpt><trkpt lat="43.18203479481864" lon="12.26332219113874"><ele>440.79999999999995</ele><time>2026-03-29T07:39:58.998Z</time></trkpt><trkpt lat="43.18212777037734" lon="12.263330094411996"><ele>438.0</ele><time>2026-03-29T07:39:59.998Z</time></trkpt><trkpt lat="43.18223655726186" lon="12.263326775426991"><ele>438.0</ele><time>2026-03-29T07:40:00.998Z</time></trkpt><trkpt lat="43.18231827626561" lon="12.263357235586579"><ele>437.99999999999994</ele><time>2026-03-29T07:40:01.998Z</time></trkpt><trkpt lat="43.18242180293004" lon="12.263377048930861"><ele>437.99999999999994</ele><time>2026-03-29T07:40:02.998Z</time></trkpt><trkpt lat="43.18256325267092" lon="12.263413311996242"><ele>438.0</ele><time>2026-03-29T07:40:04.998Z</time></trkpt><trkpt lat="43.18267343383112" lon="12.263441176880937"><ele>438.0</ele><time>2026-03-29T07:40:05.998Z</time></trkpt><trkpt lat="43.182795326091494" lon="12.263492969847132"><ele>434.4</ele><time>2026-03-29T07:40:06.998Z</time></trkpt><trkpt lat="43.18287392428136" lon="12.263527257840343"><ele>430.79999999999995</ele><time>2026-03-29T07:40:07.998Z</time></trkpt><trkpt lat="43.18295314390778" lon="12.26358158604525"><ele>427.2</ele><time>2026-03-29T07:40:08.999Z</time></trkpt><trkpt lat="43.183077328957616" lon="12.263637254624456"><ele>423.6</ele><time>2026-03-29T07:40:09.999Z</time></trkpt><trkpt lat="43.183178934241994" lon="12.263665292582514"><ele>420.0</ele><time>2026-03-29T07:40:10.999Z</time></trkpt><trkpt lat="43.183272664379416" lon="12.263658052522338"><ele>417.8</ele><time>2026-03-29T07:40:11.999Z</time></trkpt><trkpt lat="43.18334414921492" lon="12.263560191684375"><ele>415.6</ele><time>2026-03-29T07:40:12.999Z</time></trkpt><trkpt lat="43.18340179087217" lon="12.263457245143085"><ele>413.4</ele><time>2026-03-29T07:40:13.999Z</time></trkpt><trkpt lat="43.18346831414013" lon="12.263337583870042"><ele>411.2</ele><time>2026-03-29T07:40:14.999Z</time></trkpt><trkpt lat="43.183534204052826" lon="12.263207935164623"><ele>409.0</ele><time>2026-03-29T07:40:15.999Z</time></trkpt><trkpt lat="43.183623353507784" lon="12.263130176868232"><ele>404.4</ele><time>2026-03-29T07:40:16.999Z</time></trkpt><trkpt lat="43.18368655304756" lon="12.263069219045686"><ele>399.79999999999995</ele><time>2026-03-29T07:40:17.999Z</time></trkpt><trkpt lat="43.18375995118779" lon="12.26300037320002"><ele>395.20000000000005</ele><time>2026-03-29T07:40:18.999Z</time></trkpt><trkpt lat="43.18387289770246" lon="12.262960457423992"><ele>390.6</ele><time>2026-03-29T07:40:19.999Z</time></trkpt><trkpt lat="43.18396147264872" lon="12.262970035013955"><ele>386.0</ele><time>2026-03-29T07:40:20.999Z</time></trkpt><trkpt lat="43.184074594448276" lon="12.262953962688899"><ele>385.99999999999994</ele><time>2026-03-29T07:40:21.999Z</time></trkpt><trkpt lat="43.18415933977009" lon="12.262955254394857"><ele>386.0</ele><time>2026-03-29T07:40:22.999Z</time></trkpt><trkpt lat="43.18423411807868" lon="12.262955254394281"><ele>386.0</ele><time>2026-03-29T07:40:23.999Z</time></trkpt><trkpt lat="43.18430598942636" lon="12.262955254396823"><ele>386.0</ele><time>2026-03-29T07:40:25.999Z</time></trkpt><trkpt lat="43.18437271626473" lon="12.262948617522682"><ele>385.99999999999994</ele><time>2026-03-29T07:40:27.999Z</time></trkpt><trkpt lat="43.184477245132555" lon="12.262900337281916"><ele>386.0</ele><time>2026-03-29T07:40:28.999Z</time></trkpt><trkpt lat="43.184589819283836" lon="12.262849773272587"><ele>386.0</ele><time>2026-03-29T07:40:29.999Z</time></trkpt><trkpt lat="43.184666451017065" lon="12.262814854561716"><ele>386.0</ele><time>2026-03-29T07:40:30.999Z</time></trkpt><trkpt lat="43.18472108203154" lon="12.262758978371403"><ele>386.0</ele><time>2026-03-29T07:40:31.999Z</time></trkpt><trkpt lat="43.184777192122276" lon="12.262605234017531"><ele>386.0</ele><time>2026-03-29T07:40:33.999Z</time></trkpt><trkpt lat="43.18478405916249" lon="12.262452743643129"><ele>386.0</ele><time>2026-03-29T07:40:35.999Z</time></trkpt><trkpt lat="43.18478982338105" lon="12.262329923916278"><ele>383.0</ele><time>2026-03-29T07:40:37.999Z</time></trkpt><trkpt lat="43.18479589469571" lon="12.262200560774293"><ele>380.0</ele><time>2026-03-29T07:40:39.999Z</time></trkpt><trkpt lat="43.18454318144432" lon="12.262070366526752"><ele>377.0</ele><time>2026-03-29T07:40:41.999Z</time></trkpt><trkpt lat="43.18450183668324" lon="12.262003286061045"><ele>374.0</ele><time>2026-03-29T07:40:42.999Z</time></trkpt><trkpt lat="43.1844436350962" lon="12.261935112647574"><ele>374.0</ele><time>2026-03-29T07:40:43.999Z</time></trkpt><trkpt lat="43.184358632341876" lon="12.261869072426641"><ele>374.0</ele><time>2026-03-29T07:40:44.999Z</time></trkpt><trkpt lat="43.18427224430239" lon="12.261780366486704"><ele>374.0</ele><time>2026-03-29T07:40:45.999Z</time></trkpt><trkpt lat="43.18420517389115" lon="12.261708757517244"><ele>374.0</ele><time>2026-03-29T07:40:46.999Z</time></trkpt><trkpt lat="43.184134995551666" lon="12.261672411241445"><ele>374.0</ele><time>2026-03-29T07:40:48.999Z</time></trkpt><trkpt lat="43.18407268130431" lon="12.26171996228729"><ele>374.0</ele><time>2026-03-29T07:40:49.999Z</time></trkpt><trkpt lat="43.1839909845466" lon="12.261709555765279"><ele>372.6666666666667</ele><time>2026-03-29T07:40:51.999Z</time></trkpt><trkpt lat="43.183962067374566" lon="12.261548168759541"><ele>371.33333333333337</ele><time>2026-03-29T07:40:53.999Z</time></trkpt><trkpt lat="43.18400443377529" lon="12.261468583438292"><ele>370.0</ele><time>2026-03-29T07:40:54.999Z</time></trkpt><trkpt lat="43.18402882248858" lon="12.261384827520647"><ele>368.6666666666667</ele><time>2026-03-29T07:40:55.999Z</time></trkpt><trkpt lat="43.18398612232543" lon="12.261301804623281"><ele>367.3333333333333</ele><time>2026-03-29T07:40:57.999Z</time></trkpt><trkpt lat="43.183917249756355" lon="12.261336969718798"><ele>366.0</ele><time>2026-03-29T07:40:58.999Z</time></trkpt><trkpt lat="43.18382896117651" lon="12.261407857102467"><ele>366.0</ele><time>2026-03-29T07:40:59.999Z</time></trkpt><trkpt lat="43.18375731724696" lon="12.261487308626153"><ele>366.0</ele><time>2026-03-29T07:41:00.999Z</time></trkpt><trkpt lat="43.18370156002826" lon="12.261568220998576"><ele>366.0</ele><time>2026-03-29T07:41:02.999Z</time></trkpt><trkpt lat="43.18365782266262" lon="12.261654680525142"><ele>366.0</ele><time>2026-03-29T07:41:03.999Z</time></trkpt><trkpt lat="43.183625148524726" lon="12.2617615960891"><ele>366.0</ele><time>2026-03-29T07:41:04.999Z</time></trkpt><trkpt lat="43.18355978745367" lon="12.261832705428779"><ele>366.0</ele><time>2026-03-29T07:41:06.999Z</time></trkpt><trkpt lat="43.18347425132019" lon="12.261742243368369"><ele>366.0</ele><time>2026-03-29T07:41:08.999Z</time></trkpt><trkpt lat="43.18345081938065" lon="12.261633118783395"><ele>366.0</ele><time>2026-03-29T07:41:09.999Z</time></trkpt><trkpt lat="43.183397150648105" lon="12.26148867210497"><ele>366.0</ele><time>2026-03-29T07:41:11.999Z</time></trkpt><trkpt lat="43.18333059060272" lon="12.261427059104701"><ele>366.0</ele><time>2026-03-29T07:41:13.999Z</time></trkpt><trkpt lat="43.183315456267096" lon="12.261323878464298"><ele>366.0</ele><time>2026-03-29T07:41:15.999Z</time></trkpt><trkpt lat="43.183326772719994" lon="12.261119890726812"><ele>363.0</ele><time>2026-03-29T07:41:17.999Z</time></trkpt><trkpt lat="43.183331790152955" lon="12.260984829031344"><ele>360.0</ele><time>2026-03-29T07:41:18.999Z</time></trkpt><trkpt lat="43.18334868337572" lon="12.260842336965185"><ele>357.0</ele><time>2026-03-29T07:41:19.999Z</time></trkpt><trkpt lat="43.183340504861775" lon="12.260672632071632"><ele>354.0</ele><time>2026-03-29T07:41:20.999Z</time></trkpt><trkpt lat="43.183347367209265" lon="12.260533511473017"><ele>351.0</ele><time>2026-03-29T07:41:21.999Z</time></trkpt><trkpt lat="43.18335265330945" lon="12.260387876537282"><ele>348.8</ele><time>2026-03-29T07:41:22.999Z</time></trkpt><trkpt lat="43.18336579748655" lon="12.260244251377818"><ele>346.6</ele><time>2026-03-29T07:41:23.999Z</time></trkpt><trkpt lat="43.18339214332372" lon="12.260114845777386"><ele>344.4</ele><time>2026-03-29T07:41:24.999Z</time></trkpt><trkpt lat="43.18339505954584" lon="12.259994300924996"><ele>342.2</ele><time>2026-03-29T07:41:25.999Z</time></trkpt><trkpt lat="43.18338953822411" lon="12.259881339638175"><ele>340.0</ele><time>2026-03-29T07:41:26.999Z</time></trkpt><trkpt lat="43.18339586877872" lon="12.259751465175666"><ele>337.8333333333333</ele><time>2026-03-29T07:41:27.999Z</time></trkpt><trkpt lat="43.183414439692676" lon="12.259648822680983"><ele>335.66666666666663</ele><time>2026-03-29T07:41:28.999Z</time></trkpt><trkpt lat="43.1833602002336" lon="12.259482883585992"><ele>333.5</ele><time>2026-03-29T07:41:30.999Z</time></trkpt><trkpt lat="43.183338995899305" lon="12.259394690790568"><ele>331.3333333333333</ele><time>2026-03-29T07:41:31.999Z</time></trkpt><trkpt lat="43.18333686554944" lon="12.259300160312032"><ele>329.1666666666667</ele><time>2026-03-29T07:41:32.999Z</time></trkpt><trkpt lat="43.18334239492943" lon="12.25920547543376"><ele>327.0</ele><time>2026-03-29T07:41:33.999Z</time></trkpt><trkpt lat="43.18332027486321" lon="12.259089223834538"><ele>327.0</ele><time>2026-03-29T07:41:34.999Z</time></trkpt><trkpt lat="43.18326600022244" lon="12.258964607315677"><ele>327.0</ele><time>2026-03-29T07:41:35.999Z</time></trkpt><trkpt lat="43.18321835793167" lon="12.258861855434272"><ele>327.0</ele><time>2026-03-29T07:41:36.999Z</time></trkpt><trkpt lat="43.18318090586621" lon="12.258775577129997"><ele>327.0</ele><time>2026-03-29T07:41:37.999Z</time></trkpt><trkpt lat="43.18314645676158" lon="12.258680537926514"><ele>327.0</ele><time>2026-03-29T07:41:38.999Z</time></trkpt><trkpt lat="43.18310618655851" lon="12.258578286573144"><ele>327.0</ele><time>2026-03-29T07:41:39.999Z</time></trkpt><trkpt lat="43.18306236606576" lon="12.258475440874829"><ele>327.1666666666667</ele><time>2026-03-29T07:41:40.999Z</time></trkpt><trkpt lat="43.18301927749221" lon="12.258380417452118"><ele>327.3333333333333</ele><time>2026-03-29T07:41:41.998Z</time></trkpt><trkpt lat="43.182983180930584" lon="12.258297241846783"><ele>327.5</ele><time>2026-03-29T07:41:42.998Z</time></trkpt><trkpt lat="43.182948731173326" lon="12.258207298740803"><ele>327.66666666666663</ele><time>2026-03-29T07:41:44.998Z</time></trkpt><trkpt lat="43.182974352239356" lon="12.25808142375882"><ele>327.8333333333333</ele><time>2026-03-29T07:41:47.998Z</time></trkpt><trkpt lat="43.18299878437875" lon="12.2579862705193"><ele>328.0</ele><time>2026-03-29T07:41:49.998Z</time></trkpt><trkpt lat="43.18304285782659" lon="12.257910978282291"><ele>327.8333333333333</ele><time>2026-03-29T07:41:50.998Z</time></trkpt><trkpt lat="43.183105927703835" lon="12.257838644013024"><ele>327.66666666666663</ele><time>2026-03-29T07:41:51.998Z</time></trkpt><trkpt lat="43.183180416827" lon="12.25781735929691"><ele>327.5</ele><time>2026-03-29T07:41:52.998Z</time></trkpt><trkpt lat="43.183239905213185" lon="12.257847384688825"><ele>327.3333333333333</ele><time>2026-03-29T07:41:53.998Z</time></trkpt><trkpt lat="43.18328826570216" lon="12.25794456226711"><ele>327.1666666666667</ele><time>2026-03-29T07:41:55.998Z</time></trkpt><trkpt lat="43.183380538031415" lon="12.258035422049039"><ele>327.0</ele><time>2026-03-29T07:41:57.998Z</time></trkpt><trkpt lat="43.183478753676035" lon="12.25812418930768"><ele>325.25</ele><time>2026-03-29T07:41:59.998Z</time></trkpt><trkpt lat="43.18357292483244" lon="12.258219574389717"><ele>323.5</ele><time>2026-03-29T07:42:00.998Z</time></trkpt><trkpt lat="43.18366766774175" lon="12.258343375546852"><ele>321.75</ele><time>2026-03-29T07:42:01.998Z</time></trkpt><trkpt lat="43.183756954913896" lon="12.25846541511375"><ele>320.0</ele><time>2026-03-29T07:42:02.998Z</time></trkpt><trkpt lat="43.18382320633167" lon="12.25855053323449"><ele>320.0</ele><time>2026-03-29T07:42:03.998Z</time></trkpt><trkpt lat="43.183889089899864" lon="12.258600606948226"><ele>320.0</ele><time>2026-03-29T07:42:04.998Z</time></trkpt><trkpt lat="43.183957623099154" lon="12.258641965763077"><ele>320.0</ele><time>2026-03-29T07:42:05.998Z</time></trkpt><trkpt lat="43.18405090727505" lon="12.258671960125955"><ele>320.0</ele><time>2026-03-29T07:42:06.998Z</time></trkpt><trkpt lat="43.1841632188774" lon="12.258668121091317"><ele>320.0</ele><time>2026-03-29T07:42:07.998Z</time></trkpt><trkpt lat="43.18428825918915" lon="12.258649464191429"><ele>320.4</ele><time>2026-03-29T07:42:08.998Z</time></trkpt><trkpt lat="43.18436839480926" lon="12.258655294131204"><ele>320.8</ele><time>2026-03-29T07:42:09.998Z</time></trkpt><trkpt lat="43.18444443918675" lon="12.258704691219547"><ele>321.20000000000005</ele><time>2026-03-29T07:42:10.998Z</time></trkpt><trkpt lat="43.184503922108355" lon="12.2587895769503"><ele>321.6</ele><time>2026-03-29T07:42:11.998Z</time></trkpt><trkpt lat="43.184592012110414" lon="12.258875305235104"><ele>322.0</ele><time>2026-03-29T07:42:12.998Z</time></trkpt><trkpt lat="43.18467813140032" lon="12.25896413470487"><ele>322.0</ele><time>2026-03-29T07:42:13.998Z</time></trkpt><trkpt lat="43.18474977449689" lon="12.259083130045097"><ele>322.0</ele><time>2026-03-29T07:42:15.999Z</time></trkpt><trkpt lat="43.184851677161696" lon="12.25916897739566"><ele>322.0</ele><time>2026-03-29T07:42:17.999Z</time></trkpt><trkpt lat="43.184952858537784" lon="12.259206496794885"><ele>322.0</ele><time>2026-03-29T07:42:19.999Z</time></trkpt><trkpt lat="43.185043851545224" lon="12.259221111680468"><ele>322.0</ele><time>2026-03-29T07:42:20.999Z</time></trkpt><trkpt lat="43.185133742301616" lon="12.259262653583088"><ele>324.0</ele><time>2026-03-29T07:42:21.999Z</time></trkpt><trkpt lat="43.18523263854523" lon="12.259334186779187"><ele>326.0</ele><time>2026-03-29T07:42:22.999Z</time></trkpt><trkpt lat="43.185291130582016" lon="12.259392327823182"><ele>328.0</ele><time>2026-03-29T07:42:23.999Z</time></trkpt><trkpt lat="43.18536039917273" lon="12.259403629196944"><ele>330.0</ele><time>2026-03-29T07:42:24.999Z</time></trkpt><trkpt lat="43.185428028209806" lon="12.25941493260345"><ele>332.0</ele><time>2026-03-29T07:42:25.999Z</time></trkpt><trkpt lat="43.18550080070314" lon="12.259406987770296"><ele>334.0</ele><time>2026-03-29T07:42:26.999Z</time></trkpt><trkpt lat="43.185579678462624" lon="12.259393456720623"><ele>334.0</ele><time>2026-03-29T07:42:27.999Z</time></trkpt><trkpt lat="43.1856727795541" lon="12.259378011204555"><ele>334.0</ele><time>2026-03-29T07:42:28.999Z</time></trkpt><trkpt lat="43.18574704946086" lon="12.259386647655113"><ele>334.0</ele><time>2026-03-29T07:42:29.999Z</time></trkpt><trkpt lat="43.18584838781834" lon="12.259491591320165"><ele>334.0</ele><time>2026-03-29T07:42:31.999Z</time></trkpt><trkpt lat="43.18591091556517" lon="12.2595741709801"><ele>334.0</ele><time>2026-03-29T07:42:32.999Z</time></trkpt><trkpt lat="43.185982734458484" lon="12.259650881848318"><ele>333.2</ele><time>2026-03-29T07:42:33.999Z</time></trkpt><trkpt lat="43.18606206486244" lon="12.259713351982487"><ele>332.4</ele><time>2026-03-29T07:42:34.999Z</time></trkpt><trkpt lat="43.1861854173154" lon="12.259777980488039"><ele>331.6</ele><time>2026-03-29T07:42:35.999Z</time></trkpt><trkpt lat="43.186254833202014" lon="12.259861775663845"><ele>330.8</ele><time>2026-03-29T07:42:36.999Z</time></trkpt><trkpt lat="43.18635105730397" lon="12.259890765984052"><ele>330.0</ele><time>2026-03-29T07:42:37.999Z</time></trkpt><trkpt lat="43.1864883093391" lon="12.259923223515734"><ele>330.8</ele><time>2026-03-29T07:42:38.999Z</time></trkpt><trkpt lat="43.18659055191309" lon="12.259917774144835"><ele>331.6</ele><time>2026-03-29T07:42:39.999Z</time></trkpt><trkpt lat="43.18668142867333" lon="12.259915459069516"><ele>332.4</ele><time>2026-03-29T07:42:40.999Z</time></trkpt><trkpt lat="43.18677563132852" lon="12.25987916733537"><ele>333.2</ele><time>2026-03-29T07:42:41.999Z</time></trkpt><trkpt lat="43.186883368263345" lon="12.25982304698622"><ele>334.0</ele><time>2026-03-29T07:42:42.999Z</time></trkpt><trkpt lat="43.18695780958376" lon="12.259851351479229"><ele>334.0</ele><time>2026-03-29T07:42:43.999Z</time></trkpt><trkpt lat="43.18705670239121" lon="12.259895129283937"><ele>334.0</ele><time>2026-03-29T07:42:44.999Z</time></trkpt><trkpt lat="43.187157380624186" lon="12.259937726105948"><ele>334.0</ele><time>2026-03-29T07:42:45.999Z</time></trkpt><trkpt lat="43.18725239655028" lon="12.25996865401936"><ele>334.0</ele><time>2026-03-29T07:42:46.999Z</time></trkpt><trkpt lat="43.187330888065674" lon="12.260014502732506"><ele>334.0</ele><time>2026-03-29T07:42:47.999Z</time></trkpt><trkpt lat="43.18741802054495" lon="12.260035020701615"><ele>335.2857142857143</ele><time>2026-03-29T07:42:49.999Z</time></trkpt><trkpt lat="43.18747948375823" lon="12.260079062237807"><ele>336.57142857142856</ele><time>2026-03-29T07:42:50.999Z</time></trkpt><trkpt lat="43.18753138149942" lon="12.260131094792685"><ele>337.8571428571429</ele><time>2026-03-29T07:42:51.999Z</time></trkpt><trkpt lat="43.18759315301571" lon="12.260149862601"><ele>339.1428571428571</ele><time>2026-03-29T07:42:52.999Z</time></trkpt><trkpt lat="43.18766916812532" lon="12.260135620091214"><ele>340.42857142857144</ele><time>2026-03-29T07:42:53.999Z</time></trkpt><trkpt lat="43.18776253020882" lon="12.260154444960783"><ele>341.7142857142857</ele><time>2026-03-29T07:42:54.999Z</time></trkpt><trkpt lat="43.18783903127653" lon="12.260184111469387"><ele>343.0</ele><time>2026-03-29T07:42:55.999Z</time></trkpt><trkpt lat="43.18791411470689" lon="12.260206675564111"><ele>343.0</ele><time>2026-03-29T07:42:56.999Z</time></trkpt><trkpt lat="43.18798744254547" lon="12.260169941867266"><ele>343.0</ele><time>2026-03-29T07:42:57.999Z</time></trkpt><trkpt lat="43.18807337860801" lon="12.260130599947484"><ele>343.0</ele><time>2026-03-29T07:42:58.999Z</time></trkpt><trkpt lat="43.18815618113717" lon="12.260094802419287"><ele>343.0</ele><time>2026-03-29T07:42:59.999Z</time></trkpt><trkpt lat="43.18821999222371" lon="12.26009390520126"><ele>343.0</ele><time>2026-03-29T07:43:00.999Z</time></trkpt><trkpt lat="43.188305243804514" lon="12.260124874214902"><ele>343.0</ele><time>2026-03-29T07:43:01.999Z</time></trkpt><trkpt lat="43.188404833321414" lon="12.260122217409863"><ele>344.5</ele><time>2026-03-29T07:43:02.999Z</time></trkpt><trkpt lat="43.18848196365669" lon="12.260156884116565"><ele>346.0</ele><time>2026-03-29T07:43:03.999Z</time></trkpt><trkpt lat="43.188550306928505" lon="12.260206488266453"><ele>347.5</ele><time>2026-03-29T07:43:04.999Z</time></trkpt><trkpt lat="43.18862319363616" lon="12.260267125277752"><ele>349.0</ele><time>2026-03-29T07:43:05.999Z</time></trkpt><trkpt lat="43.18869114326354" lon="12.260295853352865"><ele>350.5</ele><time>2026-03-29T07:43:06.999Z</time></trkpt><trkpt lat="43.1887722142883" lon="12.2603028454973"><ele>352.0</ele><time>2026-03-29T07:43:07.999Z</time></trkpt><trkpt lat="43.188862979008285" lon="12.260328910788644"><ele>352.0</ele><time>2026-03-29T07:43:08.999Z</time></trkpt><trkpt lat="43.18897893104699" lon="12.260366435104398"><ele>352.0</ele><time>2026-03-29T07:43:09.999Z</time></trkpt><trkpt lat="43.18907521643146" lon="12.260398176655322"><ele>352.0</ele><time>2026-03-29T07:43:10.999Z</time></trkpt><trkpt lat="43.1891492013798" lon="12.260399335728415"><ele>352.0</ele><time>2026-03-29T07:43:11.999Z</time></trkpt><trkpt lat="43.189240322014776" lon="12.260495277548953"><ele>352.0</ele><time>2026-03-29T07:43:13.999Z</time></trkpt><trkpt lat="43.18933040213687" lon="12.260454747685062"><ele>353.0</ele><time>2026-03-29T07:43:15.999Z</time></trkpt><trkpt lat="43.18937428621707" lon="12.260387591505951"><ele>354.0</ele><time>2026-03-29T07:43:16.999Z</time></trkpt><trkpt lat="43.189445524719744" lon="12.260306081191445"><ele>355.0</ele><time>2026-03-29T07:43:18.999Z</time></trkpt><trkpt lat="43.18954444355973" lon="12.260317349673867"><ele>356.0</ele><time>2026-03-29T07:43:20.999Z</time></trkpt><trkpt lat="43.189622589668" lon="12.260348827157815"><ele>357.0</ele><time>2026-03-29T07:43:21.999Z</time></trkpt><trkpt lat="43.18976780349816" lon="12.260298401850777"><ele>358.6666666666667</ele><time>2026-03-29T07:43:23.999Z</time></trkpt><trkpt lat="43.18984985913765" lon="12.260324478054757"><ele>360.3333333333333</ele><time>2026-03-29T07:43:24.999Z</time></trkpt><trkpt lat="43.18992588199143" lon="12.260345493117004"><ele>362.0</ele><time>2026-03-29T07:43:25.999Z</time></trkpt><trkpt lat="43.190017889716984" lon="12.260450738225332"><ele>363.66666666666663</ele><time>2026-03-29T07:43:27.999Z</time></trkpt><trkpt lat="43.19007465911005" lon="12.26048823808959"><ele>365.3333333333333</ele><time>2026-03-29T07:43:28.999Z</time></trkpt><trkpt lat="43.19014808981917" lon="12.260527197541633"><ele>367.0</ele><time>2026-03-29T07:43:29.999Z</time></trkpt><trkpt lat="43.19021945017662" lon="12.26052729173903"><ele>367.0</ele><time>2026-03-29T07:43:30.999Z</time></trkpt><trkpt lat="43.19031063605704" lon="12.260530165349607"><ele>367.0</ele><time>2026-03-29T07:43:31.999Z</time></trkpt><trkpt lat="43.19040393218359" lon="12.260519380136902"><ele>367.0</ele><time>2026-03-29T07:43:32.999Z</time></trkpt><trkpt lat="43.190468776100786" lon="12.260550574212187"><ele>367.0</ele><time>2026-03-29T07:43:33.999Z</time></trkpt><trkpt lat="43.190552545986385" lon="12.260591626029766"><ele>367.0</ele><time>2026-03-29T07:43:34.999Z</time></trkpt><trkpt lat="43.19062489867835" lon="12.260616548991077"><ele>367.0</ele><time>2026-03-29T07:43:35.999Z</time></trkpt><trkpt lat="43.19068202550874" lon="12.260656815273487"><ele>365.16666666666663</ele><time>2026-03-29T07:43:36.999Z</time></trkpt><trkpt lat="43.19074548452128" lon="12.260692981015083"><ele>363.3333333333333</ele><time>2026-03-29T07:43:37.999Z</time></trkpt><trkpt lat="43.190810334347525" lon="12.2607067617035"><ele>361.5</ele><time>2026-03-29T07:43:38.999Z</time></trkpt><trkpt lat="43.19090887072393" lon="12.260707919479064"><ele>359.6666666666667</ele><time>2026-03-29T07:43:40.999Z</time></trkpt><trkpt lat="43.19100052877147" lon="12.260757488290846"><ele>357.83333333333337</ele><time>2026-03-29T07:43:41.999Z</time></trkpt><trkpt lat="43.19109218042563" lon="12.260775351722291"><ele>356.0</ele><time>2026-03-29T07:43:42.999Z</time></trkpt><trkpt lat="43.191189644278424" lon="12.260781744578205"><ele>356.0</ele><time>2026-03-29T07:43:43.999Z</time></trkpt><trkpt lat="43.1912815757613" lon="12.26080237843302"><ele>356.0</ele><time>2026-03-29T07:43:44.999Z</time></trkpt><trkpt lat="43.19135982669884" lon="12.260843030551246"><ele>356.0</ele><time>2026-03-29T07:43:45.999Z</time></trkpt><trkpt lat="43.19144566744077" lon="12.260881231444342"><ele>356.0</ele><time>2026-03-29T07:43:46.999Z</time></trkpt><trkpt lat="43.191536984636095" lon="12.260905455557925"><ele>356.0</ele><time>2026-03-29T07:43:47.999Z</time></trkpt><trkpt lat="43.191601688689225" lon="12.26089820734915"><ele>356.0</ele><time>2026-03-29T07:43:48.999Z</time></trkpt><trkpt lat="43.19170292478057" lon="12.260870520956551"><ele>356.33333333333337</ele><time>2026-03-29T07:43:49.999Z</time></trkpt><trkpt lat="43.191813358131334" lon="12.260835414564593"><ele>356.6666666666667</ele><time>2026-03-29T07:43:50.999Z</time></trkpt><trkpt lat="43.19190533458178" lon="12.260824963965552"><ele>357.0</ele><time>2026-03-29T07:43:51.999Z</time></trkpt><trkpt lat="43.19197671011438" lon="12.260821670336279"><ele>357.3333333333333</ele><time>2026-03-29T07:43:52.999Z</time></trkpt><trkpt lat="43.19205148500807" lon="12.26082150600768"><ele>357.66666666666663</ele><time>2026-03-29T07:43:54.999Z</time></trkpt><trkpt lat="43.19212618730126" lon="12.260804178579905"><ele>358.0</ele><time>2026-03-29T07:43:55.999Z</time></trkpt><trkpt lat="43.19220720916351" lon="12.26077022463015"><ele>358.0</ele><time>2026-03-29T07:43:56.999Z</time></trkpt><trkpt lat="43.1922939574886" lon="12.26073599773425"><ele>358.0</ele><time>2026-03-29T07:43:57.999Z</time></trkpt><trkpt lat="43.19240139796308" lon="12.26069163010914"><ele>358.0</ele><time>2026-03-29T07:43:58.999Z</time></trkpt><trkpt lat="43.192500376522624" lon="12.26064657894086"><ele>358.0</ele><time>2026-03-29T07:43:59.999Z</time></trkpt><trkpt lat="43.19259632104258" lon="12.260602819034082"><ele>358.0</ele><time>2026-03-29T07:44:00.999Z</time></trkpt><trkpt lat="43.19267832854057" lon="12.260573752047117"><ele>362.16666666666663</ele><time>2026-03-29T07:44:01.999Z</time></trkpt><trkpt lat="43.192774953818855" lon="12.260568297225108"><ele>366.3333333333333</ele><time>2026-03-29T07:44:02.999Z</time></trkpt><trkpt lat="43.192854557128605" lon="12.260576898173547"><ele>370.5</ele><time>2026-03-29T07:44:03.999Z</time></trkpt><trkpt lat="43.19293231172164" lon="12.260575622057742"><ele>374.6666666666667</ele><time>2026-03-29T07:44:04.999Z</time></trkpt><trkpt lat="43.19302060142176" lon="12.260562013508217"><ele>378.83333333333337</ele><time>2026-03-29T07:44:05.999Z</time></trkpt><trkpt lat="43.19310213906551" lon="12.260576718301358"><ele>383.0</ele><time>2026-03-29T07:44:06.999Z</time></trkpt><trkpt lat="43.19317094991898" lon="12.26061602333514"><ele>382.0</ele><time>2026-03-29T07:44:07.999Z</time></trkpt><trkpt lat="43.19323655362851" lon="12.260618490514716"><ele>381.0</ele><time>2026-03-29T07:44:08.999Z</time></trkpt><trkpt lat="43.19330791865185" lon="12.260580983182527"><ele>380.0</ele><time>2026-03-29T07:44:09.999Z</time></trkpt><trkpt lat="43.19337139754512" lon="12.260545884713446"><ele>379.0</ele><time>2026-03-29T07:44:10.999Z</time></trkpt><trkpt lat="43.193442735320275" lon="12.260486240892378"><ele>378.0</ele><time>2026-03-29T07:44:11.998Z</time></trkpt><trkpt lat="43.193539836910965" lon="12.260358734010154"><ele>377.0</ele><time>2026-03-29T07:44:13.998Z</time></trkpt><trkpt lat="43.19360374142928" lon="12.260277795486738"><ele>377.0</ele><time>2026-03-29T07:44:14.998Z</time></trkpt><trkpt lat="43.19368023387065" lon="12.260199289441788"><ele>377.0</ele><time>2026-03-29T07:44:16.998Z</time></trkpt><trkpt lat="43.193749507368096" lon="12.260219430448272"><ele>377.0</ele><time>2026-03-29T07:44:18.998Z</time></trkpt><trkpt lat="43.19385039220288" lon="12.260305678441595"><ele>377.0</ele><time>2026-03-29T07:44:20.999Z</time></trkpt><trkpt lat="43.193917580356576" lon="12.260313709739416"><ele>377.0</ele><time>2026-03-29T07:44:21.999Z</time></trkpt><trkpt lat="43.194021701748014" lon="12.260334543470007"><ele>376.6666666666667</ele><time>2026-03-29T07:44:22.999Z</time></trkpt><trkpt lat="43.194106023447205" lon="12.260318138860821"><ele>376.33333333333337</ele><time>2026-03-29T07:44:23.999Z</time></trkpt><trkpt lat="43.19418600898318" lon="12.260281350963952"><ele>376.0</ele><time>2026-03-29T07:44:24.999Z</time></trkpt><trkpt lat="43.1942752599036" lon="12.260201939057316"><ele>375.6666666666667</ele><time>2026-03-29T07:44:25.999Z</time></trkpt><trkpt lat="43.19434581776967" lon="12.260154177482187"><ele>375.3333333333333</ele><time>2026-03-29T07:44:26.999Z</time></trkpt><trkpt lat="43.194422073144175" lon="12.260127309814136"><ele>375.0</ele><time>2026-03-29T07:44:28Z</time></trkpt><trkpt lat="43.19452447558344" lon="12.260088121783378"><ele>375.0</ele><time>2026-03-29T07:44:30Z</time></trkpt><trkpt lat="43.19462493349602" lon="12.260070512145179"><ele>375.0</ele><time>2026-03-29T07:44:32Z</time></trkpt><trkpt lat="43.194727165880224" lon="12.260070117131885"><ele>375.0</ele><time>2026-03-29T07:44:34Z</time></trkpt><trkpt lat="43.19479037843946" lon="12.26006931747449"><ele>375.0</ele><time>2026-03-29T07:44:36Z</time></trkpt><trkpt lat="43.19488958242134" lon="12.260071140020827"><ele>375.0</ele><time>2026-03-29T07:44:38Z</time></trkpt><trkpt lat="43.19499923711372" lon="12.260087684367015"><ele>376.0</ele><time>2026-03-29T07:44:39Z</time></trkpt><trkpt lat="43.195084178392925" lon="12.260078969066715"><ele>377.0</ele><time>2026-03-29T07:44:40Z</time></trkpt><trkpt lat="43.19517025108504" lon="12.260097985266045"><ele>378.0</ele><time>2026-03-29T07:44:42Z</time></trkpt><trkpt lat="43.195268266145405" lon="12.260186200729702"><ele>379.0</ele><time>2026-03-29T07:44:44Z</time></trkpt><trkpt lat="43.19536408906347" lon="12.260250305292447"><ele>380.0</ele><time>2026-03-29T07:44:46Z</time></trkpt><trkpt lat="43.19555622384927" lon="12.260251651286081"><ele>380.0</ele><time>2026-03-29T07:44:51Z</time></trkpt><trkpt lat="43.19562546689519" lon="12.26024247018551"><ele>380.0</ele><time>2026-03-29T07:44:52Z</time></trkpt><trkpt lat="43.19568844324065" lon="12.260240428045565"><ele>380.0</ele><time>2026-03-29T07:44:52.999Z</time></trkpt><trkpt lat="43.19575277604855" lon="12.26020947597512"><ele>380.0</ele><time>2026-03-29T07:44:53.999Z</time></trkpt><trkpt lat="43.195824471173154" lon="12.260110792358766"><ele>380.0</ele><time>2026-03-29T07:44:54.999Z</time></trkpt><trkpt lat="43.19587071362998" lon="12.260044859426818"><ele>380.0</ele><time>2026-03-29T07:44:55.999Z</time></trkpt><trkpt lat="43.195910468549314" lon="12.259970096282787"><ele>380.0</ele><time>2026-03-29T07:44:56.999Z</time></trkpt><trkpt lat="43.19598861386766" lon="12.259962655238777"><ele>380.33333333333337</ele><time>2026-03-29T07:44:58.999Z</time></trkpt><trkpt lat="43.19606874642546" lon="12.259964447646412"><ele>380.6666666666667</ele><time>2026-03-29T07:45:00.999Z</time></trkpt><trkpt lat="43.19616059143485" lon="12.25995531596047"><ele>381.0</ele><time>2026-03-29T07:45:02.999Z</time></trkpt><trkpt lat="43.19624590053979" lon="12.259946041350634"><ele>381.3333333333333</ele><time>2026-03-29T07:45:03.999Z</time></trkpt><trkpt lat="43.1963312315315" lon="12.259911337453591"><ele>381.66666666666663</ele><time>2026-03-29T07:45:04.999Z</time></trkpt><trkpt lat="43.19641061719699" lon="12.259914599262206"><ele>382.0</ele><time>2026-03-29T07:45:05.999Z</time></trkpt><trkpt lat="43.1964833525794" lon="12.259929674025827"><ele>381.66666666666663</ele><time>2026-03-29T07:45:06.999Z</time></trkpt><trkpt lat="43.19653377983019" lon="12.25998759841488"><ele>381.3333333333333</ele><time>2026-03-29T07:45:07.999Z</time></trkpt><trkpt lat="43.196602637115504" lon="12.259963064474634"><ele>381.0</ele><time>2026-03-29T07:45:08.999Z</time></trkpt><trkpt lat="43.19667257650476" lon="12.260001928215143"><ele>380.6666666666667</ele><time>2026-03-29T07:45:09.999Z</time></trkpt><trkpt lat="43.196781748021415" lon="12.260039573357679"><ele>380.33333333333337</ele><time>2026-03-29T07:45:11.999Z</time></trkpt><trkpt lat="43.19684755247395" lon="12.26001499120311"><ele>380.0</ele><time>2026-03-29T07:45:12.999Z</time></trkpt><trkpt lat="43.1969164227568" lon="12.259986215116996"><ele>380.0</ele><time>2026-03-29T07:45:13.999Z</time></trkpt><trkpt lat="43.197008346844584" lon="12.259865855505723"><ele>380.0</ele><time>2026-03-29T07:45:15.999Z</time></trkpt><trkpt lat="43.19710842033035" lon="12.259859111566218"><ele>380.0</ele><time>2026-03-29T07:45:17.999Z</time></trkpt><trkpt lat="43.197158551901964" lon="12.259912034409181"><ele>380.0</ele><time>2026-03-29T07:45:18.999Z</time></trkpt><trkpt lat="43.19724683954103" lon="12.259919288360363"><ele>380.0</ele><time>2026-03-29T07:45:19.999Z</time></trkpt><trkpt lat="43.197362369652815" lon="12.259952392589485"><ele>379.6</ele><time>2026-03-29T07:45:21.999Z</time></trkpt><trkpt lat="43.197478906772425" lon="12.259968479234182"><ele>379.2</ele><time>2026-03-29T07:45:23.999Z</time></trkpt><trkpt lat="43.197547252676614" lon="12.259970193256702"><ele>378.79999999999995</ele><time>2026-03-29T07:45:24.999Z</time></trkpt><trkpt lat="43.19762915890564" lon="12.259948753286015"><ele>378.4</ele><time>2026-03-29T07:45:25.999Z</time></trkpt><trkpt lat="43.197716119573066" lon="12.259915952122943"><ele>378.0</ele><time>2026-03-29T07:45:26.999Z</time></trkpt><trkpt lat="43.197808679791734" lon="12.259914203842811"><ele>378.0</ele><time>2026-03-29T07:45:27.999Z</time></trkpt><trkpt lat="43.19788076030799" lon="12.259923189053529"><ele>378.0</ele><time>2026-03-29T07:45:28.999Z</time></trkpt><trkpt lat="43.198013785350604" lon="12.259960335955808"><ele>378.0</ele><time>2026-03-29T07:45:30.999Z</time></trkpt><trkpt lat="43.198114473870355" lon="12.259963684567712"><ele>378.0</ele><time>2026-03-29T07:45:32.999Z</time></trkpt><trkpt lat="43.19818539059392" lon="12.259965403680347"><ele>378.0</ele><time>2026-03-29T07:45:33.999Z</time></trkpt><trkpt lat="43.19825704174079" lon="12.259949673140682"><ele>378.6666666666667</ele><time>2026-03-29T07:45:34.999Z</time></trkpt><trkpt lat="43.19833155770148" lon="12.259921407716934"><ele>379.3333333333333</ele><time>2026-03-29T07:45:36.999Z</time></trkpt><trkpt lat="43.19840335237556" lon="12.259881415060663"><ele>380.0</ele><time>2026-03-29T07:45:38.999Z</time></trkpt><trkpt lat="43.19847872603987" lon="12.259871806598465"><ele>380.66666666666663</ele><time>2026-03-29T07:46:02.999Z</time></trkpt><trkpt lat="43.19854847135772" lon="12.259852936024986"><ele>381.3333333333333</ele><time>2026-03-29T07:46:23.999Z</time></trkpt><trkpt lat="43.19862475857525" lon="12.259853984583373"><ele>382.0</ele><time>2026-03-29T07:46:29Z</time></trkpt><trkpt lat="43.19871487073623" lon="12.259844689269642"><ele>382.0</ele><time>2026-03-29T07:46:35Z</time></trkpt><trkpt lat="43.1987878814884" lon="12.259831752794026"><ele>382.0</ele><time>2026-03-29T07:46:56Z</time></trkpt><trkpt lat="43.1988536218011" lon="12.259801165585698"><ele>382.0</ele><time>2026-03-29T07:47:14Z</time></trkpt><trkpt lat="43.19890980486063" lon="12.259741930047227"><ele>382.0</ele><time>2026-03-29T07:48:04.999Z</time></trkpt><trkpt lat="43.19897157729056" lon="12.259702915642475"><ele>382.0</ele><time>2026-03-29T07:48:11.999Z</time></trkpt><trkpt lat="43.19903994302427" lon="12.259672232608441"><ele>382.0</ele><time>2026-03-29T07:48:17.999Z</time></trkpt><trkpt lat="43.19910088320842" lon="12.259635086105318"><ele>382.0</ele><time>2026-03-29T07:48:40Z</time></trkpt><trkpt lat="43.19907919785674" lon="12.259532816899108"><ele>385.0</ele><time>2026-03-29T07:48:48Z</time></trkpt><trkpt lat="43.19903001446731" lon="12.259450484453973"><ele>388.0</ele><time>2026-03-29T07:48:51Z</time></trkpt><trkpt lat="43.1989530405134" lon="12.25943824208467"><ele>391.0</ele><time>2026-03-29T07:49:21Z</time></trkpt><trkpt lat="43.198910291409696" lon="12.259343950656618"><ele>394.0</ele><time>2026-03-29T07:49:23Z</time></trkpt><trkpt lat="43.19888178666544" lon="12.259256835405232"><ele>397.00000000000006</ele><time>2026-03-29T07:49:25Z</time></trkpt><trkpt lat="43.19886366284083" lon="12.259152017536922"><ele>400.0</ele><time>2026-03-29T07:49:28Z</time></trkpt><trkpt lat="43.198851987696145" lon="12.259063159116529"><ele>400.42857142857144</ele><time>2026-03-29T07:50:02.999Z</time></trkpt><trkpt lat="43.198908812091716" lon="12.258985286105839"><ele>400.8571428571429</ele><time>2026-03-29T07:51:25.999Z</time></trkpt><trkpt lat="43.19887930534945" lon="12.258888423436117"><ele>401.28571428571433</ele><time>2026-03-29T07:56:22.999Z</time></trkpt><trkpt lat="43.19887919369413" lon="12.25877480064278"><ele>401.7142857142857</ele><time>2026-03-29T07:57:32.999Z</time></trkpt><trkpt lat="43.19891428128366" lon="12.258702855412691"><ele>402.1428571428571</ele><time>2026-03-29T07:59:35.999Z</time></trkpt><trkpt lat="43.1989627384146" lon="12.258636123961027"><ele>402.5714285714286</ele><time>2026-03-29T08:02:07Z</time></trkpt><trkpt lat="43.19901527574307" lon="12.258588148034075"><ele>403.0</ele><time>2026-03-29T08:02:20Z</time></trkpt><trkpt lat="43.19903787183892" lon="12.258503999096176"><ele>405.42857142857144</ele><time>2026-03-29T08:03:20.999Z</time></trkpt><trkpt lat="43.199082034821345" lon="12.258440490665851"><ele>407.85714285714283</ele><time>2026-03-29T08:03:40Z</time></trkpt><trkpt lat="43.19914231598902" lon="12.258398742781896"><ele>410.2857142857143</ele><time>2026-03-29T08:03:44Z</time></trkpt><trkpt lat="43.199206028853766" lon="12.258393925949273"><ele>412.7142857142857</ele><time>2026-03-29T08:03:50Z</time></trkpt><trkpt lat="43.199273723858" lon="12.258340905460296"><ele>415.1428571428571</ele><time>2026-03-29T08:03:53Z</time></trkpt><trkpt lat="43.199331680754106" lon="12.25826982876931"><ele>417.57142857142856</ele><time>2026-03-29T08:03:56Z</time></trkpt><trkpt lat="43.19937229157712" lon="12.258194442895045"><ele>420.0</ele><time>2026-03-29T08:04:00Z</time></trkpt><trkpt lat="43.199408526257265" lon="12.258093165136549"><ele>423.3333333333333</ele><time>2026-03-29T08:04:04Z</time></trkpt><trkpt lat="43.19942693701075" lon="12.25799225803639"><ele>426.66666666666663</ele><time>2026-03-29T08:04:08Z</time></trkpt><trkpt lat="43.199421336856325" lon="12.257873330800717"><ele>430.0</ele><time>2026-03-29T08:04:10Z</time></trkpt><trkpt lat="43.19942677050298" lon="12.257757585330863"><ele>433.3333333333333</ele><time>2026-03-29T08:04:12Z</time></trkpt><trkpt lat="43.19941809820456" lon="12.25766786319806"><ele>436.66666666666663</ele><time>2026-03-29T08:04:14Z</time></trkpt><trkpt lat="43.19941136075056" lon="12.25754899363862"><ele>440.0</ele><time>2026-03-29T08:04:17Z</time></trkpt><trkpt lat="43.19940911104253" lon="12.25745061979237"><ele>440.0</ele><time>2026-03-29T08:04:19Z</time></trkpt><trkpt lat="43.19940667501122" lon="12.25732727725478"><ele>440.0</ele><time>2026-03-29T08:04:22Z</time></trkpt><trkpt lat="43.1993718214758" lon="12.25720779669977"><ele>440.0</ele><time>2026-03-29T08:04:24.001Z</time></trkpt><trkpt lat="43.199255782674825" lon="12.25714384436058"><ele>440.0</ele><time>2026-03-29T08:04:26.001Z</time></trkpt><trkpt lat="43.199177131882045" lon="12.257110386626378"><ele>440.0</ele><time>2026-03-29T08:04:28.001Z</time></trkpt><trkpt lat="43.19922684741307" lon="12.257051205305581"><ele>446.0</ele><time>2026-03-29T08:04:33.001Z</time></trkpt><trkpt lat="43.19929384983161" lon="12.257051784804808"><ele>452.0</ele><time>2026-03-29T08:04:35.001Z</time></trkpt><trkpt lat="43.19940249977043" lon="12.257026142834738"><ele>458.0</ele><time>2026-03-29T08:04:37.001Z</time></trkpt><trkpt lat="43.1994731121257" lon="12.257010447247827"><ele>464.0</ele><time>2026-03-29T08:04:39.001Z</time></trkpt><trkpt lat="43.19954127180805" lon="12.257000344818376"><ele>470.0</ele><time>2026-03-29T08:04:42.001Z</time></trkpt><trkpt lat="43.19967099526805" lon="12.257046536911865"><ele>469.99999999999994</ele><time>2026-03-29T08:05:43Z</time></trkpt><trkpt lat="43.19973591986798" lon="12.257049602255863"><ele>470.0</ele><time>2026-03-29T08:05:44Z</time></trkpt><trkpt lat="43.19981675094461" lon="12.257060362780647"><ele>470.0</ele><time>2026-03-29T08:05:45Z</time></trkpt><trkpt lat="43.19991414144486" lon="12.257040118246296"><ele>470.0</ele><time>2026-03-29T08:05:46Z</time></trkpt><trkpt lat="43.20000983725159" lon="12.25704667277316"><ele>469.99999999999994</ele><time>2026-03-29T08:05:47Z</time></trkpt><trkpt lat="43.20009647924162" lon="12.257084728634497"><ele>470.0</ele><time>2026-03-29T08:05:48Z</time></trkpt><trkpt lat="43.20019595800642" lon="12.257171073905292"><ele>469.6</ele><time>2026-03-29T08:05:49Z</time></trkpt><trkpt lat="43.20028446915452" lon="12.257251637338523"><ele>469.2</ele><time>2026-03-29T08:05:50Z</time></trkpt><trkpt lat="43.20037890725237" lon="12.257304529577407"><ele>468.79999999999995</ele><time>2026-03-29T08:05:51Z</time></trkpt><trkpt lat="43.20045182633868" lon="12.257333370910073"><ele>468.4</ele><time>2026-03-29T08:05:52Z</time></trkpt><trkpt lat="43.200545401090366" lon="12.257332930058864"><ele>468.0</ele><time>2026-03-29T08:05:53Z</time></trkpt><trkpt lat="43.20063543243713" lon="12.257315118784252"><ele>465.4</ele><time>2026-03-29T08:05:54Z</time></trkpt><trkpt lat="43.20074109131242" lon="12.257273329615803"><ele>462.79999999999995</ele><time>2026-03-29T08:05:55Z</time></trkpt><trkpt lat="43.20084489315991" lon="12.257216280862647"><ele>460.2</ele><time>2026-03-29T08:05:56Z</time></trkpt><trkpt lat="43.20091459918998" lon="12.257137744237244"><ele>457.6</ele><time>2026-03-29T08:05:57Z</time></trkpt><trkpt lat="43.20098105811859" lon="12.257066502294935"><ele>455.0</ele><time>2026-03-29T08:05:58Z</time></trkpt><trkpt lat="43.20106202959073" lon="12.257013504991587"><ele>455.0</ele><time>2026-03-29T08:05:59Z</time></trkpt><trkpt lat="43.20113002654599" lon="12.2569989403842"><ele>455.0</ele><time>2026-03-29T08:06:00Z</time></trkpt><trkpt lat="43.20119711514995" lon="12.256977755181198"><ele>455.0</ele><time>2026-03-29T08:06:02Z</time></trkpt><trkpt lat="43.20124945792294" lon="12.256920054970315"><ele>455.0</ele><time>2026-03-29T08:06:10.001Z</time></trkpt><trkpt lat="43.20119430261026" lon="12.256998151884188"><ele>455.0</ele><time>2026-03-29T08:06:30.001Z</time></trkpt><trkpt lat="43.20118563505207" lon="12.256891780280238"><ele>455.0</ele><time>2026-03-29T08:06:34.001Z</time></trkpt><trkpt lat="43.201225426099995" lon="12.256787798183206"><ele>455.0</ele><time>2026-03-29T08:06:39.001Z</time></trkpt><trkpt lat="43.201263561766" lon="12.256676588745886"><ele>455.0</ele><time>2026-03-29T08:06:42.001Z</time></trkpt><trkpt lat="43.20131008540215" lon="12.256569109000555"><ele>455.0</ele><time>2026-03-29T08:06:45.001Z</time></trkpt><trkpt lat="43.20137501034983" lon="12.256511244358368"><ele>455.0</ele><time>2026-03-29T08:06:52.001Z</time></trkpt><trkpt lat="43.20146101492026" lon="12.256481282687883"><ele>455.0</ele><time>2026-03-29T08:06:55.001Z</time></trkpt><trkpt lat="43.20155021944328" lon="12.256468790518"><ele>455.0</ele><time>2026-03-29T08:07:08.002Z</time></trkpt><trkpt lat="43.201664122054424" lon="12.256492527170415"><ele>452.49999999999994</ele><time>2026-03-29T08:07:10.002Z</time></trkpt><trkpt lat="43.201742289906484" lon="12.25649298358823"><ele>450.0</ele><time>2026-03-29T08:07:11.002Z</time></trkpt><trkpt lat="43.20180937223477" lon="12.256546397907885"><ele>447.5</ele><time>2026-03-29T08:07:13.002Z</time></trkpt><trkpt lat="43.201864866079006" lon="12.256615837648427"><ele>445.0</ele><time>2026-03-29T08:07:14.002Z</time></trkpt><trkpt lat="43.20193596761376" lon="12.256669339221718"><ele>442.49999999999994</ele><time>2026-03-29T08:07:15.002Z</time></trkpt><trkpt lat="43.20200508571213" lon="12.256669119685872"><ele>440.0</ele><time>2026-03-29T08:07:16.002Z</time></trkpt><trkpt lat="43.20210076013334" lon="12.25664254803519"><ele>440.0</ele><time>2026-03-29T08:07:17.002Z</time></trkpt><trkpt lat="43.20216220034138" lon="12.256621596144551"><ele>440.0</ele><time>2026-03-29T08:07:18.002Z</time></trkpt><trkpt lat="43.20224640492122" lon="12.256599267257952"><ele>440.0</ele><time>2026-03-29T08:07:20.002Z</time></trkpt><trkpt lat="43.20230891487248" lon="12.25670343459786"><ele>440.0</ele><time>2026-03-29T08:07:23.002Z</time></trkpt><trkpt lat="43.20229245150742" lon="12.256859618251639"><ele>440.0</ele><time>2026-03-29T08:07:25.002Z</time></trkpt><trkpt lat="43.20227103187812" lon="12.256980744310116"><ele>439.99999999999994</ele><time>2026-03-29T08:07:27Z</time></trkpt><trkpt lat="43.20232525730343" lon="12.257053669175413"><ele>440.0</ele><time>2026-03-29T08:07:29Z</time></trkpt><trkpt lat="43.202397439040155" lon="12.257027521970837"><ele>440.0</ele><time>2026-03-29T08:07:31Z</time></trkpt><trkpt lat="43.20244386167152" lon="12.256964450910088"><ele>440.0</ele><time>2026-03-29T08:07:32Z</time></trkpt><trkpt lat="43.20248180088096" lon="12.25686462991992"><ele>439.99999999999994</ele><time>2026-03-29T08:07:33Z</time></trkpt><trkpt lat="43.20252055542483" lon="12.256728314446855"><ele>440.0</ele><time>2026-03-29T08:07:35Z</time></trkpt><trkpt lat="43.20254394073944" lon="12.256555079239655"><ele>441.4</ele><time>2026-03-29T08:07:37Z</time></trkpt><trkpt lat="43.202662875992374" lon="12.256494675043703"><ele>442.8</ele><time>2026-03-29T08:07:40Z</time></trkpt><trkpt lat="43.202739948570674" lon="12.25648572416677"><ele>444.20000000000005</ele><time>2026-03-29T08:07:41Z</time></trkpt><trkpt lat="43.202805993178856" lon="12.256461828656343"><ele>445.6</ele><time>2026-03-29T08:07:42Z</time></trkpt><trkpt lat="43.2028951652425" lon="12.25639987321348"><ele>447.0</ele><time>2026-03-29T08:07:44Z</time></trkpt><trkpt lat="43.2029297437258" lon="12.256518447128451"><ele>444.5</ele><time>2026-03-29T08:07:47Z</time></trkpt><trkpt lat="43.202895045321505" lon="12.256631412152336"><ele>442.0</ele><time>2026-03-29T08:07:49Z</time></trkpt><trkpt lat="43.202873430831104" lon="12.256715737155501"><ele>439.5</ele><time>2026-03-29T08:07:50Z</time></trkpt><trkpt lat="43.202852190937435" lon="12.256815898335477"><ele>437.0</ele><time>2026-03-29T08:07:52Z</time></trkpt><trkpt lat="43.202794276272236" lon="12.256918636051834"><ele>434.5</ele><time>2026-03-29T08:07:54Z</time></trkpt><trkpt lat="43.20281493096264" lon="12.257026495393765"><ele>432.0</ele><time>2026-03-29T08:07:55Z</time></trkpt><trkpt lat="43.20284735710908" lon="12.257221504710412"><ele>430.6</ele><time>2026-03-29T08:07:56Z</time></trkpt><trkpt lat="43.202867865866345" lon="12.257361241418945"><ele>429.20000000000005</ele><time>2026-03-29T08:07:57Z</time></trkpt><trkpt lat="43.20286775013394" lon="12.257502803119843"><ele>427.8</ele><time>2026-03-29T08:07:58Z</time></trkpt><trkpt lat="43.20290263129026" lon="12.257618799255802"><ele>426.4</ele><time>2026-03-29T08:07:59Z</time></trkpt><trkpt lat="43.20295837442234" lon="12.25769868503308"><ele>425.0</ele><time>2026-03-29T08:08:00Z</time></trkpt><trkpt lat="43.203034855387294" lon="12.257784019872416"><ele>424.99999999999994</ele><time>2026-03-29T08:08:02Z</time></trkpt><trkpt lat="43.20306093768462" lon="12.257864662619587"><ele>425.0</ele><time>2026-03-29T08:08:04Z</time></trkpt><trkpt lat="43.20307000225109" lon="12.25797724659858"><ele>425.0</ele><time>2026-03-29T08:08:06Z</time></trkpt><trkpt lat="43.203118216304105" lon="12.258110257875376"><ele>425.0</ele><time>2026-03-29T08:08:08.001Z</time></trkpt><trkpt lat="43.203136404494" lon="12.258219361320235"><ele>424.99999999999994</ele><time>2026-03-29T08:08:10.001Z</time></trkpt><trkpt lat="43.203176909964164" lon="12.258320694076987"><ele>425.0</ele><time>2026-03-29T08:08:11.001Z</time></trkpt><trkpt lat="43.20319352470826" lon="12.258438630926271"><ele>424.8333333333333</ele><time>2026-03-29T08:08:12.001Z</time></trkpt><trkpt lat="43.20321218018408" lon="12.258541479236387"><ele>424.66666666666663</ele><time>2026-03-29T08:08:13.001Z</time></trkpt><trkpt lat="43.203186626192526" lon="12.258664887589408"><ele>424.5</ele><time>2026-03-29T08:08:14.001Z</time></trkpt><trkpt lat="43.20315086723345" lon="12.258778087694292"><ele>424.33333333333337</ele><time>2026-03-29T08:08:16.001Z</time></trkpt><trkpt lat="43.20304024846334" lon="12.258825231095736"><ele>424.1666666666667</ele><time>2026-03-29T08:08:18.001Z</time></trkpt><trkpt lat="43.203033001192594" lon="12.258923176192926"><ele>424.0</ele><time>2026-03-29T08:08:27.001Z</time></trkpt><trkpt lat="43.20309413446026" lon="12.258964982820427"><ele>428.33333333333337</ele><time>2026-03-29T08:08:32.001Z</time></trkpt><trkpt lat="43.20319194871593" lon="12.258976565468576"><ele>432.6666666666667</ele><time>2026-03-29T08:08:34.001Z</time></trkpt><trkpt lat="43.20326261204953" lon="12.25904858403601"><ele>437.0</ele><time>2026-03-29T08:08:36.001Z</time></trkpt><trkpt lat="43.20325527148031" lon="12.259158809517986"><ele>441.33333333333337</ele><time>2026-03-29T08:08:38.001Z</time></trkpt><trkpt lat="43.20317138324542" lon="12.259177778590603"><ele>445.6666666666667</ele><time>2026-03-29T08:08:40.001Z</time></trkpt><trkpt lat="43.203079335266615" lon="12.259137669291755"><ele>450.0</ele><time>2026-03-29T08:08:42.001Z</time></trkpt><trkpt lat="43.20301859397895" lon="12.259179531322797"><ele>450.0</ele><time>2026-03-29T08:08:43.001Z</time></trkpt><trkpt lat="43.2029652597861" lon="12.259265173151165"><ele>450.0</ele><time>2026-03-29T08:08:45.001Z</time></trkpt><trkpt lat="43.20286110988876" lon="12.259345039823756"><ele>450.0</ele><time>2026-03-29T08:08:47.001Z</time></trkpt><trkpt lat="43.20277570547608" lon="12.259403579283049"><ele>450.0</ele><time>2026-03-29T08:08:48.001Z</time></trkpt><trkpt lat="43.20266490250808" lon="12.259430090893808"><ele>450.0</ele><time>2026-03-29T08:08:49.001Z</time></trkpt><trkpt lat="43.2025886601787" lon="12.259450599467927"><ele>450.0</ele><time>2026-03-29T08:08:50.001Z</time></trkpt><trkpt lat="43.202536616688555" lon="12.259500156206443"><ele>450.0</ele><time>2026-03-29T08:08:51.001Z</time></trkpt><trkpt lat="43.20249794890266" lon="12.259582175226369"><ele>450.0</ele><time>2026-03-29T08:08:52.001Z</time></trkpt><trkpt lat="43.20244959870158" lon="12.25971027368715"><ele>450.0</ele><time>2026-03-29T08:08:53.001Z</time></trkpt><trkpt lat="43.202370722658465" lon="12.259733207799812"><ele>450.0</ele><time>2026-03-29T08:08:55.001Z</time></trkpt><trkpt lat="43.20229647693422" lon="12.259836781090007"><ele>450.0</ele><time>2026-03-29T08:08:57.001Z</time></trkpt><trkpt lat="43.20222735791846" lon="12.259931150896966"><ele>451.8</ele><time>2026-03-29T08:08:59.001Z</time></trkpt><trkpt lat="43.20213505313718" lon="12.259984406448426"><ele>453.6</ele><time>2026-03-29T08:09:00.001Z</time></trkpt><trkpt lat="43.20207090180913" lon="12.260045775681673"><ele>455.4</ele><time>2026-03-29T08:09:01.001Z</time></trkpt><trkpt lat="43.202028191670856" lon="12.260140498431225"><ele>457.2</ele><time>2026-03-29T08:09:03.001Z</time></trkpt><trkpt lat="43.202106811501665" lon="12.260194384518993"><ele>459.0</ele><time>2026-03-29T08:09:05.001Z</time></trkpt><trkpt lat="43.20221513382085" lon="12.260193687235848"><ele>459.0</ele><time>2026-03-29T08:09:07.001Z</time></trkpt><trkpt lat="43.202293916413076" lon="12.260228929855916"><ele>459.0</ele><time>2026-03-29T08:09:09.002Z</time></trkpt><trkpt lat="43.20236170566363" lon="12.260193688588224"><ele>459.0</ele><time>2026-03-29T08:09:11.002Z</time></trkpt><trkpt lat="43.20243931459218" lon="12.260235988233928"><ele>459.0</ele><time>2026-03-29T08:09:12.002Z</time></trkpt><trkpt lat="43.20254423881998" lon="12.260287800641821"><ele>459.0</ele><time>2026-03-29T08:09:14.002Z</time></trkpt><trkpt lat="43.20263574212801" lon="12.260311895975528"><ele>459.0</ele><time>2026-03-29T08:09:16.002Z</time></trkpt><trkpt lat="43.20267800046867" lon="12.260377410483553"><ele>462.5</ele><time>2026-03-29T08:09:18.002Z</time></trkpt><trkpt lat="43.20275111660875" lon="12.260441664432669"><ele>466.0</ele><time>2026-03-29T08:09:20.002Z</time></trkpt><trkpt lat="43.20280627592268" lon="12.26049086522882"><ele>469.5</ele><time>2026-03-29T08:09:21.002Z</time></trkpt><trkpt lat="43.20287006690512" lon="12.260642670173478"><ele>473.0</ele><time>2026-03-29T08:09:23.002Z</time></trkpt><trkpt lat="43.202919334041205" lon="12.260714855671804"><ele>476.5</ele><time>2026-03-29T08:09:24.002Z</time></trkpt><trkpt lat="43.20298331908951" lon="12.260789729037489"><ele>480.0</ele><time>2026-03-29T08:09:27.002Z</time></trkpt><trkpt lat="43.20308387529552" lon="12.260852380544508"><ele>484.6666666666667</ele><time>2026-03-29T08:09:29.002Z</time></trkpt><trkpt lat="43.203168677993084" lon="12.260930233983517"><ele>489.33333333333337</ele><time>2026-03-29T08:09:30.002Z</time></trkpt><trkpt lat="43.203228792084985" lon="12.26098396553391"><ele>494.0</ele><time>2026-03-29T08:09:31.002Z</time></trkpt><trkpt lat="43.203295116961954" lon="12.260982008964291"><ele>498.6666666666667</ele><time>2026-03-29T08:09:32.002Z</time></trkpt><trkpt lat="43.20337299232922" lon="12.261021979928575"><ele>503.33333333333337</ele><time>2026-03-29T08:09:33Z</time></trkpt><trkpt lat="43.20343816945654" lon="12.261066626792752"><ele>508.0</ele><time>2026-03-29T08:09:34Z</time></trkpt><trkpt lat="43.20349855707839" lon="12.261095661419088"><ele>508.00000000000006</ele><time>2026-03-29T08:09:35Z</time></trkpt><trkpt lat="43.203589587215724" lon="12.261119894874506"><ele>508.0</ele><time>2026-03-29T08:09:37Z</time></trkpt><trkpt lat="43.20366587507651" lon="12.26111846910271"><ele>508.0</ele><time>2026-03-29T08:09:39Z</time></trkpt><trkpt lat="43.20372863394623" lon="12.26116265524842"><ele>508.0</ele><time>2026-03-29T08:09:40Z</time></trkpt><trkpt lat="43.20381162268613" lon="12.261290093439847"><ele>508.00000000000006</ele><time>2026-03-29T08:09:42Z</time></trkpt><trkpt lat="43.20383793223393" lon="12.261390083081794"><ele>508.0</ele><time>2026-03-29T08:09:43Z</time></trkpt><trkpt lat="43.20387890393147" lon="12.2614947470541"><ele>506.2</ele><time>2026-03-29T08:09:44Z</time></trkpt><trkpt lat="43.20392540760843" lon="12.26159375661975"><ele>504.4</ele><time>2026-03-29T08:09:45Z</time></trkpt><trkpt lat="43.2040149986006" lon="12.261685509969439"><ele>502.59999999999997</ele><time>2026-03-29T08:09:47Z</time></trkpt><trkpt lat="43.20409267893894" lon="12.261752812486137"><ele>500.79999999999995</ele><time>2026-03-29T08:09:49Z</time></trkpt><trkpt lat="43.20416440262659" lon="12.261831639735668"><ele>499.0</ele><time>2026-03-29T08:09:51Z</time></trkpt><trkpt lat="43.20424784456197" lon="12.261889600588633"><ele>502.1666666666667</ele><time>2026-03-29T08:09:54Z</time></trkpt><trkpt lat="43.204309510373605" lon="12.261915771598403"><ele>505.33333333333337</ele><time>2026-03-29T08:09:55Z</time></trkpt><trkpt lat="43.204428397387844" lon="12.261927710856863"><ele>508.5</ele><time>2026-03-29T08:09:57Z</time></trkpt><trkpt lat="43.20451194755917" lon="12.261966838018242"><ele>511.66666666666663</ele><time>2026-03-29T08:09:59Z</time></trkpt><trkpt lat="43.204578452696055" lon="12.261995181006307"><ele>514.8333333333333</ele><time>2026-03-29T08:10:00Z</time></trkpt><trkpt lat="43.20466057206214" lon="12.262090532807903"><ele>518.0</ele><time>2026-03-29T08:10:02Z</time></trkpt><trkpt lat="43.20472439169812" lon="12.262200562993945"><ele>516.1666666666666</ele><time>2026-03-29T08:10:04Z</time></trkpt><trkpt lat="43.20479321052246" lon="12.262326078206613"><ele>514.3333333333333</ele><time>2026-03-29T08:10:06Z</time></trkpt><trkpt lat="43.204866454983154" lon="12.262350343988363"><ele>512.5</ele><time>2026-03-29T08:10:07Z</time></trkpt><trkpt lat="43.20492010892259" lon="12.26243520020301"><ele>510.66666666666663</ele><time>2026-03-29T08:10:09Z</time></trkpt><trkpt lat="43.20498996344479" lon="12.262500815518715"><ele>508.8333333333333</ele><time>2026-03-29T08:10:11Z</time></trkpt><trkpt lat="43.20505109417617" lon="12.262537299950717"><ele>507.0</ele><time>2026-03-29T08:10:12Z</time></trkpt><trkpt lat="43.20511974517892" lon="12.262554159775014"><ele>511.40000000000003</ele><time>2026-03-29T08:10:13Z</time></trkpt><trkpt lat="43.205190242923635" lon="12.26258141356018"><ele>515.8000000000001</ele><time>2026-03-29T08:10:14Z</time></trkpt><trkpt lat="43.20525985746177" lon="12.262605580996949"><ele>520.2</ele><time>2026-03-29T08:10:15Z</time></trkpt><trkpt lat="43.20536445869707" lon="12.262688784571065"><ele>524.6</ele><time>2026-03-29T08:10:17.001Z</time></trkpt><trkpt lat="43.205418218059734" lon="12.262742087634576"><ele>529.0</ele><time>2026-03-29T08:10:18.001Z</time></trkpt><trkpt lat="43.20544550542357" lon="12.262901389378845"><ele>529.0</ele><time>2026-03-29T08:10:20.001Z</time></trkpt><trkpt lat="43.20551218896556" lon="12.263011964189094"><ele>529.0</ele><time>2026-03-29T08:10:22.001Z</time></trkpt><trkpt lat="43.20560464108665" lon="12.263127959667509"><ele>529.0</ele><time>2026-03-29T08:10:24.001Z</time></trkpt><trkpt lat="43.20566983066272" lon="12.263171862305875"><ele>529.0</ele><time>2026-03-29T08:10:26.001Z</time></trkpt><trkpt lat="43.20573944140534" lon="12.263286640880269"><ele>529.0</ele><time>2026-03-29T08:10:30.001Z</time></trkpt><trkpt lat="43.2057970094156" lon="12.26335248912937"><ele>531.4</ele><time>2026-03-29T08:10:31.001Z</time></trkpt><trkpt lat="43.20585867853083" lon="12.263388570407454"><ele>533.8</ele><time>2026-03-29T08:10:32.001Z</time></trkpt><trkpt lat="43.20595368030256" lon="12.263444815387016"><ele>536.2</ele><time>2026-03-29T08:10:34.001Z</time></trkpt><trkpt lat="43.2060296309621" lon="12.26354387455662"><ele>538.6</ele><time>2026-03-29T08:10:36.001Z</time></trkpt><trkpt lat="43.20609591954239" lon="12.263599252800242"><ele>541.0</ele><time>2026-03-29T08:10:38.001Z</time></trkpt><trkpt lat="43.206195069444064" lon="12.263630865729631"><ele>541.0</ele><time>2026-03-29T08:10:41.001Z</time></trkpt><trkpt lat="43.206288839280376" lon="12.263767869550657"><ele>541.0</ele><time>2026-03-29T08:10:43.001Z</time></trkpt><trkpt lat="43.20634361016759" lon="12.26385396254138"><ele>541.0</ele><time>2026-03-29T08:10:44.001Z</time></trkpt><trkpt lat="43.20640213532602" lon="12.263923901060306"><ele>541.0</ele><time>2026-03-29T08:10:45.001Z</time></trkpt><trkpt lat="43.20644191913583" lon="12.264005333407495"><ele>541.0</ele><time>2026-03-29T08:10:46.001Z</time></trkpt><trkpt lat="43.20648825978762" lon="12.264085146185234"><ele>541.0</ele><time>2026-03-29T08:10:47.001Z</time></trkpt><trkpt lat="43.206535814133" lon="12.264160069533489"><ele>542.6</ele><time>2026-03-29T08:10:48.001Z</time></trkpt><trkpt lat="43.20657445337067" lon="12.264235876528717"><ele>544.2</ele><time>2026-03-29T08:10:49.001Z</time></trkpt><trkpt lat="43.20658812265118" lon="12.264381449318911"><ele>545.8</ele><time>2026-03-29T08:10:51.001Z</time></trkpt><trkpt lat="43.206575961431824" lon="12.264545558990847"><ele>547.4</ele><time>2026-03-29T08:10:53.001Z</time></trkpt><trkpt lat="43.20653560849802" lon="12.264699217150977"><ele>549.0</ele><time>2026-03-29T08:10:55.001Z</time></trkpt><trkpt lat="43.206469963250015" lon="12.264750969311836"><ele>547.2</ele><time>2026-03-29T08:10:57.001Z</time></trkpt><trkpt lat="43.20641678863684" lon="12.264810874433246"><ele>545.4</ele><time>2026-03-29T08:11:02.001Z</time></trkpt><trkpt lat="43.206496427283945" lon="12.264992156901661"><ele>543.6</ele><time>2026-03-29T08:11:04.001Z</time></trkpt><trkpt lat="43.20659406254057" lon="12.265066112845494"><ele>541.8</ele><time>2026-03-29T08:11:06.001Z</time></trkpt><trkpt lat="43.206661103436474" lon="12.26508969910316"><ele>540.0</ele><time>2026-03-29T08:11:07.001Z</time></trkpt><trkpt lat="43.206731506172105" lon="12.265108047393753"><ele>540.0</ele><time>2026-03-29T08:11:08.001Z</time></trkpt><trkpt lat="43.206823597043964" lon="12.265111553845495"><ele>540.0</ele><time>2026-03-29T08:11:09.001Z</time></trkpt><trkpt lat="43.2069386159642" lon="12.26511218507754"><ele>540.0</ele><time>2026-03-29T08:11:10.001Z</time></trkpt><trkpt lat="43.20705568031423" lon="12.265037770841284"><ele>540.0</ele><time>2026-03-29T08:11:11.001Z</time></trkpt><trkpt lat="43.207152708075306" lon="12.264970368224118"><ele>540.0</ele><time>2026-03-29T08:11:12.001Z</time></trkpt><trkpt lat="43.207233147347424" lon="12.26492863846041"><ele>540.0</ele><time>2026-03-29T08:11:13.001Z</time></trkpt><trkpt lat="43.207292596669845" lon="12.264859460712259"><ele>540.0</ele><time>2026-03-29T08:11:14.001Z</time></trkpt><trkpt lat="43.20734666856567" lon="12.264784992818816"><ele>540.0</ele><time>2026-03-29T08:11:15.001Z</time></trkpt><trkpt lat="43.20740911101854" lon="12.264701153522978"><ele>540.0</ele><time>2026-03-29T08:11:16.001Z</time></trkpt><trkpt lat="43.20747130559552" lon="12.264614117774238"><ele>540.0</ele><time>2026-03-29T08:11:17.001Z</time></trkpt><trkpt lat="43.207586763990896" lon="12.264607091705967"><ele>540.0</ele><time>2026-03-29T08:11:18.002Z</time></trkpt><trkpt lat="43.20772945535338" lon="12.264582985047321"><ele>541.3333333333334</ele><time>2026-03-29T08:11:19.002Z</time></trkpt><trkpt lat="43.20788617589315" lon="12.264518262849466"><ele>542.6666666666667</ele><time>2026-03-29T08:11:20.002Z</time></trkpt><trkpt lat="43.20804435586342" lon="12.264426219778128"><ele>544.0</ele><time>2026-03-29T08:11:21.002Z</time></trkpt><trkpt lat="43.208199862036004" lon="12.264350744948732"><ele>544.0</ele><time>2026-03-29T08:11:22.002Z</time></trkpt><trkpt lat="43.208327349872114" lon="12.26433277052373"><ele>544.0</ele><time>2026-03-29T08:11:23.002Z</time></trkpt><trkpt lat="43.20846720342017" lon="12.264337859259957"><ele>544.0</ele><time>2026-03-29T08:11:24.002Z</time></trkpt><trkpt lat="43.20863299628277" lon="12.26433891379555"><ele>544.0</ele><time>2026-03-29T08:11:25.002Z</time></trkpt><trkpt lat="43.20880532503185" lon="12.264317809326268"><ele>546.6666666666667</ele><time>2026-03-29T08:11:26.002Z</time></trkpt><trkpt lat="43.20899783879441" lon="12.264320335288884"><ele>549.3333333333334</ele><time>2026-03-29T08:11:27.002Z</time></trkpt><trkpt lat="43.20915856952685" lon="12.264316415423206"><ele>552.0</ele><time>2026-03-29T08:11:28.002Z</time></trkpt><trkpt lat="43.209294967150605" lon="12.264344442777544"><ele>552.0</ele><time>2026-03-29T08:11:29.002Z</time></trkpt><trkpt lat="43.20941471682474" lon="12.264333531239009"><ele>552.0</ele><time>2026-03-29T08:11:30.002Z</time></trkpt><trkpt lat="43.20953486546875" lon="12.264344450504879"><ele>552.0</ele><time>2026-03-29T08:11:31.002Z</time></trkpt><trkpt lat="43.20967212099938" lon="12.264344021684998"><ele>552.0</ele><time>2026-03-29T08:11:32.002Z</time></trkpt><trkpt lat="43.209791598860484" lon="12.264335147763646"><ele>552.6</ele><time>2026-03-29T08:11:33.002Z</time></trkpt><trkpt lat="43.20985162008991" lon="12.264363363067396"><ele>553.2</ele><time>2026-03-29T08:11:34.002Z</time></trkpt><trkpt lat="43.20997640852157" lon="12.264456608731802"><ele>553.8</ele><time>2026-03-29T08:11:36.002Z</time></trkpt><trkpt lat="43.21003168297223" lon="12.2645899435746"><ele>554.4</ele><time>2026-03-29T08:11:37.002Z</time></trkpt><trkpt lat="43.21007332664226" lon="12.2646760534237"><ele>555.0</ele><time>2026-03-29T08:11:38.002Z</time></trkpt><trkpt lat="43.21012318308084" lon="12.264775053689315"><ele>555.0</ele><time>2026-03-29T08:11:40Z</time></trkpt><trkpt lat="43.21018210840142" lon="12.264871439480839"><ele>555.0</ele><time>2026-03-29T08:11:47Z</time></trkpt><trkpt lat="43.210516865906946" lon="12.264739146532381"><ele>555.0</ele><time>2026-03-29T08:11:50Z</time></trkpt><trkpt lat="43.21058817109017" lon="12.264738221755948"><ele>556.0</ele><time>2026-03-29T08:11:51Z</time></trkpt><trkpt lat="43.21067666979252" lon="12.264733420521313"><ele>557.0</ele><time>2026-03-29T08:11:52Z</time></trkpt><trkpt lat="43.210764531801175" lon="12.26475896379844"><ele>558.0</ele><time>2026-03-29T08:11:53Z</time></trkpt><trkpt lat="43.2108401550356" lon="12.264790155297701"><ele>559.0</ele><time>2026-03-29T08:11:54Z</time></trkpt><trkpt lat="43.21094538192506" lon="12.264817485959208"><ele>560.0</ele><time>2026-03-29T08:11:56Z</time></trkpt><trkpt lat="43.211035341030126" lon="12.264813330002902"><ele>560.0</ele><time>2026-03-29T08:11:57Z</time></trkpt><trkpt lat="43.21112340281877" lon="12.264830865897622"><ele>560.0</ele><time>2026-03-29T08:11:58Z</time></trkpt><trkpt lat="43.21119813552018" lon="12.26482278005461"><ele>560.0</ele><time>2026-03-29T08:11:59Z</time></trkpt><trkpt lat="43.21128774783377" lon="12.264717326970706"><ele>560.0</ele><time>2026-03-29T08:12:01Z</time></trkpt><trkpt lat="43.21132582969396" lon="12.264603224651085"><ele>560.0</ele><time>2026-03-29T08:12:02Z</time></trkpt><trkpt lat="43.211354311949194" lon="12.26449699121921"><ele>560.0</ele><time>2026-03-29T08:12:03Z</time></trkpt><trkpt lat="43.211471779908294" lon="12.264416095766647"><ele>560.0</ele><time>2026-03-29T08:12:05Z</time></trkpt><trkpt lat="43.211555495890416" lon="12.264432062452345"><ele>560.0</ele><time>2026-03-29T08:12:06Z</time></trkpt><trkpt lat="43.21160299338593" lon="12.264500627970426"><ele>560.0</ele><time>2026-03-29T08:12:07Z</time></trkpt><trkpt lat="43.21166157938124" lon="12.264550047954375"><ele>560.0</ele><time>2026-03-29T08:12:08Z</time></trkpt><trkpt lat="43.21173923448395" lon="12.264610929624464"><ele>560.0</ele><time>2026-03-29T08:12:09Z</time></trkpt><trkpt lat="43.211807389627424" lon="12.264642194069197"><ele>559.4</ele><time>2026-03-29T08:12:10Z</time></trkpt><trkpt lat="43.211918026959125" lon="12.264630436018836"><ele>558.8</ele><time>2026-03-29T08:12:11Z</time></trkpt><trkpt lat="43.212005931271314" lon="12.264606100982325"><ele>558.2</ele><time>2026-03-29T08:12:12Z</time></trkpt><trkpt lat="43.212125752430936" lon="12.264609013575726"><ele>557.6</ele><time>2026-03-29T08:12:14Z</time></trkpt><trkpt lat="43.21218818262617" lon="12.26462282700277"><ele>557.0</ele><time>2026-03-29T08:12:17Z</time></trkpt><trkpt lat="43.21227879884303" lon="12.264620059321595"><ele>555.8000000000001</ele><time>2026-03-29T08:12:21Z</time></trkpt><trkpt lat="43.21242002716674" lon="12.264627349770052"><ele>554.6</ele><time>2026-03-29T08:12:23Z</time></trkpt><trkpt lat="43.21248083107865" lon="12.264585747398803"><ele>553.4000000000001</ele><time>2026-03-29T08:12:24Z</time></trkpt><trkpt lat="43.212539969681686" lon="12.264499745434936"><ele>552.2</ele><time>2026-03-29T08:12:25Z</time></trkpt><trkpt lat="43.21261142119238" lon="12.264406325194978"><ele>551.0</ele><time>2026-03-29T08:12:26Z</time></trkpt><trkpt lat="43.21270867783062" lon="12.264330825837686"><ele>551.0</ele><time>2026-03-29T08:12:27.001Z</time></trkpt><trkpt lat="43.21280838565384" lon="12.264313377239471"><ele>551.0</ele><time>2026-03-29T08:12:28.001Z</time></trkpt><trkpt lat="43.21287241428638" lon="12.264303228398845"><ele>551.0</ele><time>2026-03-29T08:12:29.001Z</time></trkpt><trkpt lat="43.212952315094626" lon="12.264302287672209"><ele>551.0</ele><time>2026-03-29T08:12:31.001Z</time></trkpt><trkpt lat="43.21302208671823" lon="12.264295327542738"><ele>551.0</ele><time>2026-03-29T08:12:32.001Z</time></trkpt><trkpt lat="43.213118587245475" lon="12.264320051115485"><ele>551.0</ele><time>2026-03-29T08:12:33.001Z</time></trkpt><trkpt lat="43.2132227479974" lon="12.264357024639454"><ele>547.4</ele><time>2026-03-29T08:12:34.001Z</time></trkpt><trkpt lat="43.213306865070535" lon="12.264398188732162"><ele>543.8</ele><time>2026-03-29T08:12:35.001Z</time></trkpt><trkpt lat="43.21340841826858" lon="12.264325459338638"><ele>540.1999999999999</ele><time>2026-03-29T08:12:37.001Z</time></trkpt><trkpt lat="43.21349116554123" lon="12.264204624875354"><ele>536.6</ele><time>2026-03-29T08:12:39.001Z</time></trkpt><trkpt lat="43.213522162340205" lon="12.264097967555838"><ele>533.0</ele><time>2026-03-29T08:12:41.001Z</time></trkpt><trkpt lat="43.21351776002027" lon="12.263909957315237"><ele>532.1999999999999</ele><time>2026-03-29T08:12:43.001Z</time></trkpt><trkpt lat="43.21349829952926" lon="12.26376967632898"><ele>531.4</ele><time>2026-03-29T08:12:44.001Z</time></trkpt><trkpt lat="43.213479605973404" lon="12.26362744114912"><ele>530.5999999999999</ele><time>2026-03-29T08:12:45.001Z</time></trkpt><trkpt lat="43.213498627707814" lon="12.263479401615866"><ele>529.8</ele><time>2026-03-29T08:12:46.001Z</time></trkpt><trkpt lat="43.21351610143195" lon="12.263346471334625"><ele>529.0</ele><time>2026-03-29T08:12:47.001Z</time></trkpt><trkpt lat="43.21352563008998" lon="12.263259824996398"><ele>529.0</ele><time>2026-03-29T08:12:48.001Z</time></trkpt><trkpt lat="43.213495001080254" lon="12.263148736574722"><ele>529.0</ele><time>2026-03-29T08:12:50.001Z</time></trkpt><trkpt lat="43.213434833766506" lon="12.26307513880693"><ele>529.0</ele><time>2026-03-29T08:12:51.001Z</time></trkpt><trkpt lat="43.213370233842475" lon="12.26298378575098"><ele>529.0</ele><time>2026-03-29T08:12:52.001Z</time></trkpt><trkpt lat="43.21332962054839" lon="12.262913542331933"><ele>529.0</ele><time>2026-03-29T08:12:53.001Z</time></trkpt><trkpt lat="43.21325480414947" lon="12.262835467487918"><ele>529.0</ele><time>2026-03-29T08:12:55.001Z</time></trkpt><trkpt lat="43.21331579538263" lon="12.262688261647657"><ele>528.5</ele><time>2026-03-29T08:12:57.001Z</time></trkpt><trkpt lat="43.2133776525708" lon="12.262611841042798"><ele>528.0</ele><time>2026-03-29T08:12:58.001Z</time></trkpt><trkpt lat="43.21343367072141" lon="12.2625413357476"><ele>527.5</ele><time>2026-03-29T08:13:00.001Z</time></trkpt><trkpt lat="43.213458310494" lon="12.26243113854647"><ele>527.0</ele><time>2026-03-29T08:13:01.001Z</time></trkpt><trkpt lat="43.21348461345291" lon="12.262329484993867"><ele>526.5</ele><time>2026-03-29T08:13:02.001Z</time></trkpt><trkpt lat="43.21352616042933" lon="12.262240438900971"><ele>526.0</ele><time>2026-03-29T08:13:03.001Z</time></trkpt><trkpt lat="43.21358132908732" lon="12.262045936853342"><ele>527.0</ele><time>2026-03-29T08:13:05.001Z</time></trkpt><trkpt lat="43.21363780109431" lon="12.261935297718498"><ele>528.0</ele><time>2026-03-29T08:13:06.001Z</time></trkpt><trkpt lat="43.21369734332194" lon="12.261840063358704"><ele>529.0</ele><time>2026-03-29T08:13:07.001Z</time></trkpt><trkpt lat="43.213730162576" lon="12.2617624487341"><ele>530.0</ele><time>2026-03-29T08:13:08.001Z</time></trkpt><trkpt lat="43.21376614157179" lon="12.261684600358526"><ele>531.0</ele><time>2026-03-29T08:13:09.001Z</time></trkpt><trkpt lat="43.21379224230751" lon="12.261598699094996"><ele>532.0</ele><time>2026-03-29T08:13:10.001Z</time></trkpt><trkpt lat="43.21381520066762" lon="12.26148617792182"><ele>531.0</ele><time>2026-03-29T08:13:11.001Z</time></trkpt><trkpt lat="43.21379402481173" lon="12.261348933031064"><ele>530.0</ele><time>2026-03-29T08:13:13.001Z</time></trkpt><trkpt lat="43.21373406249081" lon="12.261315487297095"><ele>529.0</ele><time>2026-03-29T08:13:14.001Z</time></trkpt><trkpt lat="43.21365454267399" lon="12.261281705428253"><ele>528.0</ele><time>2026-03-29T08:13:15.001Z</time></trkpt><trkpt lat="43.213580378008" lon="12.26121149076809"><ele>527.0</ele><time>2026-03-29T08:13:16.001Z</time></trkpt><trkpt lat="43.21352226791735" lon="12.261112790396663"><ele>526.0</ele><time>2026-03-29T08:13:17.001Z</time></trkpt><trkpt lat="43.213468106142365" lon="12.261060180628155"><ele>526.0</ele><time>2026-03-29T08:13:18.001Z</time></trkpt><trkpt lat="43.213366108404685" lon="12.260975990199839"><ele>526.0</ele><time>2026-03-29T08:13:20.001Z</time></trkpt><trkpt lat="43.213302264435995" lon="12.260932266686153"><ele>526.0</ele><time>2026-03-29T08:13:21.001Z</time></trkpt><trkpt lat="43.2133008190475" lon="12.260815558894443"><ele>526.0</ele><time>2026-03-29T08:13:23.002Z</time></trkpt><trkpt lat="43.21334716558423" lon="12.260755987172423"><ele>526.0</ele><time>2026-03-29T08:13:25.002Z</time></trkpt><trkpt lat="43.213409703644075" lon="12.26073618394496"><ele>526.0</ele><time>2026-03-29T08:13:26.002Z</time></trkpt><trkpt lat="43.21346785724751" lon="12.260699613439126"><ele>526.0</ele><time>2026-03-29T08:13:27.002Z</time></trkpt><trkpt lat="43.21356530465497" lon="12.26061787248593"><ele>526.0</ele><time>2026-03-29T08:13:29.002Z</time></trkpt><trkpt lat="43.21362308776759" lon="12.26054309899353"><ele>526.0</ele><time>2026-03-29T08:13:30.002Z</time></trkpt><trkpt lat="43.213664933029214" lon="12.260471388117924"><ele>526.0</ele><time>2026-03-29T08:13:31.002Z</time></trkpt><trkpt lat="43.213740815515656" lon="12.260424863963236"><ele>526.0</ele><time>2026-03-29T08:13:32.002Z</time></trkpt><trkpt lat="43.21383229184802" lon="12.260375038529682"><ele>526.0</ele><time>2026-03-29T08:13:33.002Z</time></trkpt><trkpt lat="43.21391251995712" lon="12.260350116096602"><ele>523.4</ele><time>2026-03-29T08:13:34.002Z</time></trkpt><trkpt lat="43.213974402913735" lon="12.260242373005545"><ele>520.8</ele><time>2026-03-29T08:13:36.002Z</time></trkpt><trkpt lat="43.2139712302587" lon="12.260139001550494"><ele>518.1999999999999</ele><time>2026-03-29T08:13:38.002Z</time></trkpt><trkpt lat="43.213987288368266" lon="12.259978140677148"><ele>515.6</ele><time>2026-03-29T08:13:40.002Z</time></trkpt><trkpt lat="43.21402235517736" lon="12.259866893318337"><ele>513.0</ele><time>2026-03-29T08:13:42.002Z</time></trkpt><trkpt lat="43.21409365407792" lon="12.259803617563684"><ele>514.2857142857143</ele><time>2026-03-29T08:13:46Z</time></trkpt><trkpt lat="43.21415270685622" lon="12.259753351688415"><ele>515.5714285714286</ele><time>2026-03-29T08:13:48Z</time></trkpt><trkpt lat="43.21423952241297" lon="12.259721568347151"><ele>516.8571428571429</ele><time>2026-03-29T08:13:51Z</time></trkpt><trkpt lat="43.214295193875465" lon="12.259635497465139"><ele>518.1428571428571</ele><time>2026-03-29T08:13:54Z</time></trkpt><trkpt lat="43.21435188185097" lon="12.25959749359433"><ele>519.4285714285714</ele><time>2026-03-29T08:13:56Z</time></trkpt><trkpt lat="43.21441598080382" lon="12.25956727095314"><ele>520.7142857142858</ele><time>2026-03-29T08:14:00Z</time></trkpt><trkpt lat="43.214483379840225" lon="12.259547355069836"><ele>522.0</ele><time>2026-03-29T08:14:03Z</time></trkpt><trkpt lat="43.214570293839955" lon="12.259505070477287"><ele>522.0</ele><time>2026-03-29T08:14:06Z</time></trkpt><trkpt lat="43.21462727591252" lon="12.259379486974526"><ele>522.0</ele><time>2026-03-29T08:14:08Z</time></trkpt><trkpt lat="43.2146562717627" lon="12.259268298262661"><ele>522.0</ele><time>2026-03-29T08:14:10Z</time></trkpt><trkpt lat="43.21472333239504" lon="12.259294506187018"><ele>522.0</ele><time>2026-03-29T08:14:12Z</time></trkpt><trkpt lat="43.214787455045276" lon="12.259414305880556"><ele>522.0</ele><time>2026-03-29T08:14:14.001Z</time></trkpt><trkpt lat="43.21483493269133" lon="12.259474393361696"><ele>522.0</ele><time>2026-03-29T08:14:16.001Z</time></trkpt><trkpt lat="43.21488341797539" lon="12.259538298666232"><ele>519.6666666666666</ele><time>2026-03-29T08:14:17.001Z</time></trkpt><trkpt lat="43.21498800178836" lon="12.259779360061119"><ele>517.3333333333333</ele><time>2026-03-29T08:14:19.001Z</time></trkpt><trkpt lat="43.21503086909508" lon="12.259964226992206"><ele>515.0</ele><time>2026-03-29T08:14:21.001Z</time></trkpt><trkpt lat="43.21509103582957" lon="12.260082658046015"><ele>512.2</ele><time>2026-03-29T08:14:22.001Z</time></trkpt><trkpt lat="43.215159394115624" lon="12.260148697476206"><ele>509.4</ele><time>2026-03-29T08:14:23.001Z</time></trkpt><trkpt lat="43.21523599170387" lon="12.260238083095464"><ele>506.6</ele><time>2026-03-29T08:14:24.001Z</time></trkpt><trkpt lat="43.21531753408562" lon="12.260306274700914"><ele>503.8</ele><time>2026-03-29T08:14:25.001Z</time></trkpt><trkpt lat="43.21536017717678" lon="12.260396784102834"><ele>501.0</ele><time>2026-03-29T08:14:26.001Z</time></trkpt><trkpt lat="43.215480566000934" lon="12.260448659349642"><ele>501.0</ele><time>2026-03-29T08:14:28.001Z</time></trkpt><trkpt lat="43.215543774478164" lon="12.260446049223704"><ele>501.0</ele><time>2026-03-29T08:14:29.001Z</time></trkpt><trkpt lat="43.21560681503774" lon="12.26040428334459"><ele>501.0</ele><time>2026-03-29T08:14:30.001Z</time></trkpt><trkpt lat="43.215662217948505" lon="12.260331316570221"><ele>501.0</ele><time>2026-03-29T08:14:31.001Z</time></trkpt><trkpt lat="43.21572723745207" lon="12.260293048910972"><ele>501.0</ele><time>2026-03-29T08:14:33.001Z</time></trkpt><trkpt lat="43.21577806054538" lon="12.260369013167807"><ele>501.0</ele><time>2026-03-29T08:14:36.001Z</time></trkpt><trkpt lat="43.215863729777496" lon="12.260404587333714"><ele>501.0</ele><time>2026-03-29T08:14:38.001Z</time></trkpt><trkpt lat="43.21591330411162" lon="12.260485983075045"><ele>501.8571428571429</ele><time>2026-03-29T08:14:40.001Z</time></trkpt><trkpt lat="43.21598546281304" lon="12.260510082000792"><ele>502.71428571428567</ele><time>2026-03-29T08:14:43.001Z</time></trkpt><trkpt lat="43.216007157710635" lon="12.260601855547483"><ele>503.57142857142856</ele><time>2026-03-29T08:14:45.001Z</time></trkpt><trkpt lat="43.215945457511886" lon="12.260673284921022"><ele>504.42857142857144</ele><time>2026-03-29T08:14:47.001Z</time></trkpt><trkpt lat="43.21595367611867" lon="12.260769629582562"><ele>505.28571428571433</ele><time>2026-03-29T08:14:51.001Z</time></trkpt><trkpt lat="43.216022924104465" lon="12.260769724248187"><ele>506.1428571428571</ele><time>2026-03-29T08:14:53.001Z</time></trkpt><trkpt lat="43.21608694745143" lon="12.260729069573928"><ele>507.0</ele><time>2026-03-29T08:14:55.001Z</time></trkpt><trkpt lat="43.216167774287676" lon="12.260710342555878"><ele>504.1666666666667</ele><time>2026-03-29T08:15:00.001Z</time></trkpt><trkpt lat="43.21626363047549" lon="12.260674794284496"><ele>501.33333333333337</ele><time>2026-03-29T08:15:02.001Z</time></trkpt><trkpt lat="43.216288181462545" lon="12.260758859241498"><ele>498.5</ele><time>2026-03-29T08:15:05.001Z</time></trkpt><trkpt lat="43.21630780793988" lon="12.260862434102851"><ele>495.6666666666667</ele><time>2026-03-29T08:15:07.001Z</time></trkpt><trkpt lat="43.21631273519391" lon="12.260949038286961"><ele>492.83333333333337</ele><time>2026-03-29T08:15:08.001Z</time></trkpt><trkpt lat="43.216274239726815" lon="12.26109530706955"><ele>490.0</ele><time>2026-03-29T08:15:11.001Z</time></trkpt><trkpt lat="43.21635313585199" lon="12.261199352143889"><ele>490.00000000000006</ele><time>2026-03-29T08:15:13.001Z</time></trkpt><trkpt lat="43.21642625824104" lon="12.261109449143934"><ele>490.0</ele><time>2026-03-29T08:15:16.002Z</time></trkpt><trkpt lat="43.21648834612692" lon="12.261007610977504"><ele>490.0</ele><time>2026-03-29T08:15:18.002Z</time></trkpt><trkpt lat="43.21655867208382" lon="12.260972123756149"><ele>490.0</ele><time>2026-03-29T08:15:19.002Z</time></trkpt><trkpt lat="43.21662063144276" lon="12.260911536722736"><ele>490.00000000000006</ele><time>2026-03-29T08:15:20.002Z</time></trkpt><trkpt lat="43.21668930215392" lon="12.260854758694252"><ele>490.0</ele><time>2026-03-29T08:15:21.002Z</time></trkpt><trkpt lat="43.21676331790809" lon="12.260855184627726"><ele>491.1666666666667</ele><time>2026-03-29T08:15:22.002Z</time></trkpt><trkpt lat="43.21682909211257" lon="12.260839220298443"><ele>492.33333333333337</ele><time>2026-03-29T08:15:23.002Z</time></trkpt><trkpt lat="43.216898064842916" lon="12.260697579831382"><ele>493.5</ele><time>2026-03-29T08:15:25.002Z</time></trkpt><trkpt lat="43.21694922716424" lon="12.260607398326519"><ele>494.66666666666663</ele><time>2026-03-29T08:15:27.002Z</time></trkpt><trkpt lat="43.21699441921501" lon="12.260507054562424"><ele>495.8333333333333</ele><time>2026-03-29T08:15:29.002Z</time></trkpt><trkpt lat="43.217066334030925" lon="12.26054021768083"><ele>497.0</ele><time>2026-03-29T08:15:31.002Z</time></trkpt><trkpt lat="43.2171634199171" lon="12.260600625714897"><ele>496.99999999999994</ele><time>2026-03-29T08:15:33.002Z</time></trkpt><trkpt lat="43.21722839313136" lon="12.260636471707926"><ele>497.0</ele><time>2026-03-29T08:15:34.002Z</time></trkpt><trkpt lat="43.2172989067246" lon="12.260625762054561"><ele>497.0</ele><time>2026-03-29T08:15:35.002Z</time></trkpt><trkpt lat="43.21740221982215" lon="12.260639004200657"><ele>497.0</ele><time>2026-03-29T08:15:37.002Z</time></trkpt><trkpt lat="43.21751038379188" lon="12.260683317852047"><ele>496.99999999999994</ele><time>2026-03-29T08:15:39.002Z</time></trkpt><trkpt lat="43.21757354092477" lon="12.260679554106314"><ele>497.0</ele><time>2026-03-29T08:15:40.002Z</time></trkpt><trkpt lat="43.21765537475431" lon="12.26075842591472"><ele>499.16666666666663</ele><time>2026-03-29T08:15:42.002Z</time></trkpt><trkpt lat="43.21770182032376" lon="12.260855373834495"><ele>501.3333333333333</ele><time>2026-03-29T08:15:43.002Z</time></trkpt><trkpt lat="43.217693342558356" lon="12.260956975928199"><ele>503.5</ele><time>2026-03-29T08:15:44.002Z</time></trkpt><trkpt lat="43.217695099047205" lon="12.261044646233742"><ele>505.66666666666663</ele><time>2026-03-29T08:15:45.002Z</time></trkpt><trkpt lat="43.217701800884754" lon="12.261131616961555"><ele>507.8333333333333</ele><time>2026-03-29T08:15:46.002Z</time></trkpt><trkpt lat="43.21771166017455" lon="12.261220218031662"><ele>510.0</ele><time>2026-03-29T08:15:47.002Z</time></trkpt><trkpt lat="43.217732170138056" lon="12.2613541630335"><ele>508.8333333333333</ele><time>2026-03-29T08:15:49.002Z</time></trkpt><trkpt lat="43.21768061075931" lon="12.261540015317452"><ele>507.66666666666663</ele><time>2026-03-29T08:15:51.001Z</time></trkpt><trkpt lat="43.217630851371794" lon="12.261602705120268"><ele>506.5</ele><time>2026-03-29T08:15:52.001Z</time></trkpt><trkpt lat="43.217606692433584" lon="12.261709593021594"><ele>505.3333333333333</ele><time>2026-03-29T08:15:54.001Z</time></trkpt><trkpt lat="43.217618551659136" lon="12.261798712964747"><ele>504.16666666666663</ele><time>2026-03-29T08:15:55.001Z</time></trkpt><trkpt lat="43.21766526612313" lon="12.261882305611476"><ele>503.0</ele><time>2026-03-29T08:15:56.001Z</time></trkpt><trkpt lat="43.2177357583538" lon="12.26196693623421"><ele>502.99999999999994</ele><time>2026-03-29T08:15:57.001Z</time></trkpt><trkpt lat="43.21781077741225" lon="12.262052111824817"><ele>503.0</ele><time>2026-03-29T08:15:58.001Z</time></trkpt><trkpt lat="43.21786823714808" lon="12.262118312832607"><ele>503.0</ele><time>2026-03-29T08:15:59.001Z</time></trkpt><trkpt lat="43.21799930690068" lon="12.262140184627603"><ele>503.0</ele><time>2026-03-29T08:16:02.001Z</time></trkpt><trkpt lat="43.21806781778881" lon="12.262167899774292"><ele>502.99999999999994</ele><time>2026-03-29T08:16:03.001Z</time></trkpt><trkpt lat="43.218131975324056" lon="12.262202216999617"><ele>503.0</ele><time>2026-03-29T08:16:04.001Z</time></trkpt><trkpt lat="43.21823144922055" lon="12.262308397048585"><ele>504.49999999999994</ele><time>2026-03-29T08:16:06.001Z</time></trkpt><trkpt lat="43.21830880912771" lon="12.262361466101883"><ele>506.0</ele><time>2026-03-29T08:16:07.001Z</time></trkpt><trkpt lat="43.21837043362756" lon="12.26240049570938"><ele>507.5</ele><time>2026-03-29T08:16:08.001Z</time></trkpt><trkpt lat="43.21846006572673" lon="12.262401935371196"><ele>509.0</ele><time>2026-03-29T08:16:10.001Z</time></trkpt><trkpt lat="43.21852205897135" lon="12.26234026643807"><ele>510.49999999999994</ele><time>2026-03-29T08:16:11.001Z</time></trkpt><trkpt lat="43.218583916777014" lon="12.262275680916556"><ele>512.0</ele><time>2026-03-29T08:16:12.001Z</time></trkpt><trkpt lat="43.21864155901342" lon="12.262215342575823"><ele>515.6666666666666</ele><time>2026-03-29T08:16:13.001Z</time></trkpt><trkpt lat="43.21872302636408" lon="12.26216086165422"><ele>519.3333333333333</ele><time>2026-03-29T08:16:14.001Z</time></trkpt><trkpt lat="43.218789056331296" lon="12.262121933470024"><ele>523.0</ele><time>2026-03-29T08:16:15.001Z</time></trkpt><trkpt lat="43.21885191217715" lon="12.262114844944158"><ele>526.6666666666666</ele><time>2026-03-29T08:16:16.001Z</time></trkpt><trkpt lat="43.21893508258364" lon="12.26210774989069"><ele>530.3333333333334</ele><time>2026-03-29T08:16:17.001Z</time></trkpt><trkpt lat="43.219008081782796" lon="12.26212514375033"><ele>534.0</ele><time>2026-03-29T08:16:18.001Z</time></trkpt><trkpt lat="43.21912905400059" lon="12.262101991879439"><ele>536.0</ele><time>2026-03-29T08:16:20.001Z</time></trkpt><trkpt lat="43.21921748601735" lon="12.262106221254024"><ele>538.0</ele><time>2026-03-29T08:16:22.001Z</time></trkpt><trkpt lat="43.219322910744815" lon="12.262071039671412"><ele>540.0</ele><time>2026-03-29T08:16:24.001Z</time></trkpt><trkpt lat="43.21942288206693" lon="12.262025067705455"><ele>542.0</ele><time>2026-03-29T08:16:26.001Z</time></trkpt><trkpt lat="43.21950609920645" lon="12.261951231360252"><ele>544.0</ele><time>2026-03-29T08:16:27.001Z</time></trkpt><trkpt lat="43.219577968241275" lon="12.26189789308883"><ele>544.0</ele><time>2026-03-29T08:16:28.001Z</time></trkpt><trkpt lat="43.219672177503085" lon="12.261896936962472"><ele>544.0</ele><time>2026-03-29T08:16:29.001Z</time></trkpt><trkpt lat="43.21973507924468" lon="12.261908341639607"><ele>544.0</ele><time>2026-03-29T08:16:30.001Z</time></trkpt><trkpt lat="43.21979446102473" lon="12.261943903478276"><ele>544.0</ele><time>2026-03-29T08:16:32.001Z</time></trkpt><trkpt lat="43.21984715307313" lon="12.262000838966234"><ele>544.0</ele><time>2026-03-29T08:16:34.001Z</time></trkpt><trkpt lat="43.21994834908328" lon="12.262121149856025"><ele>544.0</ele><time>2026-03-29T08:16:36.001Z</time></trkpt><trkpt lat="43.220011580790406" lon="12.262149101465875"><ele>543.0</ele><time>2026-03-29T08:16:37.001Z</time></trkpt><trkpt lat="43.220084879962016" lon="12.262161161177307"><ele>542.0</ele><time>2026-03-29T08:16:38.001Z</time></trkpt><trkpt lat="43.22016432044667" lon="12.262252602090358"><ele>541.0</ele><time>2026-03-29T08:16:39.001Z</time></trkpt><trkpt lat="43.22024817521643" lon="12.262328395467756"><ele>540.0</ele><time>2026-03-29T08:16:40.001Z</time></trkpt><trkpt lat="43.2203347057352" lon="12.262389195860566"><ele>539.0</ele><time>2026-03-29T08:16:41.001Z</time></trkpt><trkpt lat="43.220417903477525" lon="12.262379366609379"><ele>537.0</ele><time>2026-03-29T08:16:43.001Z</time></trkpt><trkpt lat="43.22054121210988" lon="12.262332109156613"><ele>535.0</ele><time>2026-03-29T08:16:45.001Z</time></trkpt><trkpt lat="43.22063265638884" lon="12.262297487882744"><ele>533.0</ele><time>2026-03-29T08:16:46.001Z</time></trkpt><trkpt lat="43.22070347460724" lon="12.262284490933336"><ele>531.0</ele><time>2026-03-29T08:16:47.001Z</time></trkpt><trkpt lat="43.220786715091705" lon="12.26228781484642"><ele>529.0</ele><time>2026-03-29T08:16:49.001Z</time></trkpt><trkpt lat="43.220866928142925" lon="12.26232999177029"><ele>529.0</ele><time>2026-03-29T08:17:36.002Z</time></trkpt><trkpt lat="43.22099129102839" lon="12.262370624437734"><ele>529.0</ele><time>2026-03-29T08:17:38.002Z</time></trkpt><trkpt lat="43.22111796199855" lon="12.262423773341595"><ele>529.0</ele><time>2026-03-29T08:17:40.002Z</time></trkpt><trkpt lat="43.22119908911061" lon="12.262480508678957"><ele>529.0</ele><time>2026-03-29T08:17:41.002Z</time></trkpt><trkpt lat="43.221309337242985" lon="12.262543500883382"><ele>529.0</ele><time>2026-03-29T08:17:43.002Z</time></trkpt><trkpt lat="43.22137595893693" lon="12.262577163344172"><ele>529.0</ele><time>2026-03-29T08:17:44.002Z</time></trkpt><trkpt lat="43.22144755093595" lon="12.262609817945306"><ele>529.0</ele><time>2026-03-29T08:17:45.002Z</time></trkpt><trkpt lat="43.22151848462815" lon="12.2627089672588"><ele>529.0</ele><time>2026-03-29T08:17:46.002Z</time></trkpt><trkpt lat="43.22157287458234" lon="12.2627838945749"><ele>529.0</ele><time>2026-03-29T08:17:47.002Z</time></trkpt><trkpt lat="43.22160335222459" lon="12.262694331777368"><ele>529.0</ele><time>2026-03-29T08:18:02.001Z</time></trkpt><trkpt lat="43.221615937017724" lon="12.262590028475959"><ele>529.8333333333334</ele><time>2026-03-29T08:18:05.001Z</time></trkpt><trkpt lat="43.22163970783858" lon="12.262479290755362"><ele>530.6666666666667</ele><time>2026-03-29T08:18:07Z</time></trkpt><trkpt lat="43.221649037965996" lon="12.262357482384079"><ele>531.5</ele><time>2026-03-29T08:18:09Z</time></trkpt><trkpt lat="43.22160038336748" lon="12.262299523374827"><ele>532.3333333333334</ele><time>2026-03-29T08:18:13Z</time></trkpt><trkpt lat="43.22158587871715" lon="12.262200497757043"><ele>533.1666666666666</ele><time>2026-03-29T08:18:15Z</time></trkpt><trkpt lat="43.22153607575855" lon="12.262137497512626"><ele>534.0</ele><time>2026-03-29T08:18:19.001Z</time></trkpt><trkpt lat="43.22148079488686" lon="12.262076246814454"><ele>537.0</ele><time>2026-03-29T08:18:25.001Z</time></trkpt><trkpt lat="43.22143335955008" lon="12.262012415221882"><ele>540.0</ele><time>2026-03-29T08:18:39.001Z</time></trkpt><trkpt lat="43.2214408857914" lon="12.26190528643076"><ele>543.0</ele><time>2026-03-29T08:18:45.001Z</time></trkpt><trkpt lat="43.221493094494015" lon="12.26184157449013"><ele>546.0</ele><time>2026-03-29T08:18:48.001Z</time></trkpt><trkpt lat="43.22153920095951" lon="12.261750989836184"><ele>549.0</ele><time>2026-03-29T08:19:11.001Z</time></trkpt><trkpt lat="43.221545686082386" lon="12.261656877829191"><ele>552.0</ele><time>2026-03-29T08:19:16.001Z</time></trkpt><trkpt lat="43.22148770192442" lon="12.261556316245137"><ele>552.2857142857143</ele><time>2026-03-29T08:19:39.001Z</time></trkpt><trkpt lat="43.22141293827173" lon="12.261494896379618"><ele>552.5714285714287</ele><time>2026-03-29T08:20:06Z</time></trkpt><trkpt lat="43.221361370202324" lon="12.261411898247834"><ele>552.8571428571429</ele><time>2026-03-29T08:20:13Z</time></trkpt><trkpt lat="43.221352413802464" lon="12.261326111423582"><ele>553.1428571428571</ele><time>2026-03-29T08:20:24Z</time></trkpt><trkpt lat="43.22129908515795" lon="12.26124856103056"><ele>553.4285714285713</ele><time>2026-03-29T08:20:35Z</time></trkpt><trkpt lat="43.221249677994734" lon="12.261183372145743"><ele>553.7142857142857</ele><time>2026-03-29T08:20:39Z</time></trkpt><trkpt lat="43.221198034158945" lon="12.261133793374785"><ele>554.0</ele><time>2026-03-29T08:20:43Z</time></trkpt><trkpt lat="43.221184355568376" lon="12.261047664633992"><ele>558.5</ele><time>2026-03-29T08:20:45Z</time></trkpt><trkpt lat="43.22122811443908" lon="12.260978364271915"><ele>563.0</ele><time>2026-03-29T08:20:47Z</time></trkpt><trkpt lat="43.22125263716226" lon="12.260891362821994"><ele>567.5</ele><time>2026-03-29T08:20:49Z</time></trkpt><trkpt lat="43.22125654100658" lon="12.260788517655417"><ele>572.0</ele><time>2026-03-29T08:20:51Z</time></trkpt><trkpt lat="43.221287809391896" lon="12.26062921802287"><ele>576.5</ele><time>2026-03-29T08:20:54Z</time></trkpt><trkpt lat="43.221238786197304" lon="12.26052754172602"><ele>581.0</ele><time>2026-03-29T08:20:56.001Z</time></trkpt><trkpt lat="43.22117165939862" lon="12.26049785162784"><ele>583.0</ele><time>2026-03-29T08:20:58.001Z</time></trkpt><trkpt lat="43.22109015215574" lon="12.260445031454744"><ele>585.0</ele><time>2026-03-29T08:21:00.001Z</time></trkpt><trkpt lat="43.221025409460445" lon="12.260376672712386"><ele>587.0</ele><time>2026-03-29T08:21:02.001Z</time></trkpt><trkpt lat="43.22096168486295" lon="12.260291111709794"><ele>589.0</ele><time>2026-03-29T08:21:03.001Z</time></trkpt><trkpt lat="43.22089508073733" lon="12.26020095198849"><ele>591.0</ele><time>2026-03-29T08:21:04.001Z</time></trkpt><trkpt lat="43.220850281855064" lon="12.26012218681064"><ele>593.0</ele><time>2026-03-29T08:21:05.001Z</time></trkpt><trkpt lat="43.22075233671815" lon="12.260060935881276"><ele>593.0</ele><time>2026-03-29T08:21:07.001Z</time></trkpt><trkpt lat="43.22069648861634" lon="12.26001926094767"><ele>593.0</ele><time>2026-03-29T08:21:08.001Z</time></trkpt><trkpt lat="43.22059013360035" lon="12.259933780153595"><ele>593.0</ele><time>2026-03-29T08:21:10.001Z</time></trkpt><trkpt lat="43.220542502566104" lon="12.259866861233583"><ele>593.0</ele><time>2026-03-29T08:21:11.001Z</time></trkpt><trkpt lat="43.22045995270095" lon="12.25982825522986"><ele>593.0</ele><time>2026-03-29T08:21:27.001Z</time></trkpt><trkpt lat="43.22038614474036" lon="12.259807801738013"><ele>593.0</ele><time>2026-03-29T08:21:29.001Z</time></trkpt><trkpt lat="43.220281233937754" lon="12.259761732973441"><ele>593.0</ele><time>2026-03-29T08:21:31.001Z</time></trkpt><trkpt lat="43.22017762946793" lon="12.259742292739382"><ele>593.0</ele><time>2026-03-29T08:21:33.001Z</time></trkpt><trkpt lat="43.220064990968226" lon="12.259727748843968"><ele>593.0</ele><time>2026-03-29T08:21:35.001Z</time></trkpt><trkpt lat="43.219983305723716" lon="12.259692974954422"><ele>593.0</ele><time>2026-03-29T08:21:36.001Z</time></trkpt><trkpt lat="43.219929239268474" lon="12.25963140859011"><ele>593.0</ele><time>2026-03-29T08:21:38.001Z</time></trkpt><trkpt lat="43.219942753197515" lon="12.259481777892917"><ele>593.0</ele><time>2026-03-29T08:21:40.001Z</time></trkpt><trkpt lat="43.21994614740106" lon="12.259368695147257"><ele>593.0</ele><time>2026-03-29T08:21:41.001Z</time></trkpt><trkpt lat="43.219938383913764" lon="12.259235268368396"><ele>593.0</ele><time>2026-03-29T08:21:42.001Z</time></trkpt><trkpt lat="43.219939864331835" lon="12.259140734021061"><ele>593.0</ele><time>2026-03-29T08:21:43.001Z</time></trkpt><trkpt lat="43.219926841840696" lon="12.259032907852706"><ele>593.0</ele><time>2026-03-29T08:21:45.001Z</time></trkpt><trkpt lat="43.219858908567836" lon="12.259001009471705"><ele>593.0</ele><time>2026-03-29T08:21:47.001Z</time></trkpt><trkpt lat="43.21978444965184" lon="12.258973012355549"><ele>595.6</ele><time>2026-03-29T08:21:49.001Z</time></trkpt><trkpt lat="43.21979372567814" lon="12.258834080852786"><ele>598.1999999999999</ele><time>2026-03-29T08:21:51.001Z</time></trkpt><trkpt lat="43.21980191577521" lon="12.258703349564282"><ele>600.8</ele><time>2026-03-29T08:21:54.001Z</time></trkpt><trkpt lat="43.219864757442814" lon="12.258686174140118"><ele>603.4</ele><time>2026-03-29T08:21:55.001Z</time></trkpt><trkpt lat="43.21995220680216" lon="12.25867067711564"><ele>606.0</ele><time>2026-03-29T08:21:57.001Z</time></trkpt><trkpt lat="43.22001027276422" lon="12.25851818841386"><ele>607.0</ele><time>2026-03-29T08:21:59.001Z</time></trkpt><trkpt lat="43.22006454609379" lon="12.258385759497573"><ele>608.0</ele><time>2026-03-29T08:22:01.001Z</time></trkpt><trkpt lat="43.220073539491075" lon="12.25827481422757"><ele>609.0</ele><time>2026-03-29T08:22:04.001Z</time></trkpt><trkpt lat="43.22008828036496" lon="12.258187729877822"><ele>610.0</ele><time>2026-03-29T08:22:07.001Z</time></trkpt><trkpt lat="43.220009916566184" lon="12.25817062497158"><ele>611.0</ele><time>2026-03-29T08:22:09Z</time></trkpt><trkpt lat="43.2199367102234" lon="12.258193901023192"><ele>612.0</ele><time>2026-03-29T08:22:10Z</time></trkpt><trkpt lat="43.21987427622847" lon="12.258112785344764"><ele>616.4</ele><time>2026-03-29T08:22:12Z</time></trkpt><trkpt lat="43.21992089492996" lon="12.257966737434577"><ele>620.8000000000001</ele><time>2026-03-29T08:22:14Z</time></trkpt><trkpt lat="43.21994086013488" lon="12.257864090767958"><ele>625.2</ele><time>2026-03-29T08:22:17Z</time></trkpt><trkpt lat="43.21997569194194" lon="12.257752870944017"><ele>629.6</ele><time>2026-03-29T08:22:19Z</time></trkpt><trkpt lat="43.220010159123966" lon="12.257679806770055"><ele>634.0</ele><time>2026-03-29T08:22:20Z</time></trkpt><trkpt lat="43.220098172035755" lon="12.257565874121868"><ele>634.0</ele><time>2026-03-29T08:22:22Z</time></trkpt><trkpt lat="43.22009045410037" lon="12.257434489582584"><ele>634.0</ele><time>2026-03-29T08:22:23Z</time></trkpt><trkpt lat="43.22009113016139" lon="12.257328913433515"><ele>634.0</ele><time>2026-03-29T08:22:24Z</time></trkpt><trkpt lat="43.22010917482872" lon="12.25723184707831"><ele>634.0</ele><time>2026-03-29T08:22:25Z</time></trkpt><trkpt lat="43.22012365221927" lon="12.257133957846428"><ele>634.0</ele><time>2026-03-29T08:22:26Z</time></trkpt><trkpt lat="43.22024299597397" lon="12.256991221128116"><ele>636.2857142857143</ele><time>2026-03-29T08:22:28Z</time></trkpt><trkpt lat="43.22029213536734" lon="12.25691489353629"><ele>638.5714285714286</ele><time>2026-03-29T08:22:29Z</time></trkpt><trkpt lat="43.22031035885826" lon="12.256826415726177"><ele>640.8571428571429</ele><time>2026-03-29T08:22:30Z</time></trkpt><trkpt lat="43.22031556751476" lon="12.256720079422216"><ele>643.1428571428571</ele><time>2026-03-29T08:22:31Z</time></trkpt><trkpt lat="43.22029979705841" lon="12.256624102652127"><ele>645.4285714285714</ele><time>2026-03-29T08:22:32Z</time></trkpt><trkpt lat="43.22028025563466" lon="12.25652730642564"><ele>647.7142857142857</ele><time>2026-03-29T08:22:33Z</time></trkpt><trkpt lat="43.22020851856812" lon="12.256502491239829"><ele>650.0</ele><time>2026-03-29T08:22:35Z</time></trkpt><trkpt lat="43.22013370166005" lon="12.25660280329324"><ele>650.0</ele><time>2026-03-29T08:22:37Z</time></trkpt><trkpt lat="43.22004652067479" lon="12.256651253092258"><ele>650.0</ele><time>2026-03-29T08:22:39Z</time></trkpt><trkpt lat="43.21997790148438" lon="12.256637417068074"><ele>650.0</ele><time>2026-03-29T08:22:40Z</time></trkpt><trkpt lat="43.219888921824946" lon="12.256649590750033"><ele>650.0</ele><time>2026-03-29T08:22:41Z</time></trkpt><trkpt lat="43.21982297773433" lon="12.25666758965574"><ele>650.0</ele><time>2026-03-29T08:22:42Z</time></trkpt><trkpt lat="43.21972902238531" lon="12.256664453347549"><ele>650.0</ele><time>2026-03-29T08:22:44Z</time></trkpt><trkpt lat="43.219660009866054" lon="12.256646376254785"><ele>649.0</ele><time>2026-03-29T08:22:46Z</time></trkpt><trkpt lat="43.219587069637754" lon="12.256605672382163"><ele>648.0</ele><time>2026-03-29T08:22:56.001Z</time></trkpt><trkpt lat="43.21953088014352" lon="12.256510786679023"><ele>647.0</ele><time>2026-03-29T08:22:57.001Z</time></trkpt><trkpt lat="43.21948329223754" lon="12.256440807294052"><ele>646.0</ele><time>2026-03-29T08:22:58.001Z</time></trkpt><trkpt lat="43.21943534115439" lon="12.256329737035482"><ele>645.0</ele><time>2026-03-29T08:23:00.001Z</time></trkpt><trkpt lat="43.2194963328302" lon="12.256193384930544"><ele>644.0</ele><time>2026-03-29T08:23:02.001Z</time></trkpt><trkpt lat="43.21956384412507" lon="12.25609812110132"><ele>644.0</ele><time>2026-03-29T08:23:04.001Z</time></trkpt><trkpt lat="43.21959363581572" lon="12.255969133834189"><ele>644.0</ele><time>2026-03-29T08:23:07.001Z</time></trkpt><trkpt lat="43.219659387169195" lon="12.256004541724064"><ele>644.0</ele><time>2026-03-29T08:23:10.001Z</time></trkpt><trkpt lat="43.21971764066987" lon="12.256093346426603"><ele>644.0</ele><time>2026-03-29T08:23:12.001Z</time></trkpt><trkpt lat="43.21979456720087" lon="12.256161601726099"><ele>644.0</ele><time>2026-03-29T08:23:15.001Z</time></trkpt><trkpt lat="43.21990934498298" lon="12.256195166677308"><ele>647.5</ele><time>2026-03-29T08:23:17.001Z</time></trkpt><trkpt lat="43.21997619255401" lon="12.256174973651303"><ele>651.0</ele><time>2026-03-29T08:23:18.001Z</time></trkpt><trkpt lat="43.2200686288979" lon="12.25614244110019"><ele>654.5</ele><time>2026-03-29T08:23:19.001Z</time></trkpt><trkpt lat="43.220145793719034" lon="12.256121087464273"><ele>658.0</ele><time>2026-03-29T08:23:20.001Z</time></trkpt><trkpt lat="43.22022337355708" lon="12.256104870458518"><ele>661.5</ele><time>2026-03-29T08:23:21.001Z</time></trkpt><trkpt lat="43.22028784527178" lon="12.25607166872844"><ele>665.0</ele><time>2026-03-29T08:23:22.001Z</time></trkpt><trkpt lat="43.22033999334642" lon="12.256022063748185"><ele>665.0</ele><time>2026-03-29T08:23:23.001Z</time></trkpt><trkpt lat="43.22041295677669" lon="12.255962161802042"><ele>665.0</ele><time>2026-03-29T08:23:25.001Z</time></trkpt><trkpt lat="43.220482527243405" lon="12.255880261173932"><ele>665.0</ele><time>2026-03-29T08:23:27.001Z</time></trkpt><trkpt lat="43.22054848177417" lon="12.255809647389544"><ele>665.0</ele><time>2026-03-29T08:23:29.001Z</time></trkpt><trkpt lat="43.22059636774778" lon="12.255736601456261"><ele>665.0</ele><time>2026-03-29T08:23:31.001Z</time></trkpt><trkpt lat="43.220650828673094" lon="12.255632590558413"><ele>665.0</ele><time>2026-03-29T08:23:33.001Z</time></trkpt><trkpt lat="43.22071838629749" lon="12.255523849217703"><ele>664.1666666666666</ele><time>2026-03-29T08:23:35.001Z</time></trkpt><trkpt lat="43.220780598002726" lon="12.255448574431657"><ele>663.3333333333333</ele><time>2026-03-29T08:23:36.001Z</time></trkpt><trkpt lat="43.22084532759007" lon="12.255403687519157"><ele>662.5</ele><time>2026-03-29T08:23:37.001Z</time></trkpt><trkpt lat="43.22093459151272" lon="12.255336407849368"><ele>661.6666666666666</ele><time>2026-03-29T08:23:39.001Z</time></trkpt><trkpt lat="43.22098156534841" lon="12.255237185661027"><ele>660.8333333333334</ele><time>2026-03-29T08:23:41.001Z</time></trkpt><trkpt lat="43.22100818996387" lon="12.255115784452848"><ele>660.0</ele><time>2026-03-29T08:23:43.001Z</time></trkpt><trkpt lat="43.22100298518551" lon="12.255003968341404"><ele>660.0</ele><time>2026-03-29T08:23:44.001Z</time></trkpt><trkpt lat="43.22102670496389" lon="12.25485555708028"><ele>660.0</ele><time>2026-03-29T08:23:46.001Z</time></trkpt><trkpt lat="43.22108267693317" lon="12.254790403350059"><ele>660.0</ele><time>2026-03-29T08:23:47.001Z</time></trkpt><trkpt lat="43.22116465230308" lon="12.25475285254149"><ele>660.0</ele><time>2026-03-29T08:23:48.001Z</time></trkpt><trkpt lat="43.22124026495903" lon="12.254660354942821"><ele>660.0</ele><time>2026-03-29T08:23:50.001Z</time></trkpt><trkpt lat="43.22128540938312" lon="12.254569102815612"><ele>660.0</ele><time>2026-03-29T08:23:52.001Z</time></trkpt><trkpt lat="43.22135093285633" lon="12.254484849474155"><ele>660.0</ele><time>2026-03-29T08:23:53.001Z</time></trkpt><trkpt lat="43.22143317178611" lon="12.254483699131955"><ele>660.0</ele><time>2026-03-29T08:23:55.001Z</time></trkpt><trkpt lat="43.221531714008655" lon="12.254539229490863"><ele>660.0</ele><time>2026-03-29T08:23:56.001Z</time></trkpt><trkpt lat="43.22164240697081" lon="12.254604377319"><ele>660.0</ele><time>2026-03-29T08:23:57.001Z</time></trkpt><trkpt lat="43.221709277109994" lon="12.254631976423692"><ele>660.0</ele><time>2026-03-29T08:23:58.001Z</time></trkpt><trkpt lat="43.22180041093421" lon="12.254629691853932"><ele>660.0</ele><time>2026-03-29T08:24:00.001Z</time></trkpt><trkpt lat="43.22186218046363" lon="12.254607612409135"><ele>660.0</ele><time>2026-03-29T08:24:01.001Z</time></trkpt><trkpt lat="43.22195192920677" lon="12.254742253040472"><ele>660.0</ele><time>2026-03-29T08:24:03.002Z</time></trkpt><trkpt lat="43.22200055446178" lon="12.254861492340588"><ele>660.0</ele><time>2026-03-29T08:24:04.002Z</time></trkpt><trkpt lat="43.222115437182445" lon="12.254939780346652"><ele>660.0</ele><time>2026-03-29T08:24:06.002Z</time></trkpt><trkpt lat="43.222186632155925" lon="12.254961670118686"><ele>660.0</ele><time>2026-03-29T08:24:07.002Z</time></trkpt><trkpt lat="43.22227536056961" lon="12.254947939601502"><ele>660.0</ele><time>2026-03-29T08:24:08.002Z</time></trkpt><trkpt lat="43.222346480508314" lon="12.254869632910625"><ele>660.0</ele><time>2026-03-29T08:24:09.002Z</time></trkpt><trkpt lat="43.2224331812973" lon="12.254821791302414"><ele>660.0</ele><time>2026-03-29T08:24:10.002Z</time></trkpt><trkpt lat="43.22251442746553" lon="12.254782910592226"><ele>660.0</ele><time>2026-03-29T08:24:11.002Z</time></trkpt><trkpt lat="43.22259268444404" lon="12.254851937953328"><ele>655.1666666666666</ele><time>2026-03-29T08:24:13.002Z</time></trkpt><trkpt lat="43.222638707795134" lon="12.254922785450145"><ele>650.3333333333334</ele><time>2026-03-29T08:24:14.002Z</time></trkpt><trkpt lat="43.22269431568075" lon="12.25500747910742"><ele>645.5</ele><time>2026-03-29T08:24:15.001Z</time></trkpt><trkpt lat="43.22277331980144" lon="12.255063819439574"><ele>640.6666666666667</ele><time>2026-03-29T08:24:16.001Z</time></trkpt><trkpt lat="43.22284219384815" lon="12.255108697433753"><ele>635.8333333333334</ele><time>2026-03-29T08:24:17.001Z</time></trkpt><trkpt lat="43.222899732109454" lon="12.255176504827801"><ele>631.0</ele><time>2026-03-29T08:24:18.001Z</time></trkpt><trkpt lat="43.22297372224776" lon="12.255283097693694"><ele>631.0</ele><time>2026-03-29T08:24:20.001Z</time></trkpt><trkpt lat="43.223067767304656" lon="12.255346040839028"><ele>631.0</ele><time>2026-03-29T08:24:22.001Z</time></trkpt><trkpt lat="43.22313360875552" lon="12.255270912085532"><ele>631.0</ele><time>2026-03-29T08:24:25.001Z</time></trkpt><trkpt lat="43.22324179484249" lon="12.255210549602955"><ele>631.0</ele><time>2026-03-29T08:24:29.001Z</time></trkpt><trkpt lat="43.22331544041038" lon="12.255179799237029"><ele>631.0</ele><time>2026-03-29T08:24:31.001Z</time></trkpt><trkpt lat="43.223339743958576" lon="12.255040266825883"><ele>633.4</ele><time>2026-03-29T08:24:34Z</time></trkpt><trkpt lat="43.22337161830929" lon="12.254892659757312"><ele>635.8</ele><time>2026-03-29T08:24:36Z</time></trkpt><trkpt lat="43.22348682237874" lon="12.254842656639637"><ele>638.1999999999999</ele><time>2026-03-29T08:24:39Z</time></trkpt><trkpt lat="43.22355783026974" lon="12.254815686888858"><ele>640.6</ele><time>2026-03-29T08:24:40Z</time></trkpt><trkpt lat="43.22363053758788" lon="12.254763741545638"><ele>643.0</ele><time>2026-03-29T08:24:41Z</time></trkpt><trkpt lat="43.223682112735005" lon="12.254678817394243"><ele>647.5999999999999</ele><time>2026-03-29T08:24:42Z</time></trkpt><trkpt lat="43.223732185434756" lon="12.25456090621349"><ele>652.1999999999999</ele><time>2026-03-29T08:24:43Z</time></trkpt><trkpt lat="43.223783633824034" lon="12.254465843676066"><ele>656.8</ele><time>2026-03-29T08:24:44Z</time></trkpt><trkpt lat="43.2238804997089" lon="12.25438539162999"><ele>661.4</ele><time>2026-03-29T08:24:45Z</time></trkpt><trkpt lat="43.22397793664946" lon="12.254325345076056"><ele>666.0</ele><time>2026-03-29T08:24:46Z</time></trkpt><trkpt lat="43.22408337603122" lon="12.25424926403057"><ele>666.0</ele><time>2026-03-29T08:24:47Z</time></trkpt><trkpt lat="43.224202011451624" lon="12.25414234046262"><ele>666.0</ele><time>2026-03-29T08:24:48Z</time></trkpt><trkpt lat="43.22429507069168" lon="12.254051377285458"><ele>666.0</ele><time>2026-03-29T08:24:49Z</time></trkpt><trkpt lat="43.224372171026694" lon="12.253962224497771"><ele>666.0</ele><time>2026-03-29T08:24:50Z</time></trkpt><trkpt lat="43.22443509787726" lon="12.25390047809633"><ele>666.0</ele><time>2026-03-29T08:24:51Z</time></trkpt><trkpt lat="43.2245265881198" lon="12.25388559317812"><ele>672.25</ele><time>2026-03-29T08:24:52Z</time></trkpt><trkpt lat="43.22465117628972" lon="12.253901619588794"><ele>678.5</ele><time>2026-03-29T08:24:53Z</time></trkpt><trkpt lat="43.224786715648364" lon="12.253924058509853"><ele>684.75</ele><time>2026-03-29T08:24:54Z</time></trkpt><trkpt lat="43.22491741352188" lon="12.253934263668908"><ele>691.0</ele><time>2026-03-29T08:24:55Z</time></trkpt><trkpt lat="43.225014036224295" lon="12.253933579406318"><ele>687.5</ele><time>2026-03-29T08:24:56Z</time></trkpt><trkpt lat="43.22510655360189" lon="12.25396301742519"><ele>684.0</ele><time>2026-03-29T08:24:57Z</time></trkpt><trkpt lat="43.225162340245724" lon="12.25403121325106"><ele>680.5</ele><time>2026-03-29T08:24:58Z</time></trkpt><trkpt lat="43.22520913921077" lon="12.254101517476705"><ele>677.0</ele><time>2026-03-29T08:24:59Z</time></trkpt><trkpt lat="43.22527584109383" lon="12.25411097493265"><ele>673.5</ele><time>2026-03-29T08:25:00Z</time></trkpt><trkpt lat="43.22534949222621" lon="12.254115996901001"><ele>670.0</ele><time>2026-03-29T08:25:01.001Z</time></trkpt><trkpt lat="43.22543766385907" lon="12.25410521687841"><ele>670.0</ele><time>2026-03-29T08:25:02.001Z</time></trkpt><trkpt lat="43.22552318597508" lon="12.254144277255316"><ele>670.0</ele><time>2026-03-29T08:25:03.001Z</time></trkpt><trkpt lat="43.22562653810419" lon="12.254170493034062"><ele>670.0</ele><time>2026-03-29T08:25:04.001Z</time></trkpt><trkpt lat="43.22570936987792" lon="12.25414367669189"><ele>670.0</ele><time>2026-03-29T08:25:05.001Z</time></trkpt><trkpt lat="43.22581156521842" lon="12.254098672217628"><ele>670.0</ele><time>2026-03-29T08:25:06.001Z</time></trkpt><trkpt lat="43.225866700308934" lon="12.254028564110081"><ele>674.1666666666667</ele><time>2026-03-29T08:25:07.001Z</time></trkpt><trkpt lat="43.225917804382824" lon="12.253945606610719"><ele>678.3333333333334</ele><time>2026-03-29T08:25:08.001Z</time></trkpt><trkpt lat="43.225951430556385" lon="12.253847269714047"><ele>682.5</ele><time>2026-03-29T08:25:09.001Z</time></trkpt><trkpt lat="43.225976540592306" lon="12.253727008934977"><ele>686.6666666666666</ele><time>2026-03-29T08:25:10.001Z</time></trkpt><trkpt lat="43.22598474591075" lon="12.253627839234206"><ele>690.8333333333333</ele><time>2026-03-29T08:25:11.001Z</time></trkpt><trkpt lat="43.225993480572555" lon="12.25353745970988"><ele>695.0</ele><time>2026-03-29T08:25:12.001Z</time></trkpt><trkpt lat="43.22604972619244" lon="12.253464298639047"><ele>695.0</ele><time>2026-03-29T08:25:13.001Z</time></trkpt><trkpt lat="43.22606594554766" lon="12.253359906327082"><ele>695.0</ele><time>2026-03-29T08:25:14.001Z</time></trkpt><trkpt lat="43.22607894547955" lon="12.253240020535301"><ele>695.0</ele><time>2026-03-29T08:25:15.001Z</time></trkpt><trkpt lat="43.226107331019996" lon="12.253060269155714"><ele>695.0</ele><time>2026-03-29T08:25:16.001Z</time></trkpt><trkpt lat="43.22614121120937" lon="12.252871243501096"><ele>695.0</ele><time>2026-03-29T08:25:17.001Z</time></trkpt><trkpt lat="43.22615816360431" lon="12.25271279853033"><ele>697.8333333333333</ele><time>2026-03-29T08:25:18.001Z</time></trkpt><trkpt lat="43.22617609558711" lon="12.25257792086374"><ele>700.6666666666666</ele><time>2026-03-29T08:25:19.001Z</time></trkpt><trkpt lat="43.226187886093086" lon="12.252492344445129"><ele>703.5</ele><time>2026-03-29T08:25:20.001Z</time></trkpt><trkpt lat="43.22621502025064" lon="12.252334940505623"><ele>706.3333333333334</ele><time>2026-03-29T08:25:22.001Z</time></trkpt><trkpt lat="43.2262402254038" lon="12.252251986661172"><ele>709.1666666666667</ele><time>2026-03-29T08:25:23.001Z</time></trkpt><trkpt lat="43.226290776815894" lon="12.252181744831814"><ele>712.0</ele><time>2026-03-29T08:25:25.001Z</time></trkpt><trkpt lat="43.22635236240908" lon="12.252142326270892"><ele>714.5</ele><time>2026-03-29T08:25:26.001Z</time></trkpt><trkpt lat="43.22646832315174" lon="12.252123288189589"><ele>717.0</ele><time>2026-03-29T08:25:27.001Z</time></trkpt><trkpt lat="43.2265727937882" lon="12.252091542477297"><ele>719.5</ele><time>2026-03-29T08:25:28.001Z</time></trkpt><trkpt lat="43.22668086183568" lon="12.252036883781626"><ele>722.0</ele><time>2026-03-29T08:25:29.001Z</time></trkpt><trkpt lat="43.22680309303799" lon="12.251985549031959"><ele>722.0</ele><time>2026-03-29T08:25:30.001Z</time></trkpt><trkpt lat="43.22688161721166" lon="12.251943317688045"><ele>722.0</ele><time>2026-03-29T08:25:31.001Z</time></trkpt><trkpt lat="43.22695599760189" lon="12.251872036157186"><ele>722.0</ele><time>2026-03-29T08:25:34.001Z</time></trkpt><trkpt lat="43.22703756115996" lon="12.25182291259667"><ele>722.0</ele><time>2026-03-29T08:25:35.001Z</time></trkpt><trkpt lat="43.227159910235" lon="12.251752164457464"><ele>722.0</ele><time>2026-03-29T08:25:36.001Z</time></trkpt><trkpt lat="43.22725170487479" lon="12.25166359512953"><ele>722.0</ele><time>2026-03-29T08:25:37.001Z</time></trkpt><trkpt lat="43.22735173132165" lon="12.251601497289595"><ele>722.0</ele><time>2026-03-29T08:25:38.001Z</time></trkpt><trkpt lat="43.22746878634751" lon="12.251582110730373"><ele>722.0</ele><time>2026-03-29T08:25:39.001Z</time></trkpt><trkpt lat="43.22755618390427" lon="12.251613405757114"><ele>722.0</ele><time>2026-03-29T08:25:40.001Z</time></trkpt><trkpt lat="43.22763327524623" lon="12.251617179348273"><ele>722.0</ele><time>2026-03-29T08:25:41.001Z</time></trkpt><trkpt lat="43.22771005519579" lon="12.251654664976641"><ele>722.0</ele><time>2026-03-29T08:25:42.001Z</time></trkpt><trkpt lat="43.22778894321908" lon="12.25168163606186"><ele>722.0</ele><time>2026-03-29T08:25:43.001Z</time></trkpt><trkpt lat="43.22788653271943" lon="12.251695179759407"><ele>722.0</ele><time>2026-03-29T08:25:44.001Z</time></trkpt><trkpt lat="43.22801159338483" lon="12.251701222717369"><ele>722.0</ele><time>2026-03-29T08:25:45.001Z</time></trkpt><trkpt lat="43.22814061409133" lon="12.25170474794696"><ele>722.0</ele><time>2026-03-29T08:25:46.001Z</time></trkpt><trkpt lat="43.22824211905448" lon="12.251712782363086"><ele>722.2</ele><time>2026-03-29T08:25:47.001Z</time></trkpt><trkpt lat="43.22833276033177" lon="12.251714622858485"><ele>722.4000000000001</ele><time>2026-03-29T08:25:48.001Z</time></trkpt><trkpt lat="43.228403539728184" lon="12.251728686490587"><ele>722.5999999999999</ele><time>2026-03-29T08:25:49.001Z</time></trkpt><trkpt lat="43.22847435681861" lon="12.251745454364917"><ele>722.8</ele><time>2026-03-29T08:25:50.001Z</time></trkpt><trkpt lat="43.22857986801865" lon="12.251767286021444"><ele>723.0</ele><time>2026-03-29T08:25:52.001Z</time></trkpt><trkpt lat="43.22870388605414" lon="12.251721771577087"><ele>723.0</ele><time>2026-03-29T08:25:54.001Z</time></trkpt><trkpt lat="43.22878045211184" lon="12.25161010826245"><ele>723.0</ele><time>2026-03-29T08:25:55.001Z</time></trkpt><trkpt lat="43.22885216708821" lon="12.251483329560472"><ele>723.0</ele><time>2026-03-29T08:25:56.001Z</time></trkpt><trkpt lat="43.22895005930592" lon="12.251343368839914"><ele>723.0</ele><time>2026-03-29T08:25:57.001Z</time></trkpt><trkpt lat="43.229032009456155" lon="12.251230130708798"><ele>725.2</ele><time>2026-03-29T08:25:58.001Z</time></trkpt><trkpt lat="43.22909652952247" lon="12.251150323960509"><ele>727.4</ele><time>2026-03-29T08:25:59.001Z</time></trkpt><trkpt lat="43.2291708526221" lon="12.251089089694357"><ele>729.6</ele><time>2026-03-29T08:26:00.001Z</time></trkpt><trkpt lat="43.22925494553823" lon="12.25103795491802"><ele>731.8000000000001</ele><time>2026-03-29T08:26:01.001Z</time></trkpt><trkpt lat="43.22936527041856" lon="12.25096166998032"><ele>734.0</ele><time>2026-03-29T08:26:02.001Z</time></trkpt><trkpt lat="43.22943562476806" lon="12.250906319871222"><ele>734.0</ele><time>2026-03-29T08:26:03.001Z</time></trkpt><trkpt lat="43.229490395706" lon="12.250848229952904"><ele>734.0</ele><time>2026-03-29T08:26:04.001Z</time></trkpt><trkpt lat="43.22953772490196" lon="12.250750922187907"><ele>734.0</ele><time>2026-03-29T08:26:05.001Z</time></trkpt><trkpt lat="43.22957599690948" lon="12.250655060223343"><ele>734.0</ele><time>2026-03-29T08:26:06.001Z</time></trkpt><trkpt lat="43.22960834967547" lon="12.250579258246868"><ele>734.0</ele><time>2026-03-29T08:26:07.001Z</time></trkpt><trkpt lat="43.22970544020347" lon="12.250479321604713"><ele>734.0</ele><time>2026-03-29T08:26:09.001Z</time></trkpt><trkpt lat="43.22977659319604" lon="12.25045304932853"><ele>736.6</ele><time>2026-03-29T08:26:10.001Z</time></trkpt><trkpt lat="43.229871980637185" lon="12.250436655893484"><ele>739.2</ele><time>2026-03-29T08:26:11.001Z</time></trkpt><trkpt lat="43.229959398028235" lon="12.250419651448741"><ele>741.8000000000001</ele><time>2026-03-29T08:26:12.001Z</time></trkpt><trkpt lat="43.23006623334294" lon="12.250468399932625"><ele>744.4000000000001</ele><time>2026-03-29T08:26:13.001Z</time></trkpt><trkpt lat="43.23016075095603" lon="12.250484591534601"><ele>747.0</ele><time>2026-03-29T08:26:14.001Z</time></trkpt><trkpt lat="43.230262127644366" lon="12.250522485015388"><ele>747.0</ele><time>2026-03-29T08:26:15.001Z</time></trkpt><trkpt lat="43.23034824536639" lon="12.250544359342712"><ele>747.0</ele><time>2026-03-29T08:26:16.001Z</time></trkpt><trkpt lat="43.23041504347001" lon="12.25059180040681"><ele>747.0</ele><time>2026-03-29T08:26:17.001Z</time></trkpt><trkpt lat="43.230511599618026" lon="12.250607986931941"><ele>747.0</ele><time>2026-03-29T08:26:18.001Z</time></trkpt><trkpt lat="43.23063034223138" lon="12.250562571823055"><ele>747.0</ele><time>2026-03-29T08:26:19.001Z</time></trkpt><trkpt lat="43.23072306904898" lon="12.250506361210883"><ele>745.2</ele><time>2026-03-29T08:26:20.001Z</time></trkpt><trkpt lat="43.230816985552906" lon="12.250510082495667"><ele>743.4000000000001</ele><time>2026-03-29T08:26:21Z</time></trkpt><trkpt lat="43.230893508220085" lon="12.250467749898775"><ele>741.5999999999999</ele><time>2026-03-29T08:26:22Z</time></trkpt><trkpt lat="43.23102237804564" lon="12.250386316078211"><ele>739.8</ele><time>2026-03-29T08:26:24Z</time></trkpt><trkpt lat="43.231102439001845" lon="12.250314624468094"><ele>738.0</ele><time>2026-03-29T08:26:25Z</time></trkpt><trkpt lat="43.23119158008891" lon="12.250236267332637"><ele>738.0</ele><time>2026-03-29T08:26:26Z</time></trkpt><trkpt lat="43.23124996694875" lon="12.250200480556112"><ele>738.0</ele><time>2026-03-29T08:26:27Z</time></trkpt><trkpt lat="43.231310163426684" lon="12.25017425690968"><ele>738.0</ele><time>2026-03-29T08:26:28Z</time></trkpt><trkpt lat="43.231392312910685" lon="12.250152553622149"><ele>738.0</ele><time>2026-03-29T08:26:29Z</time></trkpt><trkpt lat="43.231477684975495" lon="12.250140380626657"><ele>738.0</ele><time>2026-03-29T08:26:30Z</time></trkpt><trkpt lat="43.2315519785363" lon="12.250112366173262"><ele>738.0</ele><time>2026-03-29T08:26:31Z</time></trkpt><trkpt lat="43.23163167118987" lon="12.250120490460237"><ele>735.8</ele><time>2026-03-29T08:26:32Z</time></trkpt><trkpt lat="43.23170584619796" lon="12.250181580330763"><ele>733.5999999999999</ele><time>2026-03-29T08:26:33Z</time></trkpt><trkpt lat="43.23181911598985" lon="12.250200942007737"><ele>731.4000000000001</ele><time>2026-03-29T08:26:35Z</time></trkpt><trkpt lat="43.23190992803414" lon="12.250179849175066"><ele>729.2</ele><time>2026-03-29T08:26:37Z</time></trkpt><trkpt lat="43.23200614207449" lon="12.250123387837098"><ele>727.0</ele><time>2026-03-29T08:26:39Z</time></trkpt><trkpt lat="43.232106361359115" lon="12.25004981808639"><ele>727.0</ele><time>2026-03-29T08:26:41Z</time></trkpt><trkpt lat="43.232208345683034" lon="12.249979489946366"><ele>727.0</ele><time>2026-03-29T08:26:43Z</time></trkpt><trkpt lat="43.23229800999519" lon="12.249907641769594"><ele>727.0</ele><time>2026-03-29T08:26:45Z</time></trkpt><trkpt lat="43.232366799561056" lon="12.249788192324417"><ele>727.0</ele><time>2026-03-29T08:26:47Z</time></trkpt><trkpt lat="43.232424972211355" lon="12.249735439509909"><ele>727.0</ele><time>2026-03-29T08:26:48Z</time></trkpt><trkpt lat="43.23248057110338" lon="12.249633633969935"><ele>728.0</ele><time>2026-03-29T08:26:49Z</time></trkpt><trkpt lat="43.23253283509149" lon="12.249550658513218"><ele>729.0</ele><time>2026-03-29T08:26:50Z</time></trkpt><trkpt lat="43.232591858049965" lon="12.249477955827766"><ele>730.0</ele><time>2026-03-29T08:26:51Z</time></trkpt><trkpt lat="43.23266644146432" lon="12.24943019461875"><ele>731.0</ele><time>2026-03-29T08:26:52Z</time></trkpt><trkpt lat="43.23276031850713" lon="12.249373898148175"><ele>732.0</ele><time>2026-03-29T08:26:53Z</time></trkpt><trkpt lat="43.23289308090331" lon="12.249315373427367"><ele>732.0</ele><time>2026-03-29T08:26:54Z</time></trkpt><trkpt lat="43.233030346990866" lon="12.249263918197745"><ele>732.0</ele><time>2026-03-29T08:26:55Z</time></trkpt><trkpt lat="43.233141835925" lon="12.249226309875274"><ele>732.0</ele><time>2026-03-29T08:26:56.001Z</time></trkpt><trkpt lat="43.23325556417417" lon="12.24919133373767"><ele>732.0</ele><time>2026-03-29T08:26:57.001Z</time></trkpt><trkpt lat="43.23338229081791" lon="12.249155906907943"><ele>729.0</ele><time>2026-03-29T08:26:58.001Z</time></trkpt><trkpt lat="43.233498457278955" lon="12.249127413220906"><ele>726.0</ele><time>2026-03-29T08:26:59.001Z</time></trkpt><trkpt lat="43.23360462073162" lon="12.249105089280182"><ele>723.0</ele><time>2026-03-29T08:27:00.001Z</time></trkpt><trkpt lat="43.23371178267056" lon="12.249087272295355"><ele>720.0</ele><time>2026-03-29T08:27:01.001Z</time></trkpt><trkpt lat="43.23384675023148" lon="12.249077887291408"><ele>718.6666666666666</ele><time>2026-03-29T08:27:02.001Z</time></trkpt><trkpt lat="43.23400847084509" lon="12.249111376775641"><ele>717.3333333333333</ele><time>2026-03-29T08:27:03.001Z</time></trkpt><trkpt lat="43.23415441611901" lon="12.249147702210172"><ele>716.0</ele><time>2026-03-29T08:27:04.001Z</time></trkpt><trkpt lat="43.2343112682562" lon="12.249201103354235"><ele>716.0</ele><time>2026-03-29T08:27:05.001Z</time></trkpt><trkpt lat="43.23445113642358" lon="12.249282198213088"><ele>716.0</ele><time>2026-03-29T08:27:06.001Z</time></trkpt><trkpt lat="43.2345454650897" lon="12.249323949748234"><ele>716.0</ele><time>2026-03-29T08:27:07.001Z</time></trkpt><trkpt lat="43.23461776348599" lon="12.249314540959624"><ele>716.0</ele><time>2026-03-29T08:27:08.001Z</time></trkpt><trkpt lat="43.23472534206962" lon="12.24927459620645"><ele>716.0</ele><time>2026-03-29T08:27:10.001Z</time></trkpt><trkpt lat="43.23477788248241" lon="12.249197252447976"><ele>714.8</ele><time>2026-03-29T08:27:11.001Z</time></trkpt><trkpt lat="43.23482264825036" lon="12.249103033389142"><ele>713.5999999999999</ele><time>2026-03-29T08:27:12.001Z</time></trkpt><trkpt lat="43.23484852607694" lon="12.24898188439641"><ele>712.4</ele><time>2026-03-29T08:27:13.001Z</time></trkpt><trkpt lat="43.23487601062342" lon="12.248839020360009"><ele>711.2</ele><time>2026-03-29T08:27:14.001Z</time></trkpt><trkpt lat="43.2349070428206" lon="12.248696309996559"><ele>710.0</ele><time>2026-03-29T08:27:15.001Z</time></trkpt><trkpt lat="43.234944068141026" lon="12.248588920566604"><ele>712.8</ele><time>2026-03-29T08:27:16.001Z</time></trkpt><trkpt lat="43.23499620884411" lon="12.248508684847145"><ele>715.6</ele><time>2026-03-29T08:27:17.001Z</time></trkpt><trkpt lat="43.235068245597766" lon="12.248409258275732"><ele>718.4000000000001</ele><time>2026-03-29T08:27:18.001Z</time></trkpt><trkpt lat="43.235168288453" lon="12.24830197429692"><ele>721.2</ele><time>2026-03-29T08:27:19.001Z</time></trkpt><trkpt lat="43.235238154101516" lon="12.248199274790974"><ele>724.0</ele><time>2026-03-29T08:27:20.001Z</time></trkpt><trkpt lat="43.23530156530972" lon="12.248112129546003"><ele>723.2</ele><time>2026-03-29T08:27:21.001Z</time></trkpt><trkpt lat="43.235322993822955" lon="12.247999445780922"><ele>722.4000000000001</ele><time>2026-03-29T08:27:22.001Z</time></trkpt><trkpt lat="43.23541391473428" lon="12.2478992870564"><ele>721.6</ele><time>2026-03-29T08:27:24.001Z</time></trkpt><trkpt lat="43.235514788352404" lon="12.247793555537442"><ele>720.8</ele><time>2026-03-29T08:27:26.001Z</time></trkpt><trkpt lat="43.235596276258676" lon="12.247688173469843"><ele>720.0</ele><time>2026-03-29T08:27:27.001Z</time></trkpt><trkpt lat="43.23569712660364" lon="12.247598267768668"><ele>720.0</ele><time>2026-03-29T08:27:28.001Z</time></trkpt><trkpt lat="43.23577812429051" lon="12.247524897245711"><ele>720.0</ele><time>2026-03-29T08:27:29.001Z</time></trkpt><trkpt lat="43.2358415211606" lon="12.247422448752"><ele>720.0</ele><time>2026-03-29T08:27:30.001Z</time></trkpt><trkpt lat="43.23589660540028" lon="12.247305790345878"><ele>720.0</ele><time>2026-03-29T08:27:31.001Z</time></trkpt><trkpt lat="43.23598561039975" lon="12.247184136429404"><ele>720.0</ele><time>2026-03-29T08:27:32.001Z</time></trkpt><trkpt lat="43.2360696789779" lon="12.247085959170295"><ele>722.0</ele><time>2026-03-29T08:27:33.001Z</time></trkpt><trkpt lat="43.236159573334376" lon="12.247016935870521"><ele>724.0</ele><time>2026-03-29T08:27:34.001Z</time></trkpt><trkpt lat="43.23623403307842" lon="12.246961789753927"><ele>726.0</ele><time>2026-03-29T08:27:35.001Z</time></trkpt><trkpt lat="43.236301555827794" lon="12.246924989662261"><ele>728.0</ele><time>2026-03-29T08:27:36.001Z</time></trkpt><trkpt lat="43.23637050975053" lon="12.246792037984118"><ele>730.0</ele><time>2026-03-29T08:27:38.001Z</time></trkpt><trkpt lat="43.23639178082716" lon="12.246651929299603"><ele>730.0</ele><time>2026-03-29T08:27:39.001Z</time></trkpt><trkpt lat="43.236437178054025" lon="12.246507533317395"><ele>730.0</ele><time>2026-03-29T08:27:40.001Z</time></trkpt><trkpt lat="43.236474951365146" lon="12.246357671518016"><ele>730.0</ele><time>2026-03-29T08:27:41.001Z</time></trkpt><trkpt lat="43.23651528833099" lon="12.246171841290277"><ele>730.0</ele><time>2026-03-29T08:27:42.001Z</time></trkpt><trkpt lat="43.236535116913714" lon="12.245978376214127"><ele>729.3333333333334</ele><time>2026-03-29T08:27:43.001Z</time></trkpt><trkpt lat="43.236561227985" lon="12.245849258544784"><ele>728.6666666666667</ele><time>2026-03-29T08:27:44.001Z</time></trkpt><trkpt lat="43.236569330388676" lon="12.245762200503943"><ele>728.0</ele><time>2026-03-29T08:27:45.001Z</time></trkpt><trkpt lat="43.236583347854015" lon="12.245645137981032"><ele>727.3333333333334</ele><time>2026-03-29T08:27:47.001Z</time></trkpt><trkpt lat="43.236594035977184" lon="12.24555396623247"><ele>726.6666666666666</ele><time>2026-03-29T08:27:49.001Z</time></trkpt><trkpt lat="43.236666166889144" lon="12.245458939007008"><ele>726.0</ele><time>2026-03-29T08:27:51.001Z</time></trkpt><trkpt lat="43.23671536443977" lon="12.245404488351888"><ele>726.0</ele><time>2026-03-29T08:27:52.001Z</time></trkpt><trkpt lat="43.236812966322674" lon="12.245283374668203"><ele>726.0</ele><time>2026-03-29T08:27:54.001Z</time></trkpt><trkpt lat="43.23694249265585" lon="12.245145195631073"><ele>726.0</ele><time>2026-03-29T08:27:56.001Z</time></trkpt><trkpt lat="43.23703037496648" lon="12.245077087566607"><ele>726.0</ele><time>2026-03-29T08:27:57.001Z</time></trkpt><trkpt lat="43.23712323809047" lon="12.2450077146451"><ele>726.0</ele><time>2026-03-29T08:27:58.001Z</time></trkpt><trkpt lat="43.237221680582145" lon="12.244936348283712"><ele>726.0</ele><time>2026-03-29T08:27:59.001Z</time></trkpt><trkpt lat="43.23731835097918" lon="12.244857167429728"><ele>726.0</ele><time>2026-03-29T08:28:00.001Z</time></trkpt><trkpt lat="43.23741755185554" lon="12.244785469319146"><ele>726.0</ele><time>2026-03-29T08:28:01.001Z</time></trkpt><trkpt lat="43.23751579347165" lon="12.244705603493335"><ele>723.25</ele><time>2026-03-29T08:28:02.001Z</time></trkpt><trkpt lat="43.23761665127165" lon="12.244624429946356"><ele>720.5</ele><time>2026-03-29T08:28:03.001Z</time></trkpt><trkpt lat="43.237722619296974" lon="12.244536653098184"><ele>717.75</ele><time>2026-03-29T08:28:04.001Z</time></trkpt><trkpt lat="43.23783332868628" lon="12.244459610632113"><ele>715.0</ele><time>2026-03-29T08:28:05.001Z</time></trkpt><trkpt lat="43.237933839897394" lon="12.244388327172087"><ele>715.0</ele><time>2026-03-29T08:28:06.001Z</time></trkpt><trkpt lat="43.23803875326737" lon="12.244293256255688"><ele>715.0</ele><time>2026-03-29T08:28:07.001Z</time></trkpt><trkpt lat="43.23815021941076" lon="12.244204749751361"><ele>715.0</ele><time>2026-03-29T08:28:08.001Z</time></trkpt><trkpt lat="43.23826570858157" lon="12.244138279033852"><ele>715.0</ele><time>2026-03-29T08:28:09.001Z</time></trkpt><trkpt lat="43.23839918306442" lon="12.244091311930797"><ele>715.25</ele><time>2026-03-29T08:28:10.001Z</time></trkpt><trkpt lat="43.23852654377565" lon="12.24407183912124"><ele>715.5</ele><time>2026-03-29T08:28:11.001Z</time></trkpt><trkpt lat="43.23865558768715" lon="12.244055459592742"><ele>715.75</ele><time>2026-03-29T08:28:12.001Z</time></trkpt><trkpt lat="43.23877706582655" lon="12.243999341116652"><ele>716.0</ele><time>2026-03-29T08:28:13.001Z</time></trkpt><trkpt lat="43.23889725896366" lon="12.243911206412365"><ele>714.0</ele><time>2026-03-29T08:28:14.001Z</time></trkpt><trkpt lat="43.239008436986374" lon="12.24379244323904"><ele>712.0</ele><time>2026-03-29T08:28:15.001Z</time></trkpt><trkpt lat="43.23911674772146" lon="12.243649168798484"><ele>710.0</ele><time>2026-03-29T08:28:16.001Z</time></trkpt><trkpt lat="43.23922795333426" lon="12.243509452692779"><ele>708.0</ele><time>2026-03-29T08:28:17.001Z</time></trkpt><trkpt lat="43.23934608102829" lon="12.243371737629056"><ele>708.0</ele><time>2026-03-29T08:28:18.001Z</time></trkpt><trkpt lat="43.23946975830213" lon="12.243239538226756"><ele>708.0</ele><time>2026-03-29T08:28:19.001Z</time></trkpt><trkpt lat="43.23960229657318" lon="12.243104586939275"><ele>708.0</ele><time>2026-03-29T08:28:20.001Z</time></trkpt><trkpt lat="43.239737912535546" lon="12.24296669106849"><ele>704.3333333333334</ele><time>2026-03-29T08:28:21.001Z</time></trkpt><trkpt lat="43.23987898088924" lon="12.242828905416644"><ele>700.6666666666667</ele><time>2026-03-29T08:28:22.001Z</time></trkpt><trkpt lat="43.24001368745706" lon="12.242705491661006"><ele>697.0</ele><time>2026-03-29T08:28:23.001Z</time></trkpt><trkpt lat="43.24014450014791" lon="12.242585631519681"><ele>697.0</ele><time>2026-03-29T08:28:24.001Z</time></trkpt><trkpt lat="43.24025771301383" lon="12.242472653330125"><ele>697.0</ele><time>2026-03-29T08:28:25.001Z</time></trkpt><trkpt lat="43.240347063829645" lon="12.242418004953347"><ele>697.0</ele><time>2026-03-29T08:28:26.001Z</time></trkpt><trkpt lat="43.24041041836772" lon="12.242378905213585"><ele>697.0</ele><time>2026-03-29T08:28:27.001Z</time></trkpt><trkpt lat="43.2405505072302" lon="12.242329828732707"><ele>696.0</ele><time>2026-03-29T08:28:29.001Z</time></trkpt><trkpt lat="43.24062201956125" lon="12.242157102725054"><ele>695.0</ele><time>2026-03-29T08:28:30.001Z</time></trkpt><trkpt lat="43.24070364756721" lon="12.242043110037065"><ele>694.0</ele><time>2026-03-29T08:28:31.001Z</time></trkpt><trkpt lat="43.240809346318606" lon="12.241945993696218"><ele>693.0</ele><time>2026-03-29T08:28:32.001Z</time></trkpt><trkpt lat="43.24089224373895" lon="12.241830362482101"><ele>695.0</ele><time>2026-03-29T08:28:33.001Z</time></trkpt><trkpt lat="43.2409825853839" lon="12.241750176299854"><ele>697.0</ele><time>2026-03-29T08:28:34.001Z</time></trkpt><trkpt lat="43.24108767933938" lon="12.24167428946876"><ele>699.0</ele><time>2026-03-29T08:28:35.001Z</time></trkpt><trkpt lat="43.241215902190056" lon="12.241637266318149"><ele>701.0</ele><time>2026-03-29T08:28:36.001Z</time></trkpt><trkpt lat="43.241343632647585" lon="12.241565683988156"><ele>702.5</ele><time>2026-03-29T08:28:37.001Z</time></trkpt><trkpt lat="43.24147456008819" lon="12.241489360491395"><ele>704.0</ele><time>2026-03-29T08:28:38.001Z</time></trkpt><trkpt lat="43.24159603627113" lon="12.241396242863901"><ele>705.5</ele><time>2026-03-29T08:28:39.001Z</time></trkpt><trkpt lat="43.24172517877656" lon="12.241302205523132"><ele>707.0</ele><time>2026-03-29T08:28:40.001Z</time></trkpt><trkpt lat="43.24182640058201" lon="12.24122823196689"><ele>707.2</ele><time>2026-03-29T08:28:41.001Z</time></trkpt><trkpt lat="43.2419152450147" lon="12.241199741310432"><ele>707.4000000000001</ele><time>2026-03-29T08:28:42.001Z</time></trkpt><trkpt lat="43.24199628175373" lon="12.241145359272306"><ele>707.5999999999999</ele><time>2026-03-29T08:28:43.001Z</time></trkpt><trkpt lat="43.24210014423664" lon="12.241128264214982"><ele>707.8</ele><time>2026-03-29T08:28:44.001Z</time></trkpt><trkpt lat="43.242206668061186" lon="12.241167841646229"><ele>708.0</ele><time>2026-03-29T08:28:45.001Z</time></trkpt><trkpt lat="43.24233494394076" lon="12.241183921018623"><ele>708.5</ele><time>2026-03-29T08:28:46.001Z</time></trkpt><trkpt lat="43.24246360147303" lon="12.241183480084919"><ele>709.0</ele><time>2026-03-29T08:28:47.001Z</time></trkpt><trkpt lat="43.242605348383655" lon="12.241216200233932"><ele>709.5</ele><time>2026-03-29T08:28:48.001Z</time></trkpt><trkpt lat="43.242731912218154" lon="12.241258497630332"><ele>710.0</ele><time>2026-03-29T08:28:49.001Z</time></trkpt><trkpt lat="43.242852943484635" lon="12.241268571521694"><ele>710.0</ele><time>2026-03-29T08:28:50.001Z</time></trkpt><trkpt lat="43.242965800177394" lon="12.241274728928987"><ele>710.0</ele><time>2026-03-29T08:28:51.001Z</time></trkpt><trkpt lat="43.243108165712826" lon="12.241326937883468"><ele>710.0</ele><time>2026-03-29T08:28:52.001Z</time></trkpt><trkpt lat="43.2432433199153" lon="12.241367293830946"><ele>710.0</ele><time>2026-03-29T08:28:53.001Z</time></trkpt><trkpt lat="43.243358536102264" lon="12.241428268520893"><ele>712.5</ele><time>2026-03-29T08:28:54.001Z</time></trkpt><trkpt lat="43.24346778427193" lon="12.241501690307548"><ele>715.0</ele><time>2026-03-29T08:28:55.001Z</time></trkpt><trkpt lat="43.24359449999643" lon="12.241581145103881"><ele>717.5</ele><time>2026-03-29T08:28:56.001Z</time></trkpt><trkpt lat="43.243716875555315" lon="12.241660451032228"><ele>720.0</ele><time>2026-03-29T08:28:57.001Z</time></trkpt><trkpt lat="43.24383505783392" lon="12.241744009221255"><ele>720.0</ele><time>2026-03-29T08:28:58.001Z</time></trkpt><trkpt lat="43.24393989009579" lon="12.241844826950416"><ele>720.0</ele><time>2026-03-29T08:28:59.001Z</time></trkpt><trkpt lat="43.24403486662471" lon="12.241975020560401"><ele>720.0</ele><time>2026-03-29T08:29:00.001Z</time></trkpt><trkpt lat="43.24415878693774" lon="12.242084428900311"><ele>720.0</ele><time>2026-03-29T08:29:01.001Z</time></trkpt><trkpt lat="43.244277095985524" lon="12.242179221177551"><ele>720.0</ele><time>2026-03-29T08:29:02.001Z</time></trkpt><trkpt lat="43.24441584548748" lon="12.242260386011475"><ele>720.0</ele><time>2026-03-29T08:29:03.001Z</time></trkpt><trkpt lat="43.24455462091708" lon="12.242339056888197"><ele>720.0</ele><time>2026-03-29T08:29:04.001Z</time></trkpt><trkpt lat="43.24470003258189" lon="12.242401809365616"><ele>719.3333333333334</ele><time>2026-03-29T08:29:05.001Z</time></trkpt><trkpt lat="43.244860382058846" lon="12.242462933075338"><ele>718.6666666666667</ele><time>2026-03-29T08:29:06.001Z</time></trkpt><trkpt lat="43.245010421958284" lon="12.242526438415135"><ele>718.0</ele><time>2026-03-29T08:29:07.001Z</time></trkpt><trkpt lat="43.24513577313533" lon="12.242581352459013"><ele>718.0</ele><time>2026-03-29T08:29:08.001Z</time></trkpt><trkpt lat="43.24524078117658" lon="12.24265119272586"><ele>718.0</ele><time>2026-03-29T08:29:09.001Z</time></trkpt><trkpt lat="43.24535685032701" lon="12.242740243019737"><ele>718.0</ele><time>2026-03-29T08:29:10.001Z</time></trkpt><trkpt lat="43.24547130643087" lon="12.242846290808746"><ele>718.0</ele><time>2026-03-29T08:29:11.001Z</time></trkpt><trkpt lat="43.245586633460974" lon="12.24295074026278"><ele>718.25</ele><time>2026-03-29T08:29:12.001Z</time></trkpt><trkpt lat="43.245706460341886" lon="12.243054087707154"><ele>718.5</ele><time>2026-03-29T08:29:13.001Z</time></trkpt><trkpt lat="43.24583590250557" lon="12.243131472834213"><ele>718.75</ele><time>2026-03-29T08:29:14.001Z</time></trkpt><trkpt lat="43.24596301681196" lon="12.243209855457598"><ele>719.0</ele><time>2026-03-29T08:29:15.001Z</time></trkpt><trkpt lat="43.24608379997007" lon="12.24327311538488"><ele>720.0</ele><time>2026-03-29T08:29:16.001Z</time></trkpt><trkpt lat="43.24619517560214" lon="12.243306956931585"><ele>721.0</ele><time>2026-03-29T08:29:17.001Z</time></trkpt><trkpt lat="43.24631734010813" lon="12.243328384170296"><ele>722.0</ele><time>2026-03-29T08:29:18.001Z</time></trkpt><trkpt lat="43.24644721788656" lon="12.243360383921287"><ele>723.0</ele><time>2026-03-29T08:29:19.001Z</time></trkpt><trkpt lat="43.246589273889704" lon="12.243396505046542"><ele>724.25</ele><time>2026-03-29T08:29:20.001Z</time></trkpt><trkpt lat="43.24673549685515" lon="12.243432658130248"><ele>725.5</ele><time>2026-03-29T08:29:21.001Z</time></trkpt><trkpt lat="43.246885012609916" lon="12.243480989896296"><ele>726.75</ele><time>2026-03-29T08:29:22.001Z</time></trkpt><trkpt lat="43.247016188150155" lon="12.243515001220867"><ele>728.0</ele><time>2026-03-29T08:29:23.001Z</time></trkpt><trkpt lat="43.24712843094191" lon="12.24355925842674"><ele>728.0</ele><time>2026-03-29T08:29:24.001Z</time></trkpt><trkpt lat="43.24724516727747" lon="12.243565161912633"><ele>728.0</ele><time>2026-03-29T08:29:25.001Z</time></trkpt><trkpt lat="43.24735176337446" lon="12.243606248605904"><ele>728.0</ele><time>2026-03-29T08:29:26.001Z</time></trkpt><trkpt lat="43.2474431725407" lon="12.243680281069132"><ele>728.0</ele><time>2026-03-29T08:29:27.001Z</time></trkpt><trkpt lat="43.2475410210577" lon="12.243793780539413"><ele>728.2</ele><time>2026-03-29T08:29:28.001Z</time></trkpt><trkpt lat="43.24763627299702" lon="12.24392557642582"><ele>728.4</ele><time>2026-03-29T08:29:29.001Z</time></trkpt><trkpt lat="43.24772356890849" lon="12.24403571662126"><ele>728.6</ele><time>2026-03-29T08:29:30.001Z</time></trkpt><trkpt lat="43.24781493608913" lon="12.244108619885031"><ele>728.8000000000001</ele><time>2026-03-29T08:29:31.001Z</time></trkpt><trkpt lat="43.247879190513494" lon="12.244119522960258"><ele>729.0</ele><time>2026-03-29T08:29:32.001Z</time></trkpt><trkpt lat="43.24795946842614" lon="12.244060987875498"><ele>729.8000000000001</ele><time>2026-03-29T08:29:34.001Z</time></trkpt><trkpt lat="43.2479634762685" lon="12.2439171170922"><ele>730.6</ele><time>2026-03-29T08:29:36.001Z</time></trkpt><trkpt lat="43.24799055879364" lon="12.243782303947464"><ele>731.4</ele><time>2026-03-29T08:29:38.001Z</time></trkpt><trkpt lat="43.24799925088582" lon="12.243643745574646"><ele>732.2</ele><time>2026-03-29T08:29:39.001Z</time></trkpt><trkpt lat="43.24802743339899" lon="12.243506091426877"><ele>733.0</ele><time>2026-03-29T08:29:40.001Z</time></trkpt><trkpt lat="43.24809723865792" lon="12.243402018722557"><ele>734.4</ele><time>2026-03-29T08:29:41.001Z</time></trkpt><trkpt lat="43.24818138951543" lon="12.24327793251725"><ele>735.8</ele><time>2026-03-29T08:29:42.001Z</time></trkpt><trkpt lat="43.248267851399646" lon="12.24316460106433"><ele>737.2</ele><time>2026-03-29T08:29:43.001Z</time></trkpt><trkpt lat="43.24833853590254" lon="12.243056694329493"><ele>738.6</ele><time>2026-03-29T08:29:44.001Z</time></trkpt><trkpt lat="43.248422846331664" lon="12.24302676953873"><ele>740.0</ele><time>2026-03-29T08:29:45.001Z</time></trkpt><trkpt lat="43.24849041078729" lon="12.243011432591562"><ele>740.0</ele><time>2026-03-29T08:29:46.001Z</time></trkpt><trkpt lat="43.24868572301335" lon="12.24306695211579"><ele>740.0</ele><time>2026-03-29T08:29:48.001Z</time></trkpt><trkpt lat="43.248809102672" lon="12.24314610449088"><ele>740.0</ele><time>2026-03-29T08:29:49.001Z</time></trkpt><trkpt lat="43.24890613283744" lon="12.243295274242552"><ele>743.8</ele><time>2026-03-29T08:29:50.001Z</time></trkpt><trkpt lat="43.2489727885401" lon="12.243376322469192"><ele>747.6</ele><time>2026-03-29T08:29:51.001Z</time></trkpt><trkpt lat="43.24911173106595" lon="12.243419554049247"><ele>751.4000000000001</ele><time>2026-03-29T08:29:53.001Z</time></trkpt><trkpt lat="43.24924415110178" lon="12.243436564632209"><ele>755.2</ele><time>2026-03-29T08:29:54.001Z</time></trkpt><trkpt lat="43.24931628443574" lon="12.243423836897128"><ele>759.0</ele><time>2026-03-29T08:29:55.001Z</time></trkpt><trkpt lat="43.249482181156154" lon="12.243430831646087"><ele>759.0</ele><time>2026-03-29T08:29:56.001Z</time></trkpt><trkpt lat="43.24964271652289" lon="12.243419167173235"><ele>759.0</ele><time>2026-03-29T08:29:57.001Z</time></trkpt><trkpt lat="43.24984541051736" lon="12.243423433331307"><ele>759.0</ele><time>2026-03-29T08:29:58.001Z</time></trkpt><trkpt lat="43.250012578107295" lon="12.243419737567706"><ele>759.5</ele><time>2026-03-29T08:29:59.001Z</time></trkpt><trkpt lat="43.2501468208564" lon="12.24344425787071"><ele>760.0</ele><time>2026-03-29T08:30:00.001Z</time></trkpt><trkpt lat="43.25026354304663" lon="12.243472166168605"><ele>760.5</ele><time>2026-03-29T08:30:01.001Z</time></trkpt><trkpt lat="43.250405716876855" lon="12.243467058790547"><ele>761.0</ele><time>2026-03-29T08:30:02.001Z</time></trkpt><trkpt lat="43.25051662464454" lon="12.243482493953776"><ele>761.0</ele><time>2026-03-29T08:30:03.001Z</time></trkpt><trkpt lat="43.25062221980534" lon="12.243538450462502"><ele>761.0</ele><time>2026-03-29T08:30:04.001Z</time></trkpt><trkpt lat="43.250730877622324" lon="12.24358595136708"><ele>761.0</ele><time>2026-03-29T08:30:05.001Z</time></trkpt><trkpt lat="43.25077179130048" lon="12.243713290641912"><ele>761.0</ele><time>2026-03-29T08:30:06.001Z</time></trkpt><trkpt lat="43.25088336482799" lon="12.243815051412412"><ele>771.5</ele><time>2026-03-29T08:30:07.001Z</time></trkpt><trkpt lat="43.25109439598828" lon="12.243970763710943"><ele>782.0</ele><time>2026-03-29T08:30:08.001Z</time></trkpt><trkpt lat="43.251314336892655" lon="12.244054879825539"><ele>784.0</ele><time>2026-03-29T08:30:09.001Z</time></trkpt><trkpt lat="43.25148547378384" lon="12.244087380444801"><ele>786.0</ele><time>2026-03-29T08:30:10.001Z</time></trkpt><trkpt lat="43.25166758117825" lon="12.244112003106842"><ele>788.0</ele><time>2026-03-29T08:30:11.001Z</time></trkpt><trkpt lat="43.25183772358987" lon="12.244126038912164"><ele>788.0</ele><time>2026-03-29T08:30:12.001Z</time></trkpt><trkpt lat="43.252001813215635" lon="12.244136132246581"><ele>788.0</ele><time>2026-03-29T08:30:13.001Z</time></trkpt><trkpt lat="43.252144064196024" lon="12.244142468310567"><ele>788.0</ele><time>2026-03-29T08:30:14.001Z</time></trkpt><trkpt lat="43.25225410536865" lon="12.244147369701444"><ele>788.0</ele><time>2026-03-29T08:30:15.001Z</time></trkpt><trkpt lat="43.25237756638603" lon="12.24415286884272"><ele>787.25</ele><time>2026-03-29T08:30:16.001Z</time></trkpt><trkpt lat="43.25250973447013" lon="12.244158755797288"><ele>786.5</ele><time>2026-03-29T08:30:17.001Z</time></trkpt><trkpt lat="43.25264693459167" lon="12.24416076813851"><ele>785.75</ele><time>2026-03-29T08:30:18.001Z</time></trkpt><trkpt lat="43.25274643355096" lon="12.244161522385097"><ele>785.0</ele><time>2026-03-29T08:30:19.001Z</time></trkpt><trkpt lat="43.25283786914869" lon="12.244169042042895"><ele>785.0</ele><time>2026-03-29T08:30:20.001Z</time></trkpt><trkpt lat="43.25293730294733" lon="12.24419238336188"><ele>785.0</ele><time>2026-03-29T08:30:21.001Z</time></trkpt><trkpt lat="43.25300275658521" lon="12.244229299451677"><ele>785.0</ele><time>2026-03-29T08:30:22.001Z</time></trkpt><trkpt lat="43.253087439394434" lon="12.24428169705116"><ele>785.0</ele><time>2026-03-29T08:30:23.001Z</time></trkpt><trkpt lat="43.25322793257356" lon="12.244408840260164"><ele>785.0</ele><time>2026-03-29T08:30:25.001Z</time></trkpt><trkpt lat="43.25332538108944" lon="12.244494057839983"><ele>785.8</ele><time>2026-03-29T08:30:26.001Z</time></trkpt><trkpt lat="43.253431910531816" lon="12.244593465450878"><ele>786.6</ele><time>2026-03-29T08:30:27.001Z</time></trkpt><trkpt lat="43.25352354323184" lon="12.244682753050029"><ele>787.4000000000001</ele><time>2026-03-29T08:30:28.001Z</time></trkpt><trkpt lat="43.253600060010065" lon="12.244736829178713"><ele>788.2</ele><time>2026-03-29T08:30:29.001Z</time></trkpt><trkpt lat="43.2536634144003" lon="12.244777799451617"><ele>789.0</ele><time>2026-03-29T08:30:30.001Z</time></trkpt><trkpt lat="43.25374442416996" lon="12.24481147413218"><ele>789.0</ele><time>2026-03-29T08:30:31.001Z</time></trkpt><trkpt lat="43.253768156188585" lon="12.244920991783083"><ele>789.0</ele><time>2026-03-29T08:30:33.002Z</time></trkpt><trkpt lat="43.25380398961225" lon="12.245019207801908"><ele>789.0</ele><time>2026-03-29T08:30:34.002Z</time></trkpt><trkpt lat="43.25391133889674" lon="12.24509651807568"><ele>789.0</ele><time>2026-03-29T08:30:36.002Z</time></trkpt><trkpt lat="43.253981250420146" lon="12.245153605420759"><ele>789.0</ele><time>2026-03-29T08:30:37.002Z</time></trkpt><trkpt lat="43.2546211917766" lon="12.244727099876625"><ele>783.1666666666666</ele><time>2026-03-29T08:30:39.002Z</time></trkpt><trkpt lat="43.25469497616632" lon="12.24470221849292"><ele>777.3333333333334</ele><time>2026-03-29T08:30:40.002Z</time></trkpt><trkpt lat="43.25477231253297" lon="12.244681617346336"><ele>771.5</ele><time>2026-03-29T08:30:41.002Z</time></trkpt><trkpt lat="43.25485654647036" lon="12.244713507490586"><ele>765.6666666666667</ele><time>2026-03-29T08:30:42.002Z</time></trkpt><trkpt lat="43.25495217477788" lon="12.24472639008886"><ele>759.8333333333334</ele><time>2026-03-29T08:30:43.002Z</time></trkpt><trkpt lat="43.25504243503216" lon="12.244702720586005"><ele>754.0</ele><time>2026-03-29T08:30:44.002Z</time></trkpt><trkpt lat="43.2551140834313" lon="12.24470547770484"><ele>754.6</ele><time>2026-03-29T08:30:45.002Z</time></trkpt><trkpt lat="43.25523308436374" lon="12.244715881964703"><ele>755.2</ele><time>2026-03-29T08:30:47.002Z</time></trkpt><trkpt lat="43.25529870096668" lon="12.244751201619295"><ele>755.8000000000001</ele><time>2026-03-29T08:30:48.002Z</time></trkpt><trkpt lat="43.255397808725284" lon="12.244834292963334"><ele>756.4000000000001</ele><time>2026-03-29T08:30:50.001Z</time></trkpt><trkpt lat="43.255469453898854" lon="12.244839634036824"><ele>757.0</ele><time>2026-03-29T08:30:51.001Z</time></trkpt><trkpt lat="43.2555462702297" lon="12.244815371778634"><ele>755.5</ele><time>2026-03-29T08:30:52.001Z</time></trkpt><trkpt lat="43.25560622198633" lon="12.244754573687253"><ele>754.0</ele><time>2026-03-29T08:30:53.001Z</time></trkpt><trkpt lat="43.25567227236433" lon="12.244704832195358"><ele>752.5</ele><time>2026-03-29T08:30:54.001Z</time></trkpt><trkpt lat="43.25574212067293" lon="12.244696730392567"><ele>751.0</ele><time>2026-03-29T08:30:55.001Z</time></trkpt><trkpt lat="43.25583501729577" lon="12.244733748644604"><ele>749.5</ele><time>2026-03-29T08:30:57.001Z</time></trkpt><trkpt lat="43.25590447547899" lon="12.24479590997416"><ele>748.0</ele><time>2026-03-29T08:30:58.001Z</time></trkpt><trkpt lat="43.2559515940787" lon="12.244867976762993"><ele>748.0</ele><time>2026-03-29T08:30:59.001Z</time></trkpt><trkpt lat="43.255992945581234" lon="12.244960994150041"><ele>748.0</ele><time>2026-03-29T08:31:00.001Z</time></trkpt><trkpt lat="43.25605122693462" lon="12.245044152173193"><ele>748.0</ele><time>2026-03-29T08:31:01.001Z</time></trkpt><trkpt lat="43.25614398810189" lon="12.245162915289034"><ele>748.0</ele><time>2026-03-29T08:31:02.001Z</time></trkpt><trkpt lat="43.256204325705525" lon="12.245245247085089"><ele>748.0</ele><time>2026-03-29T08:31:03.001Z</time></trkpt><trkpt lat="43.25623753671359" lon="12.245320332722452"><ele>748.0</ele><time>2026-03-29T08:31:04.001Z</time></trkpt><trkpt lat="43.25626750917889" lon="12.245420992246213"><ele>748.0</ele><time>2026-03-29T08:31:06.001Z</time></trkpt><trkpt lat="43.25635269980804" lon="12.245318772250323"><ele>748.0</ele><time>2026-03-29T08:31:10.001Z</time></trkpt><trkpt lat="43.25640121251827" lon="12.245216787658654"><ele>748.0</ele><time>2026-03-29T08:31:11.001Z</time></trkpt><trkpt lat="43.256500746102155" lon="12.245151183501878"><ele>748.0</ele><time>2026-03-29T08:31:13.001Z</time></trkpt><trkpt lat="43.25658209169139" lon="12.245040510203912"><ele>748.0</ele><time>2026-03-29T08:31:15.001Z</time></trkpt><trkpt lat="43.2566610986354" lon="12.244976710698086"><ele>745.4</ele><time>2026-03-29T08:31:17.001Z</time></trkpt><trkpt lat="43.25674199302481" lon="12.244945256795322"><ele>742.8</ele><time>2026-03-29T08:31:18.001Z</time></trkpt><trkpt lat="43.25680545950436" lon="12.244899100504314"><ele>740.2</ele><time>2026-03-29T08:31:19.001Z</time></trkpt><trkpt lat="43.25687975261488" lon="12.244849078686068"><ele>737.6</ele><time>2026-03-29T08:31:20.001Z</time></trkpt><trkpt lat="43.25698615054502" lon="12.244747403845698"><ele>735.0</ele><time>2026-03-29T08:31:22.001Z</time></trkpt><trkpt lat="43.257100460378965" lon="12.24468229749923"><ele>733.0</ele><time>2026-03-29T08:31:24.001Z</time></trkpt><trkpt lat="43.25714699538134" lon="12.244623114773313"><ele>731.0</ele><time>2026-03-29T08:31:25.001Z</time></trkpt><trkpt lat="43.257154232643316" lon="12.244521463373006"><ele>729.0</ele><time>2026-03-29T08:31:26.001Z</time></trkpt><trkpt lat="43.257228868452025" lon="12.24439439935424"><ele>727.0</ele><time>2026-03-29T08:31:28.001Z</time></trkpt><trkpt lat="43.25730485043466" lon="12.24433761196323"><ele>725.0</ele><time>2026-03-29T08:31:29.001Z</time></trkpt><trkpt lat="43.25743098570673" lon="12.244245032563915"><ele>721.8333333333333</ele><time>2026-03-29T08:31:31.001Z</time></trkpt><trkpt lat="43.25747362179749" lon="12.244171176476586"><ele>718.6666666666666</ele><time>2026-03-29T08:31:32.001Z</time></trkpt><trkpt lat="43.25752357896347" lon="12.244091434165536"><ele>715.5</ele><time>2026-03-29T08:31:33.001Z</time></trkpt><trkpt lat="43.257577804525006" lon="12.243995494423407"><ele>712.3333333333334</ele><time>2026-03-29T08:31:34.001Z</time></trkpt><trkpt lat="43.25764688712874" lon="12.243911790626433"><ele>709.1666666666667</ele><time>2026-03-29T08:31:35.001Z</time></trkpt><trkpt lat="43.25770229002998" lon="12.243824652592364"><ele>706.0</ele><time>2026-03-29T08:31:36.001Z</time></trkpt><trkpt lat="43.257761653789004" lon="12.243779875501998"><ele>704.8</ele><time>2026-03-29T08:31:37.001Z</time></trkpt><trkpt lat="43.25783038520117" lon="12.24374037329253"><ele>703.5999999999999</ele><time>2026-03-29T08:31:38.001Z</time></trkpt><trkpt lat="43.2579075393313" lon="12.243638915383896"><ele>702.4</ele><time>2026-03-29T08:31:40.001Z</time></trkpt><trkpt lat="43.25803674783177" lon="12.24355034139928"><ele>701.2</ele><time>2026-03-29T08:31:42.001Z</time></trkpt><trkpt lat="43.25813016705612" lon="12.24347701615507"><ele>700.0</ele><time>2026-03-29T08:31:44.001Z</time></trkpt><trkpt lat="43.25822707711451" lon="12.243520299089901"><ele>697.6666666666667</ele><time>2026-03-29T08:31:46.001Z</time></trkpt><trkpt lat="43.25830911626181" lon="12.243551275858795"><ele>695.3333333333334</ele><time>2026-03-29T08:31:47.001Z</time></trkpt><trkpt lat="43.258409521967494" lon="12.243521360710135"><ele>693.0</ele><time>2026-03-29T08:31:49.001Z</time></trkpt><trkpt lat="43.25842240689109" lon="12.24341603265096"><ele>690.6666666666666</ele><time>2026-03-29T08:31:50.001Z</time></trkpt><trkpt lat="43.25840719955702" lon="12.243274094735353"><ele>688.3333333333333</ele><time>2026-03-29T08:31:52.001Z</time></trkpt><trkpt lat="43.25838798880318" lon="12.243170573748491"><ele>686.0</ele><time>2026-03-29T08:31:53.001Z</time></trkpt><trkpt lat="43.25840213807171" lon="12.243040590262812"><ele>685.1666666666666</ele><time>2026-03-29T08:31:55.001Z</time></trkpt><trkpt lat="43.25838390346219" lon="12.24293711168061"><ele>684.3333333333333</ele><time>2026-03-29T08:31:57.001Z</time></trkpt><trkpt lat="43.25834923851735" lon="12.242859512302662"><ele>683.5</ele><time>2026-03-29T08:31:58.001Z</time></trkpt><trkpt lat="43.25833904692174" lon="12.242759110892598"><ele>682.6666666666666</ele><time>2026-03-29T08:32:00.001Z</time></trkpt><trkpt lat="43.25837423557243" lon="12.242640133348674"><ele>681.8333333333334</ele><time>2026-03-29T08:32:02.001Z</time></trkpt><trkpt lat="43.25842638774491" lon="12.242511430794401"><ele>681.0</ele><time>2026-03-29T08:32:04.001Z</time></trkpt><trkpt lat="43.25842526275722" lon="12.242405034930325"><ele>681.0</ele><time>2026-03-29T08:32:05.001Z</time></trkpt><trkpt lat="43.258440598215145" lon="12.242312714257336"><ele>681.0</ele><time>2026-03-29T08:32:06.001Z</time></trkpt><trkpt lat="43.25845116095731" lon="12.24216620883692"><ele>681.0</ele><time>2026-03-29T08:32:08.001Z</time></trkpt><trkpt lat="43.25846745175364" lon="12.242026767653156"><ele>681.0</ele><time>2026-03-29T08:32:10.001Z</time></trkpt><trkpt lat="43.2585173395041" lon="12.241971862579726"><ele>681.0</ele><time>2026-03-29T08:32:11.001Z</time></trkpt><trkpt lat="43.25854417906226" lon="12.241880093964848"><ele>681.0</ele><time>2026-03-29T08:32:13.001Z</time></trkpt><trkpt lat="43.25863415429768" lon="12.241809910933089"><ele>679.0</ele><time>2026-03-29T08:32:15.001Z</time></trkpt><trkpt lat="43.258724478271255" lon="12.24180559126823"><ele>677.0</ele><time>2026-03-29T08:32:17.001Z</time></trkpt><trkpt lat="43.25878997604077" lon="12.24182104005505"><ele>675.0</ele><time>2026-03-29T08:32:19.001Z</time></trkpt><trkpt lat="43.25884411864952" lon="12.241776573951697"><ele>673.0</ele><time>2026-03-29T08:32:20.001Z</time></trkpt><trkpt lat="43.25890438021817" lon="12.241720510756107"><ele>671.0</ele><time>2026-03-29T08:32:22.001Z</time></trkpt><trkpt lat="43.25897199268936" lon="12.241727645354686"><ele>669.0</ele><time>2026-03-29T08:32:23.001Z</time></trkpt><trkpt lat="43.259058774445656" lon="12.241760501857188"><ele>668.1666666666666</ele><time>2026-03-29T08:32:24.001Z</time></trkpt><trkpt lat="43.25911126943185" lon="12.241829936508287"><ele>667.3333333333334</ele><time>2026-03-29T08:32:25.001Z</time></trkpt><trkpt lat="43.25919431479476" lon="12.241893905491445"><ele>666.5</ele><time>2026-03-29T08:32:27.001Z</time></trkpt><trkpt lat="43.259254960378435" lon="12.241941064583576"><ele>665.6666666666667</ele><time>2026-03-29T08:32:28.001Z</time></trkpt><trkpt lat="43.259319094130724" lon="12.242000820612654"><ele>664.8333333333334</ele><time>2026-03-29T08:32:29.001Z</time></trkpt><trkpt lat="43.2593455029479" lon="12.242081443970932"><ele>664.0</ele><time>2026-03-29T08:32:31.001Z</time></trkpt><trkpt lat="43.25935125442969" lon="12.24228106923773"><ele>665.0</ele><time>2026-03-29T08:32:33.001Z</time></trkpt><trkpt lat="43.259385368711705" lon="12.242359143227448"><ele>666.0</ele><time>2026-03-29T08:32:35.001Z</time></trkpt><trkpt lat="43.25945154451272" lon="12.242506277273376"><ele>667.0</ele><time>2026-03-29T08:32:37.001Z</time></trkpt><trkpt lat="43.25952362104477" lon="12.242603251019041"><ele>668.0</ele><time>2026-03-29T08:32:39.002Z</time></trkpt><trkpt lat="43.259588793344236" lon="12.242690019997259"><ele>669.0</ele><time>2026-03-29T08:32:41.002Z</time></trkpt><trkpt lat="43.25965346697728" lon="12.242736644509298"><ele>669.0</ele><time>2026-03-29T08:32:42.002Z</time></trkpt><trkpt lat="43.25970421702648" lon="12.242804752814083"><ele>669.0</ele><time>2026-03-29T08:32:43.002Z</time></trkpt><trkpt lat="43.259766669686016" lon="12.242860656265163"><ele>669.0</ele><time>2026-03-29T08:32:44.002Z</time></trkpt><trkpt lat="43.259839260369624" lon="12.24286807989301"><ele>669.0</ele><time>2026-03-29T08:32:45.002Z</time></trkpt><trkpt lat="43.25990996605453" lon="12.242900205880309"><ele>669.0</ele><time>2026-03-29T08:32:46.002Z</time></trkpt><trkpt lat="43.25996909910532" lon="12.24296098199747"><ele>669.0</ele><time>2026-03-29T08:32:47.002Z</time></trkpt><trkpt lat="43.26003395618372" lon="12.243023287206103"><ele>669.0</ele><time>2026-03-29T08:32:48.002Z</time></trkpt><trkpt lat="43.26011433287338" lon="12.243082436532548"><ele>666.0</ele><time>2026-03-29T08:32:49.002Z</time></trkpt><trkpt lat="43.26017576832574" lon="12.24312288527877"><ele>663.0</ele><time>2026-03-29T08:32:50.002Z</time></trkpt><trkpt lat="43.26025549704942" lon="12.243160099749142"><ele>660.0</ele><time>2026-03-29T08:32:51.002Z</time></trkpt><trkpt lat="43.26032289198199" lon="12.243230700871889"><ele>657.0</ele><time>2026-03-29T08:32:52.002Z</time></trkpt><trkpt lat="43.26037071939093" lon="12.243303391098458"><ele>654.0</ele><time>2026-03-29T08:32:53.001Z</time></trkpt><trkpt lat="43.260459173389904" lon="12.243282294255154"><ele>651.0</ele><time>2026-03-29T08:32:58.001Z</time></trkpt><trkpt lat="43.26056075675639" lon="12.243293991725597"><ele>649.0</ele><time>2026-03-29T08:33:00.001Z</time></trkpt><trkpt lat="43.26064651786044" lon="12.243324388398682"><ele>647.0</ele><time>2026-03-29T08:33:02.001Z</time></trkpt><trkpt lat="43.260736517526624" lon="12.243250750881405"><ele>645.0</ele><time>2026-03-29T08:33:04.001Z</time></trkpt><trkpt lat="43.26083508525949" lon="12.243238418820521"><ele>643.0</ele><time>2026-03-29T08:33:06.001Z</time></trkpt><trkpt lat="43.26088397972019" lon="12.243371925674563"><ele>641.0</ele><time>2026-03-29T08:33:08.001Z</time></trkpt><trkpt lat="43.26098215323783" lon="12.24343654800562"><ele>641.0</ele><time>2026-03-29T08:33:10.001Z</time></trkpt><trkpt lat="43.26106070320904" lon="12.243483111211834"><ele>641.0</ele><time>2026-03-29T08:33:11.001Z</time></trkpt><trkpt lat="43.26113537244005" lon="12.243513000873916"><ele>641.0</ele><time>2026-03-29T08:33:12.001Z</time></trkpt><trkpt lat="43.261228440875016" lon="12.243528634438894"><ele>641.0</ele><time>2026-03-29T08:33:14.001Z</time></trkpt><trkpt lat="43.26132668495259" lon="12.243535723751206"><ele>641.0</ele><time>2026-03-29T08:33:15.001Z</time></trkpt><trkpt lat="43.2614164652488" lon="12.243508887940918"><ele>641.0</ele><time>2026-03-29T08:33:16.001Z</time></trkpt><trkpt lat="43.26149211463972" lon="12.243481331392319"><ele>639.1666666666666</ele><time>2026-03-29T08:33:17.001Z</time></trkpt><trkpt lat="43.26156662176448" lon="12.243466560862622"><ele>637.3333333333333</ele><time>2026-03-29T08:33:18.001Z</time></trkpt><trkpt lat="43.261631288948344" lon="12.243497353735325"><ele>635.5</ele><time>2026-03-29T08:33:19.001Z</time></trkpt><trkpt lat="43.26172672821081" lon="12.243495647062163"><ele>633.6666666666666</ele><time>2026-03-29T08:33:20.001Z</time></trkpt><trkpt lat="43.26181031551571" lon="12.243492615148343"><ele>631.8333333333334</ele><time>2026-03-29T08:33:21.001Z</time></trkpt><trkpt lat="43.26189033084741" lon="12.243513781250076"><ele>630.0</ele><time>2026-03-29T08:33:22.001Z</time></trkpt><trkpt lat="43.26196623484267" lon="12.243567667481166"><ele>630.0</ele><time>2026-03-29T08:33:23.001Z</time></trkpt><trkpt lat="43.262092876888765" lon="12.243596457451474"><ele>630.0</ele><time>2026-03-29T08:33:25.001Z</time></trkpt><trkpt lat="43.26217595190698" lon="12.243615964573562"><ele>630.0</ele><time>2026-03-29T08:33:26.001Z</time></trkpt><trkpt lat="43.26223791836425" lon="12.243673121176856"><ele>630.0</ele><time>2026-03-29T08:33:27.001Z</time></trkpt><trkpt lat="43.262299675608546" lon="12.243739039222476"><ele>630.0</ele><time>2026-03-29T08:33:28.001Z</time></trkpt><trkpt lat="43.26236128323986" lon="12.243768673030862"><ele>630.0</ele><time>2026-03-29T08:33:29.001Z</time></trkpt><trkpt lat="43.26243727917239" lon="12.24382162416702"><ele>628.0</ele><time>2026-03-29T08:33:30.001Z</time></trkpt><trkpt lat="43.26251966820672" lon="12.243912701205458"><ele>626.0</ele><time>2026-03-29T08:33:31.001Z</time></trkpt><trkpt lat="43.26262582861903" lon="12.243995170495374"><ele>624.0</ele><time>2026-03-29T08:33:32.001Z</time></trkpt><trkpt lat="43.26270204682111" lon="12.244027773221235"><ele>622.0</ele><time>2026-03-29T08:33:33.001Z</time></trkpt><trkpt lat="43.262761114776744" lon="12.244075627487895"><ele>620.0</ele><time>2026-03-29T08:33:34.001Z</time></trkpt><trkpt lat="43.26283650334614" lon="12.244088445063202"><ele>620.0</ele><time>2026-03-29T08:33:36.001Z</time></trkpt><trkpt lat="43.26284799918215" lon="12.243970290153767"><ele>620.0</ele><time>2026-03-29T08:33:39.001Z</time></trkpt><trkpt lat="43.26286151163201" lon="12.243875993257209"><ele>620.0</ele><time>2026-03-29T08:33:41.001Z</time></trkpt><trkpt lat="43.26289242316921" lon="12.24378474909953"><ele>620.0</ele><time>2026-03-29T08:33:43.001Z</time></trkpt><trkpt lat="43.26287743240361" lon="12.243699371820687"><ele>620.0</ele><time>2026-03-29T08:33:44.001Z</time></trkpt><trkpt lat="43.26285803403627" lon="12.243512683231959"><ele>620.0</ele><time>2026-03-29T08:33:46.001Z</time></trkpt><trkpt lat="43.26285165373828" lon="12.243425690503427"><ele>620.0</ele><time>2026-03-29T08:33:47.001Z</time></trkpt><trkpt lat="43.26279474503599" lon="12.243212500510467"><ele>620.0</ele><time>2026-03-29T08:33:49.001Z</time></trkpt><trkpt lat="43.26276247579172" lon="12.243122570487426"><ele>620.0</ele><time>2026-03-29T08:33:50.001Z</time></trkpt><trkpt lat="43.2627320808496" lon="12.243015001906937"><ele>620.0</ele><time>2026-03-29T08:33:51.001Z</time></trkpt><trkpt lat="43.262765569521946" lon="12.242940501733335"><ele>620.0</ele><time>2026-03-29T08:33:52.001Z</time></trkpt><trkpt lat="43.262805371413414" lon="12.24287208686285"><ele>619.8333333333333</ele><time>2026-03-29T08:33:53.001Z</time></trkpt><trkpt lat="43.262808762741514" lon="12.242768420440234"><ele>619.6666666666666</ele><time>2026-03-29T08:33:54.001Z</time></trkpt><trkpt lat="43.26277575539032" lon="12.242685075500711"><ele>619.5</ele><time>2026-03-29T08:33:55.001Z</time></trkpt><trkpt lat="43.26274680810897" lon="12.242577904524246"><ele>619.3333333333334</ele><time>2026-03-29T08:33:56.001Z</time></trkpt><trkpt lat="43.26276792798578" lon="12.242447467617522"><ele>619.1666666666667</ele><time>2026-03-29T08:33:58.001Z</time></trkpt><trkpt lat="43.26279781319801" lon="12.24234593161254"><ele>619.0</ele><time>2026-03-29T08:33:59.001Z</time></trkpt><trkpt lat="43.26282139114144" lon="12.242239044141307"><ele>617.8333333333334</ele><time>2026-03-29T08:34:00.001Z</time></trkpt><trkpt lat="43.26284050890766" lon="12.242148492060814"><ele>616.6666666666667</ele><time>2026-03-29T08:34:01.001Z</time></trkpt><trkpt lat="43.262882887865224" lon="12.242082462026056"><ele>615.5</ele><time>2026-03-29T08:34:02.001Z</time></trkpt><trkpt lat="43.26295211164182" lon="12.242010302654302"><ele>614.3333333333334</ele><time>2026-03-29T08:34:03Z</time></trkpt><trkpt lat="43.26299953622993" lon="12.24193105448983"><ele>613.1666666666666</ele><time>2026-03-29T08:34:04Z</time></trkpt><trkpt lat="43.26301051545579" lon="12.241802237179353"><ele>612.0</ele><time>2026-03-29T08:34:05Z</time></trkpt><trkpt lat="43.26300672155711" lon="12.241663603355539"><ele>612.0</ele><time>2026-03-29T08:34:06Z</time></trkpt><trkpt lat="43.26297645521129" lon="12.241551914811293"><ele>612.0</ele><time>2026-03-29T08:34:07Z</time></trkpt><trkpt lat="43.262925448016766" lon="12.241444752440989"><ele>612.0</ele><time>2026-03-29T08:34:08Z</time></trkpt><trkpt lat="43.262862106003595" lon="12.241329809368835"><ele>612.0</ele><time>2026-03-29T08:34:09Z</time></trkpt><trkpt lat="43.26281078639498" lon="12.241256687974568"><ele>612.0</ele><time>2026-03-29T08:34:10Z</time></trkpt><trkpt lat="43.262774088270454" lon="12.241177004767081"><ele>612.0</ele><time>2026-03-29T08:34:11Z</time></trkpt><trkpt lat="43.26276343249931" lon="12.241085412997897"><ele>612.0</ele><time>2026-03-29T08:34:12Z</time></trkpt><trkpt lat="43.262693479408725" lon="12.240988073884708"><ele>612.0</ele><time>2026-03-29T08:34:14Z</time></trkpt><trkpt lat="43.262599756862826" lon="12.241010296144209"><ele>612.0</ele><time>2026-03-29T08:34:15Z</time></trkpt><trkpt lat="43.26249299346331" lon="12.241036521995559"><ele>612.0</ele><time>2026-03-29T08:34:16Z</time></trkpt><trkpt lat="43.262400810709835" lon="12.241051367055572"><ele>612.0</ele><time>2026-03-29T08:34:17Z</time></trkpt><trkpt lat="43.2622797035644" lon="12.241084739057316"><ele>612.0</ele><time>2026-03-29T08:34:18Z</time></trkpt><trkpt lat="43.26219803933063" lon="12.241124579133162"><ele>612.0</ele><time>2026-03-29T08:34:19Z</time></trkpt><trkpt lat="43.26214846502113" lon="12.241069914311575"><ele>612.0</ele><time>2026-03-29T08:34:21Z</time></trkpt><trkpt lat="43.26214952423357" lon="12.240927199162199"><ele>612.0</ele><time>2026-03-29T08:34:23Z</time></trkpt><trkpt lat="43.262147407055856" lon="12.240796577793294"><ele>612.0</ele><time>2026-03-29T08:34:24Z</time></trkpt><trkpt lat="43.2621356063668" lon="12.240691030546948"><ele>612.0</ele><time>2026-03-29T08:34:25Z</time></trkpt><trkpt lat="43.26209044211299" lon="12.240576179025414"><ele>610.0</ele><time>2026-03-29T08:34:26Z</time></trkpt><trkpt lat="43.26208042086137" lon="12.240487701602138"><ele>608.0</ele><time>2026-03-29T08:34:27Z</time></trkpt><trkpt lat="43.262103237835255" lon="12.240394534942824"><ele>606.0</ele><time>2026-03-29T08:34:28Z</time></trkpt><trkpt lat="43.262112377334226" lon="12.24030479798105"><ele>604.0</ele><time>2026-03-29T08:34:29Z</time></trkpt><trkpt lat="43.26210363634568" lon="12.240207910822045"><ele>602.0</ele><time>2026-03-29T08:34:30Z</time></trkpt><trkpt lat="43.26210568190618" lon="12.240095929273458"><ele>600.0</ele><time>2026-03-29T08:34:31Z</time></trkpt><trkpt lat="43.262054766583624" lon="12.23992905813658"><ele>600.0</ele><time>2026-03-29T08:34:33Z</time></trkpt><trkpt lat="43.2619683903724" lon="12.23990499807192"><ele>600.0</ele><time>2026-03-29T08:34:35Z</time></trkpt><trkpt lat="43.26185517120203" lon="12.23988708064759"><ele>600.0</ele><time>2026-03-29T08:34:37Z</time></trkpt><trkpt lat="43.26174702193782" lon="12.239915826360857"><ele>600.0</ele><time>2026-03-29T08:34:38Z</time></trkpt><trkpt lat="43.2616383037052" lon="12.239931040113193"><ele>600.0</ele><time>2026-03-29T08:34:39Z</time></trkpt><trkpt lat="43.261571754682585" lon="12.239962645080228"><ele>600.0</ele><time>2026-03-29T08:34:40Z</time></trkpt><trkpt lat="43.261487169660334" lon="12.240023501079365"><ele>600.0</ele><time>2026-03-29T08:34:41Z</time></trkpt><trkpt lat="43.26142335397131" lon="12.239909391111988"><ele>600.0</ele><time>2026-03-29T08:34:44Z</time></trkpt><trkpt lat="43.2614752392137" lon="12.239754795756303"><ele>600.0</ele><time>2026-03-29T08:34:46.001Z</time></trkpt><trkpt lat="43.26142466063108" lon="12.239616339593745"><ele>600.0</ele><time>2026-03-29T08:34:48.001Z</time></trkpt><trkpt lat="43.26136201153471" lon="12.239564645581373"><ele>601.4</ele><time>2026-03-29T08:34:49.001Z</time></trkpt><trkpt lat="43.26128066974596" lon="12.239463922742559"><ele>602.8</ele><time>2026-03-29T08:34:51.001Z</time></trkpt><trkpt lat="43.261213490367616" lon="12.239369179162319"><ele>604.2</ele><time>2026-03-29T08:34:53.001Z</time></trkpt><trkpt lat="43.26116499758564" lon="12.23927466063091"><ele>605.6</ele><time>2026-03-29T08:34:55.001Z</time></trkpt><trkpt lat="43.261173073188935" lon="12.239108241738359"><ele>607.0</ele><time>2026-03-29T08:34:57.001Z</time></trkpt><trkpt lat="43.261212822451036" lon="12.238987957713874"><ele>604.2</ele><time>2026-03-29T08:34:58.001Z</time></trkpt><trkpt lat="43.26127207741504" lon="12.238893026034381"><ele>601.4000000000001</ele><time>2026-03-29T08:34:59.001Z</time></trkpt><trkpt lat="43.26126967200165" lon="12.238793145927579"><ele>598.5999999999999</ele><time>2026-03-29T08:35:01.001Z</time></trkpt><trkpt lat="43.261247428409845" lon="12.238612057313869"><ele>595.8</ele><time>2026-03-29T08:35:03.001Z</time></trkpt><trkpt lat="43.26119457788655" lon="12.238496027377593"><ele>593.0</ele><time>2026-03-29T08:35:04.001Z</time></trkpt><trkpt lat="43.26114757975623" lon="12.238401679798033"><ele>593.0</ele><time>2026-03-29T08:35:05.001Z</time></trkpt><trkpt lat="43.26108967189771" lon="12.238306414190014"><ele>593.0</ele><time>2026-03-29T08:35:06.001Z</time></trkpt><trkpt lat="43.261033861288624" lon="12.238245209003916"><ele>593.0</ele><time>2026-03-29T08:35:07.001Z</time></trkpt><trkpt lat="43.26095779262564" lon="12.23821704307249"><ele>593.0</ele><time>2026-03-29T08:35:08.001Z</time></trkpt><trkpt lat="43.26086012546059" lon="12.23816661679741"><ele>593.0</ele><time>2026-03-29T08:35:10.001Z</time></trkpt><trkpt lat="43.260796951597264" lon="12.23812159576762"><ele>593.0</ele><time>2026-03-29T08:35:11.001Z</time></trkpt><trkpt lat="43.26072690849282" lon="12.23803295096947"><ele>591.8</ele><time>2026-03-29T08:35:12.001Z</time></trkpt><trkpt lat="43.26065686071632" lon="12.237965079034332"><ele>590.5999999999999</ele><time>2026-03-29T08:35:13.001Z</time></trkpt><trkpt lat="43.260600515458904" lon="12.23789617110432"><ele>589.4000000000001</ele><time>2026-03-29T08:35:14.001Z</time></trkpt><trkpt lat="43.2604791751858" lon="12.23781420348582"><ele>588.2</ele><time>2026-03-29T08:35:16.001Z</time></trkpt><trkpt lat="43.26037943257703" lon="12.237774035803755"><ele>587.0</ele><time>2026-03-29T08:35:17.001Z</time></trkpt><trkpt lat="43.26029026100332" lon="12.23773679749536"><ele>587.0</ele><time>2026-03-29T08:35:18.001Z</time></trkpt><trkpt lat="43.26020234748541" lon="12.237713018549014"><ele>587.0</ele><time>2026-03-29T08:35:19.001Z</time></trkpt><trkpt lat="43.26011353847795" lon="12.237655338123751"><ele>587.0</ele><time>2026-03-29T08:35:20Z</time></trkpt><trkpt lat="43.26005366258727" lon="12.23759621163162"><ele>587.0</ele><time>2026-03-29T08:35:21Z</time></trkpt><trkpt lat="43.26004163640556" lon="12.23751014280822"><ele>587.0</ele><time>2026-03-29T08:35:22Z</time></trkpt><trkpt lat="43.2600240743722" lon="12.237383720898581"><ele>587.0</ele><time>2026-03-29T08:35:23Z</time></trkpt><trkpt lat="43.25999881742147" lon="12.237232484444537"><ele>585.0</ele><time>2026-03-29T08:35:24Z</time></trkpt><trkpt lat="43.259957719506026" lon="12.237098354904747"><ele>583.0</ele><time>2026-03-29T08:35:25Z</time></trkpt><trkpt lat="43.25993088975132" lon="12.237010007584159"><ele>581.0</ele><time>2026-03-29T08:35:26Z</time></trkpt><trkpt lat="43.259923809176755" lon="12.23691737254052"><ele>579.0</ele><time>2026-03-29T08:35:27Z</time></trkpt><trkpt lat="43.259922211603104" lon="12.236826436354823"><ele>577.0</ele><time>2026-03-29T08:35:28Z</time></trkpt><trkpt lat="43.259935186862684" lon="12.23669517889386"><ele>575.0</ele><time>2026-03-29T08:35:30Z</time></trkpt><trkpt lat="43.26002692026276" lon="12.236627617530557"><ele>575.0</ele><time>2026-03-29T08:35:32Z</time></trkpt><trkpt lat="43.26012232954974" lon="12.236656613261408"><ele>575.0</ele><time>2026-03-29T08:35:34Z</time></trkpt><trkpt lat="43.26023083141018" lon="12.236568832489294"><ele>575.0</ele><time>2026-03-29T08:35:36Z</time></trkpt><trkpt lat="43.260335898883966" lon="12.236504530909672"><ele>575.0</ele><time>2026-03-29T08:35:38Z</time></trkpt><trkpt lat="43.260397132605824" lon="12.236454522279837"><ele>575.0</ele><time>2026-03-29T08:35:39Z</time></trkpt><trkpt lat="43.26043925024882" lon="12.236370672314223"><ele>572.6666666666666</ele><time>2026-03-29T08:35:41Z</time></trkpt><trkpt lat="43.26037845829231" lon="12.2362526372921"><ele>570.3333333333333</ele><time>2026-03-29T08:35:43Z</time></trkpt><trkpt lat="43.260377909635814" lon="12.236134033599123"><ele>568.0</ele><time>2026-03-29T08:35:45Z</time></trkpt><trkpt lat="43.260348002309385" lon="12.236026154297456"><ele>565.6666666666666</ele><time>2026-03-29T08:35:46Z</time></trkpt><trkpt lat="43.26033999697553" lon="12.235909869299388"><ele>563.3333333333334</ele><time>2026-03-29T08:35:47Z</time></trkpt><trkpt lat="43.26033134851628" lon="12.235816018310997"><ele>561.0</ele><time>2026-03-29T08:35:48Z</time></trkpt><trkpt lat="43.26026476541409" lon="12.235767329547448"><ele>561.0</ele><time>2026-03-29T08:35:50Z</time></trkpt><trkpt lat="43.26018761339631" lon="12.235769568223683"><ele>561.0</ele><time>2026-03-29T08:35:51Z</time></trkpt><trkpt lat="43.26009964452125" lon="12.235796675746485"><ele>561.0</ele><time>2026-03-29T08:35:52Z</time></trkpt><trkpt lat="43.26000184033733" lon="12.235844050671998"><ele>561.0</ele><time>2026-03-29T08:35:53Z</time></trkpt><trkpt lat="43.25993588926368" lon="12.235851909246325"><ele>561.0</ele><time>2026-03-29T08:35:54Z</time></trkpt><trkpt lat="43.25986803767463" lon="12.23585049638462"><ele>561.0</ele><time>2026-03-29T08:35:55Z</time></trkpt><trkpt lat="43.25977396510248" lon="12.23581244644171"><ele>560.0</ele><time>2026-03-29T08:35:57Z</time></trkpt><trkpt lat="43.25973970215047" lon="12.235727724614057"><ele>559.0</ele><time>2026-03-29T08:35:58Z</time></trkpt><trkpt lat="43.25975874742613" lon="12.23559212454449"><ele>558.0</ele><time>2026-03-29T08:36:00Z</time></trkpt><trkpt lat="43.25981548569284" lon="12.235521361827422"><ele>557.0</ele><time>2026-03-29T08:36:01Z</time></trkpt><trkpt lat="43.25989254934365" lon="12.23546657701489"><ele>556.0</ele><time>2026-03-29T08:36:02Z</time></trkpt><trkpt lat="43.259964613660166" lon="12.235364462874943"><ele>555.0</ele><time>2026-03-29T08:36:03Z</time></trkpt><trkpt lat="43.2600475870557" lon="12.235297682114002"><ele>552.8333333333334</ele><time>2026-03-29T08:36:04Z</time></trkpt><trkpt lat="43.26011710299177" lon="12.235232136582248"><ele>550.6666666666666</ele><time>2026-03-29T08:36:05Z</time></trkpt><trkpt lat="43.26016753007637" lon="12.235163110842235"><ele>548.5</ele><time>2026-03-29T08:36:07Z</time></trkpt><trkpt lat="43.26014660235296" lon="12.235081523680552"><ele>546.3333333333333</ele><time>2026-03-29T08:36:09Z</time></trkpt><trkpt lat="43.26009163748769" lon="12.23496743568528"><ele>544.1666666666666</ele><time>2026-03-29T08:36:12Z</time></trkpt><trkpt lat="43.259999773572495" lon="12.234900457740855"><ele>542.0</ele><time>2026-03-29T08:36:14Z</time></trkpt><trkpt lat="43.25990330501359" lon="12.23490970218998"><ele>541.8000000000001</ele><time>2026-03-29T08:36:16Z</time></trkpt><trkpt lat="43.25977783378745" lon="12.2349141804609"><ele>541.6</ele><time>2026-03-29T08:36:17Z</time></trkpt><trkpt lat="43.25971787479061" lon="12.234959038771732"><ele>541.4000000000001</ele><time>2026-03-29T08:36:18Z</time></trkpt><trkpt lat="43.259641660328256" lon="12.235011499261695"><ele>541.2</ele><time>2026-03-29T08:36:19Z</time></trkpt><trkpt lat="43.25953549540132" lon="12.235060832738954"><ele>541.0</ele><time>2026-03-29T08:36:20Z</time></trkpt><trkpt lat="43.25941438124092" lon="12.235141755859447"><ele>541.0</ele><time>2026-03-29T08:36:21Z</time></trkpt><trkpt lat="43.259292215455574" lon="12.235240831946545"><ele>541.0</ele><time>2026-03-29T08:36:22Z</time></trkpt><trkpt lat="43.25918779505558" lon="12.23530852596365"><ele>541.0</ele><time>2026-03-29T08:36:23Z</time></trkpt><trkpt lat="43.25910847922692" lon="12.235351214534008"><ele>541.0</ele><time>2026-03-29T08:36:24Z</time></trkpt><trkpt lat="43.25904000363567" lon="12.235400307996466"><ele>541.0</ele><time>2026-03-29T08:36:25Z</time></trkpt><trkpt lat="43.25897275947853" lon="12.235445648585113"><ele>541.8</ele><time>2026-03-29T08:36:28Z</time></trkpt><trkpt lat="43.25889113585015" lon="12.235370271551032"><ele>542.6</ele><time>2026-03-29T08:36:31Z</time></trkpt><trkpt lat="43.25887576144481" lon="12.235267489631722"><ele>543.4</ele><time>2026-03-29T08:36:32Z</time></trkpt><trkpt lat="43.2588824908983" lon="12.235090003923169"><ele>544.2</ele><time>2026-03-29T08:36:33Z</time></trkpt><trkpt lat="43.25888146026265" lon="12.234900263491353"><ele>545.0</ele><time>2026-03-29T08:36:34Z</time></trkpt><trkpt lat="43.258843054296506" lon="12.234772682132196"><ele>543.4</ele><time>2026-03-29T08:36:35Z</time></trkpt><trkpt lat="43.25876637925183" lon="12.234745537223787"><ele>541.8</ele><time>2026-03-29T08:36:36Z</time></trkpt><trkpt lat="43.258685074342026" lon="12.234736242355954"><ele>540.2</ele><time>2026-03-29T08:36:37Z</time></trkpt><trkpt lat="43.258584138483705" lon="12.234697067250494"><ele>538.6</ele><time>2026-03-29T08:36:38Z</time></trkpt><trkpt lat="43.25845796670647" lon="12.234635514458395"><ele>537.0</ele><time>2026-03-29T08:36:39Z</time></trkpt><trkpt lat="43.258354915101364" lon="12.23463998255187"><ele>537.0</ele><time>2026-03-29T08:36:40Z</time></trkpt><trkpt lat="43.258284643128256" lon="12.234638293420122"><ele>537.0</ele><time>2026-03-29T08:36:41Z</time></trkpt><trkpt lat="43.25820889616565" lon="12.234634528874343"><ele>537.0</ele><time>2026-03-29T08:36:42Z</time></trkpt><trkpt lat="43.258079267696445" lon="12.23456946709513"><ele>537.0</ele><time>2026-03-29T08:36:44Z</time></trkpt><trkpt lat="43.258016522036" lon="12.234501180061457"><ele>537.0</ele><time>2026-03-29T08:36:45Z</time></trkpt><trkpt lat="43.25796249613945" lon="12.23444403919063"><ele>537.0</ele><time>2026-03-29T08:36:46Z</time></trkpt><trkpt lat="43.25790439004828" lon="12.234368236066056"><ele>538.0</ele><time>2026-03-29T08:36:47Z</time></trkpt><trkpt lat="43.257877064265294" lon="12.234254878688557"><ele>539.0</ele><time>2026-03-29T08:36:48Z</time></trkpt><trkpt lat="43.25784042026064" lon="12.234117349498169"><ele>540.0</ele><time>2026-03-29T08:36:49Z</time></trkpt><trkpt lat="43.25780177228647" lon="12.234021672310458"><ele>541.0</ele><time>2026-03-29T08:36:50Z</time></trkpt><trkpt lat="43.25778765861602" lon="12.233893174308893"><ele>542.0</ele><time>2026-03-29T08:36:52.001Z</time></trkpt><trkpt lat="43.25774288835531" lon="12.233829005671677"><ele>543.0</ele><time>2026-03-29T08:36:54.001Z</time></trkpt><trkpt lat="43.25768443445752" lon="12.233785403745534"><ele>543.0</ele><time>2026-03-29T08:36:55.001Z</time></trkpt><trkpt lat="43.257633511440275" lon="12.233733635994069"><ele>543.0</ele><time>2026-03-29T08:36:56.001Z</time></trkpt><trkpt lat="43.257561944982605" lon="12.233716842739485"><ele>543.0</ele><time>2026-03-29T08:36:58.001Z</time></trkpt><trkpt lat="43.257474227690885" lon="12.233742452624465"><ele>543.0</ele><time>2026-03-29T08:37:00.001Z</time></trkpt><trkpt lat="43.25739952094212" lon="12.233712765192912"><ele>543.0</ele><time>2026-03-29T08:37:01.001Z</time></trkpt><trkpt lat="43.25733631587044" lon="12.233585561775579"><ele>543.0</ele><time>2026-03-29T08:37:03.001Z</time></trkpt><trkpt lat="43.257292042922764" lon="12.233447985742002"><ele>545.2857142857143</ele><time>2026-03-29T08:37:04.001Z</time></trkpt><trkpt lat="43.25726758856632" lon="12.233351762864183"><ele>547.5714285714286</ele><time>2026-03-29T08:37:05.001Z</time></trkpt><trkpt lat="43.25727764833837" lon="12.233258645094734"><ele>549.8571428571429</ele><time>2026-03-29T08:37:06.001Z</time></trkpt><trkpt lat="43.25726583885103" lon="12.233164237671813"><ele>552.1428571428571</ele><time>2026-03-29T08:37:07.001Z</time></trkpt><trkpt lat="43.25720197395535" lon="12.233158467139832"><ele>554.4285714285714</ele><time>2026-03-29T08:37:09.001Z</time></trkpt><trkpt lat="43.25714776827552" lon="12.23324277254564"><ele>556.7142857142858</ele><time>2026-03-29T08:37:11.001Z</time></trkpt><trkpt lat="43.257132760955095" lon="12.233332037724585"><ele>559.0</ele><time>2026-03-29T08:37:12.001Z</time></trkpt><trkpt lat="43.25708264315755" lon="12.233442250780207"><ele>559.0</ele><time>2026-03-29T08:37:14Z</time></trkpt><trkpt lat="43.25702701059037" lon="12.233484783616284"><ele>559.0</ele><time>2026-03-29T08:37:15Z</time></trkpt><trkpt lat="43.25695434649356" lon="12.233513379872404"><ele>559.0</ele><time>2026-03-29T08:37:16Z</time></trkpt><trkpt lat="43.25689713653124" lon="12.233605690383445"><ele>559.0</ele><time>2026-03-29T08:37:18Z</time></trkpt><trkpt lat="43.25682477510954" lon="12.233675692670081"><ele>559.0</ele><time>2026-03-29T08:37:22Z</time></trkpt><trkpt lat="43.256755293702945" lon="12.233707232569571"><ele>559.0</ele><time>2026-03-29T08:37:28Z</time></trkpt><trkpt lat="43.25669394263282" lon="12.233728450605856"><ele>559.0</ele><time>2026-03-29T08:37:30Z</time></trkpt><trkpt lat="43.25660105993542" lon="12.233787507759036"><ele>559.0</ele><time>2026-03-29T08:37:32Z</time></trkpt><trkpt lat="43.25656268968524" lon="12.233867656600259"><ele>559.0</ele><time>2026-03-29T08:37:35Z</time></trkpt><trkpt lat="43.25649863929006" lon="12.233941246993169"><ele>559.0</ele><time>2026-03-29T08:37:45Z</time></trkpt><trkpt lat="43.25643293366125" lon="12.234018997658385"><ele>559.0</ele><time>2026-03-29T08:37:48Z</time></trkpt><trkpt lat="43.25636745909579" lon="12.23401950483019"><ele>559.0</ele><time>2026-03-29T08:37:50Z</time></trkpt><trkpt lat="43.256290884437256" lon="12.234056602015421"><ele>562.6</ele><time>2026-03-29T08:37:53Z</time></trkpt><trkpt lat="43.25621155954927" lon="12.234118668510847"><ele>566.2</ele><time>2026-03-29T08:37:55Z</time></trkpt><trkpt lat="43.256176035804344" lon="12.234210818534804"><ele>569.8000000000001</ele><time>2026-03-29T08:37:56Z</time></trkpt><trkpt lat="43.25621707189831" lon="12.23435844773632"><ele>573.4</ele><time>2026-03-29T08:37:58Z</time></trkpt><trkpt lat="43.25629311678983" lon="12.234532644895529"><ele>577.0</ele><time>2026-03-29T08:38:00Z</time></trkpt><trkpt lat="43.25634083800952" lon="12.23462089318912"><ele>577.0</ele><time>2026-03-29T08:38:01Z</time></trkpt><trkpt lat="43.25630899686258" lon="12.234730411774096"><ele>577.0</ele><time>2026-03-29T08:38:03Z</time></trkpt><trkpt lat="43.25623981160216" lon="12.234765504481595"><ele>577.0</ele><time>2026-03-29T08:38:05Z</time></trkpt><trkpt lat="43.25620630602814" lon="12.234895108701743"><ele>577.0</ele><time>2026-03-29T08:38:07Z</time></trkpt><trkpt lat="43.25629721367744" lon="12.234965295829486"><ele>577.0</ele><time>2026-03-29T08:38:09Z</time></trkpt><trkpt lat="43.256355014739235" lon="12.235031067342142"><ele>577.0</ele><time>2026-03-29T08:38:11Z</time></trkpt><trkpt lat="43.256378675367415" lon="12.235210194907577"><ele>579.1666666666667</ele><time>2026-03-29T08:38:13Z</time></trkpt><trkpt lat="43.256343225984125" lon="12.235342343990574"><ele>581.3333333333334</ele><time>2026-03-29T08:38:15Z</time></trkpt><trkpt lat="43.256310714464846" lon="12.235429490096015"><ele>583.5</ele><time>2026-03-29T08:38:17Z</time></trkpt><trkpt lat="43.25632288073626" lon="12.235565945305414"><ele>585.6666666666666</ele><time>2026-03-29T08:38:19Z</time></trkpt><trkpt lat="43.2562711512108" lon="12.235641262741517"><ele>587.8333333333333</ele><time>2026-03-29T08:38:20Z</time></trkpt><trkpt lat="43.25618291856849" lon="12.235659404641119"><ele>590.0</ele><time>2026-03-29T08:38:22Z</time></trkpt><trkpt lat="43.25617134877696" lon="12.23576209685235"><ele>592.6666666666666</ele><time>2026-03-29T08:38:24Z</time></trkpt><trkpt lat="43.25615939362895" lon="12.235897937351925"><ele>595.3333333333333</ele><time>2026-03-29T08:38:27Z</time></trkpt><trkpt lat="43.2561571822879" lon="12.236008858257676"><ele>598.0</ele><time>2026-03-29T08:38:29Z</time></trkpt><trkpt lat="43.25614259538623" lon="12.2360965703119"><ele>600.6666666666666</ele><time>2026-03-29T08:38:30Z</time></trkpt><trkpt lat="43.256092092786545" lon="12.236198048776892"><ele>603.3333333333334</ele><time>2026-03-29T08:38:32Z</time></trkpt><trkpt lat="43.25602402814539" lon="12.236303667280916"><ele>606.0</ele><time>2026-03-29T08:38:33Z</time></trkpt><trkpt lat="43.255947788650815" lon="12.236384320687828"><ele>606.0</ele><time>2026-03-29T08:38:34Z</time></trkpt><trkpt lat="43.25588037364446" lon="12.236428492926224"><ele>606.0</ele><time>2026-03-29T08:38:35Z</time></trkpt><trkpt lat="43.255775782122036" lon="12.23641358570726"><ele>606.0</ele><time>2026-03-29T08:38:37.999Z</time></trkpt><trkpt lat="43.25571441892887" lon="12.236441726620196"><ele>606.0</ele><time>2026-03-29T08:38:38.999Z</time></trkpt><trkpt lat="43.25564887552675" lon="12.236442868568863"><ele>606.0</ele><time>2026-03-29T08:38:39.999Z</time></trkpt><trkpt lat="43.255557654484946" lon="12.236375448869588"><ele>606.0</ele><time>2026-03-29T08:38:40.999Z</time></trkpt><trkpt lat="43.25545111639135" lon="12.236367222888688"><ele>607.5</ele><time>2026-03-29T08:38:42.999Z</time></trkpt><trkpt lat="43.25540287532127" lon="12.236440910114661"><ele>609.0</ele><time>2026-03-29T08:38:43.999Z</time></trkpt><trkpt lat="43.25537476013821" lon="12.236525738700333"><ele>610.5</ele><time>2026-03-29T08:38:44.999Z</time></trkpt><trkpt lat="43.25533763482213" lon="12.236601688130193"><ele>612.0</ele><time>2026-03-29T08:38:45.999Z</time></trkpt><trkpt lat="43.25532000537667" lon="12.236723270543136"><ele>613.5</ele><time>2026-03-29T08:38:46.999Z</time></trkpt><trkpt lat="43.25531321104836" lon="12.236811253315855"><ele>615.0</ele><time>2026-03-29T08:38:47.999Z</time></trkpt><trkpt lat="43.25534958367071" lon="12.236995701930931"><ele>616.6666666666666</ele><time>2026-03-29T08:38:48.999Z</time></trkpt><trkpt lat="43.25535227602619" lon="12.237098569344447"><ele>618.3333333333334</ele><time>2026-03-29T08:38:49.999Z</time></trkpt><trkpt lat="43.255401632506775" lon="12.237273468339646"><ele>620.0</ele><time>2026-03-29T08:38:51.999Z</time></trkpt><trkpt lat="43.255419621841156" lon="12.23736873738269"><ele>621.6666666666667</ele><time>2026-03-29T08:38:52.999Z</time></trkpt><trkpt lat="43.25542475275369" lon="12.237476269387315"><ele>623.3333333333334</ele><time>2026-03-29T08:38:53.999Z</time></trkpt><trkpt lat="43.25534509486673" lon="12.237470005976633"><ele>625.0</ele><time>2026-03-29T08:38:57.001Z</time></trkpt><trkpt lat="43.255250551472315" lon="12.237452493899116"><ele>626.8</ele><time>2026-03-29T08:38:58.001Z</time></trkpt><trkpt lat="43.25515154487724" lon="12.23746552842099"><ele>628.6</ele><time>2026-03-29T08:38:59.001Z</time></trkpt><trkpt lat="43.25507855385775" lon="12.237523808303472"><ele>630.4</ele><time>2026-03-29T08:39:00.001Z</time></trkpt><trkpt lat="43.255013903157405" lon="12.237672615083556"><ele>632.2</ele><time>2026-03-29T08:39:02.001Z</time></trkpt><trkpt lat="43.25497231393742" lon="12.237814045217092"><ele>634.0</ele><time>2026-03-29T08:39:04.001Z</time></trkpt><trkpt lat="43.25489256124175" lon="12.237882872472643"><ele>634.0</ele><time>2026-03-29T08:39:05.001Z</time></trkpt><trkpt lat="43.25482676907124" lon="12.237905817622782"><ele>634.0</ele><time>2026-03-29T08:39:06.001Z</time></trkpt><trkpt lat="43.254826244481656" lon="12.238085950408976"><ele>634.0</ele><time>2026-03-29T08:39:08.001Z</time></trkpt><trkpt lat="43.25484198417183" lon="12.238221257075038"><ele>634.0</ele><time>2026-03-29T08:39:09.001Z</time></trkpt><trkpt lat="43.25484311287046" lon="12.238336413679"><ele>634.0</ele><time>2026-03-29T08:39:10.001Z</time></trkpt><trkpt lat="43.254836539023124" lon="12.238490492810193"><ele>633.6666666666667</ele><time>2026-03-29T08:39:11.001Z</time></trkpt><trkpt lat="43.25479869683379" lon="12.238647395068396"><ele>633.3333333333334</ele><time>2026-03-29T08:39:12Z</time></trkpt><trkpt lat="43.25474325240779" lon="12.238736567227953"><ele>633.0</ele><time>2026-03-29T08:39:13Z</time></trkpt><trkpt lat="43.25471581821628" lon="12.238850430340413"><ele>632.6666666666666</ele><time>2026-03-29T08:39:14Z</time></trkpt><trkpt lat="43.25466823778494" lon="12.2389490225088"><ele>632.3333333333333</ele><time>2026-03-29T08:39:15Z</time></trkpt><trkpt lat="43.254633172649164" lon="12.239030722706188"><ele>632.0</ele><time>2026-03-29T08:39:16Z</time></trkpt><trkpt lat="43.25461236322599" lon="12.239191114063784"><ele>633.4</ele><time>2026-03-29T08:39:18Z</time></trkpt><trkpt lat="43.2546042511957" lon="12.239324098343518"><ele>634.8000000000001</ele><time>2026-03-29T08:39:20Z</time></trkpt><trkpt lat="43.25453458207731" lon="12.239424917055684"><ele>636.2</ele><time>2026-03-29T08:39:22Z</time></trkpt><trkpt lat="43.2544353831974" lon="12.239454577820627"><ele>637.6</ele><time>2026-03-29T08:39:23Z</time></trkpt><trkpt lat="43.25433988508889" lon="12.239471163046986"><ele>639.0</ele><time>2026-03-29T08:39:25Z</time></trkpt><trkpt lat="43.25423803521502" lon="12.239498247967711"><ele>639.0</ele><time>2026-03-29T08:39:27Z</time></trkpt><trkpt lat="43.25416589710327" lon="12.239519112848374"><ele>639.0</ele><time>2026-03-29T08:39:35Z</time></trkpt><trkpt lat="43.25408839230286" lon="12.239510170445975"><ele>639.0</ele><time>2026-03-29T08:39:38Z</time></trkpt><trkpt lat="43.25402150912869" lon="12.239504881904834"><ele>639.0</ele><time>2026-03-29T08:39:39Z</time></trkpt><trkpt lat="43.25393144031087" lon="12.239488799037673"><ele>639.0</ele><time>2026-03-29T08:39:41Z</time></trkpt><trkpt lat="43.253882171685405" lon="12.239405575261388"><ele>639.0</ele><time>2026-03-29T08:39:43Z</time></trkpt><trkpt lat="43.25382437306309" lon="12.239340447994236"><ele>639.4285714285714</ele><time>2026-03-29T08:39:45Z</time></trkpt><trkpt lat="43.25375815876168" lon="12.239339216056765"><ele>639.8571428571429</ele><time>2026-03-29T08:39:47Z</time></trkpt><trkpt lat="43.25367982733184" lon="12.23938342438959"><ele>640.2857142857142</ele><time>2026-03-29T08:39:49Z</time></trkpt><trkpt lat="43.25361348683848" lon="12.239421250495528"><ele>640.7142857142858</ele><time>2026-03-29T08:39:50Z</time></trkpt><trkpt lat="43.25354016837928" lon="12.239468923502116"><ele>641.1428571428571</ele><time>2026-03-29T08:39:51Z</time></trkpt><trkpt lat="43.253479148899174" lon="12.23952604347849"><ele>641.5714285714286</ele><time>2026-03-29T08:39:52Z</time></trkpt><trkpt lat="43.253419251180105" lon="12.239570793838887"><ele>642.0</ele><time>2026-03-29T08:39:53Z</time></trkpt><trkpt lat="43.253352097942205" lon="12.239603191475261"><ele>642.0</ele><time>2026-03-29T08:39:54Z</time></trkpt><trkpt lat="43.253295892553616" lon="12.239643463008104"><ele>642.0</ele><time>2026-03-29T08:39:55Z</time></trkpt><trkpt lat="43.253235709693" lon="12.239705872844144"><ele>642.0</ele><time>2026-03-29T08:39:56Z</time></trkpt><trkpt lat="43.25312988366594" lon="12.239717998293033"><ele>642.0</ele><time>2026-03-29T08:39:58Z</time></trkpt><trkpt lat="43.25298873623866" lon="12.239663603083654"><ele>642.0</ele><time>2026-03-29T08:40:00Z</time></trkpt><trkpt lat="43.252883137098934" lon="12.239625850188492"><ele>641.6</ele><time>2026-03-29T08:40:01Z</time></trkpt><trkpt lat="43.25275622520214" lon="12.2396670252854"><ele>641.2</ele><time>2026-03-29T08:40:03Z</time></trkpt><trkpt lat="43.25265663028191" lon="12.239681012481073"><ele>640.8</ele><time>2026-03-29T08:40:04Z</time></trkpt><trkpt lat="43.25257553377395" lon="12.239691784779879"><ele>640.4</ele><time>2026-03-29T08:40:05Z</time></trkpt><trkpt lat="43.252508408327024" lon="12.23969042783983"><ele>640.0</ele><time>2026-03-29T08:40:06Z</time></trkpt><trkpt lat="43.25242871472382" lon="12.239664216135775"><ele>640.0</ele><time>2026-03-29T08:40:07Z</time></trkpt><trkpt lat="43.25234783517961" lon="12.239613060721634"><ele>640.0</ele><time>2026-03-29T08:40:08Z</time></trkpt><trkpt lat="43.252220826525054" lon="12.23956363482854"><ele>640.0</ele><time>2026-03-29T08:40:10Z</time></trkpt><trkpt lat="43.25210781328665" lon="12.23957830906699"><ele>640.0</ele><time>2026-03-29T08:40:12Z</time></trkpt><trkpt lat="43.252021186562736" lon="12.239536668767563"><ele>640.0</ele><time>2026-03-29T08:40:14Z</time></trkpt><trkpt lat="43.25194156524637" lon="12.23950952513818"><ele>641.6</ele><time>2026-03-29T08:40:14.999Z</time></trkpt><trkpt lat="43.251860670614185" lon="12.239483227864891"><ele>643.2</ele><time>2026-03-29T08:40:15.999Z</time></trkpt><trkpt lat="43.25177178470121" lon="12.239467127038312"><ele>644.8</ele><time>2026-03-29T08:40:16.999Z</time></trkpt><trkpt lat="43.25168345562984" lon="12.239447590625803"><ele>646.4</ele><time>2026-03-29T08:40:17.999Z</time></trkpt><trkpt lat="43.25161139462414" lon="12.239416500636864"><ele>648.0</ele><time>2026-03-29T08:40:18.999Z</time></trkpt><trkpt lat="43.25153679251811" lon="12.239261336739757"><ele>648.0</ele><time>2026-03-29T08:40:20.999Z</time></trkpt><trkpt lat="43.25147135637644" lon="12.239196897994223"><ele>648.0</ele><time>2026-03-29T08:40:21.999Z</time></trkpt><trkpt lat="43.251379126872905" lon="12.239069215284978"><ele>648.0</ele><time>2026-03-29T08:40:23.999Z</time></trkpt><trkpt lat="43.2513686729854" lon="12.238957343998118"><ele>648.0</ele><time>2026-03-29T08:40:24.999Z</time></trkpt><trkpt lat="43.25135021755032" lon="12.238848725095076"><ele>648.0</ele><time>2026-03-29T08:40:25.999Z</time></trkpt><trkpt lat="43.251319790121904" lon="12.238740913389593"><ele>648.0</ele><time>2026-03-29T08:40:26.999Z</time></trkpt><trkpt lat="43.25125645605166" lon="12.238663570505448"><ele>648.0</ele><time>2026-03-29T08:40:27.999Z</time></trkpt><trkpt lat="43.25117863446874" lon="12.23858821206827"><ele>648.0</ele><time>2026-03-29T08:40:28.999Z</time></trkpt><trkpt lat="43.25108773907447" lon="12.23852973001896"><ele>648.0</ele><time>2026-03-29T08:40:29.999Z</time></trkpt><trkpt lat="43.25099670433687" lon="12.23849911014695"><ele>648.0</ele><time>2026-03-29T08:40:30.999Z</time></trkpt><trkpt lat="43.25092611805727" lon="12.238497729464278"><ele>648.0</ele><time>2026-03-29T08:40:31.999Z</time></trkpt><trkpt lat="43.2508389350861" lon="12.238470251423248"><ele>648.0</ele><time>2026-03-29T08:40:32.999Z</time></trkpt><trkpt lat="43.25072403836407" lon="12.238464605147284"><ele>648.0</ele><time>2026-03-29T08:40:33.999Z</time></trkpt><trkpt lat="43.250601753712324" lon="12.23846874581773"><ele>648.0</ele><time>2026-03-29T08:40:34.999Z</time></trkpt><trkpt lat="43.25050448176011" lon="12.238466543437589"><ele>648.0</ele><time>2026-03-29T08:40:35.999Z</time></trkpt><trkpt lat="43.250426255937036" lon="12.238484103546764"><ele>648.0</ele><time>2026-03-29T08:40:36.999Z</time></trkpt><trkpt lat="43.25033501687115" lon="12.238471589368022"><ele>648.2</ele><time>2026-03-29T08:40:37.999Z</time></trkpt><trkpt lat="43.250218697898504" lon="12.238479312724508"><ele>648.4</ele><time>2026-03-29T08:40:38.999Z</time></trkpt><trkpt lat="43.25010846597044" lon="12.238489402178537"><ele>648.6</ele><time>2026-03-29T08:40:39.999Z</time></trkpt><trkpt lat="43.25001145616583" lon="12.238497483300275"><ele>648.8000000000001</ele><time>2026-03-29T08:40:40.999Z</time></trkpt><trkpt lat="43.24993605263132" lon="12.238495582528731"><ele>649.0</ele><time>2026-03-29T08:40:41.999Z</time></trkpt><trkpt lat="43.249856863795" lon="12.238476998733677"><ele>648.6</ele><time>2026-03-29T08:40:42.999Z</time></trkpt><trkpt lat="43.24977955835736" lon="12.23842888404677"><ele>648.2</ele><time>2026-03-29T08:40:43.999Z</time></trkpt><trkpt lat="43.249682921500415" lon="12.238394654549504"><ele>647.8000000000001</ele><time>2026-03-29T08:40:44.999Z</time></trkpt><trkpt lat="43.2496037855492" lon="12.238321795821097"><ele>647.4000000000001</ele><time>2026-03-29T08:40:45.999Z</time></trkpt><trkpt lat="43.24956129174887" lon="12.238192488263671"><ele>647.0</ele><time>2026-03-29T08:40:46.999Z</time></trkpt><trkpt lat="43.24943284028741" lon="12.238129411666462"><ele>647.0</ele><time>2026-03-29T08:40:47.999Z</time></trkpt><trkpt lat="43.24934385019867" lon="12.238048546725397"><ele>647.0</ele><time>2026-03-29T08:40:48.999Z</time></trkpt><trkpt lat="43.2492998362559" lon="12.237949432343832"><ele>647.0</ele><time>2026-03-29T08:40:49.999Z</time></trkpt><trkpt lat="43.24928814364931" lon="12.237842300255913"><ele>647.0</ele><time>2026-03-29T08:40:50.999Z</time></trkpt><trkpt lat="43.249261381742045" lon="12.237741081779458"><ele>647.0</ele><time>2026-03-29T08:40:51.999Z</time></trkpt><trkpt lat="43.24918893567812" lon="12.237641164225414"><ele>647.0</ele><time>2026-03-29T08:40:52.999Z</time></trkpt><trkpt lat="43.24912377156998" lon="12.237536226877129"><ele>647.0</ele><time>2026-03-29T08:40:53.999Z</time></trkpt><trkpt lat="43.249050762010256" lon="12.237409930758108"><ele>647.0</ele><time>2026-03-29T08:40:54.999Z</time></trkpt><trkpt lat="43.24899956314499" lon="12.237260250722017"><ele>647.0</ele><time>2026-03-29T08:40:55.999Z</time></trkpt><trkpt lat="43.24897240690293" lon="12.237100197755307"><ele>648.0</ele><time>2026-03-29T08:40:56.999Z</time></trkpt><trkpt lat="43.24895557814654" lon="12.236957406689967"><ele>649.0</ele><time>2026-03-29T08:40:57.999Z</time></trkpt><trkpt lat="43.248952526690125" lon="12.236843000167354"><ele>650.0</ele><time>2026-03-29T08:40:58.999Z</time></trkpt><trkpt lat="43.24894972454397" lon="12.236745794546279"><ele>651.0</ele><time>2026-03-29T08:40:59.999Z</time></trkpt><trkpt lat="43.24892182258289" lon="12.236606872799536"><ele>652.0</ele><time>2026-03-29T08:41:00.999Z</time></trkpt><trkpt lat="43.248912991526375" lon="12.236491263748109"><ele>653.0</ele><time>2026-03-29T08:41:01.999Z</time></trkpt><trkpt lat="43.24887495944241" lon="12.236388758634964"><ele>650.8333333333333</ele><time>2026-03-29T08:41:03.001Z</time></trkpt><trkpt lat="43.248838362627254" lon="12.236305129102124"><ele>648.6666666666666</ele><time>2026-03-29T08:41:04.001Z</time></trkpt><trkpt lat="43.24880078810545" lon="12.236228569529844"><ele>646.5</ele><time>2026-03-29T08:41:05.001Z</time></trkpt><trkpt lat="43.24874826753463" lon="12.236127224261589"><ele>644.3333333333334</ele><time>2026-03-29T08:41:06.001Z</time></trkpt><trkpt lat="43.24870427024441" lon="12.236028714689171"><ele>642.1666666666667</ele><time>2026-03-29T08:41:07.001Z</time></trkpt><trkpt lat="43.24866013103931" lon="12.23591192848863"><ele>640.0</ele><time>2026-03-29T08:41:09Z</time></trkpt><trkpt lat="43.248534504865944" lon="12.235809455537046"><ele>640.0</ele><time>2026-03-29T08:41:11Z</time></trkpt><trkpt lat="43.24844837564786" lon="12.235726345577644"><ele>640.0</ele><time>2026-03-29T08:41:12Z</time></trkpt><trkpt lat="43.248363888192095" lon="12.235645596124"><ele>640.0</ele><time>2026-03-29T08:41:13Z</time></trkpt><trkpt lat="43.24830386522247" lon="12.23559826379782"><ele>640.0</ele><time>2026-03-29T08:41:14Z</time></trkpt><trkpt lat="43.24821058026263" lon="12.235541440653137"><ele>640.0</ele><time>2026-03-29T08:41:16Z</time></trkpt><trkpt lat="43.24817924026854" lon="12.235386362785965"><ele>637.25</ele><time>2026-03-29T08:41:17Z</time></trkpt><trkpt lat="43.24810851412944" lon="12.235270860541712"><ele>634.5</ele><time>2026-03-29T08:41:18Z</time></trkpt><trkpt lat="43.24826476764701" lon="12.235118797681123"><ele>631.75</ele><time>2026-03-29T08:41:19Z</time></trkpt><trkpt lat="43.248281892853186" lon="12.235013568481294"><ele>629.0</ele><time>2026-03-29T08:41:20Z</time></trkpt><trkpt lat="43.24823593138417" lon="12.234506173630077"><ele>628.5</ele><time>2026-03-29T08:41:21Z</time></trkpt><trkpt lat="43.24816359682025" lon="12.234431433954"><ele>628.0</ele><time>2026-03-29T08:41:22Z</time></trkpt><trkpt lat="43.24807524553015" lon="12.234340142227406"><ele>627.5</ele><time>2026-03-29T08:41:23Z</time></trkpt><trkpt lat="43.24798808796093" lon="12.234250083952846"><ele>627.0</ele><time>2026-03-29T08:41:24Z</time></trkpt><trkpt lat="43.247703870856206" lon="12.234518187050025"><ele>627.0</ele><time>2026-03-29T08:41:25Z</time></trkpt><trkpt lat="43.247625434286924" lon="12.234428941270837"><ele>627.0</ele><time>2026-03-29T08:41:26Z</time></trkpt><trkpt lat="43.247545814149944" lon="12.234282271175651"><ele>627.0</ele><time>2026-03-29T08:41:27Z</time></trkpt><trkpt lat="43.24746866014262" lon="12.23414040064537"><ele>627.0</ele><time>2026-03-29T08:41:28Z</time></trkpt><trkpt lat="43.24741596635615" lon="12.23402092524663"><ele>628.2</ele><time>2026-03-29T08:41:29Z</time></trkpt><trkpt lat="43.24738182431021" lon="12.233861826400442"><ele>629.4000000000001</ele><time>2026-03-29T08:41:30Z</time></trkpt><trkpt lat="43.247344863652756" lon="12.233699797173715"><ele>630.5999999999999</ele><time>2026-03-29T08:41:31Z</time></trkpt><trkpt lat="43.247308831831624" lon="12.23357406503544"><ele>631.8</ele><time>2026-03-29T08:41:32Z</time></trkpt><trkpt lat="43.24727619413838" lon="12.233473967841928"><ele>633.0</ele><time>2026-03-29T08:41:33Z</time></trkpt><trkpt lat="43.24725178185429" lon="12.23330390337981"><ele>629.5</ele><time>2026-03-29T08:41:35Z</time></trkpt><trkpt lat="43.24724633043026" lon="12.233208625114553"><ele>626.0</ele><time>2026-03-29T08:41:36Z</time></trkpt><trkpt lat="43.24723112421077" lon="12.233124156449007"><ele>622.5</ele><time>2026-03-29T08:41:37Z</time></trkpt><trkpt lat="43.24720770531617" lon="12.233019881681397"><ele>619.0</ele><time>2026-03-29T08:41:38Z</time></trkpt><trkpt lat="43.247164991287825" lon="12.232919333614667"><ele>615.5</ele><time>2026-03-29T08:41:39Z</time></trkpt><trkpt lat="43.24711405367714" lon="12.232844211390297"><ele>612.0</ele><time>2026-03-29T08:41:40Z</time></trkpt><trkpt lat="43.24703270341003" lon="12.232717917300471"><ele>612.0</ele><time>2026-03-29T08:41:42Z</time></trkpt><trkpt lat="43.246990295744716" lon="12.232640530117955"><ele>612.0</ele><time>2026-03-29T08:41:43Z</time></trkpt><trkpt lat="43.246942996708356" lon="12.23253551530062"><ele>612.0</ele><time>2026-03-29T08:41:44Z</time></trkpt><trkpt lat="43.246901269957306" lon="12.232410044798614"><ele>612.0</ele><time>2026-03-29T08:41:45Z</time></trkpt><trkpt lat="43.2468656062138" lon="12.23227887192879"><ele>612.0</ele><time>2026-03-29T08:41:46Z</time></trkpt><trkpt lat="43.24683140327256" lon="12.232166129287444"><ele>612.6666666666666</ele><time>2026-03-29T08:41:47Z</time></trkpt><trkpt lat="43.246800373915654" lon="12.232075988694334"><ele>613.3333333333334</ele><time>2026-03-29T08:41:48Z</time></trkpt><trkpt lat="43.246763310208166" lon="12.231985139390432"><ele>614.0</ele><time>2026-03-29T08:41:49Z</time></trkpt><trkpt lat="43.24669523298321" lon="12.231829731765705"><ele>614.6666666666667</ele><time>2026-03-29T08:41:51Z</time></trkpt><trkpt lat="43.24666153668421" lon="12.23174992909907"><ele>615.3333333333334</ele><time>2026-03-29T08:41:52Z</time></trkpt><trkpt lat="43.246617586729236" lon="12.23163910756249"><ele>616.0</ele><time>2026-03-29T08:41:53Z</time></trkpt><trkpt lat="43.24657709918503" lon="12.2315408721577"><ele>613.0</ele><time>2026-03-29T08:41:54Z</time></trkpt><trkpt lat="43.24653068542189" lon="12.231443107668207"><ele>610.0</ele><time>2026-03-29T08:41:55Z</time></trkpt><trkpt lat="43.246469423232114" lon="12.231376592495634"><ele>607.0</ele><time>2026-03-29T08:41:56Z</time></trkpt><trkpt lat="43.246298848489474" lon="12.231383080962758"><ele>604.0</ele><time>2026-03-29T08:41:57Z</time></trkpt><trkpt lat="43.24623341360639" lon="12.231282046578691"><ele>601.0</ele><time>2026-03-29T08:41:58Z</time></trkpt><trkpt lat="43.246152460323465" lon="12.231174557899031"><ele>600.4</ele><time>2026-03-29T08:41:59Z</time></trkpt><trkpt lat="43.24606799012005" lon="12.231078654079221"><ele>599.8</ele><time>2026-03-29T08:42:00Z</time></trkpt><trkpt lat="43.245987137686356" lon="12.230990072296857"><ele>599.1999999999999</ele><time>2026-03-29T08:42:01Z</time></trkpt><trkpt lat="43.24591370973512" lon="12.230888994903353"><ele>598.6</ele><time>2026-03-29T08:42:02Z</time></trkpt><trkpt lat="43.24582903427374" lon="12.230817526738669"><ele>598.0</ele><time>2026-03-29T08:42:03Z</time></trkpt><trkpt lat="43.24575942978653" lon="12.230765767427448"><ele>598.0</ele><time>2026-03-29T08:42:04Z</time></trkpt><trkpt lat="43.24567228724711" lon="12.230689350237652"><ele>598.0</ele><time>2026-03-29T08:42:05Z</time></trkpt><trkpt lat="43.24558588576006" lon="12.23057520924556"><ele>598.0</ele><time>2026-03-29T08:42:06Z</time></trkpt><trkpt lat="43.24549629716706" lon="12.230483808305822"><ele>598.0</ele><time>2026-03-29T08:42:06.999Z</time></trkpt><trkpt lat="43.245424918957774" lon="12.230413202318273"><ele>598.0</ele><time>2026-03-29T08:42:07.999Z</time></trkpt><trkpt lat="43.24534712140593" lon="12.230346469038057"><ele>596.1999999999999</ele><time>2026-03-29T08:42:08.999Z</time></trkpt><trkpt lat="43.24527542569856" lon="12.230280729606012"><ele>594.4</ele><time>2026-03-29T08:42:09.999Z</time></trkpt><trkpt lat="43.245199715241505" lon="12.230212596471445"><ele>592.5999999999999</ele><time>2026-03-29T08:42:10.999Z</time></trkpt><trkpt lat="43.24510973336723" lon="12.230126112217793"><ele>590.8</ele><time>2026-03-29T08:42:11.999Z</time></trkpt><trkpt lat="43.245012566805556" lon="12.230030569528294"><ele>589.0</ele><time>2026-03-29T08:42:12.999Z</time></trkpt><trkpt lat="43.24491393781942" lon="12.229924819007842"><ele>589.0</ele><time>2026-03-29T08:42:13.999Z</time></trkpt><trkpt lat="43.24480458872632" lon="12.22981427724215"><ele>589.0</ele><time>2026-03-29T08:42:14.999Z</time></trkpt><trkpt lat="43.24469258403628" lon="12.229705699672403"><ele>589.0</ele><time>2026-03-29T08:42:15.999Z</time></trkpt><trkpt lat="43.24456900484157" lon="12.229587615861465"><ele>589.0</ele><time>2026-03-29T08:42:16.999Z</time></trkpt><trkpt lat="43.24444907992873" lon="12.22946044740405"><ele>586.25</ele><time>2026-03-29T08:42:17.999Z</time></trkpt><trkpt lat="43.24434589993961" lon="12.229345879657984"><ele>583.5</ele><time>2026-03-29T08:42:18.999Z</time></trkpt><trkpt lat="43.24426208809978" lon="12.229227225443783"><ele>580.75</ele><time>2026-03-29T08:42:19.999Z</time></trkpt><trkpt lat="43.244205248563176" lon="12.229095500989052"><ele>578.0</ele><time>2026-03-29T08:42:20.999Z</time></trkpt><trkpt lat="43.24418960373365" lon="12.228941620996778"><ele>576.75</ele><time>2026-03-29T08:42:21.999Z</time></trkpt><trkpt lat="43.24424272771297" lon="12.228803061990202"><ele>575.5</ele><time>2026-03-29T08:42:22.999Z</time></trkpt><trkpt lat="43.244308568803405" lon="12.228676220859168"><ele>574.25</ele><time>2026-03-29T08:42:23.999Z</time></trkpt><trkpt lat="43.24437765790593" lon="12.22853601919479"><ele>573.0</ele><time>2026-03-29T08:42:24.999Z</time></trkpt><trkpt lat="43.24446677160587" lon="12.228396422187547"><ele>573.0</ele><time>2026-03-29T08:42:25.999Z</time></trkpt><trkpt lat="43.244521608026524" lon="12.228268427686054"><ele>573.0</ele><time>2026-03-29T08:42:26.999Z</time></trkpt><trkpt lat="43.24457667884958" lon="12.22815135597783"><ele>573.0</ele><time>2026-03-29T08:42:27.999Z</time></trkpt><trkpt lat="43.24462809698188" lon="12.228040969894236"><ele>573.0</ele><time>2026-03-29T08:42:28.999Z</time></trkpt><trkpt lat="43.24464992627051" lon="12.227914766222472"><ele>573.0</ele><time>2026-03-29T08:42:29.999Z</time></trkpt><trkpt lat="43.24466283844934" lon="12.2277934495235"><ele>573.0</ele><time>2026-03-29T08:42:30.999Z</time></trkpt><trkpt lat="43.244656449773636" lon="12.227655100993626"><ele>573.0</ele><time>2026-03-29T08:42:31.999Z</time></trkpt><trkpt lat="43.24462737124069" lon="12.22752117726615"><ele>573.0</ele><time>2026-03-29T08:42:32.999Z</time></trkpt><trkpt lat="43.24457428197574" lon="12.22739021385113"><ele>573.0</ele><time>2026-03-29T08:42:33.999Z</time></trkpt><trkpt lat="43.2444981934392" lon="12.227261464096953"><ele>573.0</ele><time>2026-03-29T08:42:34.999Z</time></trkpt><trkpt lat="43.244418401927845" lon="12.227126540746948"><ele>573.0</ele><time>2026-03-29T08:42:35.999Z</time></trkpt><trkpt lat="43.244351210412106" lon="12.226977908572536"><ele>573.0</ele><time>2026-03-29T08:42:36.999Z</time></trkpt><trkpt lat="43.24425707072879" lon="12.22685118421127"><ele>573.0</ele><time>2026-03-29T08:42:37.999Z</time></trkpt><trkpt lat="43.244176189499626" lon="12.226707285478927"><ele>573.0</ele><time>2026-03-29T08:42:38.999Z</time></trkpt><trkpt lat="43.24409498060357" lon="12.226565135170175"><ele>573.25</ele><time>2026-03-29T08:42:39.999Z</time></trkpt><trkpt lat="43.24402013152759" lon="12.226420360860752"><ele>573.5</ele><time>2026-03-29T08:42:40.999Z</time></trkpt><trkpt lat="43.24394756029169" lon="12.226272557390276"><ele>573.75</ele><time>2026-03-29T08:42:41.999Z</time></trkpt><trkpt lat="43.2438900768" lon="12.226133436780568"><ele>574.0</ele><time>2026-03-29T08:42:42.999Z</time></trkpt><trkpt lat="43.24387799613034" lon="12.226005170293417"><ele>576.0</ele><time>2026-03-29T08:42:43.999Z</time></trkpt><trkpt lat="43.24387326138688" lon="12.225874073503237"><ele>578.0</ele><time>2026-03-29T08:42:45.999Z</time></trkpt><trkpt lat="43.24375022308268" lon="12.225822119383308"><ele>580.0</ele><time>2026-03-29T08:42:46.999Z</time></trkpt><trkpt lat="43.243677862098956" lon="12.225783775500538"><ele>582.0</ele><time>2026-03-29T08:42:47.999Z</time></trkpt><trkpt lat="43.24359558579761" lon="12.22576553824365"><ele>584.0</ele><time>2026-03-29T08:42:48.999Z</time></trkpt><trkpt lat="43.24349021103713" lon="12.225734102075446"><ele>584.0</ele><time>2026-03-29T08:42:49.999Z</time></trkpt><trkpt lat="43.243366920144254" lon="12.225715529077576"><ele>584.0</ele><time>2026-03-29T08:42:50.999Z</time></trkpt><trkpt lat="43.24320977998147" lon="12.225670341035913"><ele>584.0</ele><time>2026-03-29T08:42:51.999Z</time></trkpt><trkpt lat="43.243051385570475" lon="12.225617592592005"><ele>584.0</ele><time>2026-03-29T08:42:52.999Z</time></trkpt><trkpt lat="43.242909897176766" lon="12.225527587667278"><ele>590.75</ele><time>2026-03-29T08:42:53.999Z</time></trkpt><trkpt lat="43.2427651442033" lon="12.225429063313484"><ele>597.5</ele><time>2026-03-29T08:42:54.999Z</time></trkpt><trkpt lat="43.24265059850093" lon="12.225339661514054"><ele>604.25</ele><time>2026-03-29T08:42:55.999Z</time></trkpt><trkpt lat="43.24255615396299" lon="12.225253978101001"><ele>611.0</ele><time>2026-03-29T08:42:56.999Z</time></trkpt><trkpt lat="43.24248475265138" lon="12.225187902629608"><ele>611.0</ele><time>2026-03-29T08:42:57.999Z</time></trkpt><trkpt lat="43.24241385554016" lon="12.22512854595608"><ele>611.0</ele><time>2026-03-29T08:42:58.999Z</time></trkpt><trkpt lat="43.242332131326236" lon="12.225071661471897"><ele>611.0</ele><time>2026-03-29T08:42:59.999Z</time></trkpt><trkpt lat="43.242251134584464" lon="12.225004449018535"><ele>611.0</ele><time>2026-03-29T08:43:01.999Z</time></trkpt><trkpt lat="43.24221466031151" lon="12.224855695147946"><ele>611.0</ele><time>2026-03-29T08:43:03.999Z</time></trkpt><trkpt lat="43.24214843886625" lon="12.224738086189442"><ele>611.3333333333333</ele><time>2026-03-29T08:43:05.999Z</time></trkpt><trkpt lat="43.24207722780717" lon="12.224709875524884"><ele>611.6666666666666</ele><time>2026-03-29T08:43:06.999Z</time></trkpt><trkpt lat="43.241999056569576" lon="12.224701781416542"><ele>612.0</ele><time>2026-03-29T08:43:07.999Z</time></trkpt><trkpt lat="43.2419256114262" lon="12.224667848561811"><ele>612.3333333333334</ele><time>2026-03-29T08:43:09Z</time></trkpt><trkpt lat="43.2418494231607" lon="12.224608571083222"><ele>612.6666666666667</ele><time>2026-03-29T08:43:10Z</time></trkpt><trkpt lat="43.24179047249672" lon="12.224542641368478"><ele>613.0</ele><time>2026-03-29T08:43:11Z</time></trkpt><trkpt lat="43.24174993334127" lon="12.224470596833148"><ele>613.0</ele><time>2026-03-29T08:43:12Z</time></trkpt><trkpt lat="43.24178629226302" lon="12.224392307476977"><ele>613.0</ele><time>2026-03-29T08:43:15Z</time></trkpt><trkpt lat="43.241790056061596" lon="12.224245262961754"><ele>613.0</ele><time>2026-03-29T08:43:20Z</time></trkpt><trkpt lat="43.241820296852715" lon="12.224141637448358"><ele>613.0</ele><time>2026-03-29T08:43:21Z</time></trkpt><trkpt lat="43.241844131718715" lon="12.224022868476027"><ele>613.0</ele><time>2026-03-29T08:43:22Z</time></trkpt><trkpt lat="43.24186885552468" lon="12.223898795143304"><ele>613.0</ele><time>2026-03-29T08:43:23Z</time></trkpt><trkpt lat="43.24188182705508" lon="12.223798875443174"><ele>615.4</ele><time>2026-03-29T08:43:24Z</time></trkpt><trkpt lat="43.24185386565864" lon="12.223697785929087"><ele>617.8</ele><time>2026-03-29T08:43:25Z</time></trkpt><trkpt lat="43.241841712783824" lon="12.2235985373556"><ele>620.2</ele><time>2026-03-29T08:43:26Z</time></trkpt><trkpt lat="43.241834852906806" lon="12.22347515430559"><ele>622.6</ele><time>2026-03-29T08:43:28Z</time></trkpt><trkpt lat="43.24177921597497" lon="12.223308213430826"><ele>625.0</ele><time>2026-03-29T08:43:31Z</time></trkpt><trkpt lat="43.24171528909899" lon="12.223244943271121"><ele>625.0</ele><time>2026-03-29T08:43:32Z</time></trkpt><trkpt lat="43.24164852450844" lon="12.223189042142534"><ele>625.0</ele><time>2026-03-29T08:43:33Z</time></trkpt><trkpt lat="43.24157862650363" lon="12.22314824766972"><ele>625.0</ele><time>2026-03-29T08:43:34Z</time></trkpt><trkpt lat="43.24151268498572" lon="12.223062171672275"><ele>625.0</ele><time>2026-03-29T08:43:36Z</time></trkpt><trkpt lat="43.24153150123602" lon="12.222953629443582"><ele>625.0</ele><time>2026-03-29T08:43:38Z</time></trkpt><trkpt lat="43.24151205595217" lon="12.222865606182621"><ele>625.0</ele><time>2026-03-29T08:43:41Z</time></trkpt><trkpt lat="43.241448942791024" lon="12.222833942523044"><ele>622.0</ele><time>2026-03-29T08:43:43Z</time></trkpt><trkpt lat="43.24138478768004" lon="12.22282960366875"><ele>619.0</ele><time>2026-03-29T08:43:45Z</time></trkpt><trkpt lat="43.241293647646756" lon="12.222837748127304"><ele>616.0</ele><time>2026-03-29T08:43:47Z</time></trkpt><trkpt lat="43.241263604741526" lon="12.222757080433656"><ele>613.0</ele><time>2026-03-29T08:43:49Z</time></trkpt><trkpt lat="43.241249181078715" lon="12.222633369293042"><ele>610.0</ele><time>2026-03-29T08:43:51Z</time></trkpt><trkpt lat="43.24129208851338" lon="12.222552959072774"><ele>607.0</ele><time>2026-03-29T08:43:52Z</time></trkpt><trkpt lat="43.241298918380295" lon="12.222390352119815"><ele>607.0</ele><time>2026-03-29T08:43:54Z</time></trkpt><trkpt lat="43.24125856972039" lon="12.222290486861901"><ele>607.0</ele><time>2026-03-29T08:43:56Z</time></trkpt><trkpt lat="43.24113402647311" lon="12.22230635679092"><ele>607.0</ele><time>2026-03-29T08:43:58Z</time></trkpt><trkpt lat="43.24107277739767" lon="12.222332887396657"><ele>607.0</ele><time>2026-03-29T08:43:59Z</time></trkpt><trkpt lat="43.24101017223452" lon="12.222371588565062"><ele>607.0</ele><time>2026-03-29T08:44:00Z</time></trkpt><trkpt lat="43.240932965313775" lon="12.222387153669395"><ele>607.0</ele><time>2026-03-29T08:44:01Z</time></trkpt><trkpt lat="43.24084577607596" lon="12.222413933555348"><ele>607.0</ele><time>2026-03-29T08:44:02Z</time></trkpt><trkpt lat="43.240749839870126" lon="12.222451844771623"><ele>607.0</ele><time>2026-03-29T08:44:03Z</time></trkpt><trkpt lat="43.240645164681965" lon="12.222508776847354"><ele>607.0</ele><time>2026-03-29T08:44:04Z</time></trkpt><trkpt lat="43.24054176080974" lon="12.222572262879147"><ele>607.0</ele><time>2026-03-29T08:44:05Z</time></trkpt><trkpt lat="43.24045235450378" lon="12.222616612141696"><ele>607.0</ele><time>2026-03-29T08:44:06Z</time></trkpt><trkpt lat="43.24036298438528" lon="12.222640138953878"><ele>605.5</ele><time>2026-03-29T08:44:06.999Z</time></trkpt><trkpt lat="43.24028123479382" lon="12.222639819008496"><ele>604.0</ele><time>2026-03-29T08:44:07.999Z</time></trkpt><trkpt lat="43.24019937412513" lon="12.222637574968788"><ele>602.5</ele><time>2026-03-29T08:44:08.999Z</time></trkpt><trkpt lat="43.24012161826701" lon="12.222623475385317"><ele>601.0</ele><time>2026-03-29T08:44:09.999Z</time></trkpt><trkpt lat="43.24004260707238" lon="12.222600906590094"><ele>599.5</ele><time>2026-03-29T08:44:10.999Z</time></trkpt><trkpt lat="43.239961529075835" lon="12.222568236230702"><ele>598.0</ele><time>2026-03-29T08:44:11.999Z</time></trkpt><trkpt lat="43.2398783268166" lon="12.222524886613895"><ele>597.0</ele><time>2026-03-29T08:44:12.999Z</time></trkpt><trkpt lat="43.23979259503747" lon="12.222466372384515"><ele>596.0</ele><time>2026-03-29T08:44:13.999Z</time></trkpt><trkpt lat="43.23970516939025" lon="12.222440703547743"><ele>595.0</ele><time>2026-03-29T08:44:14.999Z</time></trkpt><trkpt lat="43.239596720662995" lon="12.222341489658103"><ele>594.0</ele><time>2026-03-29T08:44:15.999Z</time></trkpt><trkpt lat="43.23946966068917" lon="12.222272953633635"><ele>594.0</ele><time>2026-03-29T08:44:16.999Z</time></trkpt><trkpt lat="43.23935569770107" lon="12.222197716541066"><ele>594.0</ele><time>2026-03-29T08:44:17.999Z</time></trkpt><trkpt lat="43.23924389250318" lon="12.2221269631259"><ele>594.0</ele><time>2026-03-29T08:44:18.999Z</time></trkpt><trkpt lat="43.23913382594716" lon="12.222066169286911"><ele>594.0</ele><time>2026-03-29T08:44:19.999Z</time></trkpt><trkpt lat="43.23902975456739" lon="12.222002336131636"><ele>596.0</ele><time>2026-03-29T08:44:20.999Z</time></trkpt><trkpt lat="43.23892375366419" lon="12.22194166830176"><ele>598.0</ele><time>2026-03-29T08:44:21.999Z</time></trkpt><trkpt lat="43.238826652145214" lon="12.221890993696858"><ele>600.0</ele><time>2026-03-29T08:44:22.999Z</time></trkpt><trkpt lat="43.238733180865474" lon="12.221839898663893"><ele>602.0</ele><time>2026-03-29T08:44:23.999Z</time></trkpt><trkpt lat="43.23863702014634" lon="12.221786634085793"><ele>604.0</ele><time>2026-03-29T08:44:24.999Z</time></trkpt><trkpt lat="43.238545914889826" lon="12.221733060885738"><ele>604.0</ele><time>2026-03-29T08:44:25.999Z</time></trkpt><trkpt lat="43.238458159807266" lon="12.221678533181976"><ele>604.0</ele><time>2026-03-29T08:44:26.999Z</time></trkpt><trkpt lat="43.23838004138904" lon="12.221622045742656"><ele>604.0</ele><time>2026-03-29T08:44:27.999Z</time></trkpt><trkpt lat="43.238292468959486" lon="12.221568004594477"><ele>604.0</ele><time>2026-03-29T08:44:28.999Z</time></trkpt><trkpt lat="43.23821515620135" lon="12.221513064970468"><ele>604.0</ele><time>2026-03-29T08:44:29.999Z</time></trkpt><trkpt lat="43.23813676673003" lon="12.221473534951068"><ele>601.2</ele><time>2026-03-29T08:44:30.999Z</time></trkpt><trkpt lat="43.23806396621134" lon="12.22140935232925"><ele>598.4</ele><time>2026-03-29T08:44:31.999Z</time></trkpt><trkpt lat="43.2379495909369" lon="12.22135106456263"><ele>595.6</ele><time>2026-03-29T08:44:32.999Z</time></trkpt><trkpt lat="43.237861463135474" lon="12.221281132469741"><ele>592.8</ele><time>2026-03-29T08:44:33.999Z</time></trkpt><trkpt lat="43.23776241162862" lon="12.22123550335768"><ele>590.0</ele><time>2026-03-29T08:44:34.999Z</time></trkpt><trkpt lat="43.237649889053856" lon="12.221210325329908"><ele>590.0</ele><time>2026-03-29T08:44:35.999Z</time></trkpt><trkpt lat="43.23752871306017" lon="12.221175907638182"><ele>590.0</ele><time>2026-03-29T08:44:36.999Z</time></trkpt><trkpt lat="43.23739466443093" lon="12.221151142690005"><ele>590.0</ele><time>2026-03-29T08:44:37.999Z</time></trkpt><trkpt lat="43.23725085596459" lon="12.221127959872826"><ele>590.0</ele><time>2026-03-29T08:44:38.999Z</time></trkpt><trkpt lat="43.23710541802621" lon="12.221126139206003"><ele>588.25</ele><time>2026-03-29T08:44:39.999Z</time></trkpt><trkpt lat="43.23696801015351" lon="12.22110367809446"><ele>586.5</ele><time>2026-03-29T08:44:40.999Z</time></trkpt><trkpt lat="43.23685294049539" lon="12.22109985981001"><ele>584.75</ele><time>2026-03-29T08:44:41.999Z</time></trkpt><trkpt lat="43.23674572683827" lon="12.221043691360187"><ele>583.0</ele><time>2026-03-29T08:44:42.999Z</time></trkpt><trkpt lat="43.23663975652885" lon="12.220987274612488"><ele>583.0</ele><time>2026-03-29T08:44:43.999Z</time></trkpt><trkpt lat="43.2365259010304" lon="12.220931879605818"><ele>583.0</ele><time>2026-03-29T08:44:44.999Z</time></trkpt><trkpt lat="43.23646870797403" lon="12.220828512836306"><ele>583.0</ele><time>2026-03-29T08:44:45.999Z</time></trkpt><trkpt lat="43.23641908070112" lon="12.220731799527393"><ele>583.0</ele><time>2026-03-29T08:44:46.999Z</time></trkpt><trkpt lat="43.23636286788748" lon="12.220591062633819"><ele>583.0</ele><time>2026-03-29T08:44:47.999Z</time></trkpt><trkpt lat="43.23630505938812" lon="12.220415546456499"><ele>579.0</ele><time>2026-03-29T08:44:48.999Z</time></trkpt><trkpt lat="43.23624823678283" lon="12.220272760993293"><ele>575.0</ele><time>2026-03-29T08:44:49.999Z</time></trkpt><trkpt lat="43.23620644837905" lon="12.22012494264704"><ele>571.0</ele><time>2026-03-29T08:44:50.999Z</time></trkpt><trkpt lat="43.236175766355494" lon="12.219981182543826"><ele>567.0</ele><time>2026-03-29T08:44:51.999Z</time></trkpt><trkpt lat="43.23614536463022" lon="12.219824887650892"><ele>567.0</ele><time>2026-03-29T08:44:52.999Z</time></trkpt><trkpt lat="43.23612145998115" lon="12.219682210685116"><ele>567.0</ele><time>2026-03-29T08:44:53.999Z</time></trkpt><trkpt lat="43.23611320018306" lon="12.219547864541255"><ele>567.0</ele><time>2026-03-29T08:44:54.999Z</time></trkpt><trkpt lat="43.23610195095451" lon="12.219404510682342"><ele>567.0</ele><time>2026-03-29T08:44:55.999Z</time></trkpt><trkpt lat="43.236078089892786" lon="12.219271910809647"><ele>567.0</ele><time>2026-03-29T08:44:56.999Z</time></trkpt><trkpt lat="43.236048943785896" lon="12.219140497740181"><ele>567.0</ele><time>2026-03-29T08:44:57.999Z</time></trkpt><trkpt lat="43.23602222278058" lon="12.219016382345536"><ele>567.0</ele><time>2026-03-29T08:44:58.999Z</time></trkpt><trkpt lat="43.23599088867225" lon="12.21890019107962"><ele>567.0</ele><time>2026-03-29T08:44:59.999Z</time></trkpt><trkpt lat="43.23592727506289" lon="12.218784535001495"><ele>567.0</ele><time>2026-03-29T08:45:00.999Z</time></trkpt><trkpt lat="43.23584359668548" lon="12.218673458965748"><ele>567.0</ele><time>2026-03-29T08:45:01.999Z</time></trkpt><trkpt lat="43.235740607996895" lon="12.218565795654683"><ele>565.5</ele><time>2026-03-29T08:45:02.999Z</time></trkpt><trkpt lat="43.2356171284643" lon="12.218460769511617"><ele>564.0</ele><time>2026-03-29T08:45:03.999Z</time></trkpt><trkpt lat="43.235481218844846" lon="12.21836709336362"><ele>562.5</ele><time>2026-03-29T08:45:04.999Z</time></trkpt><trkpt lat="43.23535358115076" lon="12.218288541638769"><ele>561.0</ele><time>2026-03-29T08:45:05.999Z</time></trkpt><trkpt lat="43.23524067274874" lon="12.21823654051306"><ele>561.0</ele><time>2026-03-29T08:45:06.999Z</time></trkpt><trkpt lat="43.23514448468842" lon="12.218185741815523"><ele>561.0</ele><time>2026-03-29T08:45:07.999Z</time></trkpt><trkpt lat="43.235049167949256" lon="12.218123386761395"><ele>561.0</ele><time>2026-03-29T08:45:08.999Z</time></trkpt><trkpt lat="43.234940699652334" lon="12.218040999495766"><ele>561.0</ele><time>2026-03-29T08:45:09.999Z</time></trkpt><trkpt lat="43.234843076074085" lon="12.217950318160469"><ele>559.25</ele><time>2026-03-29T08:45:10.999Z</time></trkpt><trkpt lat="43.23475440021947" lon="12.21785846639216"><ele>557.5</ele><time>2026-03-29T08:45:11.999Z</time></trkpt><trkpt lat="43.234664931215775" lon="12.217761607448356"><ele>555.75</ele><time>2026-03-29T08:45:12.999Z</time></trkpt><trkpt lat="43.23460421872404" lon="12.217634893103297"><ele>554.0</ele><time>2026-03-29T08:45:13.999Z</time></trkpt><trkpt lat="43.23452688835609" lon="12.217519444834695"><ele>554.0</ele><time>2026-03-29T08:45:15Z</time></trkpt><trkpt lat="43.23446641233271" lon="12.217389325266106"><ele>554.0</ele><time>2026-03-29T08:45:16Z</time></trkpt><trkpt lat="43.23439911279648" lon="12.217272636031417"><ele>554.0</ele><time>2026-03-29T08:45:17Z</time></trkpt><trkpt lat="43.234358100235404" lon="12.217140396155864"><ele>554.0</ele><time>2026-03-29T08:45:18Z</time></trkpt><trkpt lat="43.2343156546963" lon="12.21697750744346"><ele>553.75</ele><time>2026-03-29T08:45:19Z</time></trkpt><trkpt lat="43.23426054780121" lon="12.216788413348924"><ele>553.5</ele><time>2026-03-29T08:45:20Z</time></trkpt><trkpt lat="43.23422369926524" lon="12.21658349060501"><ele>553.25</ele><time>2026-03-29T08:45:21Z</time></trkpt><trkpt lat="43.234188310996686" lon="12.216398812676212"><ele>553.0</ele><time>2026-03-29T08:45:22Z</time></trkpt><trkpt lat="43.23414869908209" lon="12.21623991530594"><ele>553.0</ele><time>2026-03-29T08:45:23Z</time></trkpt><trkpt lat="43.2341198148435" lon="12.216093894452715"><ele>553.0</ele><time>2026-03-29T08:45:24Z</time></trkpt><trkpt lat="43.23407771664409" lon="12.215985313635517"><ele>553.0</ele><time>2026-03-29T08:45:25Z</time></trkpt><trkpt lat="43.234020891780496" lon="12.21587874701664"><ele>553.0</ele><time>2026-03-29T08:45:26Z</time></trkpt><trkpt lat="43.233910666892776" lon="12.21578591996971"><ele>553.0</ele><time>2026-03-29T08:45:27Z</time></trkpt><trkpt lat="43.233805897550965" lon="12.215686583050923"><ele>551.4</ele><time>2026-03-29T08:45:28Z</time></trkpt><trkpt lat="43.23370547251135" lon="12.215575518537207"><ele>549.8</ele><time>2026-03-29T08:45:29Z</time></trkpt><trkpt lat="43.23363104489619" lon="12.215477358610418"><ele>548.2</ele><time>2026-03-29T08:45:30Z</time></trkpt><trkpt lat="43.233579604150464" lon="12.215355321186872"><ele>546.6</ele><time>2026-03-29T08:45:31Z</time></trkpt><trkpt lat="43.23354160163588" lon="12.215229431562317"><ele>545.0</ele><time>2026-03-29T08:45:32Z</time></trkpt><trkpt lat="43.233539337788486" lon="12.215121222173071"><ele>545.0</ele><time>2026-03-29T08:45:33Z</time></trkpt><trkpt lat="43.233555046084795" lon="12.215026369408218"><ele>545.0</ele><time>2026-03-29T08:45:34Z</time></trkpt><trkpt lat="43.23358327969366" lon="12.214948140119583"><ele>545.0</ele><time>2026-03-29T08:45:35Z</time></trkpt><trkpt lat="43.23362307186064" lon="12.214875314307099"><ele>545.0</ele><time>2026-03-29T08:45:36Z</time></trkpt><trkpt lat="43.233690491801994" lon="12.214809743327839"><ele>545.0</ele><time>2026-03-29T08:45:37Z</time></trkpt><trkpt lat="43.23376835642764" lon="12.214720067898762"><ele>545.0</ele><time>2026-03-29T08:45:38Z</time></trkpt><trkpt lat="43.23384479272952" lon="12.214609193251784"><ele>544.6</ele><time>2026-03-29T08:45:39Z</time></trkpt><trkpt lat="43.2339408060854" lon="12.214549825056526"><ele>544.2</ele><time>2026-03-29T08:45:40Z</time></trkpt><trkpt lat="43.234034081135526" lon="12.214524014406763"><ele>543.8</ele><time>2026-03-29T08:45:41Z</time></trkpt><trkpt lat="43.23413248032067" lon="12.214505475940838"><ele>543.4</ele><time>2026-03-29T08:45:42Z</time></trkpt><trkpt lat="43.23425298789548" lon="12.214486493420578"><ele>543.0</ele><time>2026-03-29T08:45:43Z</time></trkpt><trkpt lat="43.23438240050286" lon="12.214445958423495"><ele>543.0</ele><time>2026-03-29T08:45:44Z</time></trkpt><trkpt lat="43.23448813886101" lon="12.214442823735881"><ele>543.0</ele><time>2026-03-29T08:45:45Z</time></trkpt><trkpt lat="43.234576999889" lon="12.214464246078194"><ele>543.0</ele><time>2026-03-29T08:45:46Z</time></trkpt><trkpt lat="43.23469361846902" lon="12.214569260783644"><ele>543.0</ele><time>2026-03-29T08:45:48Z</time></trkpt><trkpt lat="43.234738662199454" lon="12.21469346922878"><ele>543.0</ele><time>2026-03-29T08:45:49Z</time></trkpt><trkpt lat="43.23480885224182" lon="12.214871078866485"><ele>542.6</ele><time>2026-03-29T08:45:50Z</time></trkpt><trkpt lat="43.23486661070185" lon="12.215068943370703"><ele>542.1999999999999</ele><time>2026-03-29T08:45:51Z</time></trkpt><trkpt lat="43.23491473074287" lon="12.21522689010103"><ele>541.8</ele><time>2026-03-29T08:45:52Z</time></trkpt><trkpt lat="43.23495894795066" lon="12.215336692724325"><ele>541.4</ele><time>2026-03-29T08:45:53Z</time></trkpt><trkpt lat="43.235005867884226" lon="12.21542019150782"><ele>541.0</ele><time>2026-03-29T08:45:54Z</time></trkpt><trkpt lat="43.23507446952791" lon="12.215470313382095"><ele>541.0</ele><time>2026-03-29T08:45:55Z</time></trkpt><trkpt lat="43.23514248082186" lon="12.215473269860574"><ele>541.0</ele><time>2026-03-29T08:45:56Z</time></trkpt><trkpt lat="43.23521704817668" lon="12.21544857687875"><ele>541.0</ele><time>2026-03-29T08:45:57Z</time></trkpt><trkpt lat="43.23529511512455" lon="12.215381488343203"><ele>541.0</ele><time>2026-03-29T08:45:58Z</time></trkpt><trkpt lat="43.23533671055394" lon="12.21525886465044"><ele>541.0</ele><time>2026-03-29T08:45:59Z</time></trkpt><trkpt lat="43.235345430795576" lon="12.215150549977846"><ele>541.0</ele><time>2026-03-29T08:46:00Z</time></trkpt><trkpt lat="43.23529143855958" lon="12.215019005401391"><ele>541.0</ele><time>2026-03-29T08:46:01Z</time></trkpt><trkpt lat="43.23522227459333" lon="12.214886420417042"><ele>541.0</ele><time>2026-03-29T08:46:02Z</time></trkpt><trkpt lat="43.23516724787821" lon="12.214735678454852"><ele>541.0</ele><time>2026-03-29T08:46:03Z</time></trkpt><trkpt lat="43.23512013295245" lon="12.214561310453858"><ele>541.0</ele><time>2026-03-29T08:46:04Z</time></trkpt><trkpt lat="43.23508492733425" lon="12.214351392921499"><ele>538.3333333333334</ele><time>2026-03-29T08:46:04.999Z</time></trkpt><trkpt lat="43.23504646096389" lon="12.214120029854117"><ele>535.6666666666666</ele><time>2026-03-29T08:46:05.999Z</time></trkpt><trkpt lat="43.234980523601884" lon="12.213883334628592"><ele>533.0</ele><time>2026-03-29T08:46:06.999Z</time></trkpt><trkpt lat="43.23493371073458" lon="12.21366608999806"><ele>528.25</ele><time>2026-03-29T08:46:07.999Z</time></trkpt><trkpt lat="43.23489042445625" lon="12.213464215991358"><ele>523.5</ele><time>2026-03-29T08:46:08.999Z</time></trkpt><trkpt lat="43.23487924197148" lon="12.213303474563203"><ele>518.75</ele><time>2026-03-29T08:46:09.999Z</time></trkpt><trkpt lat="43.23487321042472" lon="12.213201941169057"><ele>514.0</ele><time>2026-03-29T08:46:10.999Z</time></trkpt><trkpt lat="43.23492736568438" lon="12.213067711844777"><ele>511.25</ele><time>2026-03-29T08:46:12.999Z</time></trkpt><trkpt lat="43.23497900342397" lon="12.212982512222712"><ele>508.5</ele><time>2026-03-29T08:46:13.999Z</time></trkpt><trkpt lat="43.23510022092058" lon="12.212948957689814"><ele>505.75</ele><time>2026-03-29T08:46:14.999Z</time></trkpt><trkpt lat="43.23522551289249" lon="12.212889649729318"><ele>503.0</ele><time>2026-03-29T08:46:15.999Z</time></trkpt><trkpt lat="43.23534902697038" lon="12.21281369633744"><ele>502.99999999999994</ele><time>2026-03-29T08:46:16.999Z</time></trkpt><trkpt lat="43.2354510472327" lon="12.212775541857487"><ele>503.0</ele><time>2026-03-29T08:46:17.999Z</time></trkpt><trkpt lat="43.23551642215854" lon="12.212735269002089"><ele>503.0</ele><time>2026-03-29T08:46:18.999Z</time></trkpt><trkpt lat="43.23556768358227" lon="12.212680220104781"><ele>503.0</ele><time>2026-03-29T08:46:19.999Z</time></trkpt><trkpt lat="43.235591127311594" lon="12.212587656395854"><ele>502.99999999999994</ele><time>2026-03-29T08:46:20.999Z</time></trkpt><trkpt lat="43.23558488933369" lon="12.212481464362341"><ele>503.0</ele><time>2026-03-29T08:46:21.999Z</time></trkpt><trkpt lat="43.235570134761076" lon="12.212378830326443"><ele>503.0</ele><time>2026-03-29T08:46:22.999Z</time></trkpt><trkpt lat="43.235504554312996" lon="12.212294687919181"><ele>502.99999999999994</ele><time>2026-03-29T08:46:23.999Z</time></trkpt><trkpt lat="43.23542873584727" lon="12.212248666484868"><ele>502.99999999999994</ele><time>2026-03-29T08:46:24.999Z</time></trkpt><trkpt lat="43.23532858515341" lon="12.21229755431398"><ele>503.0</ele><time>2026-03-29T08:46:25.999Z</time></trkpt><trkpt lat="43.2352304086455" lon="12.212357795379015"><ele>503.0</ele><time>2026-03-29T08:46:26.999Z</time></trkpt><trkpt lat="43.23511351022378" lon="12.21239884654183"><ele>503.0</ele><time>2026-03-29T08:46:27.999Z</time></trkpt><trkpt lat="43.23498327074086" lon="12.21246053436978"><ele>503.0</ele><time>2026-03-29T08:46:28.999Z</time></trkpt><trkpt lat="43.234831579300305" lon="12.212537315333707"><ele>503.0</ele><time>2026-03-29T08:46:29.999Z</time></trkpt><trkpt lat="43.23467884152823" lon="12.212612793099364"><ele>502.79999999999995</ele><time>2026-03-29T08:46:30.999Z</time></trkpt><trkpt lat="43.2345483533505" lon="12.212682353087585"><ele>502.59999999999997</ele><time>2026-03-29T08:46:31.999Z</time></trkpt><trkpt lat="43.23444457260203" lon="12.21272820231319"><ele>502.40000000000003</ele><time>2026-03-29T08:46:32.999Z</time></trkpt><trkpt lat="43.234357087620516" lon="12.212722656210559"><ele>502.20000000000005</ele><time>2026-03-29T08:46:33.999Z</time></trkpt><trkpt lat="43.234285112937116" lon="12.212695210207011"><ele>502.0</ele><time>2026-03-29T08:46:34.999Z</time></trkpt><trkpt lat="43.23421457462218" lon="12.212630391429188"><ele>502.0</ele><time>2026-03-29T08:46:35.999Z</time></trkpt><trkpt lat="43.23417250202511" lon="12.212532778101682"><ele>502.00000000000006</ele><time>2026-03-29T08:46:36.999Z</time></trkpt><trkpt lat="43.234136272939146" lon="12.212423452709091"><ele>502.00000000000006</ele><time>2026-03-29T08:46:37.999Z</time></trkpt><trkpt lat="43.23407084523999" lon="12.212338219776052"><ele>502.0</ele><time>2026-03-29T08:46:38.999Z</time></trkpt><trkpt lat="43.233989228446504" lon="12.21226690876308"><ele>502.0</ele><time>2026-03-29T08:46:39.999Z</time></trkpt><trkpt lat="43.23389601400997" lon="12.2122312777783"><ele>501.0</ele><time>2026-03-29T08:46:40.999Z</time></trkpt><trkpt lat="43.23380106423952" lon="12.21223452392916"><ele>500.00000000000006</ele><time>2026-03-29T08:46:41.999Z</time></trkpt><trkpt lat="43.23371332825222" lon="12.212274866672473"><ele>499.00000000000006</ele><time>2026-03-29T08:46:42.999Z</time></trkpt><trkpt lat="43.23362465980118" lon="12.212351605892714"><ele>498.0</ele><time>2026-03-29T08:46:43.999Z</time></trkpt><trkpt lat="43.23351917978862" lon="12.212448926541782"><ele>497.0</ele><time>2026-03-29T08:46:44.999Z</time></trkpt><trkpt lat="43.23342206454676" lon="12.212565761825168"><ele>496.99999999999994</ele><time>2026-03-29T08:46:45.999Z</time></trkpt><trkpt lat="43.233343451883066" lon="12.212614377530297"><ele>497.0</ele><time>2026-03-29T08:46:46.999Z</time></trkpt><trkpt lat="43.2332723178858" lon="12.212670197900014"><ele>497.0</ele><time>2026-03-29T08:46:47.999Z</time></trkpt><trkpt lat="43.233207522863125" lon="12.21270829742688"><ele>497.0</ele><time>2026-03-29T08:46:48.999Z</time></trkpt><trkpt lat="43.23313622827366" lon="12.212669179164527"><ele>496.99999999999994</ele><time>2026-03-29T08:46:49.999Z</time></trkpt><trkpt lat="43.23309962812389" lon="12.212538449756947"><ele>497.0</ele><time>2026-03-29T08:46:50.999Z</time></trkpt><trkpt lat="43.23303641749126" lon="12.212426503903904"><ele>496.99999999999994</ele><time>2026-03-29T08:46:51.999Z</time></trkpt><trkpt lat="43.23300255497231" lon="12.212353301941118"><ele>497.0</ele><time>2026-03-29T08:46:52.999Z</time></trkpt><trkpt lat="43.23292977838295" lon="12.21226584309546"><ele>497.0</ele><time>2026-03-29T08:46:53.999Z</time></trkpt><trkpt lat="43.23284774286768" lon="12.212224814181917"><ele>497.0</ele><time>2026-03-29T08:46:54.999Z</time></trkpt><trkpt lat="43.23276667765247" lon="12.21218429222711"><ele>496.99999999999994</ele><time>2026-03-29T08:46:55.999Z</time></trkpt><trkpt lat="43.23265908426129" lon="12.212203253603574"><ele>497.0</ele><time>2026-03-29T08:46:56.999Z</time></trkpt><trkpt lat="43.232549678780686" lon="12.212257470122003"><ele>497.0</ele><time>2026-03-29T08:46:57.999Z</time></trkpt><trkpt lat="43.23245012759866" lon="12.212307576828692"><ele>497.00000000000006</ele><time>2026-03-29T08:46:58.999Z</time></trkpt><trkpt lat="43.232350956239735" lon="12.212339888864866"><ele>497.00000000000006</ele><time>2026-03-29T08:46:59.999Z</time></trkpt><trkpt lat="43.232266183805706" lon="12.21234791000833"><ele>497.0</ele><time>2026-03-29T08:47:00.999Z</time></trkpt><trkpt lat="43.23218023138083" lon="12.212279270267024"><ele>497.0</ele><time>2026-03-29T08:47:01.999Z</time></trkpt><trkpt lat="43.23211675962081" lon="12.212182952682015"><ele>492.40000000000003</ele><time>2026-03-29T08:47:02.999Z</time></trkpt><trkpt lat="43.23207804143484" lon="12.212063158836024"><ele>487.80000000000007</ele><time>2026-03-29T08:47:03.999Z</time></trkpt><trkpt lat="43.23202363638351" lon="12.2119650241317"><ele>483.2</ele><time>2026-03-29T08:47:05.999Z</time></trkpt><trkpt lat="43.231935520025786" lon="12.211921188622199"><ele>478.6</ele><time>2026-03-29T08:47:06.999Z</time></trkpt><trkpt lat="43.23181820357744" lon="12.211934837561282"><ele>474.0</ele><time>2026-03-29T08:47:07.999Z</time></trkpt><trkpt lat="43.23167193390137" lon="12.211962620443508"><ele>474.0</ele><time>2026-03-29T08:47:08.999Z</time></trkpt><trkpt lat="43.23153903817318" lon="12.211973313691395"><ele>474.0</ele><time>2026-03-29T08:47:09.999Z</time></trkpt><trkpt lat="43.231428516215885" lon="12.212002720358228"><ele>474.0</ele><time>2026-03-29T08:47:10.999Z</time></trkpt><trkpt lat="43.23132591343688" lon="12.212026946893594"><ele>474.0</ele><time>2026-03-29T08:47:11.999Z</time></trkpt><trkpt lat="43.231212501845306" lon="12.212023197136972"><ele>473.0</ele><time>2026-03-29T08:47:12.999Z</time></trkpt><trkpt lat="43.23110736858281" lon="12.211977631890825"><ele>472.0</ele><time>2026-03-29T08:47:13.999Z</time></trkpt><trkpt lat="43.2310062583187" lon="12.211902229392367"><ele>471.0</ele><time>2026-03-29T08:47:14.999Z</time></trkpt><trkpt lat="43.230906370070784" lon="12.211810722175612"><ele>470.0</ele><time>2026-03-29T08:47:15.999Z</time></trkpt><trkpt lat="43.23081409295528" lon="12.211686280694693"><ele>470.0</ele><time>2026-03-29T08:47:16.999Z</time></trkpt><trkpt lat="43.23073424138516" lon="12.211571069957936"><ele>470.0</ele><time>2026-03-29T08:47:17.999Z</time></trkpt><trkpt lat="43.23067838001184" lon="12.211478933133114"><ele>470.0</ele><time>2026-03-29T08:47:18.999Z</time></trkpt><trkpt lat="43.23063612722123" lon="12.211372758914896"><ele>470.0</ele><time>2026-03-29T08:47:19.999Z</time></trkpt><trkpt lat="43.2306261194631" lon="12.211250303463503"><ele>470.0</ele><time>2026-03-29T08:47:21Z</time></trkpt><trkpt lat="43.230634969780084" lon="12.211118678510944"><ele>467.25</ele><time>2026-03-29T08:47:22Z</time></trkpt><trkpt lat="43.23067130704426" lon="12.21097165393749"><ele>464.5</ele><time>2026-03-29T08:47:23Z</time></trkpt><trkpt lat="43.23072269526801" lon="12.210791766804173"><ele>461.75</ele><time>2026-03-29T08:47:24Z</time></trkpt><trkpt lat="43.230780008912014" lon="12.210576832003884"><ele>459.0</ele><time>2026-03-29T08:47:25Z</time></trkpt><trkpt lat="43.230837241405005" lon="12.210363298004912"><ele>456.66666666666663</ele><time>2026-03-29T08:47:26Z</time></trkpt><trkpt lat="43.230894099180745" lon="12.21015008615031"><ele>454.3333333333333</ele><time>2026-03-29T08:47:27Z</time></trkpt><trkpt lat="43.23094746780834" lon="12.209948157598486"><ele>452.0</ele><time>2026-03-29T08:47:28Z</time></trkpt><trkpt lat="43.23099061104058" lon="12.209768114568888"><ele>452.0</ele><time>2026-03-29T08:47:29Z</time></trkpt><trkpt lat="43.23103350463071" lon="12.209595784973674"><ele>452.0</ele><time>2026-03-29T08:47:30Z</time></trkpt><trkpt lat="43.23107901230751" lon="12.209435564333466"><ele>452.0</ele><time>2026-03-29T08:47:31Z</time></trkpt><trkpt lat="43.2311197269347" lon="12.209279133743875"><ele>452.0</ele><time>2026-03-29T08:47:32Z</time></trkpt><trkpt lat="43.23115077521363" lon="12.209132355393024"><ele>450.75</ele><time>2026-03-29T08:47:33Z</time></trkpt><trkpt lat="43.2311838432174" lon="12.208980721837174"><ele>449.5</ele><time>2026-03-29T08:47:34Z</time></trkpt><trkpt lat="43.23121738343409" lon="12.208827972994621"><ele>448.25</ele><time>2026-03-29T08:47:35Z</time></trkpt><trkpt lat="43.231238859186824" lon="12.208664152155643"><ele>447.0</ele><time>2026-03-29T08:47:36Z</time></trkpt><trkpt lat="43.23125602360181" lon="12.20850238991655"><ele>447.0</ele><time>2026-03-29T08:47:37Z</time></trkpt><trkpt lat="43.23127091542056" lon="12.208340581355655"><ele>447.00000000000006</ele><time>2026-03-29T08:47:38Z</time></trkpt><trkpt lat="43.23128799837201" lon="12.208176481664864"><ele>447.00000000000006</ele><time>2026-03-29T08:47:39Z</time></trkpt><trkpt lat="43.23130763937983" lon="12.20802304156364"><ele>447.0</ele><time>2026-03-29T08:47:40Z</time></trkpt><trkpt lat="43.23134425982886" lon="12.207902060387736"><ele>447.0</ele><time>2026-03-29T08:47:41Z</time></trkpt><trkpt lat="43.231360261835135" lon="12.207797851291316"><ele>447.0</ele><time>2026-03-29T08:47:42Z</time></trkpt><trkpt lat="43.23137816280804" lon="12.207681275744246"><ele>447.0</ele><time>2026-03-29T08:47:43Z</time></trkpt><trkpt lat="43.23139612545848" lon="12.207577101002402"><ele>447.0</ele><time>2026-03-29T08:47:44Z</time></trkpt><trkpt lat="43.23141883849967" lon="12.207455813779921"><ele>447.0</ele><time>2026-03-29T08:47:45Z</time></trkpt><trkpt lat="43.2314412687322" lon="12.207346272226381"><ele>447.0</ele><time>2026-03-29T08:47:46Z</time></trkpt><trkpt lat="43.23147052019331" lon="12.207248310807515"><ele>447.0</ele><time>2026-03-29T08:47:47Z</time></trkpt><trkpt lat="43.23150160220701" lon="12.20713872979995"><ele>447.33333333333337</ele><time>2026-03-29T08:47:48Z</time></trkpt><trkpt lat="43.23150033964543" lon="12.207012019254787"><ele>447.6666666666667</ele><time>2026-03-29T08:47:51Z</time></trkpt><trkpt lat="43.23122187881714" lon="12.20687710036107"><ele>448.0</ele><time>2026-03-29T08:47:52Z</time></trkpt><trkpt lat="43.23112130626368" lon="12.206898436304867"><ele>449.2</ele><time>2026-03-29T08:47:54Z</time></trkpt><trkpt lat="43.23104568316523" lon="12.206935635033895"><ele>450.4</ele><time>2026-03-29T08:47:56Z</time></trkpt><trkpt lat="43.23097689759986" lon="12.207003028516619"><ele>451.59999999999997</ele><time>2026-03-29T08:47:58Z</time></trkpt><trkpt lat="43.230900203830195" lon="12.207074710977471"><ele>452.79999999999995</ele><time>2026-03-29T08:48:00Z</time></trkpt><trkpt lat="43.230809648333825" lon="12.207138085139785"><ele>454.0</ele><time>2026-03-29T08:48:02Z</time></trkpt><trkpt lat="43.23070325832779" lon="12.207190748262196"><ele>452.6</ele><time>2026-03-29T08:48:04Z</time></trkpt><trkpt lat="43.23060006033123" lon="12.207265776926132"><ele>451.2</ele><time>2026-03-29T08:48:05.999Z</time></trkpt><trkpt lat="43.230497887103674" lon="12.207331291428273"><ele>449.80000000000007</ele><time>2026-03-29T08:48:07.999Z</time></trkpt><trkpt lat="43.230412564164666" lon="12.207401950852383"><ele>448.40000000000003</ele><time>2026-03-29T08:48:09.999Z</time></trkpt><trkpt lat="43.230341762102995" lon="12.207473607193968"><ele>447.0</ele><time>2026-03-29T08:48:11.999Z</time></trkpt><trkpt lat="43.23023873162619" lon="12.207513229774237"><ele>447.0</ele><time>2026-03-29T08:48:13.999Z</time></trkpt><trkpt lat="43.23015649732863" lon="12.207531048079524"><ele>447.00000000000006</ele><time>2026-03-29T08:48:15.999Z</time></trkpt><trkpt lat="43.23005638547272" lon="12.207589650278083"><ele>447.00000000000006</ele><time>2026-03-29T08:48:17.999Z</time></trkpt><trkpt lat="43.229979082668166" lon="12.207597325573566"><ele>447.0</ele><time>2026-03-29T08:48:19.999Z</time></trkpt><trkpt lat="43.22990476956698" lon="12.207614910840572"><ele>447.0</ele><time>2026-03-29T08:48:21.999Z</time></trkpt><trkpt lat="43.22982621260158" lon="12.20772738037294"><ele>446.6</ele><time>2026-03-29T08:48:23.999Z</time></trkpt><trkpt lat="43.229708106163095" lon="12.207810621723304"><ele>446.20000000000005</ele><time>2026-03-29T08:48:25.999Z</time></trkpt><trkpt lat="43.2296484870694" lon="12.207840258521298"><ele>445.8</ele><time>2026-03-29T08:48:26.999Z</time></trkpt><trkpt lat="43.22950692703605" lon="12.207866248031602"><ele>445.4</ele><time>2026-03-29T08:48:28.999Z</time></trkpt><trkpt lat="43.229412913870085" lon="12.20793486176856"><ele>445.0</ele><time>2026-03-29T08:48:30.999Z</time></trkpt><trkpt lat="43.22932251762858" lon="12.207909286988597"><ele>445.0</ele><time>2026-03-29T08:48:32.999Z</time></trkpt><trkpt lat="43.22923556217485" lon="12.207876063061962"><ele>445.0</ele><time>2026-03-29T08:48:34.999Z</time></trkpt><trkpt lat="43.22914505655974" lon="12.207847603005948"><ele>445.0</ele><time>2026-03-29T08:48:36.999Z</time></trkpt><trkpt lat="43.22905721418583" lon="12.207811569950959"><ele>445.0</ele><time>2026-03-29T08:48:38.999Z</time></trkpt><trkpt lat="43.22895296819562" lon="12.207838795046081"><ele>445.0</ele><time>2026-03-29T08:48:40.999Z</time></trkpt><trkpt lat="43.228880713373215" lon="12.207870956395148"><ele>444.33333333333337</ele><time>2026-03-29T08:48:42.999Z</time></trkpt><trkpt lat="43.22881270432507" lon="12.20788558316845"><ele>443.6666666666667</ele><time>2026-03-29T08:48:44.999Z</time></trkpt><trkpt lat="43.22870729936285" lon="12.207912367088781"><ele>443.0</ele><time>2026-03-29T08:48:46.999Z</time></trkpt><trkpt lat="43.22861407387902" lon="12.20793389225425"><ele>442.33333333333337</ele><time>2026-03-29T08:48:48.999Z</time></trkpt><trkpt lat="43.22850760443708" lon="12.20795002871587"><ele>441.6666666666667</ele><time>2026-03-29T08:48:50.999Z</time></trkpt><trkpt lat="43.228450227060954" lon="12.207995765955875"><ele>441.0</ele><time>2026-03-29T08:48:55.999Z</time></trkpt><trkpt lat="43.22849384595075" lon="12.2080734253452"><ele>441.0</ele><time>2026-03-29T08:48:58.999Z</time></trkpt><trkpt lat="43.22857304877398" lon="12.208142516513556"><ele>441.0</ele><time>2026-03-29T08:49:00.999Z</time></trkpt><trkpt lat="43.22866014197384" lon="12.208205704303781"><ele>441.0</ele><time>2026-03-29T08:49:02.999Z</time></trkpt><trkpt lat="43.228715469670654" lon="12.208250121777722"><ele>441.0</ele><time>2026-03-29T08:49:04.999Z</time></trkpt><trkpt lat="43.22873747412862" lon="12.20834044756724"><ele>441.0</ele><time>2026-03-29T08:49:06.999Z</time></trkpt><trkpt lat="43.228713805663986" lon="12.208484094694697"><ele>441.0</ele><time>2026-03-29T08:49:08.999Z</time></trkpt><trkpt lat="43.2286713610315" lon="12.208549039100642"><ele>436.20000000000005</ele><time>2026-03-29T08:49:09.999Z</time></trkpt><trkpt lat="43.22861701772982" lon="12.208592742493803"><ele>431.40000000000003</ele><time>2026-03-29T08:49:10.999Z</time></trkpt><trkpt lat="43.228505500411636" lon="12.208650925285967"><ele>426.6</ele><time>2026-03-29T08:49:12.999Z</time></trkpt><trkpt lat="43.22838390273737" lon="12.208636751818897"><ele>421.8</ele><time>2026-03-29T08:49:14.999Z</time></trkpt><trkpt lat="43.22826301305778" lon="12.208605975258818"><ele>417.0</ele><time>2026-03-29T08:49:16.999Z</time></trkpt><trkpt lat="43.2281997317194" lon="12.208600987426944"><ele>417.40000000000003</ele><time>2026-03-29T08:49:17.999Z</time></trkpt><trkpt lat="43.22811801468196" lon="12.208654038678747"><ele>417.8</ele><time>2026-03-29T08:49:20.999Z</time></trkpt><trkpt lat="43.228127176583776" lon="12.208801028023611"><ele>418.2</ele><time>2026-03-29T08:49:22.999Z</time></trkpt><trkpt lat="43.228089005577274" lon="12.208908241771535"><ele>418.6</ele><time>2026-03-29T08:49:24.999Z</time></trkpt><trkpt lat="43.228005958142205" lon="12.208931313962053"><ele>419.0</ele><time>2026-03-29T08:49:27Z</time></trkpt><trkpt lat="43.2279445880246" lon="12.209006763604371"><ele>412.79999999999995</ele><time>2026-03-29T08:49:29Z</time></trkpt><trkpt lat="43.22787637577806" lon="12.209128785877846"><ele>406.59999999999997</ele><time>2026-03-29T08:49:32Z</time></trkpt><trkpt lat="43.22780259722644" lon="12.209044385479197"><ele>400.4</ele><time>2026-03-29T08:49:35Z</time></trkpt><trkpt lat="43.22768283516068" lon="12.209070777249073"><ele>394.2</ele><time>2026-03-29T08:49:37Z</time></trkpt><trkpt lat="43.22761537876237" lon="12.209093746027413"><ele>388.0</ele><time>2026-03-29T08:49:38Z</time></trkpt><trkpt lat="43.22752814823419" lon="12.209123154377643"><ele>388.0</ele><time>2026-03-29T08:49:39Z</time></trkpt><trkpt lat="43.22735215695672" lon="12.209191725100903"><ele>388.0</ele><time>2026-03-29T08:49:41Z</time></trkpt><trkpt lat="43.22724714067485" lon="12.209235330222459"><ele>388.0</ele><time>2026-03-29T08:49:42Z</time></trkpt><trkpt lat="43.22716764372499" lon="12.20920488164354"><ele>388.0</ele><time>2026-03-29T08:49:43Z</time></trkpt><trkpt lat="43.227076993511346" lon="12.209197551454254"><ele>388.50000000000006</ele><time>2026-03-29T08:49:44Z</time></trkpt><trkpt lat="43.226980863857136" lon="12.209202062845968"><ele>389.0</ele><time>2026-03-29T08:49:45Z</time></trkpt><trkpt lat="43.22689995009345" lon="12.209190723560017"><ele>389.5</ele><time>2026-03-29T08:49:46Z</time></trkpt><trkpt lat="43.22684154686395" lon="12.209156696829059"><ele>390.0</ele><time>2026-03-29T08:49:47Z</time></trkpt><trkpt lat="43.226782110101" lon="12.209125745627329"><ele>390.50000000000006</ele><time>2026-03-29T08:49:48Z</time></trkpt><trkpt lat="43.226715554113966" lon="12.209110532750913"><ele>391.0</ele><time>2026-03-29T08:49:49Z</time></trkpt><trkpt lat="43.226629263277324" lon="12.209137133576"><ele>391.00000000000006</ele><time>2026-03-29T08:49:50Z</time></trkpt><trkpt lat="43.226528518488614" lon="12.209117041532531"><ele>391.0</ele><time>2026-03-29T08:49:51Z</time></trkpt><trkpt lat="43.22646284033921" lon="12.209111507293624"><ele>391.0</ele><time>2026-03-29T08:49:52Z</time></trkpt><trkpt lat="43.226357730484075" lon="12.209097762485875"><ele>391.0</ele><time>2026-03-29T08:49:54Z</time></trkpt><trkpt lat="43.226309113236276" lon="12.209194498440253"><ele>391.00000000000006</ele><time>2026-03-29T08:49:56Z</time></trkpt><trkpt lat="43.22626957416845" lon="12.209299442624188"><ele>391.0</ele><time>2026-03-29T08:49:57Z</time></trkpt><trkpt lat="43.226224789143274" lon="12.209406636791098"><ele>393.8</ele><time>2026-03-29T08:49:58Z</time></trkpt><trkpt lat="43.22613055146166" lon="12.209597471810037"><ele>396.6</ele><time>2026-03-29T08:50:00Z</time></trkpt><trkpt lat="43.226087436805386" lon="12.209668520980484"><ele>399.4</ele><time>2026-03-29T08:50:01Z</time></trkpt><trkpt lat="43.226019305971064" lon="12.2097483654985"><ele>402.2</ele><time>2026-03-29T08:50:03Z</time></trkpt><trkpt lat="43.22596269029952" lon="12.20979030079007"><ele>405.0</ele><time>2026-03-29T08:50:04Z</time></trkpt><trkpt lat="43.225912331774786" lon="12.20984701732922"><ele>398.6</ele><time>2026-03-29T08:50:05Z</time></trkpt><trkpt lat="43.22585611620399" lon="12.209960148034355"><ele>392.2</ele><time>2026-03-29T08:50:07Z</time></trkpt><trkpt lat="43.22580448495107" lon="12.210056962966217"><ele>385.79999999999995</ele><time>2026-03-29T08:50:09Z</time></trkpt><trkpt lat="43.22571386707626" lon="12.21014635856718"><ele>379.4</ele><time>2026-03-29T08:50:11Z</time></trkpt><trkpt lat="43.225623964755705" lon="12.210203890046856"><ele>373.0</ele><time>2026-03-29T08:50:13Z</time></trkpt><trkpt lat="43.22554294653327" lon="12.21026865340055"><ele>372.79999999999995</ele><time>2026-03-29T08:50:15Z</time></trkpt><trkpt lat="43.225464047074176" lon="12.210323401142537"><ele>372.6</ele><time>2026-03-29T08:50:16.999Z</time></trkpt><trkpt lat="43.22537073328437" lon="12.210398195877904"><ele>372.4</ele><time>2026-03-29T08:50:18.999Z</time></trkpt><trkpt lat="43.22530482801918" lon="12.210446200390425"><ele>372.20000000000005</ele><time>2026-03-29T08:50:19.999Z</time></trkpt><trkpt lat="43.22520056643482" lon="12.210498883043089"><ele>372.0</ele><time>2026-03-29T08:50:21.999Z</time></trkpt><trkpt lat="43.22514018846328" lon="12.21054107290882"><ele>372.0</ele><time>2026-03-29T08:50:23.999Z</time></trkpt><trkpt lat="43.22502251964745" lon="12.210572167632117"><ele>372.0</ele><time>2026-03-29T08:50:26.999Z</time></trkpt><trkpt lat="43.22491524891246" lon="12.210575144184663"><ele>372.0</ele><time>2026-03-29T08:50:28.999Z</time></trkpt><trkpt lat="43.22482652294324" lon="12.210617189603074"><ele>372.0</ele><time>2026-03-29T08:50:30.999Z</time></trkpt><trkpt lat="43.22472863274792" lon="12.210627215867497"><ele>372.0</ele><time>2026-03-29T08:50:32.999Z</time></trkpt><trkpt lat="43.22465358706668" lon="12.210634824006794"><ele>370.3333333333333</ele><time>2026-03-29T08:50:33.999Z</time></trkpt><trkpt lat="43.22457361890402" lon="12.21062830469918"><ele>368.6666666666667</ele><time>2026-03-29T08:50:34.999Z</time></trkpt><trkpt lat="43.2244964009075" lon="12.210633507822537"><ele>367.0</ele><time>2026-03-29T08:50:35.999Z</time></trkpt><trkpt lat="43.22441593524282" lon="12.210639125636696"><ele>365.33333333333337</ele><time>2026-03-29T08:50:36.999Z</time></trkpt><trkpt lat="43.224325319980125" lon="12.210638647485641"><ele>363.6666666666667</ele><time>2026-03-29T08:50:38.999Z</time></trkpt><trkpt lat="43.22422639586834" lon="12.210558242520689"><ele>362.0</ele><time>2026-03-29T08:50:41.999Z</time></trkpt><trkpt lat="43.22416383142477" lon="12.210510899376679"><ele>362.0</ele><time>2026-03-29T08:50:42.999Z</time></trkpt><trkpt lat="43.22405367310183" lon="12.21048510760842"><ele>362.0</ele><time>2026-03-29T08:50:44.999Z</time></trkpt><trkpt lat="43.22396605301176" lon="12.210493688337682"><ele>362.0</ele><time>2026-03-29T08:50:46.999Z</time></trkpt><trkpt lat="43.22389937189067" lon="12.210469575097665"><ele>362.0</ele><time>2026-03-29T08:50:49.999Z</time></trkpt><trkpt lat="43.22378893943174" lon="12.210383519138814"><ele>362.0</ele><time>2026-03-29T08:50:51.999Z</time></trkpt><trkpt lat="43.22371615842725" lon="12.21030543124886"><ele>357.8</ele><time>2026-03-29T08:50:52.999Z</time></trkpt><trkpt lat="43.22364469814033" lon="12.2102578332812"><ele>353.6</ele><time>2026-03-29T08:50:53.999Z</time></trkpt><trkpt lat="43.22354191501408" lon="12.210122988015383"><ele>349.40000000000003</ele><time>2026-03-29T08:50:55.999Z</time></trkpt><trkpt lat="43.22348223261309" lon="12.2100721487772"><ele>345.20000000000005</ele><time>2026-03-29T08:50:57.999Z</time></trkpt><trkpt lat="43.223382434628085" lon="12.209999560288026"><ele>341.0</ele><time>2026-03-29T08:51:16.999Z</time></trkpt><trkpt lat="43.223315447712515" lon="12.209928252221959"><ele>341.0</ele><time>2026-03-29T08:51:17.999Z</time></trkpt><trkpt lat="43.22324284172034" lon="12.209851376607181"><ele>341.0</ele><time>2026-03-29T08:51:18.999Z</time></trkpt><trkpt lat="43.22318533731662" lon="12.209770999526775"><ele>341.0</ele><time>2026-03-29T08:51:19.999Z</time></trkpt><trkpt lat="43.223097103986206" lon="12.209675415621641"><ele>341.0</ele><time>2026-03-29T08:51:20.999Z</time></trkpt><trkpt lat="43.2230152259535" lon="12.20963439434408"><ele>341.0</ele><time>2026-03-29T08:51:22.999Z</time></trkpt><trkpt lat="43.22294200242706" lon="12.209603674793826"><ele>340.4</ele><time>2026-03-29T08:51:23.999Z</time></trkpt><trkpt lat="43.2228726410703" lon="12.209558496790176"><ele>339.8</ele><time>2026-03-29T08:51:24.999Z</time></trkpt><trkpt lat="43.222792597092244" lon="12.209506893818453"><ele>339.2</ele><time>2026-03-29T08:51:25.999Z</time></trkpt><trkpt lat="43.222650138406344" lon="12.209430141328866"><ele>338.59999999999997</ele><time>2026-03-29T08:51:27.999Z</time></trkpt><trkpt lat="43.22257447753812" lon="12.209371721526864"><ele>338.0</ele><time>2026-03-29T08:51:28.999Z</time></trkpt><trkpt lat="43.222516324834494" lon="12.209294428442487"><ele>338.0</ele><time>2026-03-29T08:51:29.999Z</time></trkpt><trkpt lat="43.22247232356462" lon="12.209201794181926"><ele>338.0</ele><time>2026-03-29T08:51:30.999Z</time></trkpt><trkpt lat="43.222411767034025" lon="12.209145100995434"><ele>338.0</ele><time>2026-03-29T08:51:31.999Z</time></trkpt><trkpt lat="43.22235126886404" lon="12.209085208623137"><ele>338.0</ele><time>2026-03-29T08:51:34Z</time></trkpt><trkpt lat="43.22227179837289" lon="12.208993218885508"><ele>338.0</ele><time>2026-03-29T08:51:44Z</time></trkpt><trkpt lat="43.22222814779353" lon="12.208927732549887"><ele>338.0</ele><time>2026-03-29T08:51:45Z</time></trkpt><trkpt lat="43.22215331566123" lon="12.208791087531536"><ele>336.79999999999995</ele><time>2026-03-29T08:51:47Z</time></trkpt><trkpt lat="43.222096037212324" lon="12.208716253460082"><ele>335.6</ele><time>2026-03-29T08:51:48Z</time></trkpt><trkpt lat="43.22198927214955" lon="12.208620962197637"><ele>334.4</ele><time>2026-03-29T08:51:50Z</time></trkpt><trkpt lat="43.221937220939076" lon="12.208539159072044"><ele>333.20000000000005</ele><time>2026-03-29T08:51:51Z</time></trkpt><trkpt lat="43.221876916584655" lon="12.208470245488074"><ele>332.0</ele><time>2026-03-29T08:51:52Z</time></trkpt><trkpt lat="43.2218056391421" lon="12.208400667010801"><ele>332.0</ele><time>2026-03-29T08:51:53Z</time></trkpt><trkpt lat="43.22173527781629" lon="12.208329176911073"><ele>332.0</ele><time>2026-03-29T08:51:54Z</time></trkpt><trkpt lat="43.22164939606164" lon="12.208242769044855"><ele>332.0</ele><time>2026-03-29T08:51:55Z</time></trkpt><trkpt lat="43.22155630596847" lon="12.208148335369119"><ele>332.0</ele><time>2026-03-29T08:51:56Z</time></trkpt><trkpt lat="43.22146925539552" lon="12.208058506487216"><ele>332.0</ele><time>2026-03-29T08:51:57Z</time></trkpt><trkpt lat="43.22135475934413" lon="12.207990194499173"><ele>332.6666666666667</ele><time>2026-03-29T08:51:58Z</time></trkpt><trkpt lat="43.22125802139258" lon="12.207933362101192"><ele>333.33333333333337</ele><time>2026-03-29T08:51:59Z</time></trkpt><trkpt lat="43.22116939600451" lon="12.207885970979795"><ele>334.0</ele><time>2026-03-29T08:52:00Z</time></trkpt><trkpt lat="43.221099417407984" lon="12.207860891297788"><ele>334.6666666666667</ele><time>2026-03-29T08:52:01Z</time></trkpt><trkpt lat="43.22103814565478" lon="12.207839612159965"><ele>335.3333333333333</ele><time>2026-03-29T08:52:02Z</time></trkpt><trkpt lat="43.220950752464006" lon="12.207889443104364"><ele>336.0</ele><time>2026-03-29T08:52:03Z</time></trkpt><trkpt lat="43.22087507148987" lon="12.207882003910587"><ele>336.0</ele><time>2026-03-29T08:52:05Z</time></trkpt><trkpt lat="43.22078390000895" lon="12.20787201820913"><ele>336.0</ele><time>2026-03-29T08:52:06Z</time></trkpt><trkpt lat="43.220689412944985" lon="12.207843229335829"><ele>336.0</ele><time>2026-03-29T08:52:07Z</time></trkpt><trkpt lat="43.22060416416604" lon="12.207843802667348"><ele>336.0</ele><time>2026-03-29T08:52:08Z</time></trkpt><trkpt lat="43.22046718146113" lon="12.207863808987636"><ele>336.0</ele><time>2026-03-29T08:52:10Z</time></trkpt><trkpt lat="43.220401656457355" lon="12.20789987424264"><ele>333.6</ele><time>2026-03-29T08:52:11Z</time></trkpt><trkpt lat="43.2202992972179" lon="12.207954673331304"><ele>331.20000000000005</ele><time>2026-03-29T08:52:13Z</time></trkpt><trkpt lat="43.22021407668319" lon="12.207994922951169"><ele>328.79999999999995</ele><time>2026-03-29T08:52:14Z</time></trkpt><trkpt lat="43.22008331876308" lon="12.2079407723228"><ele>326.4</ele><time>2026-03-29T08:52:16Z</time></trkpt><trkpt lat="43.22002723589622" lon="12.207875007023526"><ele>324.0</ele><time>2026-03-29T08:52:17Z</time></trkpt><trkpt lat="43.21998127815361" lon="12.20777602348489"><ele>324.0</ele><time>2026-03-29T08:52:18Z</time></trkpt><trkpt lat="43.21993240350012" lon="12.207644781894402"><ele>324.0</ele><time>2026-03-29T08:52:19Z</time></trkpt><trkpt lat="43.21989734106427" lon="12.207501032911571"><ele>324.0</ele><time>2026-03-29T08:52:20Z</time></trkpt><trkpt lat="43.21983838404964" lon="12.207334455341519"><ele>324.0</ele><time>2026-03-29T08:52:21Z</time></trkpt><trkpt lat="43.21978843880456" lon="12.207183761828686"><ele>323.25</ele><time>2026-03-29T08:52:22Z</time></trkpt><trkpt lat="43.219739377841435" lon="12.207029725465546"><ele>322.5</ele><time>2026-03-29T08:52:23Z</time></trkpt><trkpt lat="43.219689382931385" lon="12.206882805733821"><ele>321.75</ele><time>2026-03-29T08:52:24Z</time></trkpt><trkpt lat="43.219628682786606" lon="12.206736387184783"><ele>321.0</ele><time>2026-03-29T08:52:25Z</time></trkpt><trkpt lat="43.21956954690333" lon="12.206600063054161"><ele>320.5</ele><time>2026-03-29T08:52:26Z</time></trkpt><trkpt lat="43.219512254937264" lon="12.206455229654487"><ele>320.0</ele><time>2026-03-29T08:52:27Z</time></trkpt><trkpt lat="43.21945938326826" lon="12.206315070054332"><ele>319.5</ele><time>2026-03-29T08:52:28Z</time></trkpt><trkpt lat="43.21940564229043" lon="12.206164592574147"><ele>319.0</ele><time>2026-03-29T08:52:29Z</time></trkpt><trkpt lat="43.21936245075779" lon="12.206016212679355"><ele>319.0</ele><time>2026-03-29T08:52:30Z</time></trkpt><trkpt lat="43.21932196937615" lon="12.205855012161937"><ele>319.0</ele><time>2026-03-29T08:52:31Z</time></trkpt><trkpt lat="43.21928219258004" lon="12.2056858572679"><ele>319.0</ele><time>2026-03-29T08:52:32Z</time></trkpt><trkpt lat="43.21924941829676" lon="12.205529540442628"><ele>319.0</ele><time>2026-03-29T08:52:33Z</time></trkpt><trkpt lat="43.219215274945306" lon="12.205356242082026"><ele>319.25</ele><time>2026-03-29T08:52:34Z</time></trkpt><trkpt lat="43.21919028573752" lon="12.205186880471397"><ele>319.5</ele><time>2026-03-29T08:52:35Z</time></trkpt><trkpt lat="43.219183527932515" lon="12.205017217594872"><ele>319.75</ele><time>2026-03-29T08:52:36Z</time></trkpt><trkpt lat="43.219180749012544" lon="12.204856152330619"><ele>320.0</ele><time>2026-03-29T08:52:37Z</time></trkpt><trkpt lat="43.2191847105334" lon="12.204690509856983"><ele>320.2</ele><time>2026-03-29T08:52:38Z</time></trkpt><trkpt lat="43.21920869040231" lon="12.204541697186567"><ele>320.4</ele><time>2026-03-29T08:52:39Z</time></trkpt><trkpt lat="43.21925030096027" lon="12.204404229561943"><ele>320.6</ele><time>2026-03-29T08:52:40Z</time></trkpt><trkpt lat="43.21930825886266" lon="12.20427900021071"><ele>320.8</ele><time>2026-03-29T08:52:41Z</time></trkpt><trkpt lat="43.21935414542366" lon="12.204155895571285"><ele>321.0</ele><time>2026-03-29T08:52:42Z</time></trkpt><trkpt lat="43.21939490530942" lon="12.204022179747389"><ele>320.40000000000003</ele><time>2026-03-29T08:52:42.999Z</time></trkpt><trkpt lat="43.21941914354066" lon="12.203878471221488"><ele>319.8</ele><time>2026-03-29T08:52:43.999Z</time></trkpt><trkpt lat="43.219445281932565" lon="12.203729243747365"><ele>319.20000000000005</ele><time>2026-03-29T08:52:44.999Z</time></trkpt><trkpt lat="43.21947041816679" lon="12.203584061754066"><ele>318.6</ele><time>2026-03-29T08:52:45.999Z</time></trkpt><trkpt lat="43.21949557289475" lon="12.203442328133075"><ele>318.0</ele><time>2026-03-29T08:52:46.999Z</time></trkpt><trkpt lat="43.21953332757739" lon="12.203298439453727"><ele>318.0</ele><time>2026-03-29T08:52:47.999Z</time></trkpt><trkpt lat="43.21958488585187" lon="12.203152411387823"><ele>318.0</ele><time>2026-03-29T08:52:48.999Z</time></trkpt><trkpt lat="43.21966496021664" lon="12.202965479776678"><ele>318.0</ele><time>2026-03-29T08:52:49.999Z</time></trkpt><trkpt lat="43.21973604642315" lon="12.202820124787028"><ele>318.0</ele><time>2026-03-29T08:52:50.999Z</time></trkpt><trkpt lat="43.21980887687321" lon="12.202666472076986"><ele>318.0</ele><time>2026-03-29T08:52:51.999Z</time></trkpt><trkpt lat="43.21987512223506" lon="12.20252467973253"><ele>318.0</ele><time>2026-03-29T08:52:52.999Z</time></trkpt><trkpt lat="43.21992221746386" lon="12.202390860171413"><ele>318.0</ele><time>2026-03-29T08:52:53.999Z</time></trkpt><trkpt lat="43.219958834669455" lon="12.20225915414169"><ele>318.0</ele><time>2026-03-29T08:52:54.999Z</time></trkpt><trkpt lat="43.21998397991008" lon="12.202139456888265"><ele>318.0</ele><time>2026-03-29T08:52:55.999Z</time></trkpt><trkpt lat="43.21998578106986" lon="12.2020347979116"><ele>318.0</ele><time>2026-03-29T08:52:56.999Z</time></trkpt><trkpt lat="43.219962739900666" lon="12.201943670535861"><ele>318.0</ele><time>2026-03-29T08:52:57.999Z</time></trkpt><trkpt lat="43.219923656940836" lon="12.201855367149163"><ele>318.0</ele><time>2026-03-29T08:52:58.999Z</time></trkpt><trkpt lat="43.219865681621364" lon="12.201790720611124"><ele>318.0</ele><time>2026-03-29T08:52:59.999Z</time></trkpt><trkpt lat="43.21980409009496" lon="12.201757421399115"><ele>318.0</ele><time>2026-03-29T08:53:00.999Z</time></trkpt><trkpt lat="43.21973936562426" lon="12.201713602396309"><ele>318.0</ele><time>2026-03-29T08:53:01.999Z</time></trkpt><trkpt lat="43.21966835416696" lon="12.201601843034735"><ele>317.5</ele><time>2026-03-29T08:53:03.999Z</time></trkpt><trkpt lat="43.21960454472169" lon="12.201554983066512"><ele>317.0</ele><time>2026-03-29T08:53:04.999Z</time></trkpt><trkpt lat="43.21953736221809" lon="12.201523453638767"><ele>316.5</ele><time>2026-03-29T08:53:05.999Z</time></trkpt><trkpt lat="43.21945705690227" lon="12.201527457101633"><ele>316.0</ele><time>2026-03-29T08:53:06.999Z</time></trkpt><trkpt lat="43.219388133905156" lon="12.201567972322856"><ele>315.5</ele><time>2026-03-29T08:53:07.999Z</time></trkpt><trkpt lat="43.219302585054486" lon="12.201652640445687"><ele>315.0</ele><time>2026-03-29T08:53:08.999Z</time></trkpt><trkpt lat="43.219209679386175" lon="12.201743572131665"><ele>315.0</ele><time>2026-03-29T08:53:09.999Z</time></trkpt><trkpt lat="43.21910119248599" lon="12.201821484232946"><ele>315.0</ele><time>2026-03-29T08:53:10.999Z</time></trkpt><trkpt lat="43.218990319572775" lon="12.20189186285394"><ele>315.0</ele><time>2026-03-29T08:53:11.999Z</time></trkpt><trkpt lat="43.218891225393776" lon="12.201961496296107"><ele>315.0</ele><time>2026-03-29T08:53:12.999Z</time></trkpt><trkpt lat="43.218825362563" lon="12.20200590619181"><ele>315.0</ele><time>2026-03-29T08:53:13.999Z</time></trkpt><trkpt lat="43.218736804887854" lon="12.201990271274857"><ele>314.8</ele><time>2026-03-29T08:53:15.999Z</time></trkpt><trkpt lat="43.21868665434219" lon="12.201915292594329"><ele>314.6</ele><time>2026-03-29T08:53:25.999Z</time></trkpt><trkpt lat="43.21865205008362" lon="12.201814680138272"><ele>314.4</ele><time>2026-03-29T08:53:27.999Z</time></trkpt><trkpt lat="43.21862815130434" lon="12.20171876403801"><ele>314.2</ele><time>2026-03-29T08:53:28.999Z</time></trkpt><trkpt lat="43.21858551870128" lon="12.201593480811384"><ele>314.0</ele><time>2026-03-29T08:53:29.999Z</time></trkpt><trkpt lat="43.21853472380673" lon="12.201436713923872"><ele>313.33333333333337</ele><time>2026-03-29T08:53:30.999Z</time></trkpt><trkpt lat="43.21847287357696" lon="12.201255341821597"><ele>312.6666666666667</ele><time>2026-03-29T08:53:31.999Z</time></trkpt><trkpt lat="43.2183857398736" lon="12.201029331293306"><ele>312.0</ele><time>2026-03-29T08:53:32.999Z</time></trkpt><trkpt lat="43.2182931519188" lon="12.200779764448205"><ele>311.6666666666667</ele><time>2026-03-29T08:53:33.999Z</time></trkpt><trkpt lat="43.218193929077785" lon="12.20052600756609"><ele>311.33333333333337</ele><time>2026-03-29T08:53:34.999Z</time></trkpt><trkpt lat="43.218086839773484" lon="12.200267012683573"><ele>311.0</ele><time>2026-03-29T08:53:35.999Z</time></trkpt><trkpt lat="43.217987456773734" lon="12.200034722238216"><ele>310.6666666666667</ele><time>2026-03-29T08:53:36.999Z</time></trkpt><trkpt lat="43.217896048887354" lon="12.199808820323087"><ele>310.3333333333333</ele><time>2026-03-29T08:53:37.999Z</time></trkpt><trkpt lat="43.21780981944108" lon="12.199586520942598"><ele>310.0</ele><time>2026-03-29T08:53:39Z</time></trkpt><trkpt lat="43.217732427121554" lon="12.199375670678693"><ele>310.0</ele><time>2026-03-29T08:53:40Z</time></trkpt><trkpt lat="43.21765420776934" lon="12.199170423719478"><ele>310.0</ele><time>2026-03-29T08:53:41Z</time></trkpt><trkpt lat="43.21757957974907" lon="12.198979299308043"><ele>310.0</ele><time>2026-03-29T08:53:42Z</time></trkpt><trkpt lat="43.217506047822745" lon="12.19880645033796"><ele>310.0</ele><time>2026-03-29T08:53:43Z</time></trkpt><trkpt lat="43.2174378587575" lon="12.198634440206751"><ele>310.0</ele><time>2026-03-29T08:53:44Z</time></trkpt><trkpt lat="43.21738806969308" lon="12.198468501116023"><ele>310.0</ele><time>2026-03-29T08:53:45Z</time></trkpt><trkpt lat="43.21734118588394" lon="12.198281564023368"><ele>310.0</ele><time>2026-03-29T08:53:46Z</time></trkpt><trkpt lat="43.217311039287125" lon="12.19807893208733"><ele>310.3333333333333</ele><time>2026-03-29T08:53:47Z</time></trkpt><trkpt lat="43.2172957717319" lon="12.197844804945301"><ele>310.6666666666667</ele><time>2026-03-29T08:53:48Z</time></trkpt><trkpt lat="43.21727875748742" lon="12.197604373576334"><ele>311.0</ele><time>2026-03-29T08:53:49Z</time></trkpt><trkpt lat="43.217253272630366" lon="12.197374492283277"><ele>311.0</ele><time>2026-03-29T08:53:50Z</time></trkpt><trkpt lat="43.21721921256242" lon="12.197151020812562"><ele>311.0</ele><time>2026-03-29T08:53:51Z</time></trkpt><trkpt lat="43.21719055554178" lon="12.196951649975148"><ele>311.0</ele><time>2026-03-29T08:53:52Z</time></trkpt><trkpt lat="43.21717278507368" lon="12.196781565965916"><ele>311.0</ele><time>2026-03-29T08:53:53Z</time></trkpt><trkpt lat="43.21715704411309" lon="12.196610390208228"><ele>311.25</ele><time>2026-03-29T08:53:54Z</time></trkpt><trkpt lat="43.21714910948442" lon="12.19643071019494"><ele>311.5</ele><time>2026-03-29T08:53:55Z</time></trkpt><trkpt lat="43.21715614100064" lon="12.196254001299845"><ele>311.75</ele><time>2026-03-29T08:53:56Z</time></trkpt><trkpt lat="43.21718895850037" lon="12.19605127607747"><ele>312.0</ele><time>2026-03-29T08:53:57Z</time></trkpt><trkpt lat="43.217237072130835" lon="12.195841862330058"><ele>312.0</ele><time>2026-03-29T08:53:58Z</time></trkpt><trkpt lat="43.217295081510116" lon="12.195606208358507"><ele>312.0</ele><time>2026-03-29T08:53:59Z</time></trkpt><trkpt lat="43.21735424310207" lon="12.195398210029294"><ele>312.0</ele><time>2026-03-29T08:54:00Z</time></trkpt><trkpt lat="43.217404199433574" lon="12.195208938331248"><ele>312.0</ele><time>2026-03-29T08:54:01Z</time></trkpt><trkpt lat="43.21744910602832" lon="12.195040674472796"><ele>312.0</ele><time>2026-03-29T08:54:02Z</time></trkpt><trkpt lat="43.217475233991756" lon="12.194901504302935"><ele>312.0</ele><time>2026-03-29T08:54:03Z</time></trkpt><trkpt lat="43.217482604953474" lon="12.194730820704919"><ele>312.0</ele><time>2026-03-29T08:54:05Z</time></trkpt><trkpt lat="43.21745598229248" lon="12.194622638637828"><ele>312.0</ele><time>2026-03-29T08:54:06Z</time></trkpt><trkpt lat="43.217402715045836" lon="12.194510135241659"><ele>312.0</ele><time>2026-03-29T08:54:07Z</time></trkpt><trkpt lat="43.21733214583766" lon="12.194381757513748"><ele>312.0</ele><time>2026-03-29T08:54:08Z</time></trkpt><trkpt lat="43.21725213887703" lon="12.19423299550463"><ele>312.0</ele><time>2026-03-29T08:54:09Z</time></trkpt><trkpt lat="43.21716940125354" lon="12.194054205598555"><ele>312.0</ele><time>2026-03-29T08:54:10Z</time></trkpt><trkpt lat="43.21708946982784" lon="12.193863496611304"><ele>312.6666666666667</ele><time>2026-03-29T08:54:11Z</time></trkpt><trkpt lat="43.21700796727526" lon="12.193656652476408"><ele>313.33333333333337</ele><time>2026-03-29T08:54:12Z</time></trkpt><trkpt lat="43.216933050645174" lon="12.193448255572221"><ele>314.0</ele><time>2026-03-29T08:54:13Z</time></trkpt><trkpt lat="43.21684303435031" lon="12.193233075694684"><ele>313.6666666666667</ele><time>2026-03-29T08:54:14Z</time></trkpt><trkpt lat="43.216749216447326" lon="12.193019850361692"><ele>313.3333333333333</ele><time>2026-03-29T08:54:15Z</time></trkpt><trkpt lat="43.21665973629071" lon="12.192810665713235"><ele>313.0</ele><time>2026-03-29T08:54:16Z</time></trkpt><trkpt lat="43.21658038812773" lon="12.192630802494557"><ele>313.0</ele><time>2026-03-29T08:54:17Z</time></trkpt><trkpt lat="43.21650112992314" lon="12.192455723128301"><ele>313.0</ele><time>2026-03-29T08:54:18Z</time></trkpt><trkpt lat="43.2164579543891" lon="12.192285368996446"><ele>313.0</ele><time>2026-03-29T08:54:19Z</time></trkpt><trkpt lat="43.216438883191216" lon="12.192132350840428"><ele>313.0</ele><time>2026-03-29T08:54:20Z</time></trkpt><trkpt lat="43.21643283201861" lon="12.192015348082386"><ele>313.0</ele><time>2026-03-29T08:54:21Z</time></trkpt><trkpt lat="43.21643026739472" lon="12.191916556400114"><ele>313.0</ele><time>2026-03-29T08:54:22Z</time></trkpt><trkpt lat="43.21647649796412" lon="12.19185106532623"><ele>313.0</ele><time>2026-03-29T08:54:24Z</time></trkpt><trkpt lat="43.21663679891076" lon="12.19182912546363"><ele>313.0</ele><time>2026-03-29T08:54:26Z</time></trkpt><trkpt lat="43.21676313601385" lon="12.191841059069116"><ele>313.0</ele><time>2026-03-29T08:54:27Z</time></trkpt><trkpt lat="43.21691322577007" lon="12.191839829536717"><ele>313.0</ele><time>2026-03-29T08:54:28Z</time></trkpt><trkpt lat="43.21707690044365" lon="12.191817984703533"><ele>313.0</ele><time>2026-03-29T08:54:29Z</time></trkpt><trkpt lat="43.21724983995864" lon="12.191791237911055"><ele>313.0</ele><time>2026-03-29T08:54:30Z</time></trkpt><trkpt lat="43.217428230507544" lon="12.191775469751926"><ele>312.66666666666663</ele><time>2026-03-29T08:54:31Z</time></trkpt><trkpt lat="43.21761014159718" lon="12.191758049260997"><ele>312.3333333333333</ele><time>2026-03-29T08:54:32Z</time></trkpt><trkpt lat="43.2177853063814" lon="12.191741209290798"><ele>312.0</ele><time>2026-03-29T08:54:33Z</time></trkpt><trkpt lat="43.21797491384353" lon="12.191719530851424"><ele>312.0</ele><time>2026-03-29T08:54:34Z</time></trkpt><trkpt lat="43.21815889930454" lon="12.191699261634525"><ele>312.0</ele><time>2026-03-29T08:54:35Z</time></trkpt><trkpt lat="43.21834409134364" lon="12.191676624075312"><ele>312.0</ele><time>2026-03-29T08:54:36Z</time></trkpt><trkpt lat="43.21851694913474" lon="12.191647204728543"><ele>312.0</ele><time>2026-03-29T08:54:37Z</time></trkpt><trkpt lat="43.218682797166174" lon="12.191610400240918"><ele>312.0</ele><time>2026-03-29T08:54:38Z</time></trkpt><trkpt lat="43.21882080861944" lon="12.191554819916034"><ele>312.0</ele><time>2026-03-29T08:54:39Z</time></trkpt><trkpt lat="43.21893281500549" lon="12.191497900427537"><ele>312.0</ele><time>2026-03-29T08:54:40Z</time></trkpt><trkpt lat="43.219018837211316" lon="12.191437789300503"><ele>313.0</ele><time>2026-03-29T08:54:41Z</time></trkpt><trkpt lat="43.219096268569274" lon="12.191360479304691"><ele>314.0</ele><time>2026-03-29T08:54:41.999Z</time></trkpt><trkpt lat="43.219161319509254" lon="12.191250506256162"><ele>315.0</ele><time>2026-03-29T08:54:42.999Z</time></trkpt><trkpt lat="43.219221844184425" lon="12.191109594888136"><ele>316.0</ele><time>2026-03-29T08:54:43.999Z</time></trkpt><trkpt lat="43.219299202400386" lon="12.190961831411185"><ele>316.0</ele><time>2026-03-29T08:54:44.999Z</time></trkpt><trkpt lat="43.21941405466402" lon="12.190800129295047"><ele>316.0</ele><time>2026-03-29T08:54:45.999Z</time></trkpt><trkpt lat="43.21953593222541" lon="12.19063014479502"><ele>316.0</ele><time>2026-03-29T08:54:46.999Z</time></trkpt><trkpt lat="43.219634408196946" lon="12.190463786089595"><ele>315.75</ele><time>2026-03-29T08:54:47.999Z</time></trkpt><trkpt lat="43.21972136438993" lon="12.190332447522866"><ele>315.5</ele><time>2026-03-29T08:54:48.999Z</time></trkpt><trkpt lat="43.219790534118786" lon="12.190216940041836"><ele>315.25</ele><time>2026-03-29T08:54:49.999Z</time></trkpt><trkpt lat="43.21986416767916" lon="12.19008511312481"><ele>315.0</ele><time>2026-03-29T08:54:50.999Z</time></trkpt><trkpt lat="43.21995752398779" lon="12.189939889096513"><ele>315.5</ele><time>2026-03-29T08:54:51.999Z</time></trkpt><trkpt lat="43.22005169906475" lon="12.189796911078314"><ele>316.0</ele><time>2026-03-29T08:54:52.999Z</time></trkpt><trkpt lat="43.22014690380234" lon="12.189642877591286"><ele>316.5</ele><time>2026-03-29T08:54:53.999Z</time></trkpt><trkpt lat="43.22025294251363" lon="12.18948669600118"><ele>317.0</ele><time>2026-03-29T08:54:54.999Z</time></trkpt><trkpt lat="43.22035118298438" lon="12.189338683801505"><ele>317.0</ele><time>2026-03-29T08:54:55.999Z</time></trkpt><trkpt lat="43.2204520933728" lon="12.189196579992519"><ele>317.0</ele><time>2026-03-29T08:54:56.999Z</time></trkpt><trkpt lat="43.22054234091246" lon="12.189043928403484"><ele>317.0</ele><time>2026-03-29T08:54:57.999Z</time></trkpt><trkpt lat="43.22062190912272" lon="12.188877670803297"><ele>317.0</ele><time>2026-03-29T08:54:58.999Z</time></trkpt><trkpt lat="43.2206861990853" lon="12.18867473905744"><ele>316.6666666666667</ele><time>2026-03-29T08:54:59.999Z</time></trkpt><trkpt lat="43.22073530969889" lon="12.188456014068908"><ele>316.3333333333333</ele><time>2026-03-29T08:55:00.999Z</time></trkpt><trkpt lat="43.220770471319" lon="12.188227828776895"><ele>316.0</ele><time>2026-03-29T08:55:01.999Z</time></trkpt><trkpt lat="43.220796392801866" lon="12.187988633579188"><ele>317.3333333333333</ele><time>2026-03-29T08:55:02.999Z</time></trkpt><trkpt lat="43.22081164596605" lon="12.187732619564628"><ele>318.6666666666667</ele><time>2026-03-29T08:55:03.999Z</time></trkpt><trkpt lat="43.2208454330761" lon="12.187470158963915"><ele>320.0</ele><time>2026-03-29T08:55:04.999Z</time></trkpt><trkpt lat="43.220863308434645" lon="12.187233466271582"><ele>321.0</ele><time>2026-03-29T08:55:05.999Z</time></trkpt><trkpt lat="43.22087983257514" lon="12.18701015229287"><ele>322.0</ele><time>2026-03-29T08:55:06.999Z</time></trkpt><trkpt lat="43.220901797478525" lon="12.18682038299894"><ele>323.0</ele><time>2026-03-29T08:55:07.999Z</time></trkpt><trkpt lat="43.22092025998793" lon="12.186682279078568"><ele>324.0</ele><time>2026-03-29T08:55:08.999Z</time></trkpt><trkpt lat="43.22094965859" lon="12.186554636850943"><ele>323.75</ele><time>2026-03-29T08:55:09.999Z</time></trkpt><trkpt lat="43.220993057122925" lon="12.186413015345924"><ele>323.5</ele><time>2026-03-29T08:55:10.999Z</time></trkpt><trkpt lat="43.22106258201273" lon="12.186276406497402"><ele>323.25</ele><time>2026-03-29T08:55:11.999Z</time></trkpt><trkpt lat="43.221137355349185" lon="12.186139423539263"><ele>323.0</ele><time>2026-03-29T08:55:12.999Z</time></trkpt><trkpt lat="43.221223320668706" lon="12.186003516884126"><ele>323.0</ele><time>2026-03-29T08:55:13.999Z</time></trkpt><trkpt lat="43.22130994095077" lon="12.185921425042471"><ele>323.0</ele><time>2026-03-29T08:55:14.999Z</time></trkpt><trkpt lat="43.22141187802834" lon="12.185830474858385"><ele>323.0</ele><time>2026-03-29T08:55:15.999Z</time></trkpt><trkpt lat="43.22151351079478" lon="12.185743746912785"><ele>323.0</ele><time>2026-03-29T08:55:16.999Z</time></trkpt><trkpt lat="43.22161944031113" lon="12.185649947472402"><ele>325.0</ele><time>2026-03-29T08:55:17.999Z</time></trkpt><trkpt lat="43.22171894261863" lon="12.18556056628317"><ele>327.0</ele><time>2026-03-29T08:55:18.999Z</time></trkpt><trkpt lat="43.221814842520224" lon="12.18548350301136"><ele>329.0</ele><time>2026-03-29T08:55:19.999Z</time></trkpt><trkpt lat="43.22189638709526" lon="12.185428591310332"><ele>331.0</ele><time>2026-03-29T08:55:20.999Z</time></trkpt><trkpt lat="43.22196381741475" lon="12.185431433418"><ele>333.0</ele><time>2026-03-29T08:55:21.999Z</time></trkpt><trkpt lat="43.222025330652414" lon="12.185487351466174"><ele>333.0</ele><time>2026-03-29T08:55:22.999Z</time></trkpt><trkpt lat="43.222084929235145" lon="12.185569533263699"><ele>333.0</ele><time>2026-03-29T08:55:23.999Z</time></trkpt><trkpt lat="43.22214955153771" lon="12.185669187123114"><ele>333.0</ele><time>2026-03-29T08:55:24.999Z</time></trkpt><trkpt lat="43.222221741060565" lon="12.185771186486065"><ele>333.0</ele><time>2026-03-29T08:55:25.999Z</time></trkpt><trkpt lat="43.222300335056076" lon="12.185872025138641"><ele>333.0</ele><time>2026-03-29T08:55:26.999Z</time></trkpt><trkpt lat="43.22238217744176" lon="12.185994110381742"><ele>337.25</ele><time>2026-03-29T08:55:27.999Z</time></trkpt><trkpt lat="43.22246527357386" lon="12.186149502589195"><ele>341.5</ele><time>2026-03-29T08:55:28.999Z</time></trkpt><trkpt lat="43.22252257980215" lon="12.186322804042513"><ele>345.75</ele><time>2026-03-29T08:55:29.999Z</time></trkpt><trkpt lat="43.22256346693989" lon="12.186485600443707"><ele>350.0</ele><time>2026-03-29T08:55:30.999Z</time></trkpt><trkpt lat="43.22259684470678" lon="12.186626967017204"><ele>350.0</ele><time>2026-03-29T08:55:31.999Z</time></trkpt><trkpt lat="43.222647688260174" lon="12.186723518511439"><ele>350.0</ele><time>2026-03-29T08:55:32.999Z</time></trkpt><trkpt lat="43.222715905565366" lon="12.186753194666952"><ele>350.0</ele><time>2026-03-29T08:55:33.999Z</time></trkpt><trkpt lat="43.222804491657605" lon="12.186775513973329"><ele>350.0</ele><time>2026-03-29T08:55:34.999Z</time></trkpt><trkpt lat="43.22290099644858" lon="12.186798443505886"><ele>350.0</ele><time>2026-03-29T08:55:35.999Z</time></trkpt><trkpt lat="43.22303204170307" lon="12.186834125940795"><ele>350.0</ele><time>2026-03-29T08:55:36.999Z</time></trkpt><trkpt lat="43.22313481014357" lon="12.186870790717938"><ele>350.0</ele><time>2026-03-29T08:55:37.999Z</time></trkpt><trkpt lat="43.22321176813061" lon="12.18689532762159"><ele>350.0</ele><time>2026-03-29T08:55:38.999Z</time></trkpt><trkpt lat="43.22334937086336" lon="12.186830137994482"><ele>350.0</ele><time>2026-03-29T08:55:40.999Z</time></trkpt><trkpt lat="43.223443322384696" lon="12.186756697154253"><ele>350.0</ele><time>2026-03-29T08:55:41.999Z</time></trkpt><trkpt lat="43.223563030704945" lon="12.186707847254679"><ele>353.75</ele><time>2026-03-29T08:55:42.999Z</time></trkpt><trkpt lat="43.22370383053084" lon="12.186652828220899"><ele>357.5</ele><time>2026-03-29T08:55:43.999Z</time></trkpt><trkpt lat="43.22382995501091" lon="12.186579815098249"><ele>361.25</ele><time>2026-03-29T08:55:45Z</time></trkpt><trkpt lat="43.223936560741706" lon="12.186506648338128"><ele>365.0</ele><time>2026-03-29T08:55:46Z</time></trkpt><trkpt lat="43.22404476062203" lon="12.186450477004142"><ele>367.2</ele><time>2026-03-29T08:55:47Z</time></trkpt><trkpt lat="43.224136680995635" lon="12.186406515194465"><ele>369.4</ele><time>2026-03-29T08:55:48Z</time></trkpt><trkpt lat="43.224234565030976" lon="12.186339190075499"><ele>371.6</ele><time>2026-03-29T08:55:49Z</time></trkpt><trkpt lat="43.22432469480592" lon="12.186290342372875"><ele>373.8</ele><time>2026-03-29T08:55:50Z</time></trkpt><trkpt lat="43.22439791501397" lon="12.186247486505419"><ele>376.0</ele><time>2026-03-29T08:55:51Z</time></trkpt><trkpt lat="43.224482255752605" lon="12.186125191316433"><ele>376.0</ele><time>2026-03-29T08:55:53Z</time></trkpt><trkpt lat="43.22443734412042" lon="12.185955642957943"><ele>376.0</ele><time>2026-03-29T08:55:55Z</time></trkpt><trkpt lat="43.22436994137906" lon="12.185865819184956"><ele>376.0</ele><time>2026-03-29T08:55:56Z</time></trkpt><trkpt lat="43.22429183869698" lon="12.18574843902041"><ele>376.0</ele><time>2026-03-29T08:55:57Z</time></trkpt><trkpt lat="43.224237610599644" lon="12.185633095795243"><ele>376.0</ele><time>2026-03-29T08:55:58Z</time></trkpt><trkpt lat="43.224190897867516" lon="12.18555095468372"><ele>375.6</ele><time>2026-03-29T08:55:59Z</time></trkpt><trkpt lat="43.22415137893738" lon="12.18546340727836"><ele>375.20000000000005</ele><time>2026-03-29T08:56:00Z</time></trkpt><trkpt lat="43.2241355071951" lon="12.18535911686567"><ele>374.79999999999995</ele><time>2026-03-29T08:56:01Z</time></trkpt><trkpt lat="43.22414365556437" lon="12.185232087437425"><ele>374.4</ele><time>2026-03-29T08:56:02Z</time></trkpt><trkpt lat="43.22417939010673" lon="12.185083947384925"><ele>374.0</ele><time>2026-03-29T08:56:03Z</time></trkpt><trkpt lat="43.22422507522789" lon="12.184888473542305"><ele>373.75</ele><time>2026-03-29T08:56:04Z</time></trkpt><trkpt lat="43.22426867507831" lon="12.184670401381853"><ele>373.5</ele><time>2026-03-29T08:56:05Z</time></trkpt><trkpt lat="43.22430225040424" lon="12.18447457841827"><ele>373.25</ele><time>2026-03-29T08:56:06Z</time></trkpt><trkpt lat="43.22433220182669" lon="12.184311851431762"><ele>373.0</ele><time>2026-03-29T08:56:07Z</time></trkpt><trkpt lat="43.2243341311892" lon="12.184195407682827"><ele>373.0</ele><time>2026-03-29T08:56:08Z</time></trkpt><trkpt lat="43.22431236913265" lon="12.184072609069643"><ele>373.0</ele><time>2026-03-29T08:56:09Z</time></trkpt><trkpt lat="43.22427400756211" lon="12.183886723067832"><ele>373.0</ele><time>2026-03-29T08:56:10Z</time></trkpt><trkpt lat="43.22425470327654" lon="12.183692246615143"><ele>373.0</ele><time>2026-03-29T08:56:11Z</time></trkpt><trkpt lat="43.22423816279309" lon="12.183514320070454"><ele>373.59999999999997</ele><time>2026-03-29T08:56:12Z</time></trkpt><trkpt lat="43.22422419354338" lon="12.183363916956633"><ele>374.2</ele><time>2026-03-29T08:56:13Z</time></trkpt><trkpt lat="43.224198481268914" lon="12.183227487821421"><ele>374.8</ele><time>2026-03-29T08:56:14Z</time></trkpt><trkpt lat="43.224145591685854" lon="12.183120766838696"><ele>375.4</ele><time>2026-03-29T08:56:15Z</time></trkpt><trkpt lat="43.22407963577267" lon="12.18303970690868"><ele>376.0</ele><time>2026-03-29T08:56:16Z</time></trkpt><trkpt lat="43.22401818345098" lon="12.182985379030034"><ele>377.5</ele><time>2026-03-29T08:56:17Z</time></trkpt><trkpt lat="43.223925657168785" lon="12.182911926710343"><ele>379.0</ele><time>2026-03-29T08:56:18Z</time></trkpt><trkpt lat="43.22382460217904" lon="12.182822389265796"><ele>380.5</ele><time>2026-03-29T08:56:19Z</time></trkpt><trkpt lat="43.223709432708716" lon="12.182728555655286"><ele>382.0</ele><time>2026-03-29T08:56:20Z</time></trkpt><trkpt lat="43.22360298789181" lon="12.182665014596697"><ele>382.0</ele><time>2026-03-29T08:56:21Z</time></trkpt><trkpt lat="43.22349985490717" lon="12.18262068638652"><ele>382.0</ele><time>2026-03-29T08:56:22Z</time></trkpt><trkpt lat="43.223412822507555" lon="12.18256836602027"><ele>382.0</ele><time>2026-03-29T08:56:23Z</time></trkpt><trkpt lat="43.223350626553646" lon="12.182475852850224"><ele>382.0</ele><time>2026-03-29T08:56:24Z</time></trkpt><trkpt lat="43.22330062843616" lon="12.182357717307674"><ele>382.0</ele><time>2026-03-29T08:56:25Z</time></trkpt><trkpt lat="43.22323945966685" lon="12.182177948615312"><ele>382.75</ele><time>2026-03-29T08:56:26Z</time></trkpt><trkpt lat="43.22316907299807" lon="12.182006574163834"><ele>383.5</ele><time>2026-03-29T08:56:27Z</time></trkpt><trkpt lat="43.223108617210904" lon="12.181849636934269"><ele>384.25</ele><time>2026-03-29T08:56:28Z</time></trkpt><trkpt lat="43.22304216836256" lon="12.18174693117402"><ele>385.0</ele><time>2026-03-29T08:56:29Z</time></trkpt><trkpt lat="43.22295371875182" lon="12.18165266766878"><ele>385.0</ele><time>2026-03-29T08:56:30Z</time></trkpt><trkpt lat="43.222874978687805" lon="12.181576672699391"><ele>385.0</ele><time>2026-03-29T08:56:31Z</time></trkpt><trkpt lat="43.22280602564856" lon="12.181482266440737"><ele>385.0</ele><time>2026-03-29T08:56:32Z</time></trkpt><trkpt lat="43.22273686665867" lon="12.181362084749264"><ele>385.0</ele><time>2026-03-29T08:56:33Z</time></trkpt><trkpt lat="43.222690864381676" lon="12.181231555644802"><ele>385.0</ele><time>2026-03-29T08:56:34Z</time></trkpt><trkpt lat="43.22266018055" lon="12.181115649307687"><ele>386.33333333333337</ele><time>2026-03-29T08:56:35Z</time></trkpt><trkpt lat="43.22263889780874" lon="12.181017848920002"><ele>387.6666666666667</ele><time>2026-03-29T08:56:37Z</time></trkpt><trkpt lat="43.22260064415378" lon="12.180928054170133"><ele>389.0</ele><time>2026-03-29T08:56:39Z</time></trkpt><trkpt lat="43.22263804269776" lon="12.18100319841621"><ele>390.33333333333337</ele><time>2026-03-29T08:56:45.999Z</time></trkpt><trkpt lat="43.22264583869546" lon="12.18110834280956"><ele>391.6666666666667</ele><time>2026-03-29T08:56:46.999Z</time></trkpt><trkpt lat="43.222714871571654" lon="12.18107653371312"><ele>393.0</ele><time>2026-03-29T08:56:50.999Z</time></trkpt><trkpt lat="43.22275845480945" lon="12.180921893238995"><ele>393.0</ele><time>2026-03-29T08:56:52.999Z</time></trkpt><trkpt lat="43.222811062233085" lon="12.180857103465346"><ele>393.0</ele><time>2026-03-29T08:56:53.999Z</time></trkpt><trkpt lat="43.22288106793511" lon="12.180874844787027"><ele>393.0</ele><time>2026-03-29T08:56:54.999Z</time></trkpt><trkpt lat="43.223001515280565" lon="12.180903538612995"><ele>393.0</ele><time>2026-03-29T08:56:56.999Z</time></trkpt><trkpt lat="43.223025586128195" lon="12.181000724929184"><ele>393.0</ele><time>2026-03-29T08:56:57.999Z</time></trkpt><trkpt lat="43.22306435702831" lon="12.181088545511601"><ele>393.0</ele><time>2026-03-29T08:56:58.999Z</time></trkpt><trkpt lat="43.22316319426088" lon="12.181117580281505"><ele>395.8333333333333</ele><time>2026-03-29T08:57:00.999Z</time></trkpt><trkpt lat="43.22321428606774" lon="12.181060848421485"><ele>398.66666666666663</ele><time>2026-03-29T08:57:01.999Z</time></trkpt><trkpt lat="43.223285957830754" lon="12.18105716106399"><ele>401.5</ele><time>2026-03-29T08:57:02.999Z</time></trkpt><trkpt lat="43.22335566520455" lon="12.181060069033421"><ele>404.3333333333333</ele><time>2026-03-29T08:57:03.999Z</time></trkpt><trkpt lat="43.223478686706585" lon="12.181055234741837"><ele>407.16666666666663</ele><time>2026-03-29T08:57:04.999Z</time></trkpt><trkpt lat="43.223594556556606" lon="12.181060567956893"><ele>410.0</ele><time>2026-03-29T08:57:05.999Z</time></trkpt><trkpt lat="43.22368040068419" lon="12.18108086201509"><ele>410.0</ele><time>2026-03-29T08:57:06.999Z</time></trkpt><trkpt lat="43.223759479780774" lon="12.181184154543214"><ele>410.0</ele><time>2026-03-29T08:57:07.999Z</time></trkpt><trkpt lat="43.22385749944929" lon="12.181236625663152"><ele>410.0</ele><time>2026-03-29T08:57:08.999Z</time></trkpt><trkpt lat="43.223971147618485" lon="12.181234974350803"><ele>410.0</ele><time>2026-03-29T08:57:09.999Z</time></trkpt><trkpt lat="43.22407010318098" lon="12.181216181530663"><ele>410.0</ele><time>2026-03-29T08:57:10.999Z</time></trkpt><trkpt lat="43.22418148106864" lon="12.181215781953087"><ele>412.3333333333333</ele><time>2026-03-29T08:57:11.999Z</time></trkpt><trkpt lat="43.2243208247408" lon="12.181191701310828"><ele>414.66666666666663</ele><time>2026-03-29T08:57:12.999Z</time></trkpt><trkpt lat="43.224402157716646" lon="12.181126426188852"><ele>417.0</ele><time>2026-03-29T08:57:13.999Z</time></trkpt><trkpt lat="43.224466938514716" lon="12.181119258484022"><ele>419.33333333333337</ele><time>2026-03-29T08:57:14.999Z</time></trkpt><trkpt lat="43.22452343758803" lon="12.181078497618703"><ele>421.6666666666667</ele><time>2026-03-29T08:57:15.999Z</time></trkpt><trkpt lat="43.22458309244065" lon="12.181044481295226"><ele>424.0</ele><time>2026-03-29T08:57:17.999Z</time></trkpt><trkpt lat="43.224654727313016" lon="12.18100363374067"><ele>424.00000000000006</ele><time>2026-03-29T08:57:20.999Z</time></trkpt><trkpt lat="43.22477498849801" lon="12.181095387436091"><ele>424.0</ele><time>2026-03-29T08:57:21.999Z</time></trkpt><trkpt lat="43.22484347993007" lon="12.181093459250704"><ele>424.0</ele><time>2026-03-29T08:57:22.999Z</time></trkpt><trkpt lat="43.22490465935451" lon="12.181117761892235"><ele>424.0</ele><time>2026-03-29T08:57:23.999Z</time></trkpt><trkpt lat="43.224969171053615" lon="12.181140082201383"><ele>424.00000000000006</ele><time>2026-03-29T08:57:24.999Z</time></trkpt><trkpt lat="43.22503256069983" lon="12.181144577610976"><ele>424.0</ele><time>2026-03-29T08:57:25.999Z</time></trkpt><trkpt lat="43.22510290538138" lon="12.181138322800212"><ele>425.6</ele><time>2026-03-29T08:57:26.999Z</time></trkpt><trkpt lat="43.22519937610383" lon="12.181132903789774"><ele>427.2</ele><time>2026-03-29T08:57:27.999Z</time></trkpt><trkpt lat="43.22526753165045" lon="12.181150904928057"><ele>428.80000000000007</ele><time>2026-03-29T08:57:28.999Z</time></trkpt><trkpt lat="43.22533014320813" lon="12.181117154114947"><ele>430.40000000000003</ele><time>2026-03-29T08:57:30.999Z</time></trkpt><trkpt lat="43.22532654106259" lon="12.181015885510602"><ele>432.0</ele><time>2026-03-29T08:57:32.999Z</time></trkpt><trkpt lat="43.2252830975365" lon="12.180806367721182"><ele>432.0</ele><time>2026-03-29T08:57:34.999Z</time></trkpt><trkpt lat="43.225251933474446" lon="12.180701309267112"><ele>432.0</ele><time>2026-03-29T08:57:35.999Z</time></trkpt><trkpt lat="43.22521469107209" lon="12.180612153488097"><ele>432.0</ele><time>2026-03-29T08:57:36.999Z</time></trkpt><trkpt lat="43.22516152731133" lon="12.180526366966538"><ele>432.0</ele><time>2026-03-29T08:57:37.999Z</time></trkpt><trkpt lat="43.22511112023456" lon="12.180469275352536"><ele>432.0</ele><time>2026-03-29T08:57:38.999Z</time></trkpt><trkpt lat="43.22501971923674" lon="12.180377709984727"><ele>432.0</ele><time>2026-03-29T08:57:40.999Z</time></trkpt><trkpt lat="43.22493172320774" lon="12.180252169775454"><ele>431.20000000000005</ele><time>2026-03-29T08:57:42.999Z</time></trkpt><trkpt lat="43.22484301632093" lon="12.180184839549826"><ele>430.40000000000003</ele><time>2026-03-29T08:57:44.999Z</time></trkpt><trkpt lat="43.224754821449515" lon="12.18017618926495"><ele>429.59999999999997</ele><time>2026-03-29T08:57:46.999Z</time></trkpt><trkpt lat="43.22467935018783" lon="12.180092154071104"><ele>428.79999999999995</ele><time>2026-03-29T08:57:48.999Z</time></trkpt><trkpt lat="43.22474106980929" lon="12.180014750665803"><ele>428.0</ele><time>2026-03-29T08:57:50.999Z</time></trkpt><trkpt lat="43.224780518738584" lon="12.179887397044142"><ele>431.2</ele><time>2026-03-29T08:57:52.999Z</time></trkpt><trkpt lat="43.22483080213943" lon="12.179738649436642"><ele>434.4</ele><time>2026-03-29T08:57:54.999Z</time></trkpt><trkpt lat="43.22490049682457" lon="12.179674910219108"><ele>437.59999999999997</ele><time>2026-03-29T08:57:56.999Z</time></trkpt><trkpt lat="43.2250386903427" lon="12.179634264713219"><ele>440.79999999999995</ele><time>2026-03-29T08:57:58.999Z</time></trkpt><trkpt lat="43.22512172639189" lon="12.179598003810506"><ele>444.0</ele><time>2026-03-29T08:57:59.999Z</time></trkpt><trkpt lat="43.2251947635436" lon="12.179554031021587"><ele>444.0</ele><time>2026-03-29T08:58:00.999Z</time></trkpt><trkpt lat="43.225259562176596" lon="12.179511590828364"><ele>444.0</ele><time>2026-03-29T08:58:01.999Z</time></trkpt><trkpt lat="43.22533663472054" lon="12.179470950959795"><ele>444.0</ele><time>2026-03-29T08:58:02.999Z</time></trkpt><trkpt lat="43.225398209554925" lon="12.179426045456697"><ele>444.0</ele><time>2026-03-29T08:58:03.999Z</time></trkpt><trkpt lat="43.225433263752834" lon="12.1792897450663"><ele>444.0</ele><time>2026-03-29T08:58:05.999Z</time></trkpt><trkpt lat="43.225478663689984" lon="12.17913769908917"><ele>444.0</ele><time>2026-03-29T08:58:07.999Z</time></trkpt><trkpt lat="43.22555893318596" lon="12.179095126534776"><ele>445.1666666666667</ele><time>2026-03-29T08:58:09.999Z</time></trkpt><trkpt lat="43.22559589319446" lon="12.1790107454141"><ele>446.33333333333337</ele><time>2026-03-29T08:58:10.999Z</time></trkpt><trkpt lat="43.22557166971326" lon="12.17889623399668"><ele>447.5</ele><time>2026-03-29T08:58:12.999Z</time></trkpt><trkpt lat="43.22551342314652" lon="12.178797616982857"><ele>448.6666666666667</ele><time>2026-03-29T08:58:14.999Z</time></trkpt><trkpt lat="43.22550289015004" lon="12.178683347982036"><ele>449.83333333333337</ele><time>2026-03-29T08:58:16.999Z</time></trkpt><trkpt lat="43.22557993457067" lon="12.178570654539728"><ele>451.0</ele><time>2026-03-29T08:58:18.999Z</time></trkpt><trkpt lat="43.22567334388208" lon="12.178507741933732"><ele>452.4</ele><time>2026-03-29T08:58:20.999Z</time></trkpt><trkpt lat="43.225735074241705" lon="12.178403110825718"><ele>453.8</ele><time>2026-03-29T08:58:22.999Z</time></trkpt><trkpt lat="43.22573664708969" lon="12.17824143801042"><ele>455.19999999999993</ele><time>2026-03-29T08:58:24.999Z</time></trkpt><trkpt lat="43.225749956689576" lon="12.178101771652166"><ele>456.59999999999997</ele><time>2026-03-29T08:58:25.999Z</time></trkpt><trkpt lat="43.22574666673249" lon="12.178001057717697"><ele>458.0</ele><time>2026-03-29T08:58:26.999Z</time></trkpt><trkpt lat="43.225713420423766" lon="12.177873567039251"><ele>458.49999999999994</ele><time>2026-03-29T08:58:27.999Z</time></trkpt><trkpt lat="43.225685378712775" lon="12.177746270233975"><ele>459.0</ele><time>2026-03-29T08:58:28.999Z</time></trkpt><trkpt lat="43.225678510596516" lon="12.177654542697383"><ele>459.5</ele><time>2026-03-29T08:58:29.999Z</time></trkpt><trkpt lat="43.22567827167658" lon="12.177562224337485"><ele>460.0</ele><time>2026-03-29T08:58:30.999Z</time></trkpt><trkpt lat="43.22568313092662" lon="12.177422221389314"><ele>460.49999999999994</ele><time>2026-03-29T08:58:32.999Z</time></trkpt><trkpt lat="43.22569166144086" lon="12.177323715019869"><ele>461.0</ele><time>2026-03-29T08:58:33.999Z</time></trkpt><trkpt lat="43.22570569241199" lon="12.177185659226172"><ele>461.8</ele><time>2026-03-29T08:58:34.999Z</time></trkpt><trkpt lat="43.22571973840044" lon="12.177029110082891"><ele>462.6</ele><time>2026-03-29T08:58:35.999Z</time></trkpt><trkpt lat="43.22574020775377" lon="12.17689105312283"><ele>463.4</ele><time>2026-03-29T08:58:36.999Z</time></trkpt><trkpt lat="43.22576336857475" lon="12.176789014380528"><ele>464.2</ele><time>2026-03-29T08:58:37.999Z</time></trkpt><trkpt lat="43.2258377904271" lon="12.17669541731866"><ele>465.0</ele><time>2026-03-29T08:58:39.999Z</time></trkpt><trkpt lat="43.22590555326908" lon="12.176610850412171"><ele>466.3333333333333</ele><time>2026-03-29T08:58:40.999Z</time></trkpt><trkpt lat="43.225977325450394" lon="12.176485891290042"><ele>467.66666666666663</ele><time>2026-03-29T08:58:42.999Z</time></trkpt><trkpt lat="43.22602929620177" lon="12.1763980921598"><ele>469.0</ele><time>2026-03-29T08:58:43.999Z</time></trkpt><trkpt lat="43.2260674771291" lon="12.176315025854043"><ele>470.3333333333333</ele><time>2026-03-29T08:58:44.999Z</time></trkpt><trkpt lat="43.226107207637945" lon="12.17623058029022"><ele>471.66666666666663</ele><time>2026-03-29T08:58:45.999Z</time></trkpt><trkpt lat="43.22612519016778" lon="12.176139612116746"><ele>473.0</ele><time>2026-03-29T08:58:46.999Z</time></trkpt><trkpt lat="43.22616335785759" lon="12.176030873876599"><ele>472.99999999999994</ele><time>2026-03-29T08:58:48.999Z</time></trkpt><trkpt lat="43.22616187671775" lon="12.175898962482462"><ele>473.0</ele><time>2026-03-29T08:58:50.999Z</time></trkpt><trkpt lat="43.226175192656" lon="12.175747655412192"><ele>473.0</ele><time>2026-03-29T08:58:52.999Z</time></trkpt><trkpt lat="43.22620281316492" lon="12.175654149663794"><ele>473.0</ele><time>2026-03-29T08:58:53.999Z</time></trkpt><trkpt lat="43.22623337978976" lon="12.175544880809856"><ele>472.99999999999994</ele><time>2026-03-29T08:58:55.999Z</time></trkpt><trkpt lat="43.22622945752814" lon="12.175435833179877"><ele>473.0</ele><time>2026-03-29T08:59:06.999Z</time></trkpt><trkpt lat="43.22620927614229" lon="12.175342356952129"><ele>475.16666666666663</ele><time>2026-03-29T08:59:16.999Z</time></trkpt><trkpt lat="43.226225465785916" lon="12.175223283810926"><ele>477.3333333333333</ele><time>2026-03-29T08:59:33.999Z</time></trkpt><trkpt lat="43.226253848359335" lon="12.175141614940753"><ele>479.5</ele><time>2026-03-29T08:59:51.998Z</time></trkpt><trkpt lat="43.22621603766441" lon="12.175021754498172"><ele>481.66666666666663</ele><time>2026-03-29T08:59:56.999Z</time></trkpt><trkpt lat="43.22619414135812" lon="12.174940125972572"><ele>483.8333333333333</ele><time>2026-03-29T08:59:58.999Z</time></trkpt><trkpt lat="43.22613777106032" lon="12.174842446035544"><ele>486.0</ele><time>2026-03-29T09:00:02.999Z</time></trkpt><trkpt lat="43.226065617002625" lon="12.174735152557147"><ele>488.0</ele><time>2026-03-29T09:00:04.999Z</time></trkpt><trkpt lat="43.226004223817604" lon="12.174634855674674"><ele>490.0</ele><time>2026-03-29T09:00:06.999Z</time></trkpt><trkpt lat="43.225943429517805" lon="12.174517955439784"><ele>492.0</ele><time>2026-03-29T09:00:08.999Z</time></trkpt><trkpt lat="43.225921557529254" lon="12.174420151205041"><ele>494.0</ele><time>2026-03-29T09:00:10.999Z</time></trkpt><trkpt lat="43.225990619259875" lon="12.174368342852423"><ele>496.0</ele><time>2026-03-29T09:00:12.999Z</time></trkpt><trkpt lat="43.226052676774486" lon="12.174349089611747"><ele>498.0</ele><time>2026-03-29T09:00:14.999Z</time></trkpt><trkpt lat="43.2261251162747" lon="12.174327330335583"><ele>498.0</ele><time>2026-03-29T09:00:16.999Z</time></trkpt><trkpt lat="43.22618988322365" lon="12.174271205324501"><ele>498.0</ele><time>2026-03-29T09:00:18.999Z</time></trkpt><trkpt lat="43.22625386679098" lon="12.174228074759922"><ele>498.0</ele><time>2026-03-29T09:00:20.999Z</time></trkpt><trkpt lat="43.22633791618903" lon="12.17419520314688"><ele>498.0</ele><time>2026-03-29T09:00:22.999Z</time></trkpt><trkpt lat="43.22639295603215" lon="12.174150394344949"><ele>498.0</ele><time>2026-03-29T09:00:24.999Z</time></trkpt><trkpt lat="43.226454778150014" lon="12.174096708422352"><ele>498.0</ele><time>2026-03-29T09:00:26.999Z</time></trkpt><trkpt lat="43.22655114035356" lon="12.174073970921182"><ele>501.2</ele><time>2026-03-29T09:00:29.999Z</time></trkpt><trkpt lat="43.22666193742792" lon="12.174025290133901"><ele>504.4</ele><time>2026-03-29T09:00:32.999Z</time></trkpt><trkpt lat="43.22675473935848" lon="12.174008883965067"><ele>507.59999999999997</ele><time>2026-03-29T09:00:34.999Z</time></trkpt><trkpt lat="43.22685581946963" lon="12.174001579443802"><ele>510.79999999999995</ele><time>2026-03-29T09:00:36.999Z</time></trkpt><trkpt lat="43.22694571682558" lon="12.173953702259432"><ele>514.0</ele><time>2026-03-29T09:00:38.999Z</time></trkpt><trkpt lat="43.22699511613888" lon="12.173857864919762"><ele>515.5</ele><time>2026-03-29T09:00:40.999Z</time></trkpt><trkpt lat="43.22693625322494" lon="12.17380271994482"><ele>517.0</ele><time>2026-03-29T09:00:42.999Z</time></trkpt><trkpt lat="43.226863592905836" lon="12.173731754504532"><ele>518.5</ele><time>2026-03-29T09:00:45.999Z</time></trkpt><trkpt lat="43.22684675485523" lon="12.173642213542916"><ele>520.0</ele><time>2026-03-29T09:00:47.999Z</time></trkpt><trkpt lat="43.22676973491018" lon="12.173537581384702"><ele>521.5</ele><time>2026-03-29T09:00:49.999Z</time></trkpt><trkpt lat="43.22674095232735" lon="12.1734518487848"><ele>523.0</ele><time>2026-03-29T09:00:51.999Z</time></trkpt><trkpt lat="43.22671054817822" lon="12.173296212011337"><ele>523.0</ele><time>2026-03-29T09:00:53.999Z</time></trkpt><trkpt lat="43.2267458418595" lon="12.17321640665773"><ele>523.0</ele><time>2026-03-29T09:00:55.999Z</time></trkpt><trkpt lat="43.22681692395009" lon="12.173131953746468"><ele>523.0</ele><time>2026-03-29T09:00:57.999Z</time></trkpt><trkpt lat="43.226927410351095" lon="12.173107494224185"><ele>523.0</ele><time>2026-03-29T09:00:59.999Z</time></trkpt><trkpt lat="43.22693568812442" lon="12.173013201392012"><ele>523.0</ele><time>2026-03-29T09:01:01.999Z</time></trkpt><trkpt lat="43.226886300789225" lon="12.172900444289088"><ele>523.0</ele><time>2026-03-29T09:01:03.999Z</time></trkpt><trkpt lat="43.2268775271985" lon="12.172796658608306"><ele>525.0</ele><time>2026-03-29T09:01:05.999Z</time></trkpt><trkpt lat="43.226900279385006" lon="12.17265974771159"><ele>527.0</ele><time>2026-03-29T09:01:07.999Z</time></trkpt><trkpt lat="43.22692601452839" lon="12.172573123303316"><ele>529.0</ele><time>2026-03-29T09:01:09.999Z</time></trkpt><trkpt lat="43.226954769708385" lon="12.172465014269877"><ele>531.0</ele><time>2026-03-29T09:01:12.999Z</time></trkpt><trkpt lat="43.22693902467619" lon="12.172337931182302"><ele>533.0</ele><time>2026-03-29T09:01:14.999Z</time></trkpt><trkpt lat="43.22691007025618" lon="12.17223659567707"><ele>535.0</ele><time>2026-03-29T09:01:17.999Z</time></trkpt><trkpt lat="43.22685179846138" lon="12.172110145109421"><ele>537.5</ele><time>2026-03-29T09:01:19.999Z</time></trkpt><trkpt lat="43.22678399112343" lon="12.172002094753621"><ele>540.0</ele><time>2026-03-29T09:01:21.999Z</time></trkpt><trkpt lat="43.22674426169449" lon="12.17190188547789"><ele>542.5</ele><time>2026-03-29T09:01:23.999Z</time></trkpt><trkpt lat="43.22667760354824" lon="12.171855051425258"><ele>545.0</ele><time>2026-03-29T09:01:25.999Z</time></trkpt><trkpt lat="43.22661808638242" lon="12.171740366210281"><ele>547.5</ele><time>2026-03-29T09:01:27.999Z</time></trkpt><trkpt lat="43.226597733988264" lon="12.171631490415775"><ele>550.0</ele><time>2026-03-29T09:01:29.999Z</time></trkpt><trkpt lat="43.22663806260309" lon="12.171556959924134"><ele>552.0</ele><time>2026-03-29T09:01:31.999Z</time></trkpt><trkpt lat="43.22673784910632" lon="12.171512649856446"><ele>554.0</ele><time>2026-03-29T09:01:33.999Z</time></trkpt><trkpt lat="43.22686782637131" lon="12.171505792899856"><ele>556.0</ele><time>2026-03-29T09:01:35.999Z</time></trkpt><trkpt lat="43.22694248250162" lon="12.171498388578618"><ele>558.0</ele><time>2026-03-29T09:01:36.999Z</time></trkpt><trkpt lat="43.22701709500131" lon="12.17147923590864"><ele>560.0</ele><time>2026-03-29T09:01:37.999Z</time></trkpt><trkpt lat="43.22705988845245" lon="12.171370086192203"><ele>560.0</ele><time>2026-03-29T09:01:39.999Z</time></trkpt><trkpt lat="43.22700417980351" lon="12.171242149018019"><ele>560.0</ele><time>2026-03-29T09:01:41.999Z</time></trkpt><trkpt lat="43.22696649908397" lon="12.1711678979663"><ele>560.0</ele><time>2026-03-29T09:01:42.999Z</time></trkpt><trkpt lat="43.22688533477" lon="12.171074309938751"><ele>560.0</ele><time>2026-03-29T09:01:44.999Z</time></trkpt><trkpt lat="43.22683099257454" lon="12.171030613714922"><ele>560.0</ele><time>2026-03-29T09:01:45.999Z</time></trkpt><trkpt lat="43.22675268476463" lon="12.170930074769865"><ele>560.0</ele><time>2026-03-29T09:01:47.999Z</time></trkpt><trkpt lat="43.2267653232423" lon="12.170805039444636"><ele>560.0</ele><time>2026-03-29T09:01:49.999Z</time></trkpt><trkpt lat="43.226776833489474" lon="12.170648283621532"><ele>560.0</ele><time>2026-03-29T09:01:51.999Z</time></trkpt><trkpt lat="43.22681463572364" lon="12.170536284395087"><ele>560.0</ele><time>2026-03-29T09:01:53.999Z</time></trkpt><trkpt lat="43.22693779335439" lon="12.170596827730703"><ele>560.0</ele><time>2026-03-29T09:01:55.999Z</time></trkpt><trkpt lat="43.226998924007596" lon="12.1706425615461"><ele>560.0</ele><time>2026-03-29T09:01:56.999Z</time></trkpt><trkpt lat="43.227078581405905" lon="12.170678674791706"><ele>560.0</ele><time>2026-03-29T09:01:57.999Z</time></trkpt><trkpt lat="43.22717405895973" lon="12.170708957519926"><ele>560.0</ele><time>2026-03-29T09:01:58.999Z</time></trkpt><trkpt lat="43.227276541771346" lon="12.170743607115435"><ele>560.0</ele><time>2026-03-29T09:01:59.999Z</time></trkpt><trkpt lat="43.227355988063216" lon="12.170752416100685"><ele>560.0</ele><time>2026-03-29T09:02:00.999Z</time></trkpt><trkpt lat="43.2274105654657" lon="12.17070846872247"><ele>560.0</ele><time>2026-03-29T09:02:03Z</time></trkpt><trkpt lat="43.2274978306034" lon="12.170735087631469"><ele>561.6666666666666</ele><time>2026-03-29T09:02:11Z</time></trkpt><trkpt lat="43.22757226495794" lon="12.17080572232161"><ele>563.3333333333333</ele><time>2026-03-29T09:02:14Z</time></trkpt><trkpt lat="43.22766775639085" lon="12.170855960209698"><ele>565.0</ele><time>2026-03-29T09:02:16Z</time></trkpt><trkpt lat="43.227778534699496" lon="12.170891631797469"><ele>566.6666666666666</ele><time>2026-03-29T09:02:18Z</time></trkpt><trkpt lat="43.2278448106694" lon="12.17090623610987"><ele>568.3333333333334</ele><time>2026-03-29T09:02:19Z</time></trkpt><trkpt lat="43.227913306845096" lon="12.170905389922801"><ele>570.0</ele><time>2026-03-29T09:02:20Z</time></trkpt><trkpt lat="43.228045800969554" lon="12.17085001778391"><ele>570.4</ele><time>2026-03-29T09:02:22Z</time></trkpt><trkpt lat="43.22817146356876" lon="12.170817094247175"><ele>570.8</ele><time>2026-03-29T09:02:24Z</time></trkpt><trkpt lat="43.22828324029369" lon="12.17093335448926"><ele>571.2</ele><time>2026-03-29T09:02:26Z</time></trkpt><trkpt lat="43.228325641014116" lon="12.171001128255844"><ele>571.6</ele><time>2026-03-29T09:02:27Z</time></trkpt><trkpt lat="43.22835575209131" lon="12.171081893206464"><ele>572.0</ele><time>2026-03-29T09:02:28Z</time></trkpt><trkpt lat="43.228418444081555" lon="12.171193895687663"><ele>572.0</ele><time>2026-03-29T09:02:30Z</time></trkpt><trkpt lat="43.228570873198315" lon="12.171219377491248"><ele>572.0</ele><time>2026-03-29T09:02:32Z</time></trkpt><trkpt lat="43.22867275751307" lon="12.171245501717616"><ele>572.0</ele><time>2026-03-29T09:02:33Z</time></trkpt><trkpt lat="43.22875008187024" lon="12.171288867491134"><ele>572.0</ele><time>2026-03-29T09:02:34Z</time></trkpt><trkpt lat="43.22881440705016" lon="12.171340144375588"><ele>572.0</ele><time>2026-03-29T09:02:35Z</time></trkpt><trkpt lat="43.22893242909577" lon="12.17141510376591"><ele>574.0</ele><time>2026-03-29T09:02:37Z</time></trkpt><trkpt lat="43.22899967344511" lon="12.171431898551267"><ele>576.0</ele><time>2026-03-29T09:02:38Z</time></trkpt><trkpt lat="43.2290942941964" lon="12.171451913827875"><ele>578.0</ele><time>2026-03-29T09:02:39Z</time></trkpt><trkpt lat="43.22918288431587" lon="12.171507654623806"><ele>580.0</ele><time>2026-03-29T09:02:40Z</time></trkpt><trkpt lat="43.22925813581723" lon="12.171576211546737"><ele>582.0</ele><time>2026-03-29T09:02:41Z</time></trkpt><trkpt lat="43.22935254789893" lon="12.171673213831314"><ele>578.0</ele><time>2026-03-29T09:02:42Z</time></trkpt><trkpt lat="43.22943425205421" lon="12.171750474264483"><ele>574.0</ele><time>2026-03-29T09:02:43Z</time></trkpt><trkpt lat="43.22948875832093" lon="12.171811602746644"><ele>570.0</ele><time>2026-03-29T09:02:44Z</time></trkpt><trkpt lat="43.22958050685782" lon="12.17192573059386"><ele>566.0</ele><time>2026-03-29T09:02:46Z</time></trkpt><trkpt lat="43.22964608673677" lon="12.171988310148016"><ele>562.0</ele><time>2026-03-29T09:02:47Z</time></trkpt><trkpt lat="43.22971269806442" lon="12.172033518160472"><ele>558.0</ele><time>2026-03-29T09:02:48Z</time></trkpt><trkpt lat="43.2297897494282" lon="12.172048060731955"><ele>559.4</ele><time>2026-03-29T09:02:48.999Z</time></trkpt><trkpt lat="43.229873794110176" lon="12.172064897057666"><ele>560.8</ele><time>2026-03-29T09:02:49.999Z</time></trkpt><trkpt lat="43.229967576132076" lon="12.172083710410318"><ele>562.2</ele><time>2026-03-29T09:02:50.999Z</time></trkpt><trkpt lat="43.23006455718986" lon="12.17210500332089"><ele>563.6</ele><time>2026-03-29T09:02:51.999Z</time></trkpt><trkpt lat="43.23014099329206" lon="12.172130954011271"><ele>565.0</ele><time>2026-03-29T09:02:52.999Z</time></trkpt><trkpt lat="43.230260125294144" lon="12.172094454272546"><ele>565.0</ele><time>2026-03-29T09:02:54.999Z</time></trkpt><trkpt lat="43.230343775869926" lon="12.172041459643555"><ele>565.0</ele><time>2026-03-29T09:02:55.999Z</time></trkpt><trkpt lat="43.23043819082864" lon="12.172011534453542"><ele>565.0</ele><time>2026-03-29T09:02:56.999Z</time></trkpt><trkpt lat="43.23051307241585" lon="12.171980353661743"><ele>565.0</ele><time>2026-03-29T09:02:57.999Z</time></trkpt><trkpt lat="43.23057528628214" lon="12.171930668434353"><ele>565.0</ele><time>2026-03-29T09:02:58.999Z</time></trkpt><trkpt lat="43.2306433608837" lon="12.171857856548623"><ele>565.0</ele><time>2026-03-29T09:02:59.999Z</time></trkpt><trkpt lat="43.230710276662094" lon="12.171788376132975"><ele>563.2</ele><time>2026-03-29T09:03:00.999Z</time></trkpt><trkpt lat="43.230757737140685" lon="12.171727142418428"><ele>561.4</ele><time>2026-03-29T09:03:01.999Z</time></trkpt><trkpt lat="43.23077794367058" lon="12.171573754619425"><ele>559.6</ele><time>2026-03-29T09:03:03.999Z</time></trkpt><trkpt lat="43.23078298211117" lon="12.171477419627767"><ele>557.8</ele><time>2026-03-29T09:03:04.999Z</time></trkpt><trkpt lat="43.23083551701524" lon="12.171347082337347"><ele>556.0</ele><time>2026-03-29T09:03:06.999Z</time></trkpt><trkpt lat="43.23090838947892" lon="12.171251986935257"><ele>556.0</ele><time>2026-03-29T09:03:08.999Z</time></trkpt><trkpt lat="43.23098503465608" lon="12.171093508814739"><ele>556.0</ele><time>2026-03-29T09:03:10.999Z</time></trkpt><trkpt lat="43.23099996905763" lon="12.170967603619795"><ele>556.0</ele><time>2026-03-29T09:03:12.999Z</time></trkpt><trkpt lat="43.23101392859676" lon="12.170847975332258"><ele>556.0</ele><time>2026-03-29T09:03:14.999Z</time></trkpt><trkpt lat="43.231069573324206" lon="12.170796162794193"><ele>556.0</ele><time>2026-03-29T09:03:15.999Z</time></trkpt><trkpt lat="43.23119964952655" lon="12.170762045556552"><ele>556.0</ele><time>2026-03-29T09:03:17.999Z</time></trkpt><trkpt lat="43.2312715222529" lon="12.1707080969651"><ele>556.0</ele><time>2026-03-29T09:03:18.999Z</time></trkpt><trkpt lat="43.231327409916766" lon="12.17061739683514"><ele>556.0</ele><time>2026-03-29T09:03:19.999Z</time></trkpt><trkpt lat="43.23135909680235" lon="12.17051754225798"><ele>556.0</ele><time>2026-03-29T09:03:20.999Z</time></trkpt><trkpt lat="43.231383921272474" lon="12.170430197846661"><ele>556.0</ele><time>2026-03-29T09:03:21.999Z</time></trkpt><trkpt lat="43.23140055534375" lon="12.170317116511463"><ele>556.0</ele><time>2026-03-29T09:03:22.999Z</time></trkpt><trkpt lat="43.231459962249076" lon="12.1702418681572"><ele>557.25</ele><time>2026-03-29T09:03:24.999Z</time></trkpt><trkpt lat="43.23161474608511" lon="12.170238055831947"><ele>558.5</ele><time>2026-03-29T09:03:26.999Z</time></trkpt><trkpt lat="43.23172433924132" lon="12.170207148928736"><ele>559.75</ele><time>2026-03-29T09:03:27.999Z</time></trkpt><trkpt lat="43.23182861965429" lon="12.170162247632025"><ele>561.0</ele><time>2026-03-29T09:03:28.999Z</time></trkpt><trkpt lat="43.23190719871942" lon="12.170080376288691"><ele>561.0</ele><time>2026-03-29T09:03:29.999Z</time></trkpt><trkpt lat="43.231950367410334" lon="12.169995516051808"><ele>561.0</ele><time>2026-03-29T09:03:30.999Z</time></trkpt><trkpt lat="43.232022780267734" lon="12.169940209000522"><ele>561.0</ele><time>2026-03-29T09:03:31.999Z</time></trkpt><trkpt lat="43.23208732238247" lon="12.16991049060291"><ele>561.0</ele><time>2026-03-29T09:03:32.999Z</time></trkpt><trkpt lat="43.23217460395222" lon="12.169853446190187"><ele>561.0</ele><time>2026-03-29T09:03:34.999Z</time></trkpt><trkpt lat="43.232239360321714" lon="12.169777983549212"><ele>561.0</ele><time>2026-03-29T09:03:35.999Z</time></trkpt><trkpt lat="43.232286736136594" lon="12.16967479946362"><ele>562.2</ele><time>2026-03-29T09:03:36.999Z</time></trkpt><trkpt lat="43.23233990065284" lon="12.169520800388387"><ele>563.4000000000001</ele><time>2026-03-29T09:03:37.999Z</time></trkpt><trkpt lat="43.23238878780761" lon="12.169409900486896"><ele>564.6</ele><time>2026-03-29T09:03:38.999Z</time></trkpt><trkpt lat="43.232494507634954" lon="12.16930080706246"><ele>565.8000000000001</ele><time>2026-03-29T09:03:40.999Z</time></trkpt><trkpt lat="43.23256056207653" lon="12.169226287836207"><ele>567.0</ele><time>2026-03-29T09:03:41.999Z</time></trkpt><trkpt lat="43.23265293142266" lon="12.169108295030735"><ele>571.8000000000001</ele><time>2026-03-29T09:03:43.999Z</time></trkpt><trkpt lat="43.23271306723555" lon="12.16902457316035"><ele>576.6</ele><time>2026-03-29T09:03:44.999Z</time></trkpt><trkpt lat="43.2328134778063" lon="12.168913001949994"><ele>581.4000000000001</ele><time>2026-03-29T09:03:45.999Z</time></trkpt><trkpt lat="43.23289742613352" lon="12.168826708347881"><ele>586.2</ele><time>2026-03-29T09:03:46.999Z</time></trkpt><trkpt lat="43.23296265633358" lon="12.168773051531515"><ele>591.0</ele><time>2026-03-29T09:03:47.999Z</time></trkpt><trkpt lat="43.23308428487624" lon="12.168759492505332"><ele>588.5</ele><time>2026-03-29T09:03:49.999Z</time></trkpt><trkpt lat="43.23316010757912" lon="12.168767267559755"><ele>586.0</ele><time>2026-03-29T09:03:51.999Z</time></trkpt><trkpt lat="43.233235028554205" lon="12.168782983899025"><ele>583.5</ele><time>2026-03-29T09:03:53.999Z</time></trkpt><trkpt lat="43.233320689652636" lon="12.168805417146178"><ele>581.0</ele><time>2026-03-29T09:03:54.999Z</time></trkpt><trkpt lat="43.23341760933278" lon="12.168801610709345"><ele>578.5</ele><time>2026-03-29T09:03:55.999Z</time></trkpt><trkpt lat="43.23348698160454" lon="12.168790645366505"><ele>576.0</ele><time>2026-03-29T09:03:56.999Z</time></trkpt><trkpt lat="43.23352061887998" lon="12.168699346494561"><ele>576.0</ele><time>2026-03-29T09:03:58.999Z</time></trkpt><trkpt lat="43.233424795745314" lon="12.168621292418434"><ele>576.0</ele><time>2026-03-29T09:04:00.999Z</time></trkpt><trkpt lat="43.233330933676584" lon="12.168620308788023"><ele>576.0</ele><time>2026-03-29T09:04:03.999Z</time></trkpt><trkpt lat="43.2332486066641" lon="12.168530560631481"><ele>576.0</ele><time>2026-03-29T09:04:05.999Z</time></trkpt><trkpt lat="43.233291357804895" lon="12.168444152795097"><ele>576.0</ele><time>2026-03-29T09:04:07.999Z</time></trkpt><trkpt lat="43.23335402321036" lon="12.168270282895037"><ele>577.0</ele><time>2026-03-29T09:04:10Z</time></trkpt><trkpt lat="43.233375561725076" lon="12.16815456604623"><ele>578.0</ele><time>2026-03-29T09:04:11Z</time></trkpt><trkpt lat="43.2333813154609" lon="12.168011808147032"><ele>579.0</ele><time>2026-03-29T09:04:12Z</time></trkpt><trkpt lat="43.233357308365306" lon="12.16787247777085"><ele>580.0</ele><time>2026-03-29T09:04:13Z</time></trkpt><trkpt lat="43.2333185337359" lon="12.167766136951695"><ele>581.0</ele><time>2026-03-29T09:04:14Z</time></trkpt><trkpt lat="43.23328799387356" lon="12.167677731607792"><ele>581.0</ele><time>2026-03-29T09:04:15Z</time></trkpt><trkpt lat="43.23326770172345" lon="12.167571881164246"><ele>581.0</ele><time>2026-03-29T09:04:16Z</time></trkpt><trkpt lat="43.23328652243687" lon="12.167420999685383"><ele>581.0</ele><time>2026-03-29T09:04:18Z</time></trkpt><trkpt lat="43.23326641948619" lon="12.167311218454971"><ele>581.0</ele><time>2026-03-29T09:04:19Z</time></trkpt><trkpt lat="43.233274306547685" lon="12.167225226740666"><ele>581.0</ele><time>2026-03-29T09:04:21Z</time></trkpt><trkpt lat="43.233295945189575" lon="12.167139270425801"><ele>581.0</ele><time>2026-03-29T09:04:22Z</time></trkpt><trkpt lat="43.233290285505895" lon="12.16696701793059"><ele>581.4</ele><time>2026-03-29T09:04:24Z</time></trkpt><trkpt lat="43.23330000432411" lon="12.166868223414694"><ele>581.8</ele><time>2026-03-29T09:04:25Z</time></trkpt><trkpt lat="43.23330229511681" lon="12.166757852113365"><ele>582.1999999999999</ele><time>2026-03-29T09:04:26Z</time></trkpt><trkpt lat="43.23334973468729" lon="12.166666336557807"><ele>582.6</ele><time>2026-03-29T09:04:29Z</time></trkpt><trkpt lat="43.23344177465301" lon="12.166629077651297"><ele>583.0</ele><time>2026-03-29T09:04:31Z</time></trkpt><trkpt lat="43.23355441255314" lon="12.166686832544288"><ele>583.0</ele><time>2026-03-29T09:04:32Z</time></trkpt><trkpt lat="43.233616770230206" lon="12.16671853290192"><ele>583.0</ele><time>2026-03-29T09:04:33Z</time></trkpt><trkpt lat="43.23374453144078" lon="12.166679575737094"><ele>583.0</ele><time>2026-03-29T09:04:35Z</time></trkpt><trkpt lat="43.23382599921804" lon="12.166616341493835"><ele>583.0</ele><time>2026-03-29T09:04:36Z</time></trkpt><trkpt lat="43.233928398433264" lon="12.166551071607358"><ele>583.0</ele><time>2026-03-29T09:04:37Z</time></trkpt><trkpt lat="43.23403760251269" lon="12.166470555752829"><ele>582.4</ele><time>2026-03-29T09:04:38Z</time></trkpt><trkpt lat="43.23409884897992" lon="12.166429630116458"><ele>581.8</ele><time>2026-03-29T09:04:39Z</time></trkpt><trkpt lat="43.234195648460975" lon="12.166380464532704"><ele>581.2</ele><time>2026-03-29T09:04:40Z</time></trkpt><trkpt lat="43.23428102119102" lon="12.166335131761812"><ele>580.6</ele><time>2026-03-29T09:04:41Z</time></trkpt><trkpt lat="43.23436802231921" lon="12.16633874507792"><ele>580.0</ele><time>2026-03-29T09:04:43Z</time></trkpt><trkpt lat="43.2344464035622" lon="12.166426520991688"><ele>580.0</ele><time>2026-03-29T09:04:45Z</time></trkpt><trkpt lat="43.234512936212376" lon="12.166463713382955"><ele>580.0</ele><time>2026-03-29T09:04:46Z</time></trkpt><trkpt lat="43.23460000791642" lon="12.166491526556491"><ele>580.0</ele><time>2026-03-29T09:04:47Z</time></trkpt><trkpt lat="43.23470011428478" lon="12.166494103106004"><ele>580.0</ele><time>2026-03-29T09:04:48Z</time></trkpt><trkpt lat="43.234779625552044" lon="12.166498392736257"><ele>580.0</ele><time>2026-03-29T09:04:49Z</time></trkpt><trkpt lat="43.23487088357164" lon="12.166514481397437"><ele>580.0</ele><time>2026-03-29T09:04:50Z</time></trkpt><trkpt lat="43.23499079256047" lon="12.166576261479435"><ele>577.3333333333334</ele><time>2026-03-29T09:04:52Z</time></trkpt><trkpt lat="43.235076201846056" lon="12.166646588220589"><ele>574.6666666666667</ele><time>2026-03-29T09:04:53Z</time></trkpt><trkpt lat="43.235149541241704" lon="12.166699610307575"><ele>572.0</ele><time>2026-03-29T09:04:54Z</time></trkpt><trkpt lat="43.23520099727811" lon="12.1667640913048"><ele>569.3333333333334</ele><time>2026-03-29T09:04:55Z</time></trkpt><trkpt lat="43.23527757237398" lon="12.166805731755355"><ele>566.6666666666666</ele><time>2026-03-29T09:04:56Z</time></trkpt><trkpt lat="43.23533211434179" lon="12.16686617429223"><ele>564.0</ele><time>2026-03-29T09:04:57Z</time></trkpt><trkpt lat="43.235393633476555" lon="12.166933848009842"><ele>564.0</ele><time>2026-03-29T09:04:58Z</time></trkpt><trkpt lat="43.23544998774088" lon="12.167012290959857"><ele>564.0</ele><time>2026-03-29T09:04:59Z</time></trkpt><trkpt lat="43.23552650428266" lon="12.167060236201298"><ele>564.0</ele><time>2026-03-29T09:05:00Z</time></trkpt><trkpt lat="43.23561059288678" lon="12.167112251965293"><ele>564.0</ele><time>2026-03-29T09:05:01Z</time></trkpt><trkpt lat="43.235672894637275" lon="12.167230863541805"><ele>564.0</ele><time>2026-03-29T09:05:02Z</time></trkpt><trkpt lat="43.235757326851974" lon="12.167320953152696"><ele>564.6666666666666</ele><time>2026-03-29T09:05:04Z</time></trkpt><trkpt lat="43.23582610418595" lon="12.167417469996746"><ele>565.3333333333334</ele><time>2026-03-29T09:05:06Z</time></trkpt><trkpt lat="43.235924481102515" lon="12.167367065657052"><ele>566.0</ele><time>2026-03-29T09:05:08Z</time></trkpt><trkpt lat="43.23595867791934" lon="12.167294061031068"><ele>566.6666666666667</ele><time>2026-03-29T09:05:08.999Z</time></trkpt><trkpt lat="43.235992050337615" lon="12.167181861595116"><ele>567.3333333333334</ele><time>2026-03-29T09:05:09.999Z</time></trkpt><trkpt lat="43.2360151475446" lon="12.167086094407336"><ele>568.0</ele><time>2026-03-29T09:05:10.999Z</time></trkpt><trkpt lat="43.23603492772138" lon="12.166975392238975"><ele>568.0</ele><time>2026-03-29T09:05:11.999Z</time></trkpt><trkpt lat="43.236092391304545" lon="12.166890839352133"><ele>568.0</ele><time>2026-03-29T09:05:12.999Z</time></trkpt><trkpt lat="43.23611671651526" lon="12.166796787220683"><ele>568.0</ele><time>2026-03-29T09:05:13.999Z</time></trkpt><trkpt lat="43.236151193245036" lon="12.166717844621902"><ele>568.0</ele><time>2026-03-29T09:05:14.999Z</time></trkpt><trkpt lat="43.23621712652791" lon="12.16669138681585"><ele>568.0</ele><time>2026-03-29T09:05:15.999Z</time></trkpt><trkpt lat="43.23628178252403" lon="12.166682414821734"><ele>568.0</ele><time>2026-03-29T09:05:16.999Z</time></trkpt><trkpt lat="43.23635598072446" lon="12.16672361699674"><ele>568.0</ele><time>2026-03-29T09:05:18.999Z</time></trkpt><trkpt lat="43.236442457798304" lon="12.16677623419848"><ele>565.0</ele><time>2026-03-29T09:05:21.999Z</time></trkpt><trkpt lat="43.23658388375546" lon="12.166868047904376"><ele>562.0</ele><time>2026-03-29T09:05:24.999Z</time></trkpt><trkpt lat="43.2366697634107" lon="12.166897682958107"><ele>559.0</ele><time>2026-03-29T09:05:25.999Z</time></trkpt><trkpt lat="43.236750151129606" lon="12.16694743202997"><ele>556.0</ele><time>2026-03-29T09:05:26.999Z</time></trkpt><trkpt lat="43.236805818413465" lon="12.16700583813613"><ele>553.0</ele><time>2026-03-29T09:05:27.999Z</time></trkpt><trkpt lat="43.23685960425531" lon="12.167075475854707"><ele>553.0</ele><time>2026-03-29T09:05:28.999Z</time></trkpt><trkpt lat="43.23691473415803" lon="12.16714448198267"><ele>553.0</ele><time>2026-03-29T09:05:29.999Z</time></trkpt><trkpt lat="43.23697838693392" lon="12.167161056682582"><ele>553.0</ele><time>2026-03-29T09:05:30.999Z</time></trkpt><trkpt lat="43.23704592332748" lon="12.167128281086276"><ele>553.0</ele><time>2026-03-29T09:05:31.999Z</time></trkpt><trkpt lat="43.23713104683387" lon="12.167100160466175"><ele>553.0</ele><time>2026-03-29T09:05:32.999Z</time></trkpt><trkpt lat="43.23721867995634" lon="12.167087632402598"><ele>553.0</ele><time>2026-03-29T09:05:33.999Z</time></trkpt><trkpt lat="43.23727784882325" lon="12.167045529776592"><ele>551.6666666666667</ele><time>2026-03-29T09:05:34.999Z</time></trkpt><trkpt lat="43.23733978673156" lon="12.166998265462544"><ele>550.3333333333334</ele><time>2026-03-29T09:05:35.999Z</time></trkpt><trkpt lat="43.237424640190625" lon="12.166975880441276"><ele>549.0</ele><time>2026-03-29T09:05:36.999Z</time></trkpt><trkpt lat="43.23748924390326" lon="12.16696679038034"><ele>547.6666666666666</ele><time>2026-03-29T09:05:37.999Z</time></trkpt><trkpt lat="43.237553215326685" lon="12.166945896132793"><ele>546.3333333333333</ele><time>2026-03-29T09:05:38.999Z</time></trkpt><trkpt lat="43.237632662452924" lon="12.166931429187223"><ele>545.0</ele><time>2026-03-29T09:05:39.999Z</time></trkpt><trkpt lat="43.23771603433393" lon="12.16693744862788"><ele>545.0</ele><time>2026-03-29T09:05:40.999Z</time></trkpt><trkpt lat="43.23779784276568" lon="12.167010099949444"><ele>545.0</ele><time>2026-03-29T09:05:41.999Z</time></trkpt><trkpt lat="43.23788646792837" lon="12.167053019522127"><ele>545.0</ele><time>2026-03-29T09:05:42.999Z</time></trkpt><trkpt lat="43.237963489176586" lon="12.167067572506623"><ele>545.0</ele><time>2026-03-29T09:05:43.999Z</time></trkpt><trkpt lat="43.23806687666671" lon="12.167091787996899"><ele>545.0</ele><time>2026-03-29T09:05:44.999Z</time></trkpt><trkpt lat="43.238162800987126" lon="12.16707699344723"><ele>541.6</ele><time>2026-03-29T09:05:45.999Z</time></trkpt><trkpt lat="43.23824328629181" lon="12.167041956756817"><ele>538.2</ele><time>2026-03-29T09:05:46.999Z</time></trkpt><trkpt lat="43.238318121210156" lon="12.166999600044443"><ele>534.8</ele><time>2026-03-29T09:05:48.999Z</time></trkpt><trkpt lat="43.23848893407365" lon="12.16704822793788"><ele>531.4</ele><time>2026-03-29T09:05:50.999Z</time></trkpt><trkpt lat="43.23857357579089" lon="12.167125752810756"><ele>528.0</ele><time>2026-03-29T09:05:51.999Z</time></trkpt><trkpt lat="43.23864913265562" lon="12.167141997912331"><ele>528.0</ele><time>2026-03-29T09:05:52.999Z</time></trkpt><trkpt lat="43.23870458826621" lon="12.167056063482798"><ele>528.0</ele><time>2026-03-29T09:05:56.999Z</time></trkpt><trkpt lat="43.238713868949745" lon="12.166965911030681"><ele>528.0</ele><time>2026-03-29T09:05:57.999Z</time></trkpt><trkpt lat="43.23869104281289" lon="12.166863942715812"><ele>528.0</ele><time>2026-03-29T09:05:58.999Z</time></trkpt><trkpt lat="43.23869211857633" lon="12.166738607083728"><ele>528.0</ele><time>2026-03-29T09:05:59.999Z</time></trkpt><trkpt lat="43.2386778342854" lon="12.166607344492698"><ele>528.0</ele><time>2026-03-29T09:06:00.999Z</time></trkpt><trkpt lat="43.238654523404804" lon="12.16646460842942"><ele>529.0</ele><time>2026-03-29T09:06:01.999Z</time></trkpt><trkpt lat="43.238617335059246" lon="12.166297890738896"><ele>530.0</ele><time>2026-03-29T09:06:02.999Z</time></trkpt><trkpt lat="43.238571771944564" lon="12.166115172014798"><ele>531.0</ele><time>2026-03-29T09:06:03.999Z</time></trkpt><trkpt lat="43.23852453322691" lon="12.165925733698693"><ele>532.0</ele><time>2026-03-29T09:06:04.999Z</time></trkpt><trkpt lat="43.238473330619435" lon="12.165736556946554"><ele>532.25</ele><time>2026-03-29T09:06:05.999Z</time></trkpt><trkpt lat="43.238440310696944" lon="12.165515479479335"><ele>532.5</ele><time>2026-03-29T09:06:06.999Z</time></trkpt><trkpt lat="43.238417000811275" lon="12.165328836141683"><ele>532.75</ele><time>2026-03-29T09:06:07.999Z</time></trkpt><trkpt lat="43.23841063449087" lon="12.165187745706685"><ele>533.0</ele><time>2026-03-29T09:06:08.999Z</time></trkpt><trkpt lat="43.238395811927184" lon="12.165067735495782"><ele>533.0</ele><time>2026-03-29T09:06:09.999Z</time></trkpt><trkpt lat="43.23837540950178" lon="12.164937121394482"><ele>533.0</ele><time>2026-03-29T09:06:10.999Z</time></trkpt><trkpt lat="43.23834481452142" lon="12.164818743263817"><ele>533.0</ele><time>2026-03-29T09:06:11.999Z</time></trkpt><trkpt lat="43.238306868654774" lon="12.164703564235014"><ele>533.0</ele><time>2026-03-29T09:06:12.999Z</time></trkpt><trkpt lat="43.23825296714079" lon="12.164568121345148"><ele>533.0</ele><time>2026-03-29T09:06:13.999Z</time></trkpt><trkpt lat="43.238224900624765" lon="12.164438083747621"><ele>532.8</ele><time>2026-03-29T09:06:15Z</time></trkpt><trkpt lat="43.23819464231544" lon="12.164272262105754"><ele>532.5999999999999</ele><time>2026-03-29T09:06:16Z</time></trkpt><trkpt lat="43.2382155594159" lon="12.164133683315582"><ele>532.4000000000001</ele><time>2026-03-29T09:06:17Z</time></trkpt><trkpt lat="43.23828258265058" lon="12.16401759333211"><ele>532.2</ele><time>2026-03-29T09:06:18Z</time></trkpt><trkpt lat="43.23828734848448" lon="12.163898949202538"><ele>532.0</ele><time>2026-03-29T09:06:19Z</time></trkpt><trkpt lat="43.238262250931975" lon="12.1637798788632"><ele>531.6</ele><time>2026-03-29T09:06:20Z</time></trkpt><trkpt lat="43.238228983789824" lon="12.163641244246117"><ele>531.2</ele><time>2026-03-29T09:06:21Z</time></trkpt><trkpt lat="43.238199769482534" lon="12.16348794205521"><ele>530.8</ele><time>2026-03-29T09:06:22Z</time></trkpt><trkpt lat="43.23815140105063" lon="12.16336261244204"><ele>530.4</ele><time>2026-03-29T09:06:23Z</time></trkpt><trkpt lat="43.238088282848786" lon="12.163278325674382"><ele>530.0</ele><time>2026-03-29T09:06:24Z</time></trkpt><trkpt lat="43.23800672559989" lon="12.16319658142931"><ele>533.6</ele><time>2026-03-29T09:06:25Z</time></trkpt><trkpt lat="43.23790385745545" lon="12.163151869761537"><ele>537.2</ele><time>2026-03-29T09:06:26Z</time></trkpt><trkpt lat="43.23779804122171" lon="12.1631101103922"><ele>540.8</ele><time>2026-03-29T09:06:27Z</time></trkpt><trkpt lat="43.23770923881184" lon="12.163058791018669"><ele>544.4</ele><time>2026-03-29T09:06:28Z</time></trkpt><trkpt lat="43.237635915193586" lon="12.162992009656186"><ele>548.0</ele><time>2026-03-29T09:06:29Z</time></trkpt><trkpt lat="43.23758582467008" lon="12.162883358825336"><ele>548.0</ele><time>2026-03-29T09:06:30Z</time></trkpt><trkpt lat="43.23759048717356" lon="12.162760640497451"><ele>548.0</ele><time>2026-03-29T09:06:31Z</time></trkpt><trkpt lat="43.237558720607936" lon="12.162656265027277"><ele>548.0</ele><time>2026-03-29T09:06:32Z</time></trkpt><trkpt lat="43.23748872953783" lon="12.162564873650227"><ele>548.0</ele><time>2026-03-29T09:06:33Z</time></trkpt><trkpt lat="43.23739761492248" lon="12.162466296415158"><ele>548.0</ele><time>2026-03-29T09:06:34Z</time></trkpt><trkpt lat="43.23731098054498" lon="12.162360243194662"><ele>551.6666666666666</ele><time>2026-03-29T09:06:35Z</time></trkpt><trkpt lat="43.23722023232329" lon="12.162299486193376"><ele>555.3333333333333</ele><time>2026-03-29T09:06:36Z</time></trkpt><trkpt lat="43.237126944826784" lon="12.162323786536053"><ele>559.0</ele><time>2026-03-29T09:06:37Z</time></trkpt><trkpt lat="43.237058125679695" lon="12.162334826069252"><ele>562.6666666666666</ele><time>2026-03-29T09:06:38Z</time></trkpt><trkpt lat="43.236996241474216" lon="12.162299904336002"><ele>566.3333333333334</ele><time>2026-03-29T09:06:39Z</time></trkpt><trkpt lat="43.23697636258431" lon="12.162201773017129"><ele>570.0</ele><time>2026-03-29T09:06:40Z</time></trkpt><trkpt lat="43.236994172508005" lon="12.162067128083809"><ele>570.0</ele><time>2026-03-29T09:06:41Z</time></trkpt><trkpt lat="43.236967121177756" lon="12.161945196390139"><ele>570.0</ele><time>2026-03-29T09:06:42Z</time></trkpt><trkpt lat="43.23693611107376" lon="12.161820181804707"><ele>570.0</ele><time>2026-03-29T09:06:43Z</time></trkpt><trkpt lat="43.23689662282698" lon="12.161711313643526"><ele>570.0</ele><time>2026-03-29T09:06:44Z</time></trkpt><trkpt lat="43.23684503177491" lon="12.161641184534137"><ele>570.0</ele><time>2026-03-29T09:06:45Z</time></trkpt><trkpt lat="43.23677595099577" lon="12.161593350654165"><ele>570.0</ele><time>2026-03-29T09:06:46Z</time></trkpt><trkpt lat="43.23668639114865" lon="12.161550374004511"><ele>570.0</ele><time>2026-03-29T09:06:47Z</time></trkpt><trkpt lat="43.236588943225065" lon="12.161535296247697"><ele>570.0</ele><time>2026-03-29T09:06:48Z</time></trkpt><trkpt lat="43.236502010994286" lon="12.16151984258255"><ele>570.0</ele><time>2026-03-29T09:06:49Z</time></trkpt><trkpt lat="43.23643688302693" lon="12.16150643357421"><ele>570.0</ele><time>2026-03-29T09:06:50Z</time></trkpt><trkpt lat="43.23635863816324" lon="12.161409102991543"><ele>570.0</ele><time>2026-03-29T09:06:52Z</time></trkpt><trkpt lat="43.2363670776814" lon="12.161304394782732"><ele>570.0</ele><time>2026-03-29T09:06:53Z</time></trkpt><trkpt lat="43.23640037829117" lon="12.16117266493606"><ele>569.0</ele><time>2026-03-29T09:06:54Z</time></trkpt><trkpt lat="43.236464550174105" lon="12.161041367084184"><ele>568.0</ele><time>2026-03-29T09:06:55Z</time></trkpt><trkpt lat="43.2365218404061" lon="12.160904778581605"><ele>567.0</ele><time>2026-03-29T09:06:56Z</time></trkpt><trkpt lat="43.23651751706072" lon="12.160761522544009"><ele>566.0</ele><time>2026-03-29T09:06:57Z</time></trkpt><trkpt lat="43.23650282041627" lon="12.160608547457274"><ele>565.0</ele><time>2026-03-29T09:06:58Z</time></trkpt><trkpt lat="43.236471241858816" lon="12.16042536011982"><ele>566.2</ele><time>2026-03-29T09:06:59Z</time></trkpt><trkpt lat="43.23643109884489" lon="12.160242202300283"><ele>567.4</ele><time>2026-03-29T09:07:00Z</time></trkpt><trkpt lat="43.23640735533804" lon="12.16011187721475"><ele>568.6</ele><time>2026-03-29T09:07:01Z</time></trkpt><trkpt lat="43.236380382112365" lon="12.159993744728823"><ele>569.8</ele><time>2026-03-29T09:07:02Z</time></trkpt><trkpt lat="43.23635203718689" lon="12.159896823104571"><ele>571.0</ele><time>2026-03-29T09:07:03Z</time></trkpt><trkpt lat="43.236308177114815" lon="12.159823343145627"><ele>571.0</ele><time>2026-03-29T09:07:04Z</time></trkpt><trkpt lat="43.23622771298385" lon="12.1597570032985"><ele>571.0</ele><time>2026-03-29T09:07:06Z</time></trkpt><trkpt lat="43.23622593769938" lon="12.159653876816"><ele>571.0</ele><time>2026-03-29T09:07:08Z</time></trkpt><trkpt lat="43.236138851170736" lon="12.159577008545106"><ele>571.0</ele><time>2026-03-29T09:07:10Z</time></trkpt><trkpt lat="43.23608086207477" lon="12.159627350719658"><ele>571.0</ele><time>2026-03-29T09:07:11Z</time></trkpt><trkpt lat="43.236169950899054" lon="12.15925881430774"><ele>571.0</ele><time>2026-03-29T09:07:13Z</time></trkpt><trkpt lat="43.23620951957762" lon="12.159191134163573"><ele>571.0</ele><time>2026-03-29T09:07:14Z</time></trkpt><trkpt lat="43.23626492151807" lon="12.159108047563038"><ele>571.0</ele><time>2026-03-29T09:07:15Z</time></trkpt><trkpt lat="43.23633843498488" lon="12.15903564940969"><ele>571.0</ele><time>2026-03-29T09:07:16Z</time></trkpt><trkpt lat="43.23638269187" lon="12.1589704511346"><ele>571.0</ele><time>2026-03-29T09:07:17Z</time></trkpt><trkpt lat="43.236421361134525" lon="12.15888426704365"><ele>571.0</ele><time>2026-03-29T09:07:18Z</time></trkpt><trkpt lat="43.2364575097234" lon="12.158812883488059"><ele>571.0</ele><time>2026-03-29T09:07:19Z</time></trkpt><trkpt lat="43.23653184928464" lon="12.158799363545116"><ele>565.0</ele><time>2026-03-29T09:07:20.999Z</time></trkpt><trkpt lat="43.23666033168668" lon="12.158848411353144"><ele>559.0</ele><time>2026-03-29T09:07:22.999Z</time></trkpt><trkpt lat="43.23674657588302" lon="12.158849991260807"><ele>553.0</ele><time>2026-03-29T09:07:23.999Z</time></trkpt><trkpt lat="43.23681631673402" lon="12.158834521077974"><ele>547.0</ele><time>2026-03-29T09:07:24.999Z</time></trkpt><trkpt lat="43.23692921039904" lon="12.158811390867317"><ele>541.0</ele><time>2026-03-29T09:07:26.999Z</time></trkpt><trkpt lat="43.23700172534414" lon="12.158798560348837"><ele>541.0</ele><time>2026-03-29T09:07:27.999Z</time></trkpt><trkpt lat="43.23712337119054" lon="12.158722391011104"><ele>541.0</ele><time>2026-03-29T09:07:29.999Z</time></trkpt><trkpt lat="43.237180429919505" lon="12.158670524145755"><ele>541.0</ele><time>2026-03-29T09:07:30.999Z</time></trkpt><trkpt lat="43.237254287955906" lon="12.158590759938246"><ele>541.0</ele><time>2026-03-29T09:07:32.999Z</time></trkpt><trkpt lat="43.23730718179791" lon="12.158447079093682"><ele>541.0</ele><time>2026-03-29T09:07:34.999Z</time></trkpt><trkpt lat="43.23731793473438" lon="12.158341974835094"><ele>537.6</ele><time>2026-03-29T09:07:35.999Z</time></trkpt><trkpt lat="43.23738487171163" lon="12.158265812384188"><ele>534.2</ele><time>2026-03-29T09:07:37.999Z</time></trkpt><trkpt lat="43.23749192119342" lon="12.158190706104108"><ele>530.8</ele><time>2026-03-29T09:07:39.999Z</time></trkpt><trkpt lat="43.23750287532542" lon="12.158037638634498"><ele>527.4</ele><time>2026-03-29T09:07:41.999Z</time></trkpt><trkpt lat="43.23749742544192" lon="12.157938670778865"><ele>524.0</ele><time>2026-03-29T09:07:42.999Z</time></trkpt><trkpt lat="43.237502099234995" lon="12.157818639986163"><ele>522.4</ele><time>2026-03-29T09:07:43.999Z</time></trkpt><trkpt lat="43.23750263210575" lon="12.157719606981198"><ele>520.8</ele><time>2026-03-29T09:07:44.999Z</time></trkpt><trkpt lat="43.23746965359825" lon="12.157553466278507"><ele>519.2</ele><time>2026-03-29T09:07:46.999Z</time></trkpt><trkpt lat="43.237524012923146" lon="12.157382618131573"><ele>517.6</ele><time>2026-03-29T09:07:48.999Z</time></trkpt><trkpt lat="43.23754831589113" lon="12.157278093028197"><ele>516.0</ele><time>2026-03-29T09:07:49.999Z</time></trkpt><trkpt lat="43.23754324308543" lon="12.157130411423195"><ele>513.6666666666666</ele><time>2026-03-29T09:07:51.999Z</time></trkpt><trkpt lat="43.23751768342868" lon="12.157040598596955"><ele>511.33333333333337</ele><time>2026-03-29T09:07:52.999Z</time></trkpt><trkpt lat="43.237492711928155" lon="12.156942324717624"><ele>509.0</ele><time>2026-03-29T09:07:53.999Z</time></trkpt><trkpt lat="43.23747792434574" lon="12.156856440506486"><ele>506.6666666666667</ele><time>2026-03-29T09:07:54.999Z</time></trkpt><trkpt lat="43.23742606786559" lon="12.156725381471857"><ele>504.33333333333337</ele><time>2026-03-29T09:07:56.999Z</time></trkpt><trkpt lat="43.237357597190176" lon="12.156677707560007"><ele>502.0</ele><time>2026-03-29T09:07:58.999Z</time></trkpt><trkpt lat="43.237303614098295" lon="12.156566093810403"><ele>498.6</ele><time>2026-03-29T09:08:00.999Z</time></trkpt><trkpt lat="43.237395428523364" lon="12.156449117769435"><ele>495.20000000000005</ele><time>2026-03-29T09:08:02.999Z</time></trkpt><trkpt lat="43.23745083759544" lon="12.15636878691836"><ele>491.8</ele><time>2026-03-29T09:08:03.999Z</time></trkpt><trkpt lat="43.237560894352505" lon="12.156255815181186"><ele>488.4</ele><time>2026-03-29T09:08:05.999Z</time></trkpt><trkpt lat="43.237634859099586" lon="12.156185291840917"><ele>485.0</ele><time>2026-03-29T09:08:06.999Z</time></trkpt><trkpt lat="43.237687511658955" lon="12.156129629088422"><ele>484.99999999999994</ele><time>2026-03-29T09:08:07.999Z</time></trkpt><trkpt lat="43.23774740090961" lon="12.156030257957143"><ele>485.0</ele><time>2026-03-29T09:08:09.999Z</time></trkpt><trkpt lat="43.237791222014955" lon="12.155950418879746"><ele>485.0</ele><time>2026-03-29T09:08:11.999Z</time></trkpt><trkpt lat="43.23777235652705" lon="12.155861704463634"><ele>485.0</ele><time>2026-03-29T09:08:16.999Z</time></trkpt><trkpt lat="43.23768427767281" lon="12.155849889928778"><ele>484.99999999999994</ele><time>2026-03-29T09:08:17.999Z</time></trkpt><trkpt lat="43.23757960897917" lon="12.155824248480851"><ele>485.0</ele><time>2026-03-29T09:08:18.999Z</time></trkpt><trkpt lat="43.23750773761001" lon="12.1557793329099"><ele>485.0</ele><time>2026-03-29T09:08:19.999Z</time></trkpt><trkpt lat="43.23744304706176" lon="12.155743929180678"><ele>485.0</ele><time>2026-03-29T09:08:21Z</time></trkpt><trkpt lat="43.2373384554462" lon="12.15570457698132"><ele>485.0</ele><time>2026-03-29T09:08:22Z</time></trkpt><trkpt lat="43.23723101775297" lon="12.155676532520323"><ele>485.0</ele><time>2026-03-29T09:08:23Z</time></trkpt><trkpt lat="43.2371491491388" lon="12.155667557259795"><ele>485.0</ele><time>2026-03-29T09:08:24Z</time></trkpt><trkpt lat="43.23706731994078" lon="12.155662627283585"><ele>483.99999999999994</ele><time>2026-03-29T09:08:25Z</time></trkpt><trkpt lat="43.23700694014684" lon="12.155604007682856"><ele>483.0</ele><time>2026-03-29T09:08:26Z</time></trkpt><trkpt lat="43.23693251606833" lon="12.155518297276682"><ele>482.0</ele><time>2026-03-29T09:08:27Z</time></trkpt><trkpt lat="43.23687140005353" lon="12.155463488841038"><ele>481.0</ele><time>2026-03-29T09:08:28Z</time></trkpt><trkpt lat="43.23675716006459" lon="12.155475181957197"><ele>479.99999999999994</ele><time>2026-03-29T09:08:30Z</time></trkpt><trkpt lat="43.23669009284794" lon="12.155505000946693"><ele>479.0</ele><time>2026-03-29T09:08:31Z</time></trkpt><trkpt lat="43.23660448475507" lon="12.15555885111795"><ele>478.99999999999994</ele><time>2026-03-29T09:08:32Z</time></trkpt><trkpt lat="43.23653393982667" lon="12.155573639561615"><ele>479.0</ele><time>2026-03-29T09:08:33Z</time></trkpt><trkpt lat="43.23646972037896" lon="12.155559556708608"><ele>479.0</ele><time>2026-03-29T09:08:34Z</time></trkpt><trkpt lat="43.236393088960966" lon="12.155514616859653"><ele>479.0</ele><time>2026-03-29T09:08:35Z</time></trkpt><trkpt lat="43.236293068750754" lon="12.15541114925826"><ele>478.99999999999994</ele><time>2026-03-29T09:08:36Z</time></trkpt><trkpt lat="43.23620884169009" lon="12.155350629407641"><ele>479.0</ele><time>2026-03-29T09:08:37Z</time></trkpt><trkpt lat="43.23609960061005" lon="12.15535019562018"><ele>483.16666666666663</ele><time>2026-03-29T09:08:39Z</time></trkpt><trkpt lat="43.236058055232085" lon="12.155417555306366"><ele>487.3333333333333</ele><time>2026-03-29T09:08:40Z</time></trkpt><trkpt lat="43.235992491111446" lon="12.155450800629836"><ele>491.5</ele><time>2026-03-29T09:08:41Z</time></trkpt><trkpt lat="43.235914405104204" lon="12.155391454650129"><ele>495.66666666666663</ele><time>2026-03-29T09:08:43Z</time></trkpt><trkpt lat="43.23589706284651" lon="12.15527199313995"><ele>499.8333333333333</ele><time>2026-03-29T09:08:45Z</time></trkpt><trkpt lat="43.23587048085407" lon="12.155188186030175"><ele>504.0</ele><time>2026-03-29T09:08:47Z</time></trkpt><trkpt lat="43.23580163260485" lon="12.15522309255199"><ele>504.0</ele><time>2026-03-29T09:08:49Z</time></trkpt><trkpt lat="43.23574696379981" lon="12.155335211601919"><ele>504.0</ele><time>2026-03-29T09:08:51Z</time></trkpt><trkpt lat="43.23570070510567" lon="12.155414583558953"><ele>504.0</ele><time>2026-03-29T09:08:52Z</time></trkpt><trkpt lat="43.23562935265269" lon="12.155462813345608"><ele>504.0</ele><time>2026-03-29T09:08:53Z</time></trkpt><trkpt lat="43.23556144405165" lon="12.155513819289189"><ele>504.0</ele><time>2026-03-29T09:08:54Z</time></trkpt><trkpt lat="43.235502115708385" lon="12.155640485202964"><ele>504.0</ele><time>2026-03-29T09:08:56Z</time></trkpt><trkpt lat="43.23541763587632" lon="12.155733050646294"><ele>511.6</ele><time>2026-03-29T09:08:58Z</time></trkpt><trkpt lat="43.23535847367156" lon="12.155766370463763"><ele>519.2</ele><time>2026-03-29T09:08:59Z</time></trkpt><trkpt lat="43.235290560058125" lon="12.155823061174416"><ele>526.8000000000001</ele><time>2026-03-29T09:09:00Z</time></trkpt><trkpt lat="43.23520282961983" lon="12.155877985702702"><ele>534.4</ele><time>2026-03-29T09:09:02Z</time></trkpt><trkpt lat="43.23512717398959" lon="12.155792200081818"><ele>542.0</ele><time>2026-03-29T09:09:04Z</time></trkpt><trkpt lat="43.2350978427949" lon="12.155609856469004"><ele>544.0</ele><time>2026-03-29T09:09:06Z</time></trkpt><trkpt lat="43.23507927267756" lon="12.155520276360228"><ele>546.0</ele><time>2026-03-29T09:09:07Z</time></trkpt><trkpt lat="43.23510453482385" lon="12.15538118866005"><ele>548.0</ele><time>2026-03-29T09:09:09Z</time></trkpt><trkpt lat="43.235134576233904" lon="12.155251679001573"><ele>550.0</ele><time>2026-03-29T09:09:11Z</time></trkpt><trkpt lat="43.23513959895016" lon="12.155157779470345"><ele>552.0</ele><time>2026-03-29T09:09:12Z</time></trkpt><trkpt lat="43.23515040936836" lon="12.155067457218827"><ele>554.0</ele><time>2026-03-29T09:09:13Z</time></trkpt><trkpt lat="43.23514685336367" lon="12.15497823113107"><ele>554.1666666666666</ele><time>2026-03-29T09:09:14Z</time></trkpt><trkpt lat="43.23515474880259" lon="12.154858556770431"><ele>554.3333333333333</ele><time>2026-03-29T09:09:15Z</time></trkpt><trkpt lat="43.235140961825344" lon="12.154758234121754"><ele>554.5</ele><time>2026-03-29T09:09:16Z</time></trkpt><trkpt lat="43.23510665820216" lon="12.154684762103514"><ele>554.6666666666666</ele><time>2026-03-29T09:09:17Z</time></trkpt><trkpt lat="43.23500480470726" lon="12.154589756374856"><ele>554.8333333333334</ele><time>2026-03-29T09:09:19Z</time></trkpt><trkpt lat="43.23494645926066" lon="12.154551338487725"><ele>555.0</ele><time>2026-03-29T09:09:20Z</time></trkpt><trkpt lat="43.23491467072713" lon="12.154408451937112"><ele>555.0</ele><time>2026-03-29T09:09:22Z</time></trkpt><trkpt lat="43.23488887254034" lon="12.154300202827262"><ele>555.0</ele><time>2026-03-29T09:09:24Z</time></trkpt><trkpt lat="43.234774210728354" lon="12.1542788067934"><ele>555.0</ele><time>2026-03-29T09:09:28Z</time></trkpt><trkpt lat="43.234710919236434" lon="12.154260788088274"><ele>555.0</ele><time>2026-03-29T09:09:29Z</time></trkpt><trkpt lat="43.23463434465458" lon="12.154262145625964"><ele>555.0</ele><time>2026-03-29T09:09:30Z</time></trkpt><trkpt lat="43.2345421693307" lon="12.154290623423233"><ele>555.0</ele><time>2026-03-29T09:09:31Z</time></trkpt><trkpt lat="43.23444271423947" lon="12.15430357004951"><ele>560.6</ele><time>2026-03-29T09:09:32Z</time></trkpt><trkpt lat="43.23436692523871" lon="12.15430352465332"><ele>566.2</ele><time>2026-03-29T09:09:33Z</time></trkpt><trkpt lat="43.23428199830554" lon="12.15417723144594"><ele>571.8</ele><time>2026-03-29T09:09:35Z</time></trkpt><trkpt lat="43.23423230343684" lon="12.154105525233271"><ele>577.4</ele><time>2026-03-29T09:09:36Z</time></trkpt><trkpt lat="43.234160526998856" lon="12.15408514838889"><ele>583.0</ele><time>2026-03-29T09:09:37.999Z</time></trkpt><trkpt lat="43.23408057252753" lon="12.154178467122897"><ele>583.0</ele><time>2026-03-29T09:09:39.999Z</time></trkpt><trkpt lat="43.234029715760826" lon="12.154258630744993"><ele>583.0</ele><time>2026-03-29T09:09:40.999Z</time></trkpt><trkpt lat="43.23399143664243" lon="12.154349227222582"><ele>583.0</ele><time>2026-03-29T09:09:41.999Z</time></trkpt><trkpt lat="43.23400704819119" lon="12.154513750844913"><ele>583.0</ele><time>2026-03-29T09:09:43.999Z</time></trkpt><trkpt lat="43.2340617961642" lon="12.154606765969259"><ele>583.0</ele><time>2026-03-29T09:09:44.999Z</time></trkpt><trkpt lat="43.23411700878259" lon="12.154688044348797"><ele>583.0</ele><time>2026-03-29T09:09:45.999Z</time></trkpt><trkpt lat="43.23412192485722" lon="12.154781120048783"><ele>584.0</ele><time>2026-03-29T09:09:47.999Z</time></trkpt><trkpt lat="43.23415343707447" lon="12.154945243712081"><ele>585.0</ele><time>2026-03-29T09:09:50.999Z</time></trkpt><trkpt lat="43.23413637104834" lon="12.15506865725325"><ele>586.0</ele><time>2026-03-29T09:09:52.999Z</time></trkpt><trkpt lat="43.23410843571226" lon="12.155174836306237"><ele>587.0</ele><time>2026-03-29T09:09:53.999Z</time></trkpt><trkpt lat="43.23405420550235" lon="12.15525610980272"><ele>588.0</ele><time>2026-03-29T09:09:54.999Z</time></trkpt><trkpt lat="43.23397012723164" lon="12.155306341402898"><ele>592.5</ele><time>2026-03-29T09:09:55.999Z</time></trkpt><trkpt lat="43.23390010864024" lon="12.155336106066885"><ele>597.0</ele><time>2026-03-29T09:09:56.999Z</time></trkpt><trkpt lat="43.23380914335618" lon="12.155347034429939"><ele>601.5</ele><time>2026-03-29T09:09:57.999Z</time></trkpt><trkpt lat="43.233719505593626" lon="12.155370114827903"><ele>606.0</ele><time>2026-03-29T09:09:58.999Z</time></trkpt><trkpt lat="43.23363328007551" lon="12.15537004409245"><ele>610.5</ele><time>2026-03-29T09:09:59.999Z</time></trkpt><trkpt lat="43.23356797456698" lon="12.155348266233885"><ele>615.0</ele><time>2026-03-29T09:10:00.999Z</time></trkpt><trkpt lat="43.233494698431926" lon="12.155217087170556"><ele>615.0</ele><time>2026-03-29T09:10:02.999Z</time></trkpt><trkpt lat="43.23346942735275" lon="12.155124871134648"><ele>615.0</ele><time>2026-03-29T09:10:03.999Z</time></trkpt><trkpt lat="43.233427451664" lon="12.155046837362285"><ele>615.0</ele><time>2026-03-29T09:10:04.999Z</time></trkpt><trkpt lat="43.233332827815055" lon="12.155090912140198"><ele>615.0</ele><time>2026-03-29T09:10:06.999Z</time></trkpt><trkpt lat="43.2332755527431" lon="12.155138045204723"><ele>615.0</ele><time>2026-03-29T09:10:08.999Z</time></trkpt><trkpt lat="43.23321316003996" lon="12.155124500923318"><ele>615.0</ele><time>2026-03-29T09:10:09.999Z</time></trkpt><trkpt lat="43.23313953051349" lon="12.155086559341312"><ele>619.2</ele><time>2026-03-29T09:10:10.999Z</time></trkpt><trkpt lat="43.23303651609199" lon="12.155059389413937"><ele>623.4</ele><time>2026-03-29T09:10:11.999Z</time></trkpt><trkpt lat="43.232929910417" lon="12.15503214330927"><ele>627.6</ele><time>2026-03-29T09:10:12.999Z</time></trkpt><trkpt lat="43.23282078432495" lon="12.155022393602598"><ele>631.8</ele><time>2026-03-29T09:10:13.999Z</time></trkpt><trkpt lat="43.232748156734615" lon="12.155002306451374"><ele>636.0</ele><time>2026-03-29T09:10:14.999Z</time></trkpt><trkpt lat="43.23263715677114" lon="12.154994317370537"><ele>636.0</ele><time>2026-03-29T09:10:15.999Z</time></trkpt><trkpt lat="43.23253404596005" lon="12.154974324574576"><ele>636.0</ele><time>2026-03-29T09:10:16.999Z</time></trkpt><trkpt lat="43.23244540994168" lon="12.1549790102829"><ele>636.0</ele><time>2026-03-29T09:10:17.999Z</time></trkpt><trkpt lat="43.232353103735484" lon="12.155005801246265"><ele>636.0</ele><time>2026-03-29T09:10:18.999Z</time></trkpt><trkpt lat="43.23227176819655" lon="12.155033434727416"><ele>636.0</ele><time>2026-03-29T09:10:19.999Z</time></trkpt><trkpt lat="43.232219418831356" lon="12.15517938890847"><ele>637.0</ele><time>2026-03-29T09:10:21.999Z</time></trkpt><trkpt lat="43.232209823058525" lon="12.155340576934602"><ele>638.0</ele><time>2026-03-29T09:10:23.999Z</time></trkpt><trkpt lat="43.232171862126364" lon="12.155443355252045"><ele>639.0</ele><time>2026-03-29T09:10:24.999Z</time></trkpt><trkpt lat="43.232149343971955" lon="12.155569329421104"><ele>640.0</ele><time>2026-03-29T09:10:25.999Z</time></trkpt><trkpt lat="43.23215155812151" lon="12.155686279203994"><ele>641.0</ele><time>2026-03-29T09:10:27Z</time></trkpt><trkpt lat="43.23212220161653" lon="12.15581744513722"><ele>641.0</ele><time>2026-03-29T09:10:28Z</time></trkpt><trkpt lat="43.2320351691341" lon="12.155908660546928"><ele>641.0</ele><time>2026-03-29T09:10:30Z</time></trkpt><trkpt lat="43.23195256778307" lon="12.155888622169892"><ele>641.0</ele><time>2026-03-29T09:10:31Z</time></trkpt><trkpt lat="43.2318302464851" lon="12.155886104988017"><ele>641.0</ele><time>2026-03-29T09:10:32Z</time></trkpt><trkpt lat="43.231725227186466" lon="12.155851343945104"><ele>641.0</ele><time>2026-03-29T09:10:33Z</time></trkpt><trkpt lat="43.231597133145414" lon="12.155797866635213"><ele>643.0</ele><time>2026-03-29T09:10:34Z</time></trkpt><trkpt lat="43.23146886517907" lon="12.155732269055173"><ele>645.0</ele><time>2026-03-29T09:10:35Z</time></trkpt><trkpt lat="43.23135660897244" lon="12.155666604365965"><ele>647.0</ele><time>2026-03-29T09:10:36Z</time></trkpt><trkpt lat="43.23125706640046" lon="12.155627738419836"><ele>649.0</ele><time>2026-03-29T09:10:37Z</time></trkpt><trkpt lat="43.231178520565535" lon="12.15559565319281"><ele>651.0</ele><time>2026-03-29T09:10:38Z</time></trkpt><trkpt lat="43.23107624880914" lon="12.155637530421625"><ele>651.0</ele><time>2026-03-29T09:10:40Z</time></trkpt><trkpt lat="43.23105701494071" lon="12.155729712218026"><ele>651.0</ele><time>2026-03-29T09:10:41Z</time></trkpt><trkpt lat="43.23105804021194" lon="12.155875420369423"><ele>651.0</ele><time>2026-03-29T09:10:42Z</time></trkpt><trkpt lat="43.231074334249165" lon="12.156029056974559"><ele>651.0</ele><time>2026-03-29T09:10:43Z</time></trkpt><trkpt lat="43.23109398026875" lon="12.156180883120415"><ele>651.0</ele><time>2026-03-29T09:10:44Z</time></trkpt><trkpt lat="43.2310951447069" lon="12.15637612574678"><ele>650.5999999999999</ele><time>2026-03-29T09:10:45Z</time></trkpt><trkpt lat="43.231094342502075" lon="12.156537243425813"><ele>650.2</ele><time>2026-03-29T09:10:46Z</time></trkpt><trkpt lat="43.23108124027443" lon="12.156685891574181"><ele>649.8</ele><time>2026-03-29T09:10:47Z</time></trkpt><trkpt lat="43.23104434904765" lon="12.156828325168416"><ele>649.4000000000001</ele><time>2026-03-29T09:10:48Z</time></trkpt><trkpt lat="43.231011679654976" lon="12.15696940240603"><ele>649.0</ele><time>2026-03-29T09:10:49Z</time></trkpt><trkpt lat="43.2309641158447" lon="12.157062379161976"><ele>649.0</ele><time>2026-03-29T09:10:50Z</time></trkpt><trkpt lat="43.23091280848135" lon="12.157117066225101"><ele>649.0</ele><time>2026-03-29T09:10:51Z</time></trkpt><trkpt lat="43.230819145390704" lon="12.15717915878049"><ele>649.0</ele><time>2026-03-29T09:10:52Z</time></trkpt><trkpt lat="43.230702049433575" lon="12.157242611135652"><ele>649.0</ele><time>2026-03-29T09:10:53Z</time></trkpt><trkpt lat="43.230563711365065" lon="12.157342702481603"><ele>648.0</ele><time>2026-03-29T09:10:54Z</time></trkpt><trkpt lat="43.2304300416232" lon="12.157438780759898"><ele>647.0</ele><time>2026-03-29T09:10:55Z</time></trkpt><trkpt lat="43.23031910236877" lon="12.157544104727712"><ele>646.0</ele><time>2026-03-29T09:10:56Z</time></trkpt><trkpt lat="43.23022237978254" lon="12.157633112473167"><ele>645.0</ele><time>2026-03-29T09:10:57Z</time></trkpt><trkpt lat="43.23014456292927" lon="12.157743579945482"><ele>645.0</ele><time>2026-03-29T09:10:58Z</time></trkpt><trkpt lat="43.23006252552469" lon="12.157796934602679"><ele>645.0</ele><time>2026-03-29T09:10:59Z</time></trkpt><trkpt lat="43.2299956806386" lon="12.157843106125288"><ele>645.0</ele><time>2026-03-29T09:11:00Z</time></trkpt><trkpt lat="43.22995096340254" lon="12.157761509604477"><ele>645.0</ele><time>2026-03-29T09:11:16Z</time></trkpt><trkpt lat="43.229957665652925" lon="12.157630644105664"><ele>645.0</ele><time>2026-03-29T09:11:19Z</time></trkpt><trkpt lat="43.22992805659302" lon="12.157475042682213"><ele>647.4</ele><time>2026-03-29T09:11:21Z</time></trkpt><trkpt lat="43.22989437842548" lon="12.157344174304004"><ele>649.8</ele><time>2026-03-29T09:11:23Z</time></trkpt><trkpt lat="43.22984525822565" lon="12.15715566390813"><ele>652.2</ele><time>2026-03-29T09:11:25Z</time></trkpt><trkpt lat="43.22982759038009" lon="12.157064091097803"><ele>654.6</ele><time>2026-03-29T09:11:26Z</time></trkpt><trkpt lat="43.22982101632702" lon="12.156969389337268"><ele>657.0</ele><time>2026-03-29T09:11:27Z</time></trkpt><trkpt lat="43.22983188071462" lon="12.156819000328783"><ele>657.0</ele><time>2026-03-29T09:11:28Z</time></trkpt><trkpt lat="43.22986612016159" lon="12.15667001856368"><ele>657.0</ele><time>2026-03-29T09:11:29Z</time></trkpt><trkpt lat="43.22991792786375" lon="12.156581540003849"><ele>657.0</ele><time>2026-03-29T09:11:30Z</time></trkpt><trkpt lat="43.22996016800638" lon="12.156438198048036"><ele>657.0</ele><time>2026-03-29T09:11:32Z</time></trkpt><trkpt lat="43.229989082065686" lon="12.15633315120553"><ele>657.0</ele><time>2026-03-29T09:11:33Z</time></trkpt><trkpt lat="43.230016858232176" lon="12.156232263611935"><ele>656.8333333333334</ele><time>2026-03-29T09:11:34Z</time></trkpt><trkpt lat="43.23004129618738" lon="12.15614409095101"><ele>656.6666666666666</ele><time>2026-03-29T09:11:35Z</time></trkpt><trkpt lat="43.23007380014988" lon="12.15602681603408"><ele>656.5</ele><time>2026-03-29T09:11:36Z</time></trkpt><trkpt lat="43.23010570737307" lon="12.155912453176782"><ele>656.3333333333333</ele><time>2026-03-29T09:11:37Z</time></trkpt><trkpt lat="43.23013546340582" lon="12.155806885293279"><ele>656.1666666666666</ele><time>2026-03-29T09:11:38Z</time></trkpt><trkpt lat="43.23016976019939" lon="12.155691080067857"><ele>656.0</ele><time>2026-03-29T09:11:38.999Z</time></trkpt><trkpt lat="43.23020551962425" lon="12.15557569725786"><ele>655.1999999999999</ele><time>2026-03-29T09:11:39.999Z</time></trkpt><trkpt lat="43.230245888587895" lon="12.155447115849618"><ele>654.4</ele><time>2026-03-29T09:11:40.999Z</time></trkpt><trkpt lat="43.2302847735367" lon="12.155314991867582"><ele>653.6</ele><time>2026-03-29T09:11:41.999Z</time></trkpt><trkpt lat="43.230317705091295" lon="12.15518087473236"><ele>652.8</ele><time>2026-03-29T09:11:42.999Z</time></trkpt><trkpt lat="43.23034139870703" lon="12.155078742218713"><ele>652.0</ele><time>2026-03-29T09:11:43.999Z</time></trkpt><trkpt lat="43.230375670127515" lon="12.155001234729722"><ele>652.0</ele><time>2026-03-29T09:11:44.999Z</time></trkpt><trkpt lat="43.23038660754335" lon="12.154889988172593"><ele>652.0</ele><time>2026-03-29T09:11:46.999Z</time></trkpt><trkpt lat="43.230449067343635" lon="12.154675567803611"><ele>652.0</ele><time>2026-03-29T09:11:48.999Z</time></trkpt><trkpt lat="43.23051573604968" lon="12.15456741233566"><ele>652.0</ele><time>2026-03-29T09:11:49.999Z</time></trkpt><trkpt lat="43.23061876799442" lon="12.154459972845778"><ele>664.0</ele><time>2026-03-29T09:11:51.999Z</time></trkpt><trkpt lat="43.23099347291805" lon="12.15482657150168"><ele>664.0</ele><time>2026-03-29T09:11:52.999Z</time></trkpt><trkpt lat="43.231113641210044" lon="12.154856362404878"><ele>664.0</ele><time>2026-03-29T09:11:53.999Z</time></trkpt><trkpt lat="43.23122889001047" lon="12.15488561210339"><ele>664.0</ele><time>2026-03-29T09:11:54.999Z</time></trkpt><trkpt lat="43.231313851096914" lon="12.15488966544591"><ele>664.0</ele><time>2026-03-29T09:11:55.999Z</time></trkpt><trkpt lat="43.23139747311933" lon="12.154881338685515"><ele>664.0</ele><time>2026-03-29T09:11:56.999Z</time></trkpt><trkpt lat="43.231468456641046" lon="12.154850278849388"><ele>662.6666666666667</ele><time>2026-03-29T09:11:57.999Z</time></trkpt><trkpt lat="43.23151425479017" lon="12.15479093430762"><ele>661.3333333333334</ele><time>2026-03-29T09:11:58.999Z</time></trkpt><trkpt lat="43.231559280790364" lon="12.15472414565726"><ele>660.0</ele><time>2026-03-29T09:11:59.999Z</time></trkpt><trkpt lat="43.23159211118318" lon="12.154649499892013"><ele>658.6666666666666</ele><time>2026-03-29T09:12:00.999Z</time></trkpt><trkpt lat="43.23162310431778" lon="12.154514480467476"><ele>657.3333333333333</ele><time>2026-03-29T09:12:01.999Z</time></trkpt><trkpt lat="43.23168365437246" lon="12.15436256484116"><ele>656.0</ele><time>2026-03-29T09:12:03.999Z</time></trkpt><trkpt lat="43.231785891112686" lon="12.154361082941078"><ele>656.0</ele><time>2026-03-29T09:12:05.999Z</time></trkpt><trkpt lat="43.231813238061946" lon="12.154261472543526"><ele>656.0</ele><time>2026-03-29T09:12:07.999Z</time></trkpt><trkpt lat="43.23176475278516" lon="12.154187654622662"><ele>656.0</ele><time>2026-03-29T09:12:08.999Z</time></trkpt><trkpt lat="43.23171617816027" lon="12.15410381936908"><ele>656.0</ele><time>2026-03-29T09:12:09.999Z</time></trkpt><trkpt lat="43.23166133789277" lon="12.153993662950798"><ele>656.0</ele><time>2026-03-29T09:12:10.999Z</time></trkpt><trkpt lat="43.23164711402533" lon="12.153907685599858"><ele>656.0</ele><time>2026-03-29T09:12:11.999Z</time></trkpt><trkpt lat="43.23168310160369" lon="12.153827711531564"><ele>655.6666666666666</ele><time>2026-03-29T09:12:12.999Z</time></trkpt><trkpt lat="43.23170502323344" lon="12.153736337783428"><ele>655.3333333333333</ele><time>2026-03-29T09:12:13.999Z</time></trkpt><trkpt lat="43.23171359841203" lon="12.153634535903553"><ele>655.0</ele><time>2026-03-29T09:12:14.999Z</time></trkpt><trkpt lat="43.23169120802265" lon="12.15354538425909"><ele>654.6666666666666</ele><time>2026-03-29T09:12:15.999Z</time></trkpt><trkpt lat="43.231636224537255" lon="12.15343245136265"><ele>654.3333333333334</ele><time>2026-03-29T09:12:16.999Z</time></trkpt><trkpt lat="43.23159312692733" lon="12.153332286623568"><ele>654.0</ele><time>2026-03-29T09:12:17.999Z</time></trkpt><trkpt lat="43.231564075659634" lon="12.153195636677586"><ele>654.0</ele><time>2026-03-29T09:12:19.999Z</time></trkpt><trkpt lat="43.231556824024885" lon="12.15308589166033"><ele>654.0</ele><time>2026-03-29T09:12:21.999Z</time></trkpt><trkpt lat="43.23158346541977" lon="12.152962890614248"><ele>654.0</ele><time>2026-03-29T09:12:23.999Z</time></trkpt><trkpt lat="43.23168660430973" lon="12.152893136555026"><ele>654.0</ele><time>2026-03-29T09:12:25.999Z</time></trkpt><trkpt lat="43.23173805380049" lon="12.152817718750544"><ele>654.0</ele><time>2026-03-29T09:12:26.999Z</time></trkpt><trkpt lat="43.23173261506337" lon="12.152694332600731"><ele>654.0</ele><time>2026-03-29T09:12:28.999Z</time></trkpt><trkpt lat="43.23178281445124" lon="12.152638428237987"><ele>654.0</ele><time>2026-03-29T09:12:30.999Z</time></trkpt><trkpt lat="43.231860187217194" lon="12.15262255604049"><ele>654.0</ele><time>2026-03-29T09:12:31.999Z</time></trkpt><trkpt lat="43.23193778602011" lon="12.152645427257887"><ele>654.0</ele><time>2026-03-29T09:12:33Z</time></trkpt><trkpt lat="43.232035737248246" lon="12.152586369525588"><ele>654.0</ele><time>2026-03-29T09:12:35Z</time></trkpt><trkpt lat="43.232114528723635" lon="12.152480891355216"><ele>654.0</ele><time>2026-03-29T09:12:36Z</time></trkpt><trkpt lat="43.23221365266158" lon="12.15238442666361"><ele>655.3333333333334</ele><time>2026-03-29T09:12:37Z</time></trkpt><trkpt lat="43.232280817931645" lon="12.15230228776559"><ele>656.6666666666666</ele><time>2026-03-29T09:12:38Z</time></trkpt><trkpt lat="43.232339680525186" lon="12.152239483866719"><ele>658.0</ele><time>2026-03-29T09:12:39Z</time></trkpt><trkpt lat="43.23238091086746" lon="12.152155113489995"><ele>659.3333333333333</ele><time>2026-03-29T09:12:40Z</time></trkpt><trkpt lat="43.23245339450942" lon="12.152049617423625"><ele>660.6666666666666</ele><time>2026-03-29T09:12:42Z</time></trkpt><trkpt lat="43.23247748852799" lon="12.151964072648228"><ele>662.0</ele><time>2026-03-29T09:12:43Z</time></trkpt><trkpt lat="43.232484910128406" lon="12.151835161898719"><ele>658.8</ele><time>2026-03-29T09:12:45Z</time></trkpt><trkpt lat="43.232476909265365" lon="12.151679365747853"><ele>655.6</ele><time>2026-03-29T09:12:47Z</time></trkpt><trkpt lat="43.23245499216996" lon="12.151561285679634"><ele>652.4</ele><time>2026-03-29T09:12:48Z</time></trkpt><trkpt lat="43.232436656705076" lon="12.151452643850979"><ele>649.1999999999999</ele><time>2026-03-29T09:12:49Z</time></trkpt><trkpt lat="43.23236682033397" lon="12.15131382590751"><ele>646.0</ele><time>2026-03-29T09:12:51Z</time></trkpt><trkpt lat="43.2323755709412" lon="12.151216804149211"><ele>646.0</ele><time>2026-03-29T09:12:53Z</time></trkpt><trkpt lat="43.23243255627377" lon="12.15115110341921"><ele>646.0</ele><time>2026-03-29T09:12:54Z</time></trkpt><trkpt lat="43.232495397247085" lon="12.151113604407142"><ele>646.0</ele><time>2026-03-29T09:12:55Z</time></trkpt><trkpt lat="43.23254549761843" lon="12.151004956862364"><ele>646.0</ele><time>2026-03-29T09:12:57Z</time></trkpt><trkpt lat="43.23262086532562" lon="12.150940364745399"><ele>646.0</ele><time>2026-03-29T09:12:59Z</time></trkpt><trkpt lat="43.232739382787656" lon="12.150818853314581"><ele>646.0</ele><time>2026-03-29T09:13:01Z</time></trkpt><trkpt lat="43.23281995630439" lon="12.150773785848473"><ele>646.0</ele><time>2026-03-29T09:13:02Z</time></trkpt><trkpt lat="43.23291029281753" lon="12.150775978513042"><ele>646.0</ele><time>2026-03-29T09:13:04Z</time></trkpt><trkpt lat="43.23297844654118" lon="12.150782276564073"><ele>646.0</ele><time>2026-03-29T09:13:05Z</time></trkpt><trkpt lat="43.233050845437525" lon="12.15072929261422"><ele>646.0</ele><time>2026-03-29T09:13:07Z</time></trkpt><trkpt lat="43.2331153239409" lon="12.150555710917999"><ele>642.1999999999999</ele><time>2026-03-29T09:13:09Z</time></trkpt><trkpt lat="43.23315587722808" lon="12.15043668472306"><ele>638.4</ele><time>2026-03-29T09:13:10Z</time></trkpt><trkpt lat="43.233219356111" lon="12.150337646591398"><ele>634.6</ele><time>2026-03-29T09:13:11Z</time></trkpt><trkpt lat="43.233302517884525" lon="12.150260822271015"><ele>630.8</ele><time>2026-03-29T09:13:12Z</time></trkpt><trkpt lat="43.23339484910652" lon="12.150177267923112"><ele>627.0</ele><time>2026-03-29T09:13:13Z</time></trkpt><trkpt lat="43.23347715754264" lon="12.1501143962916"><ele>627.0</ele><time>2026-03-29T09:13:14Z</time></trkpt><trkpt lat="43.23353289287155" lon="12.15004741363972"><ele>627.0</ele><time>2026-03-29T09:13:15Z</time></trkpt><trkpt lat="43.23362221819073" lon="12.149898412957173"><ele>627.0</ele><time>2026-03-29T09:13:17Z</time></trkpt><trkpt lat="43.23367938768035" lon="12.14978816195378"><ele>627.0</ele><time>2026-03-29T09:13:18Z</time></trkpt><trkpt lat="43.23373107359407" lon="12.149697203057727"><ele>627.0</ele><time>2026-03-29T09:13:20Z</time></trkpt><trkpt lat="43.233805854445286" lon="12.149589357780656"><ele>626.2</ele><time>2026-03-29T09:13:22Z</time></trkpt><trkpt lat="43.23386508472885" lon="12.149535775045342"><ele>625.4000000000001</ele><time>2026-03-29T09:13:23Z</time></trkpt><trkpt lat="43.233966373302714" lon="12.149451290090788"><ele>624.5999999999999</ele><time>2026-03-29T09:13:24Z</time></trkpt><trkpt lat="43.23405670374455" lon="12.14938506041057"><ele>623.8</ele><time>2026-03-29T09:13:25Z</time></trkpt><trkpt lat="43.23414507418948" lon="12.149329556236882"><ele>623.0</ele><time>2026-03-29T09:13:26Z</time></trkpt><trkpt lat="43.23423539431517" lon="12.149279756521924"><ele>620.4</ele><time>2026-03-29T09:13:27Z</time></trkpt><trkpt lat="43.234335242346035" lon="12.149224703319033"><ele>617.8</ele><time>2026-03-29T09:13:29Z</time></trkpt><trkpt lat="43.23440110600606" lon="12.149200951665728"><ele>615.2</ele><time>2026-03-29T09:13:30Z</time></trkpt><trkpt lat="43.234528628832" lon="12.149162682365695"><ele>612.6</ele><time>2026-03-29T09:13:32Z</time></trkpt><trkpt lat="43.23459805147592" lon="12.14914244026815"><ele>610.0</ele><time>2026-03-29T09:13:33Z</time></trkpt><trkpt lat="43.23487049199485" lon="12.149691251156177"><ele>609.3333333333334</ele><time>2026-03-29T09:13:34Z</time></trkpt><trkpt lat="43.23494920114895" lon="12.149711624592257"><ele>608.6666666666667</ele><time>2026-03-29T09:13:34.999Z</time></trkpt><trkpt lat="43.235015728916515" lon="12.149775629210762"><ele>608.0</ele><time>2026-03-29T09:13:36.999Z</time></trkpt><trkpt lat="43.23507713141439" lon="12.149852390204375"><ele>607.3333333333334</ele><time>2026-03-29T09:13:37.999Z</time></trkpt><trkpt lat="43.235133128615935" lon="12.149904439157217"><ele>606.6666666666666</ele><time>2026-03-29T09:13:38.999Z</time></trkpt><trkpt lat="43.23521307435077" lon="12.149957165218563"><ele>606.0</ele><time>2026-03-29T09:13:39.999Z</time></trkpt><trkpt lat="43.23528752658945" lon="12.149986599751397"><ele>606.0</ele><time>2026-03-29T09:13:40.999Z</time></trkpt><trkpt lat="43.2353923979739" lon="12.149989295932409"><ele>606.0</ele><time>2026-03-29T09:13:42.999Z</time></trkpt><trkpt lat="43.23542647776953" lon="12.150144561071286"><ele>606.0</ele><time>2026-03-29T09:13:45.999Z</time></trkpt><trkpt lat="43.23547896749867" lon="12.150214921309345"><ele>606.0</ele><time>2026-03-29T09:13:46.999Z</time></trkpt><trkpt lat="43.235568035547615" lon="12.150330692792583"><ele>606.0</ele><time>2026-03-29T09:13:48.999Z</time></trkpt><trkpt lat="43.23568907702252" lon="12.150321463119695"><ele>601.2</ele><time>2026-03-29T09:13:50.999Z</time></trkpt><trkpt lat="43.235796151332856" lon="12.150354417043483"><ele>596.4000000000001</ele><time>2026-03-29T09:13:52.999Z</time></trkpt><trkpt lat="43.23586130511937" lon="12.150400008333715"><ele>591.6</ele><time>2026-03-29T09:13:53.999Z</time></trkpt><trkpt lat="43.235960267436276" lon="12.150472808525176"><ele>586.8000000000001</ele><time>2026-03-29T09:13:55.999Z</time></trkpt><trkpt lat="43.236044022130876" lon="12.150475290845058"><ele>582.0</ele><time>2026-03-29T09:13:57.999Z</time></trkpt><trkpt lat="43.23611856486982" lon="12.150378314761749"><ele>582.0</ele><time>2026-03-29T09:13:59.999Z</time></trkpt><trkpt lat="43.236229668544496" lon="12.150359144857102"><ele>582.0</ele><time>2026-03-29T09:14:01.999Z</time></trkpt><trkpt lat="43.23630825035655" lon="12.150380196197535"><ele>582.0</ele><time>2026-03-29T09:14:02.999Z</time></trkpt><trkpt lat="43.23639523638518" lon="12.150375433742845"><ele>582.0</ele><time>2026-03-29T09:14:03.999Z</time></trkpt><trkpt lat="43.236461764656895" lon="12.150388096853682"><ele>582.0</ele><time>2026-03-29T09:14:04.999Z</time></trkpt><trkpt lat="43.236574311066576" lon="12.150437544212833"><ele>577.2</ele><time>2026-03-29T09:14:06.999Z</time></trkpt><trkpt lat="43.236681921284585" lon="12.150486722786438"><ele>572.4000000000001</ele><time>2026-03-29T09:14:08.999Z</time></trkpt><trkpt lat="43.23678300618591" lon="12.15050537735702"><ele>567.5999999999999</ele><time>2026-03-29T09:14:10.999Z</time></trkpt><trkpt lat="43.23685896564364" lon="12.150526076173474"><ele>562.8</ele><time>2026-03-29T09:14:11.999Z</time></trkpt><trkpt lat="43.23693325371394" lon="12.150525646499073"><ele>558.0</ele><time>2026-03-29T09:14:12.999Z</time></trkpt><trkpt lat="43.237020768233336" lon="12.150478184028872"><ele>558.0</ele><time>2026-03-29T09:14:14.999Z</time></trkpt><trkpt lat="43.23709389289471" lon="12.150415510127967"><ele>558.0</ele><time>2026-03-29T09:14:16.999Z</time></trkpt><trkpt lat="43.23718735317067" lon="12.150392302354591"><ele>558.0</ele><time>2026-03-29T09:14:18.999Z</time></trkpt><trkpt lat="43.237280422065595" lon="12.150383014130194"><ele>558.0</ele><time>2026-03-29T09:14:20.999Z</time></trkpt><trkpt lat="43.237370469331594" lon="12.150379399576693"><ele>558.0</ele><time>2026-03-29T09:14:22.999Z</time></trkpt><trkpt lat="43.23749056168529" lon="12.150368248046224"><ele>553.0</ele><time>2026-03-29T09:14:24.999Z</time></trkpt><trkpt lat="43.23758517965188" lon="12.150330554411976"><ele>548.0</ele><time>2026-03-29T09:14:26.999Z</time></trkpt><trkpt lat="43.237709578621796" lon="12.150376706273617"><ele>543.0</ele><time>2026-03-29T09:14:28.999Z</time></trkpt><trkpt lat="43.237799893939595" lon="12.150432863906001"><ele>538.0</ele><time>2026-03-29T09:14:30.999Z</time></trkpt><trkpt lat="43.23791613269498" lon="12.150444986798766"><ele>533.0</ele><time>2026-03-29T09:14:32.999Z</time></trkpt><trkpt lat="43.23799610491694" lon="12.15043828036435"><ele>533.0</ele><time>2026-03-29T09:14:33.999Z</time></trkpt><trkpt lat="43.23811409790896" lon="12.150445506734139"><ele>533.0</ele><time>2026-03-29T09:14:35.999Z</time></trkpt><trkpt lat="43.238215858312344" lon="12.150453293965876"><ele>533.0</ele><time>2026-03-29T09:14:37.999Z</time></trkpt><trkpt lat="43.23831607585866" lon="12.150430064262578"><ele>533.0</ele><time>2026-03-29T09:14:40Z</time></trkpt><trkpt lat="43.238390720082826" lon="12.150381397611696"><ele>533.0</ele><time>2026-03-29T09:14:42Z</time></trkpt><trkpt lat="43.23845834073475" lon="12.150350136323336"><ele>530.1666666666666</ele><time>2026-03-29T09:14:43Z</time></trkpt><trkpt lat="43.238537265975694" lon="12.150348367570201"><ele>527.3333333333333</ele><time>2026-03-29T09:14:45Z</time></trkpt><trkpt lat="43.23863101437898" lon="12.150353017371154"><ele>524.5</ele><time>2026-03-29T09:14:47Z</time></trkpt><trkpt lat="43.23869664883415" lon="12.150323675031792"><ele>521.6666666666666</ele><time>2026-03-29T09:14:48Z</time></trkpt><trkpt lat="43.23876721688205" lon="12.150311854362274"><ele>518.8333333333334</ele><time>2026-03-29T09:14:49Z</time></trkpt><trkpt lat="43.23887720919494" lon="12.1502649236158"><ele>516.0</ele><time>2026-03-29T09:14:51Z</time></trkpt><trkpt lat="43.2389300576519" lon="12.15018585397329"><ele>513.8</ele><time>2026-03-29T09:14:53Z</time></trkpt><trkpt lat="43.238994084869674" lon="12.15009984278683"><ele>511.6</ele><time>2026-03-29T09:14:55Z</time></trkpt><trkpt lat="43.239080808330606" lon="12.150024525297303"><ele>509.4</ele><time>2026-03-29T09:14:57Z</time></trkpt><trkpt lat="43.23913782174212" lon="12.149917658871944"><ele>507.2</ele><time>2026-03-29T09:14:59Z</time></trkpt><trkpt lat="43.23918390052387" lon="12.149836502245927"><ele>505.0</ele><time>2026-03-29T09:15:01Z</time></trkpt><trkpt lat="43.2392789733164" lon="12.149830156471962"><ele>502.0</ele><time>2026-03-29T09:15:03Z</time></trkpt><trkpt lat="43.23939873951769" lon="12.149794594303833"><ele>499.0</ele><time>2026-03-29T09:15:05Z</time></trkpt><trkpt lat="43.23949374464476" lon="12.149746656613129"><ele>496.0</ele><time>2026-03-29T09:15:07Z</time></trkpt><trkpt lat="43.23958534802894" lon="12.14965218240953"><ele>493.0</ele><time>2026-03-29T09:15:09Z</time></trkpt><trkpt lat="43.23969190487989" lon="12.149566561784027"><ele>493.0</ele><time>2026-03-29T09:15:11Z</time></trkpt><trkpt lat="43.23976775007332" lon="12.149456728201397"><ele>492.99999999999994</ele><time>2026-03-29T09:15:13Z</time></trkpt><trkpt lat="43.239813288413586" lon="12.149374730200513"><ele>492.99999999999994</ele><time>2026-03-29T09:15:14Z</time></trkpt><trkpt lat="43.23989818523901" lon="12.149215637624915"><ele>493.0</ele><time>2026-03-29T09:15:16Z</time></trkpt><trkpt lat="43.239948239124885" lon="12.149132949286368"><ele>493.0</ele><time>2026-03-29T09:15:17Z</time></trkpt><trkpt lat="43.23999491632939" lon="12.149061541722112"><ele>489.59999999999997</ele><time>2026-03-29T09:15:18Z</time></trkpt><trkpt lat="43.2400475818229" lon="12.14899083488231"><ele>486.19999999999993</ele><time>2026-03-29T09:15:19Z</time></trkpt><trkpt lat="43.24011795944285" lon="12.148915458170622"><ele>482.8</ele><time>2026-03-29T09:15:20Z</time></trkpt><trkpt lat="43.24018438964896" lon="12.148825042577545"><ele>479.4</ele><time>2026-03-29T09:15:22Z</time></trkpt><trkpt lat="43.24013616621517" lon="12.148698619675299"><ele>476.0</ele><time>2026-03-29T09:15:24Z</time></trkpt><trkpt lat="43.24001747808928" lon="12.14866908358929"><ele>476.0</ele><time>2026-03-29T09:15:26Z</time></trkpt><trkpt lat="43.23989395846566" lon="12.148689455037694"><ele>476.0</ele><time>2026-03-29T09:15:28Z</time></trkpt><trkpt lat="43.23980747894229" lon="12.148714324391634"><ele>476.0</ele><time>2026-03-29T09:15:29Z</time></trkpt><trkpt lat="43.23972753550956" lon="12.148715994213761"><ele>476.0</ele><time>2026-03-29T09:15:30Z</time></trkpt><trkpt lat="43.23964383645524" lon="12.148700500226875"><ele>476.0</ele><time>2026-03-29T09:15:31Z</time></trkpt><trkpt lat="43.23956066274335" lon="12.148688060177216"><ele>476.3333333333333</ele><time>2026-03-29T09:15:32Z</time></trkpt><trkpt lat="43.239474490519044" lon="12.148639435266576"><ele>476.66666666666663</ele><time>2026-03-29T09:15:34Z</time></trkpt><trkpt lat="43.23945156063196" lon="12.148498590457141"><ele>477.0</ele><time>2026-03-29T09:15:36Z</time></trkpt><trkpt lat="43.23944976235359" lon="12.148394585605995"><ele>477.33333333333337</ele><time>2026-03-29T09:15:36.999Z</time></trkpt><trkpt lat="43.23945070878779" lon="12.148279597575259"><ele>477.6666666666667</ele><time>2026-03-29T09:15:37.999Z</time></trkpt><trkpt lat="43.23943875252101" lon="12.14816835560379"><ele>478.0</ele><time>2026-03-29T09:15:38.999Z</time></trkpt><trkpt lat="43.23941617601167" lon="12.148080777111751"><ele>475.83333333333337</ele><time>2026-03-29T09:15:39.999Z</time></trkpt><trkpt lat="43.239383994032124" lon="12.147996255367405"><ele>473.6666666666667</ele><time>2026-03-29T09:15:40.999Z</time></trkpt><trkpt lat="43.23934103127488" lon="12.147917830232831"><ele>471.5</ele><time>2026-03-29T09:15:42.999Z</time></trkpt><trkpt lat="43.239369003080355" lon="12.14778477629573"><ele>469.33333333333337</ele><time>2026-03-29T09:15:44.999Z</time></trkpt><trkpt lat="43.239350661227675" lon="12.147653947787814"><ele>467.1666666666667</ele><time>2026-03-29T09:15:46.999Z</time></trkpt><trkpt lat="43.23929174987637" lon="12.147622544761065"><ele>465.0</ele><time>2026-03-29T09:15:47.999Z</time></trkpt><trkpt lat="43.23922975181698" lon="12.14760292348023"><ele>465.0</ele><time>2026-03-29T09:15:48.999Z</time></trkpt><trkpt lat="43.23915431521093" lon="12.147541234463011"><ele>465.0</ele><time>2026-03-29T09:15:50.999Z</time></trkpt><trkpt lat="43.23906889159658" lon="12.147420697575592"><ele>465.0</ele><time>2026-03-29T09:15:52.999Z</time></trkpt><trkpt lat="43.23904867714352" lon="12.147337400064286"><ele>465.0</ele><time>2026-03-29T09:15:53.999Z</time></trkpt><trkpt lat="43.23905179140364" lon="12.147238269416363"><ele>465.0</ele><time>2026-03-29T09:15:54.999Z</time></trkpt><trkpt lat="43.239029537336165" lon="12.147147240189016"><ele>465.0</ele><time>2026-03-29T09:15:55.999Z</time></trkpt><trkpt lat="43.238974887667865" lon="12.147002150818714"><ele>465.6666666666667</ele><time>2026-03-29T09:15:57.999Z</time></trkpt><trkpt lat="43.2389695904639" lon="12.146875932129722"><ele>466.33333333333337</ele><time>2026-03-29T09:15:59.999Z</time></trkpt><trkpt lat="43.2388867896234" lon="12.146756113186607"><ele>467.0</ele><time>2026-03-29T09:16:01.999Z</time></trkpt><trkpt lat="43.23886357539468" lon="12.14666842693116"><ele>467.6666666666667</ele><time>2026-03-29T09:16:02.999Z</time></trkpt><trkpt lat="43.23881785342905" lon="12.146597165726764"><ele>468.33333333333337</ele><time>2026-03-29T09:16:03.999Z</time></trkpt><trkpt lat="43.238777270965684" lon="12.146529575800637"><ele>469.0</ele><time>2026-03-29T09:16:04.999Z</time></trkpt><trkpt lat="43.238744783167334" lon="12.146434142764269"><ele>467.33333333333337</ele><time>2026-03-29T09:16:06.999Z</time></trkpt><trkpt lat="43.23873241609018" lon="12.146315998799393"><ele>465.6666666666667</ele><time>2026-03-29T09:16:07.999Z</time></trkpt><trkpt lat="43.23871933347474" lon="12.146204033641839"><ele>464.0</ele><time>2026-03-29T09:16:08.999Z</time></trkpt><trkpt lat="43.23867672389342" lon="12.14610920279546"><ele>462.33333333333337</ele><time>2026-03-29T09:16:09.999Z</time></trkpt><trkpt lat="43.238624482585806" lon="12.146003436401967"><ele>460.6666666666667</ele><time>2026-03-29T09:16:10.999Z</time></trkpt><trkpt lat="43.238580174828435" lon="12.145903208219138"><ele>459.0</ele><time>2026-03-29T09:16:12.999Z</time></trkpt><trkpt lat="43.23854094053948" lon="12.145800548191765"><ele>457.2</ele><time>2026-03-29T09:16:15.999Z</time></trkpt><trkpt lat="43.238464437760584" lon="12.145670033532584"><ele>455.4</ele><time>2026-03-29T09:16:18.999Z</time></trkpt><trkpt lat="43.23840911435365" lon="12.14557924378739"><ele>453.6</ele><time>2026-03-29T09:16:19.999Z</time></trkpt><trkpt lat="43.23834199012736" lon="12.145466888619818"><ele>451.8</ele><time>2026-03-29T09:16:21.999Z</time></trkpt><trkpt lat="43.23828085143257" lon="12.145330036383303"><ele>450.0</ele><time>2026-03-29T09:16:23.999Z</time></trkpt><trkpt lat="43.23825016984453" lon="12.145247183133005"><ele>450.0</ele><time>2026-03-29T09:16:24.999Z</time></trkpt><trkpt lat="43.23822034020695" lon="12.14513463052325"><ele>450.0</ele><time>2026-03-29T09:16:26.999Z</time></trkpt><trkpt lat="43.23820422875794" lon="12.14501841115208"><ele>450.0</ele><time>2026-03-29T09:16:27.999Z</time></trkpt><trkpt lat="43.23823222275822" lon="12.144938546942132"><ele>450.0</ele><time>2026-03-29T09:16:28.999Z</time></trkpt><trkpt lat="43.23827180623656" lon="12.1448025114702"><ele>450.0</ele><time>2026-03-29T09:16:30.999Z</time></trkpt><trkpt lat="43.23831338808808" lon="12.14464176634609"><ele>449.8</ele><time>2026-03-29T09:16:32.999Z</time></trkpt><trkpt lat="43.23836222390678" lon="12.144487748791246"><ele>449.6</ele><time>2026-03-29T09:16:34.999Z</time></trkpt><trkpt lat="43.23841513847722" lon="12.144407918268293"><ele>449.4</ele><time>2026-03-29T09:16:36.999Z</time></trkpt><trkpt lat="43.238502517279706" lon="12.144311640077786"><ele>449.2</ele><time>2026-03-29T09:16:38.999Z</time></trkpt><trkpt lat="43.23860174203247" lon="12.144251525907782"><ele>449.0</ele><time>2026-03-29T09:16:40.999Z</time></trkpt><trkpt lat="43.23870619612225" lon="12.144169194277872"><ele>449.0</ele><time>2026-03-29T09:16:42.999Z</time></trkpt><trkpt lat="43.23878390819779" lon="12.14411770074617"><ele>449.0</ele><time>2026-03-29T09:16:43.999Z</time></trkpt><trkpt lat="43.238870515421944" lon="12.144170331465357"><ele>449.0</ele><time>2026-03-29T09:16:45Z</time></trkpt><trkpt lat="43.23896030284071" lon="12.144163803052539"><ele>449.0</ele><time>2026-03-29T09:16:46Z</time></trkpt><trkpt lat="43.23905716884676" lon="12.144136988952042"><ele>449.0</ele><time>2026-03-29T09:16:48Z</time></trkpt><trkpt lat="43.239115232938246" lon="12.144057120380946"><ele>445.3333333333333</ele><time>2026-03-29T09:16:49Z</time></trkpt><trkpt lat="43.23917693211916" lon="12.143984342249425"><ele>441.66666666666663</ele><time>2026-03-29T09:16:50Z</time></trkpt><trkpt lat="43.23923299519616" lon="12.143876921675373"><ele>438.0</ele><time>2026-03-29T09:16:51Z</time></trkpt><trkpt lat="43.23924755286449" lon="12.143770201446413"><ele>434.33333333333337</ele><time>2026-03-29T09:16:52Z</time></trkpt><trkpt lat="43.239302235222524" lon="12.143718817584082"><ele>430.6666666666667</ele><time>2026-03-29T09:16:53Z</time></trkpt><trkpt lat="43.239365042948236" lon="12.143691187028658"><ele>427.0</ele><time>2026-03-29T09:16:54Z</time></trkpt><trkpt lat="43.23949819616116" lon="12.143689675198434"><ele>427.00000000000006</ele><time>2026-03-29T09:16:56Z</time></trkpt><trkpt lat="43.23957424283002" lon="12.143699680068007"><ele>427.0</ele><time>2026-03-29T09:16:57Z</time></trkpt><trkpt lat="43.23968099064376" lon="12.143703153897947"><ele>427.0</ele><time>2026-03-29T09:16:58Z</time></trkpt><trkpt lat="43.23976745912465" lon="12.14370771693602"><ele>427.0</ele><time>2026-03-29T09:16:59Z</time></trkpt><trkpt lat="43.239867829959735" lon="12.14372126137461"><ele>427.00000000000006</ele><time>2026-03-29T09:17:00Z</time></trkpt><trkpt lat="43.239943699091036" lon="12.143732129622132"><ele>427.0</ele><time>2026-03-29T09:17:01Z</time></trkpt><trkpt lat="43.240028823513164" lon="12.143686034688784"><ele>422.33333333333337</ele><time>2026-03-29T09:17:02Z</time></trkpt><trkpt lat="43.2401086307037" lon="12.143696063804338"><ele>417.6666666666667</ele><time>2026-03-29T09:17:03Z</time></trkpt><trkpt lat="43.2401840491303" lon="12.143696375243929"><ele>413.0</ele><time>2026-03-29T09:17:04Z</time></trkpt><trkpt lat="43.24029640406322" lon="12.143702431749022"><ele>408.33333333333337</ele><time>2026-03-29T09:17:06Z</time></trkpt><trkpt lat="43.24035401685585" lon="12.14366201739344"><ele>403.6666666666667</ele><time>2026-03-29T09:17:07Z</time></trkpt><trkpt lat="43.240381580149624" lon="12.143560857083031"><ele>399.0</ele><time>2026-03-29T09:17:08Z</time></trkpt><trkpt lat="43.24037239045885" lon="12.143472734787075"><ele>399.0</ele><time>2026-03-29T09:17:09Z</time></trkpt><trkpt lat="43.24032976683194" lon="12.143388828081118"><ele>399.0</ele><time>2026-03-29T09:17:10Z</time></trkpt><trkpt lat="43.240304628654684" lon="12.14327905741127"><ele>399.0</ele><time>2026-03-29T09:17:12Z</time></trkpt><trkpt lat="43.240352500852964" lon="12.143206372786757"><ele>399.0</ele><time>2026-03-29T09:17:13Z</time></trkpt><trkpt lat="43.24046622395025" lon="12.143165173216971"><ele>399.0</ele><time>2026-03-29T09:17:15Z</time></trkpt><trkpt lat="43.24056359905985" lon="12.143076128722587"><ele>397.5</ele><time>2026-03-29T09:17:17Z</time></trkpt><trkpt lat="43.2405569932477" lon="12.142948519882413"><ele>396.0</ele><time>2026-03-29T09:17:19Z</time></trkpt><trkpt lat="43.240468601279126" lon="12.142883937216643"><ele>394.5</ele><time>2026-03-29T09:17:21Z</time></trkpt><trkpt lat="43.24039297256121" lon="12.142870273244277"><ele>393.0</ele><time>2026-03-29T09:17:22Z</time></trkpt><trkpt lat="43.24033252301525" lon="12.142836837365902"><ele>391.5</ele><time>2026-03-29T09:17:23Z</time></trkpt><trkpt lat="43.240302206006696" lon="12.142716331879068"><ele>390.0</ele><time>2026-03-29T09:17:25Z</time></trkpt><trkpt lat="43.24035322528358" lon="12.1426433313834"><ele>390.0</ele><time>2026-03-29T09:17:26Z</time></trkpt><trkpt lat="43.24043272111435" lon="12.142573090494677"><ele>390.0</ele><time>2026-03-29T09:17:27Z</time></trkpt><trkpt lat="43.24050436365147" lon="12.142496551866067"><ele>390.0</ele><time>2026-03-29T09:17:28Z</time></trkpt><trkpt lat="43.240590338765" lon="12.14242097544559"><ele>390.0</ele><time>2026-03-29T09:17:29Z</time></trkpt><trkpt lat="43.24068026024435" lon="12.142381739240268"><ele>390.0</ele><time>2026-03-29T09:17:31Z</time></trkpt><trkpt lat="43.24073375230489" lon="12.142559536393415"><ele>386.3333333333333</ele><time>2026-03-29T09:17:33Z</time></trkpt><trkpt lat="43.240787884833345" lon="12.142643343978692"><ele>382.6666666666667</ele><time>2026-03-29T09:17:34Z</time></trkpt><trkpt lat="43.240869952056734" lon="12.142657767225275"><ele>379.0</ele><time>2026-03-29T09:17:35Z</time></trkpt><trkpt lat="43.240951370171786" lon="12.1426320079799"><ele>375.33333333333337</ele><time>2026-03-29T09:17:36Z</time></trkpt><trkpt lat="43.24105225857006" lon="12.14263552254542"><ele>371.6666666666667</ele><time>2026-03-29T09:17:37Z</time></trkpt><trkpt lat="43.24114853753711" lon="12.142617577206902"><ele>368.0</ele><time>2026-03-29T09:17:38Z</time></trkpt><trkpt lat="43.24122011476027" lon="12.142633928353343"><ele>368.0</ele><time>2026-03-29T09:17:39Z</time></trkpt><trkpt lat="43.24126624700538" lon="12.142718742440314"><ele>368.0</ele><time>2026-03-29T09:17:40Z</time></trkpt><trkpt lat="43.2413107074512" lon="12.142789219552302"><ele>368.0</ele><time>2026-03-29T09:17:41Z</time></trkpt><trkpt lat="43.241355191140684" lon="12.142869586103165"><ele>368.0</ele><time>2026-03-29T09:17:42Z</time></trkpt><trkpt lat="43.24140938997581" lon="12.142945131564556"><ele>368.0</ele><time>2026-03-29T09:17:43Z</time></trkpt><trkpt lat="43.241484013294986" lon="12.142994851097582"><ele>368.0</ele><time>2026-03-29T09:17:44Z</time></trkpt><trkpt lat="43.241567614763795" lon="12.14293574029614"><ele>367.1666666666667</ele><time>2026-03-29T09:17:45Z</time></trkpt><trkpt lat="43.24169155154106" lon="12.14286829431601"><ele>366.33333333333337</ele><time>2026-03-29T09:17:47Z</time></trkpt><trkpt lat="43.24175153825315" lon="12.142819438756142"><ele>365.5</ele><time>2026-03-29T09:17:47.999Z</time></trkpt><trkpt lat="43.241824223672744" lon="12.142792256582716"><ele>364.6666666666667</ele><time>2026-03-29T09:17:48.999Z</time></trkpt><trkpt lat="43.24188816163665" lon="12.142739291005782"><ele>363.8333333333333</ele><time>2026-03-29T09:17:49.999Z</time></trkpt><trkpt lat="43.2419597593079" lon="12.142679128273679"><ele>363.0</ele><time>2026-03-29T09:17:50.999Z</time></trkpt><trkpt lat="43.24201863907551" lon="12.14263217605205"><ele>363.0</ele><time>2026-03-29T09:17:51.999Z</time></trkpt><trkpt lat="43.24209445271849" lon="12.142571720266067"><ele>363.0</ele><time>2026-03-29T09:17:52.999Z</time></trkpt><trkpt lat="43.24217449399318" lon="12.142507893332478"><ele>363.0</ele><time>2026-03-29T09:17:53.999Z</time></trkpt><trkpt lat="43.2422509178582" lon="12.142446951012015"><ele>363.0</ele><time>2026-03-29T09:17:54.999Z</time></trkpt><trkpt lat="43.24235336359186" lon="12.142380415833864"><ele>363.0</ele><time>2026-03-29T09:17:55.999Z</time></trkpt><trkpt lat="43.24244569707018" lon="12.14232349091283"><ele>362.2</ele><time>2026-03-29T09:17:56.999Z</time></trkpt><trkpt lat="43.24250113660285" lon="12.142235998491964"><ele>361.4</ele><time>2026-03-29T09:17:57.999Z</time></trkpt><trkpt lat="43.24257154665825" lon="12.14217887151105"><ele>360.59999999999997</ele><time>2026-03-29T09:17:58.999Z</time></trkpt><trkpt lat="43.242650668882646" lon="12.142140202376906"><ele>359.79999999999995</ele><time>2026-03-29T09:17:59.999Z</time></trkpt><trkpt lat="43.24273304270138" lon="12.142188831149223"><ele>359.0</ele><time>2026-03-29T09:18:00.999Z</time></trkpt><trkpt lat="43.242852117607" lon="12.142207603134135"><ele>359.0</ele><time>2026-03-29T09:18:01.999Z</time></trkpt><trkpt lat="43.24297501821757" lon="12.142193984113886"><ele>359.0</ele><time>2026-03-29T09:18:02.999Z</time></trkpt><trkpt lat="43.243101083715146" lon="12.14219228086078"><ele>359.0</ele><time>2026-03-29T09:18:03.999Z</time></trkpt><trkpt lat="43.24322431137267" lon="12.142203682793673"><ele>359.0</ele><time>2026-03-29T09:18:04.999Z</time></trkpt><trkpt lat="43.24336103590343" lon="12.142216486895803"><ele>356.79999999999995</ele><time>2026-03-29T09:18:05.999Z</time></trkpt><trkpt lat="43.24348864536085" lon="12.142208189267658"><ele>354.59999999999997</ele><time>2026-03-29T09:18:06.999Z</time></trkpt><trkpt lat="43.24359181694121" lon="12.142201767869166"><ele>352.4</ele><time>2026-03-29T09:18:07.999Z</time></trkpt><trkpt lat="43.2437039684172" lon="12.142192459244846"><ele>350.2</ele><time>2026-03-29T09:18:08.999Z</time></trkpt><trkpt lat="43.2438017298818" lon="12.14218420363752"><ele>348.0</ele><time>2026-03-29T09:18:09.999Z</time></trkpt><trkpt lat="43.24391166046108" lon="12.142177555741688"><ele>345.4</ele><time>2026-03-29T09:18:10.999Z</time></trkpt><trkpt lat="43.24400604396917" lon="12.142171528748202"><ele>342.79999999999995</ele><time>2026-03-29T09:18:11.999Z</time></trkpt><trkpt lat="43.24409313547376" lon="12.142168336576686"><ele>340.2</ele><time>2026-03-29T09:18:12.999Z</time></trkpt><trkpt lat="43.24418745354749" lon="12.14216812669327"><ele>337.6</ele><time>2026-03-29T09:18:13.999Z</time></trkpt><trkpt lat="43.24428046456597" lon="12.142215016790598"><ele>335.0</ele><time>2026-03-29T09:18:14.999Z</time></trkpt><trkpt lat="43.24437719384288" lon="12.142248653867506"><ele>335.0</ele><time>2026-03-29T09:18:15.999Z</time></trkpt><trkpt lat="43.24447062561839" lon="12.142276991717672"><ele>335.0</ele><time>2026-03-29T09:18:16.999Z</time></trkpt><trkpt lat="43.24456295059021" lon="12.142334226220886"><ele>335.0</ele><time>2026-03-29T09:18:17.999Z</time></trkpt><trkpt lat="43.2446560531543" lon="12.142398208314164"><ele>335.0</ele><time>2026-03-29T09:18:18.999Z</time></trkpt><trkpt lat="43.24474277542859" lon="12.142470983518034"><ele>335.0</ele><time>2026-03-29T09:18:19.999Z</time></trkpt><trkpt lat="43.24482663683071" lon="12.142539162641057"><ele>333.0</ele><time>2026-03-29T09:18:20.999Z</time></trkpt><trkpt lat="43.2449198031123" lon="12.142603411616665"><ele>331.0</ele><time>2026-03-29T09:18:21.999Z</time></trkpt><trkpt lat="43.24501151041725" lon="12.142666402889946"><ele>329.0</ele><time>2026-03-29T09:18:22.999Z</time></trkpt><trkpt lat="43.24510373784364" lon="12.142722731617875"><ele>327.0</ele><time>2026-03-29T09:18:23.999Z</time></trkpt><trkpt lat="43.24520376484362" lon="12.14276327726276"><ele>325.0</ele><time>2026-03-29T09:18:24.999Z</time></trkpt><trkpt lat="43.24530625754831" lon="12.142788929465432"><ele>325.0</ele><time>2026-03-29T09:18:25.999Z</time></trkpt><trkpt lat="43.24541003447362" lon="12.142803855486015"><ele>325.0</ele><time>2026-03-29T09:18:26.999Z</time></trkpt><trkpt lat="43.245515629652665" lon="12.14281614614176"><ele>325.0</ele><time>2026-03-29T09:18:27.999Z</time></trkpt><trkpt lat="43.245618148221574" lon="12.142832062231234"><ele>325.0</ele><time>2026-03-29T09:18:28.999Z</time></trkpt><trkpt lat="43.2457173410914" lon="12.142856480428007"><ele>325.0</ele><time>2026-03-29T09:18:29.999Z</time></trkpt><trkpt lat="43.24579771440859" lon="12.142876295116633"><ele>323.8</ele><time>2026-03-29T09:18:30.999Z</time></trkpt><trkpt lat="43.24590963677983" lon="12.142918677214208"><ele>322.6</ele><time>2026-03-29T09:18:31.999Z</time></trkpt><trkpt lat="43.246011240942316" lon="12.142955120524185"><ele>321.4</ele><time>2026-03-29T09:18:32.999Z</time></trkpt><trkpt lat="43.24611026973116" lon="12.14300602043611"><ele>320.2</ele><time>2026-03-29T09:18:33.999Z</time></trkpt><trkpt lat="43.24618214875511" lon="12.143053658850517"><ele>319.0</ele><time>2026-03-29T09:18:34.999Z</time></trkpt><trkpt lat="43.246244819728275" lon="12.14309194005248"><ele>319.0</ele><time>2026-03-29T09:18:35.999Z</time></trkpt><trkpt lat="43.24633052044203" lon="12.14322041470609"><ele>319.0</ele><time>2026-03-29T09:18:37.999Z</time></trkpt><trkpt lat="43.24634790167195" lon="12.143355512931922"><ele>319.0</ele><time>2026-03-29T09:18:39.999Z</time></trkpt><trkpt lat="43.24628398081245" lon="12.143486328307107"><ele>319.0</ele><time>2026-03-29T09:18:41.999Z</time></trkpt><trkpt lat="43.246259210358254" lon="12.14357670307046"><ele>319.0</ele><time>2026-03-29T09:18:42.999Z</time></trkpt><trkpt lat="43.24621332986994" lon="12.143657646788547"><ele>319.0</ele><time>2026-03-29T09:18:43.999Z</time></trkpt><trkpt lat="43.24616343400104" lon="12.143739905757993"><ele>319.0</ele><time>2026-03-29T09:18:44.999Z</time></trkpt><trkpt lat="43.24610859327332" lon="12.143824935494974"><ele>319.0</ele><time>2026-03-29T09:18:45.999Z</time></trkpt><trkpt lat="43.24606443775936" lon="12.143905893356486"><ele>319.0</ele><time>2026-03-29T09:18:46.999Z</time></trkpt><trkpt lat="43.2460268252914" lon="12.143980823010423"><ele>319.0</ele><time>2026-03-29T09:18:48.999Z</time></trkpt><trkpt lat="43.246110994348996" lon="12.144138166561614"><ele>319.0</ele><time>2026-03-29T09:18:52Z</time></trkpt><trkpt lat="43.24617316937068" lon="12.14421841486572"><ele>319.2</ele><time>2026-03-29T09:18:54Z</time></trkpt><trkpt lat="43.24625557269106" lon="12.144315470857185"><ele>319.4</ele><time>2026-03-29T09:18:56Z</time></trkpt><trkpt lat="43.24632909040076" lon="12.144395344688297"><ele>319.6</ele><time>2026-03-29T09:18:58Z</time></trkpt><trkpt lat="43.24640233419541" lon="12.144469923353"><ele>319.8</ele><time>2026-03-29T09:19:00Z</time></trkpt><trkpt lat="43.24648030715322" lon="12.144542647848535"><ele>320.0</ele><time>2026-03-29T09:19:02Z</time></trkpt><trkpt lat="43.246551186657136" lon="12.144606458180238"><ele>318.0</ele><time>2026-03-29T09:19:04Z</time></trkpt><trkpt lat="43.24660530647379" lon="12.144654127076553"><ele>316.0</ele><time>2026-03-29T09:19:06Z</time></trkpt><trkpt lat="43.246673724969426" lon="12.144713665954567"><ele>314.0</ele><time>2026-03-29T09:19:10Z</time></trkpt><trkpt lat="43.24674031445004" lon="12.144769284985758"><ele>312.0</ele><time>2026-03-29T09:19:13Z</time></trkpt><trkpt lat="43.246816461018206" lon="12.144830581244657"><ele>310.0</ele><time>2026-03-29T09:19:16Z</time></trkpt><trkpt lat="43.24688388101672" lon="12.14488079447492"><ele>308.0</ele><time>2026-03-29T09:19:19Z</time></trkpt><trkpt lat="43.246958302361364" lon="12.14492063141762"><ele>308.0</ele><time>2026-03-29T09:21:16Z</time></trkpt><trkpt lat="43.24690945588009" lon="12.144818496972935"><ele>308.0</ele><time>2026-03-29T09:21:43Z</time></trkpt><trkpt lat="43.24684555618245" lon="12.14478658052353"><ele>308.0</ele><time>2026-03-29T09:21:48.999Z</time></trkpt><trkpt lat="43.24678272469508" lon="12.144740354363694"><ele>308.0</ele><time>2026-03-29T09:21:55.999Z</time></trkpt><trkpt lat="43.24671937209219" lon="12.144700919880643"><ele>308.0</ele><time>2026-03-29T09:22:03.999Z</time></trkpt><trkpt lat="43.24666173504418" lon="12.144644601622366"><ele>308.0</ele><time>2026-03-29T09:22:10.999Z</time></trkpt><trkpt lat="43.24665664360662" lon="12.144540574169573"><ele>308.0</ele><time>2026-03-29T09:22:17.999Z</time></trkpt><trkpt lat="43.24669307733229" lon="12.144427953257845"><ele>308.0</ele><time>2026-03-29T09:22:46.999Z</time></trkpt><trkpt lat="43.246746682192985" lon="12.144475089729076"><ele>308.0</ele><time>2026-03-29T09:22:59.998Z</time></trkpt><trkpt lat="43.24669192042586" lon="12.144425584326456"><ele>308.0</ele><time>2026-03-29T09:24:16.999Z</time></trkpt><trkpt lat="43.24663390288295" lon="12.14448170788407"><ele>308.0</ele><time>2026-03-29T09:24:45.999Z</time></trkpt><trkpt lat="43.2466934138308" lon="12.144447933240476"><ele>308.0</ele><time>2026-03-29T09:27:46Z</time></trkpt><trkpt lat="43.24675935463765" lon="12.144443996910445"><ele>308.0</ele><time>2026-03-29T09:28:38Z</time></trkpt><trkpt lat="43.246695501038545" lon="12.144427682491596"><ele>308.0</ele><time>2026-03-29T09:29:56Z</time></trkpt><trkpt lat="43.24672329405357" lon="12.144508597340543"><ele>308.0</ele><time>2026-03-29T09:30:45Z</time></trkpt><trkpt lat="43.246704881033146" lon="12.144424911569677"><ele>308.0</ele><time>2026-03-29T09:31:02Z</time></trkpt><trkpt lat="43.246652637228884" lon="12.14447570260276"><ele>308.0</ele><time>2026-03-29T09:31:16.999Z</time></trkpt><trkpt lat="43.24669788349496" lon="12.144414864610981"><ele>308.0</ele><time>2026-03-29T09:32:14Z</time></trkpt><trkpt lat="43.246760819361995" lon="12.144387738419965"><ele>308.0</ele><time>2026-03-29T09:32:19Z</time></trkpt><trkpt lat="43.246756281213834" lon="12.144295218404638"><ele>308.0</ele><time>2026-03-29T09:32:25Z</time></trkpt><trkpt lat="43.24678302712568" lon="12.144198338852826"><ele>308.0</ele><time>2026-03-29T09:32:31Z</time></trkpt><trkpt lat="43.24684077910689" lon="12.144144555394554"><ele>308.0</ele><time>2026-03-29T09:32:38Z</time></trkpt><trkpt lat="43.2468791221588" lon="12.144065479650736"><ele>308.0</ele><time>2026-03-29T09:32:44Z</time></trkpt><trkpt lat="43.24694915190355" lon="12.144047362926221"><ele>308.0</ele><time>2026-03-29T09:33:20.999Z</time></trkpt><trkpt lat="43.24692658174265" lon="12.144155947361936"><ele>308.0</ele><time>2026-03-29T09:33:25.999Z</time></trkpt><trkpt lat="43.24690765260136" lon="12.144066706696394"><ele>308.0</ele><time>2026-03-29T09:33:36Z</time></trkpt><trkpt lat="43.24696476735909" lon="12.14398428616901"><ele>308.0</ele><time>2026-03-29T09:33:45Z</time></trkpt><trkpt lat="43.246917642500335" lon="12.144042802603865"><ele>308.0</ele><time>2026-03-29T09:34:46.999Z</time></trkpt><trkpt lat="43.24684702194216" lon="12.144059980633966"><ele>308.0</ele><time>2026-03-29T09:38:34Z</time></trkpt><trkpt lat="43.24679503868244" lon="12.144121750401123"><ele>308.0</ele><time>2026-03-29T09:38:40Z</time></trkpt><trkpt lat="43.246754002067036" lon="12.144190589910776"><ele>308.0</ele><time>2026-03-29T09:38:47Z</time></trkpt><trkpt lat="43.24672978357109" lon="12.144280755217018"><ele>308.0</ele><time>2026-03-29T09:38:54Z</time></trkpt><trkpt lat="43.24668731899454" lon="12.144366552531118"><ele>308.0</ele><time>2026-03-29T09:39:01Z</time></trkpt><trkpt lat="43.24666648554425" lon="12.144453923452186"><ele>308.0</ele><time>2026-03-29T09:39:08Z</time></trkpt><trkpt lat="43.24662113944979" lon="12.144530853288591"><ele>308.0</ele><time>2026-03-29T09:39:15Z</time></trkpt><trkpt lat="43.24668672805607" lon="12.14451453009761"><ele>308.0</ele><time>2026-03-29T09:41:03.999Z</time></trkpt><trkpt lat="43.24668987511694" lon="12.144609161927974"><ele>308.0</ele><time>2026-03-29T09:41:09.999Z</time></trkpt><trkpt lat="43.246719343612334" lon="12.144693190411868"><ele>308.0</ele><time>2026-03-29T09:41:22.999Z</time></trkpt><trkpt lat="43.246780753702836" lon="12.144752029979717"><ele>308.0</ele><time>2026-03-29T09:41:29.999Z</time></trkpt><trkpt lat="43.24683772441228" lon="12.144789259340136"><ele>308.0</ele><time>2026-03-29T09:41:35.999Z</time></trkpt><trkpt lat="43.246893122207084" lon="12.144831061667263"><ele>308.0</ele><time>2026-03-29T09:41:41.999Z</time></trkpt><trkpt lat="43.24694485605223" lon="12.144892817470183"><ele>308.0</ele><time>2026-03-29T09:41:47.999Z</time></trkpt><trkpt lat="43.24703991413804" lon="12.144915621419287"><ele>308.0</ele><time>2026-03-29T09:45:19Z</time></trkpt><trkpt lat="43.247151436963044" lon="12.144926209538273"><ele>308.0</ele><time>2026-03-29T09:45:21Z</time></trkpt><trkpt lat="43.24721906431945" lon="12.14491183785017"><ele>308.0</ele><time>2026-03-29T09:45:22Z</time></trkpt><trkpt lat="43.2472829676701" lon="12.144877193448377"><ele>308.0</ele><time>2026-03-29T09:45:23Z</time></trkpt><trkpt lat="43.24735197337042" lon="12.144889552749476"><ele>308.0</ele><time>2026-03-29T09:45:24Z</time></trkpt><trkpt lat="43.24740506424178" lon="12.144730980438167"><ele>308.0</ele><time>2026-03-29T09:45:26Z</time></trkpt><trkpt lat="43.24744089470112" lon="12.144559112727443"><ele>306.5</ele><time>2026-03-29T09:45:28Z</time></trkpt><trkpt lat="43.24744119909549" lon="12.144429578478567"><ele>305.0</ele><time>2026-03-29T09:45:29Z</time></trkpt><trkpt lat="43.24744418483648" lon="12.144269202861196"><ele>303.5</ele><time>2026-03-29T09:45:30Z</time></trkpt><trkpt lat="43.247450783037486" lon="12.144072213992795"><ele>302.0</ele><time>2026-03-29T09:45:31Z</time></trkpt><trkpt lat="43.24745015790879" lon="12.143847850787465"><ele>302.0</ele><time>2026-03-29T09:45:32Z</time></trkpt><trkpt lat="43.24744150623518" lon="12.143630291990753"><ele>302.0</ele><time>2026-03-29T09:45:33Z</time></trkpt><trkpt lat="43.24743365206808" lon="12.14345255443429"><ele>302.0</ele><time>2026-03-29T09:45:34Z</time></trkpt><trkpt lat="43.24742690756707" lon="12.143303935072613"><ele>302.0</ele><time>2026-03-29T09:45:35Z</time></trkpt><trkpt lat="43.247418977104715" lon="12.143170064406755"><ele>302.6</ele><time>2026-03-29T09:45:36Z</time></trkpt><trkpt lat="43.24740345056866" lon="12.143051510054375"><ele>303.2</ele><time>2026-03-29T09:45:37Z</time></trkpt><trkpt lat="43.247371157712365" lon="12.142931856228362"><ele>303.8</ele><time>2026-03-29T09:45:38Z</time></trkpt><trkpt lat="43.24733321336238" lon="12.14280549845883"><ele>304.4</ele><time>2026-03-29T09:45:39Z</time></trkpt><trkpt lat="43.24729541375146" lon="12.14268159742094"><ele>305.0</ele><time>2026-03-29T09:45:40Z</time></trkpt><trkpt lat="43.24725589993582" lon="12.14255500763266"><ele>306.6</ele><time>2026-03-29T09:45:41Z</time></trkpt><trkpt lat="43.247223784839164" lon="12.1424315635091"><ele>308.2</ele><time>2026-03-29T09:45:42Z</time></trkpt><trkpt lat="43.24719768490839" lon="12.142301123852418"><ele>309.8</ele><time>2026-03-29T09:45:43Z</time></trkpt><trkpt lat="43.24720365123157" lon="12.142191042344903"><ele>311.4</ele><time>2026-03-29T09:45:44Z</time></trkpt><trkpt lat="43.24721084420352" lon="12.142062756022328"><ele>313.0</ele><time>2026-03-29T09:45:46Z</time></trkpt><trkpt lat="43.2472272562339" lon="12.141944388102702"><ele>313.0</ele><time>2026-03-29T09:45:48Z</time></trkpt><trkpt lat="43.24724204572874" lon="12.141845008450673"><ele>313.0</ele><time>2026-03-29T09:45:51Z</time></trkpt><trkpt lat="43.24727137530097" lon="12.141693753448077"><ele>313.0</ele><time>2026-03-29T09:45:55Z</time></trkpt><trkpt lat="43.24733298288798" lon="12.141593707920821"><ele>313.0</ele><time>2026-03-29T09:45:57Z</time></trkpt><trkpt lat="43.24741559683243" lon="12.141454654276693"><ele>313.0</ele><time>2026-03-29T09:45:59Z</time></trkpt><trkpt lat="43.24755612788615" lon="12.141437536440321"><ele>313.0</ele><time>2026-03-29T09:46:00Z</time></trkpt><trkpt lat="43.24762038548576" lon="12.141349824909133"><ele>313.0</ele><time>2026-03-29T09:46:01Z</time></trkpt><trkpt lat="43.24769641877324" lon="12.141257838472514"><ele>313.0</ele><time>2026-03-29T09:46:02Z</time></trkpt><trkpt lat="43.247776384878435" lon="12.141152641493584"><ele>313.0</ele><time>2026-03-29T09:46:03Z</time></trkpt><trkpt lat="43.24786009246161" lon="12.141041372854014"><ele>313.0</ele><time>2026-03-29T09:46:04Z</time></trkpt><trkpt lat="43.247951896405645" lon="12.140926170028193"><ele>313.0</ele><time>2026-03-29T09:46:05Z</time></trkpt><trkpt lat="43.24804675216449" lon="12.140802804680565"><ele>313.0</ele><time>2026-03-29T09:46:06Z</time></trkpt><trkpt lat="43.24814678194515" lon="12.140666855554807"><ele>313.0</ele><time>2026-03-29T09:46:07Z</time></trkpt><trkpt lat="43.24825338920594" lon="12.140528256474221"><ele>313.0</ele><time>2026-03-29T09:46:08Z</time></trkpt><trkpt lat="43.248365923059126" lon="12.140382371499397"><ele>311.3333333333333</ele><time>2026-03-29T09:46:09.002Z</time></trkpt><trkpt lat="43.24848211908316" lon="12.140241252687844"><ele>309.6666666666667</ele><time>2026-03-29T09:46:10.002Z</time></trkpt><trkpt lat="43.24859479549067" lon="12.140095593225777"><ele>308.0</ele><time>2026-03-29T09:46:11.002Z</time></trkpt><trkpt lat="43.24871114480225" lon="12.13994548562451"><ele>307.6666666666667</ele><time>2026-03-29T09:46:12.002Z</time></trkpt><trkpt lat="43.24882577388253" lon="12.139788707302824"><ele>307.3333333333333</ele><time>2026-03-29T09:46:13.002Z</time></trkpt><trkpt lat="43.24894272672584" lon="12.139645579415781"><ele>307.0</ele><time>2026-03-29T09:46:14.002Z</time></trkpt><trkpt lat="43.249061318758876" lon="12.13950028072226"><ele>307.0</ele><time>2026-03-29T09:46:15.002Z</time></trkpt><trkpt lat="43.24916950283426" lon="12.139355937663616"><ele>307.0</ele><time>2026-03-29T09:46:16.002Z</time></trkpt><trkpt lat="43.249271960031585" lon="12.13922518848494"><ele>307.0</ele><time>2026-03-29T09:46:17.002Z</time></trkpt><trkpt lat="43.24935693841698" lon="12.139109658205813"><ele>307.0</ele><time>2026-03-29T09:46:18.002Z</time></trkpt><trkpt lat="43.24943339152362" lon="12.139013126447903"><ele>305.6</ele><time>2026-03-29T09:46:19.002Z</time></trkpt><trkpt lat="43.249501695382165" lon="12.138945713365219"><ele>304.2</ele><time>2026-03-29T09:46:20.002Z</time></trkpt><trkpt lat="43.24956432311257" lon="12.13890451199384"><ele>302.8</ele><time>2026-03-29T09:46:21.002Z</time></trkpt><trkpt lat="43.24962898851194" lon="12.138880640032893"><ele>301.4</ele><time>2026-03-29T09:46:22.002Z</time></trkpt><trkpt lat="43.24972913444698" lon="12.138798913012087"><ele>300.0</ele><time>2026-03-29T09:46:24.002Z</time></trkpt><trkpt lat="43.24985474734015" lon="12.13889073499779"><ele>300.0</ele><time>2026-03-29T09:46:25.001Z</time></trkpt><trkpt lat="43.249944720403484" lon="12.138901637175076"><ele>300.0</ele><time>2026-03-29T09:46:26.001Z</time></trkpt><trkpt lat="43.25003391380414" lon="12.138921461393824"><ele>300.0</ele><time>2026-03-29T09:46:27.001Z</time></trkpt><trkpt lat="43.25013047411099" lon="12.138936964614253"><ele>300.0</ele><time>2026-03-29T09:46:28.001Z</time></trkpt><trkpt lat="43.250228353521614" lon="12.138946909465595"><ele>300.0</ele><time>2026-03-29T09:46:29.001Z</time></trkpt><trkpt lat="43.25034069396879" lon="12.138962874263553"><ele>300.0</ele><time>2026-03-29T09:46:30.001Z</time></trkpt><trkpt lat="43.25044827405301" lon="12.13896771858997"><ele>300.0</ele><time>2026-03-29T09:46:31.001Z</time></trkpt><trkpt lat="43.25056821058239" lon="12.138985632394155"><ele>300.0</ele><time>2026-03-29T09:46:32.001Z</time></trkpt><trkpt lat="43.25068900369319" lon="12.139000856499985"><ele>300.0</ele><time>2026-03-29T09:46:33.001Z</time></trkpt><trkpt lat="43.25080504825422" lon="12.139015281240095"><ele>299.5</ele><time>2026-03-29T09:46:34.001Z</time></trkpt><trkpt lat="43.25093114780182" lon="12.139027080794424"><ele>299.0</ele><time>2026-03-29T09:46:35.001Z</time></trkpt><trkpt lat="43.25105827025762" lon="12.139037060272432"><ele>298.5</ele><time>2026-03-29T09:46:36.001Z</time></trkpt><trkpt lat="43.251184359379536" lon="12.139050247328576"><ele>298.0</ele><time>2026-03-29T09:46:37.001Z</time></trkpt><trkpt lat="43.251315018599094" lon="12.13906947206406"><ele>298.0</ele><time>2026-03-29T09:46:38.001Z</time></trkpt><trkpt lat="43.251446474275205" lon="12.1390887763509"><ele>298.0</ele><time>2026-03-29T09:46:39.001Z</time></trkpt><trkpt lat="43.25158175755961" lon="12.139107974397355"><ele>298.0</ele><time>2026-03-29T09:46:40.001Z</time></trkpt><trkpt lat="43.25171953561299" lon="12.139123618220697"><ele>298.0</ele><time>2026-03-29T09:46:41.001Z</time></trkpt><trkpt lat="43.25185743445696" lon="12.139138446338823"><ele>298.25</ele><time>2026-03-29T09:46:42.001Z</time></trkpt><trkpt lat="43.25199381312439" lon="12.139157475994633"><ele>298.5</ele><time>2026-03-29T09:46:43.001Z</time></trkpt><trkpt lat="43.252134778253115" lon="12.139174863532318"><ele>298.75</ele><time>2026-03-29T09:46:44.001Z</time></trkpt><trkpt lat="43.25227814930588" lon="12.139189430559659"><ele>299.0</ele><time>2026-03-29T09:46:45.001Z</time></trkpt><trkpt lat="43.25242239502193" lon="12.139203959854498"><ele>299.33333333333337</ele><time>2026-03-29T09:46:46.001Z</time></trkpt><trkpt lat="43.252570551583304" lon="12.139225543734344"><ele>299.6666666666667</ele><time>2026-03-29T09:46:47.001Z</time></trkpt><trkpt lat="43.25272256799064" lon="12.1392454024683"><ele>300.0</ele><time>2026-03-29T09:46:48.001Z</time></trkpt><trkpt lat="43.252879634284035" lon="12.139262269739657"><ele>300.0</ele><time>2026-03-29T09:46:49.001Z</time></trkpt><trkpt lat="43.25302596643171" lon="12.139280246739803"><ele>300.0</ele><time>2026-03-29T09:46:50.001Z</time></trkpt><trkpt lat="43.25316317011014" lon="12.139298704348308"><ele>300.0</ele><time>2026-03-29T09:46:51.001Z</time></trkpt><trkpt lat="43.25329162935357" lon="12.13931086568478"><ele>300.0</ele><time>2026-03-29T09:46:52.001Z</time></trkpt><trkpt lat="43.25341275445789" lon="12.139321615137177"><ele>300.3333333333333</ele><time>2026-03-29T09:46:53.001Z</time></trkpt><trkpt lat="43.25351034419358" lon="12.139328786352946"><ele>300.6666666666667</ele><time>2026-03-29T09:46:54.001Z</time></trkpt><trkpt lat="43.25359734348131" lon="12.139341497814545"><ele>301.0</ele><time>2026-03-29T09:46:55.001Z</time></trkpt><trkpt lat="43.2536793766471" lon="12.13935364231553"><ele>301.33333333333337</ele><time>2026-03-29T09:46:56.001Z</time></trkpt><trkpt lat="43.25375246581636" lon="12.139357934250157"><ele>301.6666666666667</ele><time>2026-03-29T09:46:57.001Z</time></trkpt><trkpt lat="43.25381673535034" lon="12.139359700271404"><ele>302.0</ele><time>2026-03-29T09:46:58.001Z</time></trkpt><trkpt lat="43.253880873349665" lon="12.139396192534377"><ele>302.0</ele><time>2026-03-29T09:47:00.001Z</time></trkpt><trkpt lat="43.25393439792337" lon="12.139478932191414"><ele>302.0</ele><time>2026-03-29T09:53:09Z</time></trkpt><trkpt lat="43.25392499431389" lon="12.139566570548507"><ele>302.0</ele><time>2026-03-29T09:53:11Z</time></trkpt><trkpt lat="43.253995853937106" lon="12.139562711688404"><ele>302.0</ele><time>2026-03-29T10:08:02.999Z</time></trkpt><trkpt lat="43.25406243853095" lon="12.139608000501893"><ele>302.0</ele><time>2026-03-29T10:08:59.999Z</time></trkpt><trkpt lat="43.25412008513708" lon="12.13951841357204"><ele>302.0</ele><time>2026-03-29T10:09:01.999Z</time></trkpt><trkpt lat="43.254087592795386" lon="12.139429716515254"><ele>302.0</ele><time>2026-03-29T10:09:04.999Z</time></trkpt><trkpt lat="43.25400941583065" lon="12.13936147312038"><ele>302.0</ele><time>2026-03-29T10:09:07.999Z</time></trkpt><trkpt lat="43.25394650076273" lon="12.13933758303539"><ele>302.0</ele><time>2026-03-29T10:09:08.999Z</time></trkpt><trkpt lat="43.25386602145386" lon="12.1393260375018"><ele>302.0</ele><time>2026-03-29T10:09:09.998Z</time></trkpt><trkpt lat="43.25379093985381" lon="12.139326683000677"><ele>302.0</ele><time>2026-03-29T10:09:10.998Z</time></trkpt><trkpt lat="43.25370771191523" lon="12.139321932742012"><ele>302.0</ele><time>2026-03-29T10:09:11.998Z</time></trkpt><trkpt lat="43.253617302701336" lon="12.13931226270569"><ele>302.0</ele><time>2026-03-29T10:09:12.998Z</time></trkpt><trkpt lat="43.253520871134235" lon="12.139300183371939"><ele>302.0</ele><time>2026-03-29T10:09:14Z</time></trkpt><trkpt lat="43.25341330163977" lon="12.13928892322073"><ele>302.0</ele><time>2026-03-29T10:09:15Z</time></trkpt><trkpt lat="43.25329151159632" lon="12.139271396614467"><ele>302.0</ele><time>2026-03-29T10:09:16Z</time></trkpt><trkpt lat="43.25317109622774" lon="12.139251296586094"><ele>302.0</ele><time>2026-03-29T10:09:17Z</time></trkpt><trkpt lat="43.25304793105604" lon="12.139235958759565"><ele>301.6</ele><time>2026-03-29T10:09:18Z</time></trkpt><trkpt lat="43.25291709892244" lon="12.139226982226972"><ele>301.2</ele><time>2026-03-29T10:09:19Z</time></trkpt><trkpt lat="43.25279087866245" lon="12.139218447416606"><ele>300.8</ele><time>2026-03-29T10:09:20Z</time></trkpt><trkpt lat="43.25268796970464" lon="12.139203272942162"><ele>300.4</ele><time>2026-03-29T10:09:21Z</time></trkpt><trkpt lat="43.25260364745924" lon="12.139193399271916"><ele>300.0</ele><time>2026-03-29T10:09:22Z</time></trkpt><trkpt lat="43.25250659983572" lon="12.13918128146435"><ele>300.0</ele><time>2026-03-29T10:09:23Z</time></trkpt><trkpt lat="43.252405753035966" lon="12.13916921720619"><ele>300.0</ele><time>2026-03-29T10:09:24Z</time></trkpt><trkpt lat="43.25229802915068" lon="12.139150031211926"><ele>300.0</ele><time>2026-03-29T10:09:25Z</time></trkpt><trkpt lat="43.252188937980485" lon="12.13914021826095"><ele>300.0</ele><time>2026-03-29T10:09:26Z</time></trkpt><trkpt lat="43.25208237201777" lon="12.139133192629162"><ele>300.0</ele><time>2026-03-29T10:09:27Z</time></trkpt><trkpt lat="43.25197650678914" lon="12.139121649172342"><ele>299.8</ele><time>2026-03-29T10:09:28Z</time></trkpt><trkpt lat="43.251872376496664" lon="12.139107965075473"><ele>299.6</ele><time>2026-03-29T10:09:29Z</time></trkpt><trkpt lat="43.2517694776961" lon="12.139093554718858"><ele>299.4</ele><time>2026-03-29T10:09:30Z</time></trkpt><trkpt lat="43.25166762296319" lon="12.13908055287237"><ele>299.2</ele><time>2026-03-29T10:09:31Z</time></trkpt><trkpt lat="43.25156108190273" lon="12.139067339462574"><ele>299.0</ele><time>2026-03-29T10:09:32Z</time></trkpt><trkpt lat="43.25144702400278" lon="12.139050819387736"><ele>298.75</ele><time>2026-03-29T10:09:33Z</time></trkpt><trkpt lat="43.251327470928196" lon="12.13903588748759"><ele>298.5</ele><time>2026-03-29T10:09:34Z</time></trkpt><trkpt lat="43.25120448652755" lon="12.139019455511688"><ele>298.25</ele><time>2026-03-29T10:09:35Z</time></trkpt><trkpt lat="43.25108236485053" lon="12.13900659810565"><ele>298.0</ele><time>2026-03-29T10:09:36Z</time></trkpt><trkpt lat="43.25095749470202" lon="12.138989228850585"><ele>298.0</ele><time>2026-03-29T10:09:37Z</time></trkpt><trkpt lat="43.250830593148905" lon="12.138977723658938"><ele>298.0</ele><time>2026-03-29T10:09:38Z</time></trkpt><trkpt lat="43.250705779422546" lon="12.138966291134802"><ele>298.0</ele><time>2026-03-29T10:09:39Z</time></trkpt><trkpt lat="43.2505804810244" lon="12.138953936190287"><ele>298.0</ele><time>2026-03-29T10:09:40Z</time></trkpt><trkpt lat="43.25045608075302" lon="12.138942716907865"><ele>298.5</ele><time>2026-03-29T10:09:41Z</time></trkpt><trkpt lat="43.25032976415552" lon="12.13893163128822"><ele>299.0</ele><time>2026-03-29T10:09:42Z</time></trkpt><trkpt lat="43.25020533650587" lon="12.138917621437916"><ele>299.5</ele><time>2026-03-29T10:09:43Z</time></trkpt><trkpt lat="43.25008371318464" lon="12.138899051413553"><ele>300.0</ele><time>2026-03-29T10:09:44Z</time></trkpt><trkpt lat="43.24996750298181" lon="12.138881952382851"><ele>300.0</ele><time>2026-03-29T10:09:45Z</time></trkpt><trkpt lat="43.24986090565271" lon="12.138862330941109"><ele>300.0</ele><time>2026-03-29T10:09:46Z</time></trkpt><trkpt lat="43.24976058449711" lon="12.138822122944074"><ele>300.0</ele><time>2026-03-29T10:09:47Z</time></trkpt><trkpt lat="43.24968832283665" lon="12.138734374745274"><ele>300.0</ele><time>2026-03-29T10:09:48Z</time></trkpt><trkpt lat="43.249662901047095" lon="12.138624822613071"><ele>300.0</ele><time>2026-03-29T10:09:49Z</time></trkpt><trkpt lat="43.24967655076529" lon="12.138503652843454"><ele>301.0</ele><time>2026-03-29T10:09:50Z</time></trkpt><trkpt lat="43.24971499711623" lon="12.138383633707711"><ele>302.0</ele><time>2026-03-29T10:09:51Z</time></trkpt><trkpt lat="43.24975847672793" lon="12.138248194198722"><ele>303.0</ele><time>2026-03-29T10:09:52Z</time></trkpt><trkpt lat="43.24980383440096" lon="12.138099722864906"><ele>304.0</ele><time>2026-03-29T10:09:53Z</time></trkpt><trkpt lat="43.249853038612294" lon="12.137941313399734"><ele>305.0</ele><time>2026-03-29T10:09:54Z</time></trkpt><trkpt lat="43.249895688593895" lon="12.137771315546074"><ele>305.0</ele><time>2026-03-29T10:09:55Z</time></trkpt><trkpt lat="43.24995575525231" lon="12.137590711943"><ele>305.0</ele><time>2026-03-29T10:09:56Z</time></trkpt><trkpt lat="43.25001489918622" lon="12.137406954355022"><ele>305.0</ele><time>2026-03-29T10:09:57Z</time></trkpt><trkpt lat="43.25008670096759" lon="12.137215101780228"><ele>305.0</ele><time>2026-03-29T10:09:58Z</time></trkpt><trkpt lat="43.250175556747884" lon="12.137020817948004"><ele>306.6666666666667</ele><time>2026-03-29T10:09:59Z</time></trkpt><trkpt lat="43.2502764704614" lon="12.136837271092192"><ele>308.3333333333333</ele><time>2026-03-29T10:10:00Z</time></trkpt><trkpt lat="43.25039242650174" lon="12.136646850716245"><ele>310.0</ele><time>2026-03-29T10:10:00.999Z</time></trkpt><trkpt lat="43.25050636887956" lon="12.136462830581047"><ele>308.66666666666663</ele><time>2026-03-29T10:10:01.999Z</time></trkpt><trkpt lat="43.25060248878637" lon="12.136255408479059"><ele>307.3333333333333</ele><time>2026-03-29T10:10:02.999Z</time></trkpt><trkpt lat="43.25068610573245" lon="12.136024160670946"><ele>306.0</ele><time>2026-03-29T10:10:03.999Z</time></trkpt><trkpt lat="43.25076128504195" lon="12.135788512503611"><ele>309.6666666666667</ele><time>2026-03-29T10:10:04.999Z</time></trkpt><trkpt lat="43.25083714851121" lon="12.13553958793087"><ele>313.33333333333337</ele><time>2026-03-29T10:10:05.999Z</time></trkpt><trkpt lat="43.250924922547185" lon="12.135286840319418"><ele>317.0</ele><time>2026-03-29T10:10:06.999Z</time></trkpt><trkpt lat="43.25102640832164" lon="12.135017620186508"><ele>322.0</ele><time>2026-03-29T10:10:07.999Z</time></trkpt><trkpt lat="43.25111549195816" lon="12.134735976568162"><ele>327.0</ele><time>2026-03-29T10:10:08.999Z</time></trkpt><trkpt lat="43.251223242309486" lon="12.134482357008501"><ele>332.0</ele><time>2026-03-29T10:10:09.999Z</time></trkpt><trkpt lat="43.251349564333765" lon="12.13439684510682"><ele>330.33333333333337</ele><time>2026-03-29T10:10:11.999Z</time></trkpt><trkpt lat="43.25149961365915" lon="12.134254121370422"><ele>328.6666666666667</ele><time>2026-03-29T10:10:12.999Z</time></trkpt><trkpt lat="43.25161032839082" lon="12.13410813467982"><ele>327.0</ele><time>2026-03-29T10:10:13.999Z</time></trkpt><trkpt lat="43.25168021998601" lon="12.133924524895944"><ele>327.0</ele><time>2026-03-29T10:10:14.999Z</time></trkpt><trkpt lat="43.25176221311744" lon="12.133754472882142"><ele>327.0</ele><time>2026-03-29T10:10:15.999Z</time></trkpt><trkpt lat="43.2518322018564" lon="12.13356282198165"><ele>327.0</ele><time>2026-03-29T10:10:16.999Z</time></trkpt><trkpt lat="43.251944206212336" lon="12.133404961028955"><ele>327.0</ele><time>2026-03-29T10:10:17.999Z</time></trkpt><trkpt lat="43.25205123863519" lon="12.133267158650476"><ele>327.0</ele><time>2026-03-29T10:10:18.999Z</time></trkpt><trkpt lat="43.25219130292338" lon="12.133090230866637"><ele>327.0</ele><time>2026-03-29T10:10:19.999Z</time></trkpt><trkpt lat="43.25228936264987" lon="12.132919410147915"><ele>323.5</ele><time>2026-03-29T10:10:20.999Z</time></trkpt><trkpt lat="43.25239290432633" lon="12.13276888319963"><ele>320.0</ele><time>2026-03-29T10:10:21.999Z</time></trkpt><trkpt lat="43.25240219894505" lon="12.13263073948382"><ele>316.5</ele><time>2026-03-29T10:10:22.999Z</time></trkpt><trkpt lat="43.252379225216515" lon="12.132470211833882"><ele>313.0</ele><time>2026-03-29T10:10:23.999Z</time></trkpt><trkpt lat="43.252326137462454" lon="12.132314729830442"><ele>316.0</ele><time>2026-03-29T10:10:24.999Z</time></trkpt><trkpt lat="43.25227700347789" lon="12.132143459980577"><ele>319.0</ele><time>2026-03-29T10:10:25.999Z</time></trkpt><trkpt lat="43.252238927944305" lon="12.131975508282887"><ele>322.0</ele><time>2026-03-29T10:10:26.999Z</time></trkpt><trkpt lat="43.252199849330516" lon="12.131839432891287"><ele>325.0</ele><time>2026-03-29T10:10:27.999Z</time></trkpt><trkpt lat="43.252135081904065" lon="12.131742949544625"><ele>325.0</ele><time>2026-03-29T10:10:28.999Z</time></trkpt><trkpt lat="43.252044728781556" lon="12.13168898083303"><ele>325.0</ele><time>2026-03-29T10:10:29.999Z</time></trkpt><trkpt lat="43.25195650403488" lon="12.131686401267295"><ele>325.0</ele><time>2026-03-29T10:10:30.999Z</time></trkpt><trkpt lat="43.251889431297485" lon="12.13171321002991"><ele>325.0</ele><time>2026-03-29T10:10:31.999Z</time></trkpt><trkpt lat="43.25169426502514" lon="12.131694679850384"><ele>325.0</ele><time>2026-03-29T10:10:37.999Z</time></trkpt><trkpt lat="43.25160814187979" lon="12.131712056737262"><ele>325.0</ele><time>2026-03-29T10:10:39.999Z</time></trkpt><trkpt lat="43.25155476311068" lon="12.132131760797668"><ele>325.0</ele><time>2026-03-29T10:10:40.999Z</time></trkpt><trkpt lat="43.251543016060374" lon="12.132255140561726"><ele>325.0</ele><time>2026-03-29T10:10:41.999Z</time></trkpt><trkpt lat="43.25155128368781" lon="12.13238249721173"><ele>325.0</ele><time>2026-03-29T10:10:42.999Z</time></trkpt><trkpt lat="43.251564135668026" lon="12.132538083790845"><ele>325.0</ele><time>2026-03-29T10:10:43.999Z</time></trkpt><trkpt lat="43.25156841067376" lon="12.132703291386756"><ele>325.0</ele><time>2026-03-29T10:10:44.999Z</time></trkpt><trkpt lat="43.25154507809661" lon="12.132824380889476"><ele>325.0</ele><time>2026-03-29T10:10:45.999Z</time></trkpt><trkpt lat="43.251464373064984" lon="12.132909776959384"><ele>331.0</ele><time>2026-03-29T10:10:47.999Z</time></trkpt><trkpt lat="43.25136417332682" lon="12.13290635801587"><ele>337.0</ele><time>2026-03-29T10:10:49.999Z</time></trkpt><trkpt lat="43.251297564328674" lon="12.132934016513731"><ele>343.0</ele><time>2026-03-29T10:10:50.999Z</time></trkpt><trkpt lat="43.251225808692304" lon="12.13297312674597"><ele>349.0</ele><time>2026-03-29T10:10:52.999Z</time></trkpt><trkpt lat="43.25112148058729" lon="12.132896406120684"><ele>355.0</ele><time>2026-03-29T10:10:54.999Z</time></trkpt><trkpt lat="43.25106416367122" lon="12.132807356179597"><ele>355.0</ele><time>2026-03-29T10:10:57.999Z</time></trkpt><trkpt lat="43.25097702280806" lon="12.132802671418494"><ele>355.0</ele><time>2026-03-29T10:10:59.999Z</time></trkpt><trkpt lat="43.25095950585495" lon="12.13292545486441"><ele>355.0</ele><time>2026-03-29T10:11:01.999Z</time></trkpt><trkpt lat="43.25091130040984" lon="12.132983757722409"><ele>355.0</ele><time>2026-03-29T10:11:03.999Z</time></trkpt><trkpt lat="43.250845506718875" lon="12.132945814695866"><ele>355.0</ele><time>2026-03-29T10:11:05.999Z</time></trkpt><trkpt lat="43.25078414934059" lon="12.132883059928172"><ele>355.0</ele><time>2026-03-29T10:11:07.998Z</time></trkpt><trkpt lat="43.2507017658053" lon="12.132877215827355"><ele>355.0</ele><time>2026-03-29T10:11:09.998Z</time></trkpt><trkpt lat="43.25063631518251" lon="12.132896585535835"><ele>355.0</ele><time>2026-03-29T10:11:11.998Z</time></trkpt><trkpt lat="43.250556381880166" lon="12.132871103834844"><ele>355.0</ele><time>2026-03-29T10:12:14.999Z</time></trkpt><trkpt lat="43.250489778014824" lon="12.132852137294"><ele>355.0</ele><time>2026-03-29T10:12:15.999Z</time></trkpt><trkpt lat="43.250321452049505" lon="12.13289453083185"><ele>355.0</ele><time>2026-03-29T10:12:17.999Z</time></trkpt><trkpt lat="43.250204407881476" lon="12.132923183851592"><ele>357.0</ele><time>2026-03-29T10:12:18.999Z</time></trkpt><trkpt lat="43.25010864899558" lon="12.132870675584652"><ele>359.0</ele><time>2026-03-29T10:12:20.999Z</time></trkpt><trkpt lat="43.25000293665335" lon="12.132883157872103"><ele>361.0</ele><time>2026-03-29T10:12:22.999Z</time></trkpt><trkpt lat="43.249935122530694" lon="12.13292273092114"><ele>363.0</ele><time>2026-03-29T10:12:23.999Z</time></trkpt><trkpt lat="43.249845924625184" lon="12.13294869621684"><ele>365.0</ele><time>2026-03-29T10:12:24.999Z</time></trkpt><trkpt lat="43.249756112133056" lon="12.132938443476503"><ele>366.6</ele><time>2026-03-29T10:12:25.999Z</time></trkpt><trkpt lat="43.24966443482367" lon="12.132907402680075"><ele>368.2</ele><time>2026-03-29T10:12:26.999Z</time></trkpt><trkpt lat="43.24958173557286" lon="12.132917621332316"><ele>369.79999999999995</ele><time>2026-03-29T10:12:28.999Z</time></trkpt><trkpt lat="43.249467475153224" lon="12.13298567985895"><ele>371.4</ele><time>2026-03-29T10:12:30.999Z</time></trkpt><trkpt lat="43.24939273387332" lon="12.133062638351433"><ele>373.0</ele><time>2026-03-29T10:12:31.999Z</time></trkpt><trkpt lat="43.249300390553486" lon="12.133134641127334"><ele>373.0</ele><time>2026-03-29T10:12:32.999Z</time></trkpt><trkpt lat="43.249216813339295" lon="12.133168565187201"><ele>373.0</ele><time>2026-03-29T10:12:33.999Z</time></trkpt><trkpt lat="43.2491415561424" lon="12.133216753527407"><ele>373.0</ele><time>2026-03-29T10:12:34.999Z</time></trkpt><trkpt lat="43.24906620453607" lon="12.13324519500383"><ele>373.0</ele><time>2026-03-29T10:12:35.999Z</time></trkpt><trkpt lat="43.24898756772923" lon="12.133235169384664"><ele>373.0</ele><time>2026-03-29T10:12:36.999Z</time></trkpt><trkpt lat="43.24892218865618" lon="12.13324605413844"><ele>373.0</ele><time>2026-03-29T10:12:37.999Z</time></trkpt><trkpt lat="43.24885420773849" lon="12.133252311683036"><ele>376.5</ele><time>2026-03-29T10:12:38.999Z</time></trkpt><trkpt lat="43.24878369085188" lon="12.13329026238835"><ele>380.0</ele><time>2026-03-29T10:12:39.999Z</time></trkpt><trkpt lat="43.2486861445017" lon="12.133350922764762"><ele>383.5</ele><time>2026-03-29T10:12:41.999Z</time></trkpt><trkpt lat="43.248611856689045" lon="12.133359417094958"><ele>387.0</ele><time>2026-03-29T10:12:42.999Z</time></trkpt><trkpt lat="43.2485289114871" lon="12.133373160047515"><ele>390.50000000000006</ele><time>2026-03-29T10:12:43.999Z</time></trkpt><trkpt lat="43.24845384520352" lon="12.133380765068694"><ele>394.0</ele><time>2026-03-29T10:12:44.999Z</time></trkpt><trkpt lat="43.24839023641365" lon="12.133407332861829"><ele>394.0</ele><time>2026-03-29T10:12:45.999Z</time></trkpt><trkpt lat="43.24829195330657" lon="12.133350748916104"><ele>394.0</ele><time>2026-03-29T10:12:47.999Z</time></trkpt><trkpt lat="43.248201194941934" lon="12.133343496627502"><ele>394.0</ele><time>2026-03-29T10:12:48.999Z</time></trkpt><trkpt lat="43.248111955442695" lon="12.133334631368097"><ele>394.0</ele><time>2026-03-29T10:12:49.999Z</time></trkpt><trkpt lat="43.247980949324514" lon="12.133282582694468"><ele>394.0</ele><time>2026-03-29T10:12:51.999Z</time></trkpt><trkpt lat="43.24790108859547" lon="12.133249326645421"><ele>394.4</ele><time>2026-03-29T10:12:52.999Z</time></trkpt><trkpt lat="43.2478200692585" lon="12.133203734958169"><ele>394.79999999999995</ele><time>2026-03-29T10:12:53.999Z</time></trkpt><trkpt lat="43.24771284655822" lon="12.133117887714105"><ele>395.20000000000005</ele><time>2026-03-29T10:12:54.999Z</time></trkpt><trkpt lat="43.24760169658383" lon="12.133052799436772"><ele>395.6</ele><time>2026-03-29T10:12:55.999Z</time></trkpt><trkpt lat="43.247516319552794" lon="12.132983637514787"><ele>396.0</ele><time>2026-03-29T10:12:56.999Z</time></trkpt><trkpt lat="43.24743012362216" lon="12.132919701434297"><ele>396.0</ele><time>2026-03-29T10:12:57.998Z</time></trkpt><trkpt lat="43.247361590689096" lon="12.132834968003921"><ele>396.0</ele><time>2026-03-29T10:12:58.998Z</time></trkpt><trkpt lat="43.247305129493604" lon="12.13275644791297"><ele>396.0</ele><time>2026-03-29T10:12:59.998Z</time></trkpt><trkpt lat="43.24719784454997" lon="12.132697031270693"><ele>396.0</ele><time>2026-03-29T10:13:02.998Z</time></trkpt><trkpt lat="43.24712159249655" lon="12.132664960259614"><ele>396.0</ele><time>2026-03-29T10:13:03.998Z</time></trkpt><trkpt lat="43.24703369020701" lon="12.132690912319996"><ele>398.8</ele><time>2026-03-29T10:13:05.998Z</time></trkpt><trkpt lat="43.24700458961617" lon="12.132785186112955"><ele>401.6</ele><time>2026-03-29T10:13:06.998Z</time></trkpt><trkpt lat="43.246898935765415" lon="12.132881457657374"><ele>404.4</ele><time>2026-03-29T10:13:08.998Z</time></trkpt><trkpt lat="43.24680701939304" lon="12.132883015986739"><ele>407.2</ele><time>2026-03-29T10:13:09.998Z</time></trkpt><trkpt lat="43.24673253813991" lon="12.132898185768257"><ele>410.0</ele><time>2026-03-29T10:13:10.998Z</time></trkpt><trkpt lat="43.24668542444539" lon="12.133014136592397"><ele>409.99999999999994</ele><time>2026-03-29T10:13:13.998Z</time></trkpt><trkpt lat="43.246696726907956" lon="12.133101422262802"><ele>410.0</ele><time>2026-03-29T10:13:15.998Z</time></trkpt><trkpt lat="43.24672125802449" lon="12.133190988182204"><ele>410.0</ele><time>2026-03-29T10:13:17.998Z</time></trkpt><trkpt lat="43.24672540847985" lon="12.133279074116917"><ele>410.0</ele><time>2026-03-29T10:13:19.998Z</time></trkpt><trkpt lat="43.24671411773953" lon="12.133408812052014"><ele>409.99999999999994</ele><time>2026-03-29T10:13:22.998Z</time></trkpt><trkpt lat="43.24670916678405" lon="12.133567309106391"><ele>410.0</ele><time>2026-03-29T10:13:24.998Z</time></trkpt><trkpt lat="43.24670897012811" lon="12.133682803171517"><ele>412.8333333333333</ele><time>2026-03-29T10:13:25.999Z</time></trkpt><trkpt lat="43.24671899369954" lon="12.133769283807831"><ele>415.66666666666663</ele><time>2026-03-29T10:13:26.999Z</time></trkpt><trkpt lat="43.24669080125098" lon="12.133856083366606"><ele>418.5</ele><time>2026-03-29T10:13:28.999Z</time></trkpt><trkpt lat="43.24663465892241" lon="12.133980877545573"><ele>421.33333333333337</ele><time>2026-03-29T10:13:30.999Z</time></trkpt><trkpt lat="43.24658895069257" lon="12.134083563927803"><ele>424.1666666666667</ele><time>2026-03-29T10:13:31.999Z</time></trkpt><trkpt lat="43.24653799469299" lon="12.134211155525843"><ele>427.0</ele><time>2026-03-29T10:13:33.999Z</time></trkpt><trkpt lat="43.24648158085507" lon="12.134286834521873"><ele>429.40000000000003</ele><time>2026-03-29T10:13:35.999Z</time></trkpt><trkpt lat="43.24651923405265" lon="12.134433362208757"><ele>431.80000000000007</ele><time>2026-03-29T10:13:37.999Z</time></trkpt><trkpt lat="43.24647644655055" lon="12.134563714999116"><ele>434.2</ele><time>2026-03-29T10:13:39.999Z</time></trkpt><trkpt lat="43.24641357739101" lon="12.134653619572012"><ele>436.6</ele><time>2026-03-29T10:13:41.999Z</time></trkpt><trkpt lat="43.24634336942075" lon="12.134650883577851"><ele>439.0</ele><time>2026-03-29T10:13:49.999Z</time></trkpt><trkpt lat="43.24624546687044" lon="12.134572997538925"><ele>443.4</ele><time>2026-03-29T10:13:51.999Z</time></trkpt><trkpt lat="43.246153371581386" lon="12.134559614145605"><ele>447.79999999999995</ele><time>2026-03-29T10:13:52.999Z</time></trkpt><trkpt lat="43.24602246752298" lon="12.134589952630595"><ele>452.20000000000005</ele><time>2026-03-29T10:13:54.999Z</time></trkpt><trkpt lat="43.245939543003225" lon="12.134588367935084"><ele>456.6</ele><time>2026-03-29T10:13:55.999Z</time></trkpt><trkpt lat="43.24583415550485" lon="12.134580069047518"><ele>461.0</ele><time>2026-03-29T10:13:56.999Z</time></trkpt><trkpt lat="43.24574262318068" lon="12.134569893367043"><ele>460.99999999999994</ele><time>2026-03-29T10:13:57.999Z</time></trkpt><trkpt lat="43.24566179376164" lon="12.134542575975063"><ele>461.0</ele><time>2026-03-29T10:13:58.999Z</time></trkpt><trkpt lat="43.24554020554956" lon="12.134496906282454"><ele>461.0</ele><time>2026-03-29T10:14:00.999Z</time></trkpt><trkpt lat="43.24546750125458" lon="12.134504129261153"><ele>461.0</ele><time>2026-03-29T10:14:01.999Z</time></trkpt><trkpt lat="43.245403933001754" lon="12.134533354312934"><ele>460.99999999999994</ele><time>2026-03-29T10:14:02.999Z</time></trkpt><trkpt lat="43.24532423757629" lon="12.134563086108226"><ele>461.0</ele><time>2026-03-29T10:14:03.999Z</time></trkpt><trkpt lat="43.245229738577436" lon="12.134579453262546"><ele>464.66666666666663</ele><time>2026-03-29T10:14:04.999Z</time></trkpt><trkpt lat="43.24515998601326" lon="12.13457664255581"><ele>468.3333333333333</ele><time>2026-03-29T10:14:05.999Z</time></trkpt><trkpt lat="43.24506491613591" lon="12.13461241582598"><ele>472.0</ele><time>2026-03-29T10:14:07.999Z</time></trkpt><trkpt lat="43.244967462720226" lon="12.134609947288206"><ele>475.66666666666663</ele><time>2026-03-29T10:14:09.999Z</time></trkpt><trkpt lat="43.24488070263765" lon="12.134610414058562"><ele>479.3333333333333</ele><time>2026-03-29T10:14:11.999Z</time></trkpt><trkpt lat="43.24479753657911" lon="12.134653818766871"><ele>483.0</ele><time>2026-03-29T10:14:14.999Z</time></trkpt><trkpt lat="43.24470502788165" lon="12.134666307634081"><ele>486.8333333333333</ele><time>2026-03-29T10:14:16.999Z</time></trkpt><trkpt lat="43.244654811414144" lon="12.134568152794534"><ele>490.66666666666663</ele><time>2026-03-29T10:14:20.999Z</time></trkpt><trkpt lat="43.2446100663199" lon="12.134474388841637"><ele>494.5</ele><time>2026-03-29T10:14:22.999Z</time></trkpt><trkpt lat="43.244540602786714" lon="12.134452320709899"><ele>498.3333333333333</ele><time>2026-03-29T10:14:24.999Z</time></trkpt><trkpt lat="43.24444041316138" lon="12.134437952649002"><ele>502.16666666666663</ele><time>2026-03-29T10:14:26.999Z</time></trkpt><trkpt lat="43.24438863629563" lon="12.134352921160085"><ele>506.0</ele><time>2026-03-29T10:14:28.999Z</time></trkpt><trkpt lat="43.24429756315202" lon="12.134246853101121"><ele>505.99999999999994</ele><time>2026-03-29T10:14:31.999Z</time></trkpt><trkpt lat="43.24422064566602" lon="12.134182485830626"><ele>506.0</ele><time>2026-03-29T10:14:32.999Z</time></trkpt><trkpt lat="43.244135488034104" lon="12.134111784678286"><ele>506.0</ele><time>2026-03-29T10:14:33.999Z</time></trkpt><trkpt lat="43.24404246892982" lon="12.134076420546007"><ele>506.0</ele><time>2026-03-29T10:14:34.999Z</time></trkpt><trkpt lat="43.24398300088437" lon="12.134032759704251"><ele>505.99999999999994</ele><time>2026-03-29T10:14:35.999Z</time></trkpt><trkpt lat="43.243924555143565" lon="12.133974665578705"><ele>506.0</ele><time>2026-03-29T10:14:36.999Z</time></trkpt><trkpt lat="43.24390017801526" lon="12.133857331031184"><ele>509.8</ele><time>2026-03-29T10:14:38.999Z</time></trkpt><trkpt lat="43.24385247357849" lon="12.13370098115868"><ele>513.6</ele><time>2026-03-29T10:14:40.999Z</time></trkpt><trkpt lat="43.243771421494166" lon="12.133650170245552"><ele>517.4</ele><time>2026-03-29T10:14:42.999Z</time></trkpt><trkpt lat="43.243664724738245" lon="12.133573992921978"><ele>521.2</ele><time>2026-03-29T10:14:44.999Z</time></trkpt><trkpt lat="43.243597711614036" lon="12.133527677181423"><ele>525.0</ele><time>2026-03-29T10:14:45.999Z</time></trkpt><trkpt lat="43.24353415382582" lon="12.133438912981008"><ele>525.0</ele><time>2026-03-29T10:14:46.999Z</time></trkpt><trkpt lat="43.24347422198925" lon="12.133338719743662"><ele>525.0</ele><time>2026-03-29T10:14:47.999Z</time></trkpt><trkpt lat="43.24342592482107" lon="12.133262808584101"><ele>525.0</ele><time>2026-03-29T10:14:48.999Z</time></trkpt><trkpt lat="43.243369599827766" lon="12.133165083633495"><ele>525.0</ele><time>2026-03-29T10:14:49.999Z</time></trkpt><trkpt lat="43.24330932147091" lon="12.133027884082546"><ele>525.0</ele><time>2026-03-29T10:14:50.999Z</time></trkpt><trkpt lat="43.24329185034474" lon="12.132925251221476"><ele>525.6666666666666</ele><time>2026-03-29T10:14:51.999Z</time></trkpt><trkpt lat="43.24325224113909" lon="12.132754980100128"><ele>526.3333333333334</ele><time>2026-03-29T10:14:53.999Z</time></trkpt><trkpt lat="43.2432050253594" lon="12.132661837180834"><ele>527.0</ele><time>2026-03-29T10:14:54.999Z</time></trkpt><trkpt lat="43.24314353734906" lon="12.132576678334937"><ele>527.6666666666667</ele><time>2026-03-29T10:14:55.999Z</time></trkpt><trkpt lat="43.24307627568271" lon="12.132512996542506"><ele>528.3333333333334</ele><time>2026-03-29T10:14:56.999Z</time></trkpt><trkpt lat="43.24302367617674" lon="12.132458298811061"><ele>529.0</ele><time>2026-03-29T10:14:57.999Z</time></trkpt><trkpt lat="43.24300585275585" lon="12.132555735192685"><ele>529.0</ele><time>2026-03-29T10:15:10.999Z</time></trkpt><trkpt lat="43.243099407828545" lon="12.132671182206463"><ele>529.0</ele><time>2026-03-29T10:15:12.998Z</time></trkpt><trkpt lat="43.24315278356169" lon="12.132766905792582"><ele>529.0</ele><time>2026-03-29T10:15:13.998Z</time></trkpt><trkpt lat="43.24317994014592" lon="12.132857695678988"><ele>529.0</ele><time>2026-03-29T10:15:14.998Z</time></trkpt><trkpt lat="43.24316966172388" lon="12.132948334705679"><ele>529.0</ele><time>2026-03-29T10:15:15.998Z</time></trkpt><trkpt lat="43.24312233472559" lon="12.133083229720375"><ele>529.0</ele><time>2026-03-29T10:15:17.998Z</time></trkpt><trkpt lat="43.24305821418179" lon="12.13314638585278"><ele>529.0</ele><time>2026-03-29T10:15:19.998Z</time></trkpt><trkpt lat="43.242967122482156" lon="12.133152368078623"><ele>529.0</ele><time>2026-03-29T10:15:21.998Z</time></trkpt><trkpt lat="43.24289457808228" lon="12.133162979277808"><ele>529.0</ele><time>2026-03-29T10:15:22.998Z</time></trkpt><trkpt lat="43.24282250893212" lon="12.13317822624461"><ele>529.0</ele><time>2026-03-29T10:15:23.998Z</time></trkpt><trkpt lat="43.2427563473335" lon="12.133247562058855"><ele>529.0</ele><time>2026-03-29T10:15:25.998Z</time></trkpt><trkpt lat="43.24279307083947" lon="12.13341054353696"><ele>533.6</ele><time>2026-03-29T10:15:27.998Z</time></trkpt><trkpt lat="43.242824323802154" lon="12.133507300944974"><ele>538.2</ele><time>2026-03-29T10:15:28.998Z</time></trkpt><trkpt lat="43.242854401509724" lon="12.13360331546529"><ele>542.8000000000001</ele><time>2026-03-29T10:15:29.998Z</time></trkpt><trkpt lat="43.24285058611634" lon="12.13376071092052"><ele>547.4</ele><time>2026-03-29T10:15:31.999Z</time></trkpt><trkpt lat="43.24286704813777" lon="12.133863262573767"><ele>552.0</ele><time>2026-03-29T10:15:32.999Z</time></trkpt><trkpt lat="43.242840109628204" lon="12.134010138838219"><ele>553.1666666666666</ele><time>2026-03-29T10:15:34.999Z</time></trkpt><trkpt lat="43.24278624447791" lon="12.13413536559887"><ele>554.3333333333334</ele><time>2026-03-29T10:15:35.999Z</time></trkpt><trkpt lat="43.242756821930335" lon="12.134237642867067"><ele>555.5</ele><time>2026-03-29T10:15:36.999Z</time></trkpt><trkpt lat="43.24268114368421" lon="12.134294159622222"><ele>556.6666666666667</ele><time>2026-03-29T10:15:38.999Z</time></trkpt><trkpt lat="43.242597889520155" lon="12.134212858180165"><ele>557.8333333333334</ele><time>2026-03-29T10:15:40.999Z</time></trkpt><trkpt lat="43.24253899140062" lon="12.134165063759843"><ele>559.0</ele><time>2026-03-29T10:15:41.999Z</time></trkpt><trkpt lat="43.242415863210475" lon="12.134108599477699"><ele>559.0</ele><time>2026-03-29T10:15:43.999Z</time></trkpt><trkpt lat="43.24230768745033" lon="12.134063015141471"><ele>559.0</ele><time>2026-03-29T10:15:44.999Z</time></trkpt><trkpt lat="43.24221832561888" lon="12.134043161453713"><ele>559.0</ele><time>2026-03-29T10:15:45.999Z</time></trkpt><trkpt lat="43.24212837327422" lon="12.134003779869838"><ele>559.0</ele><time>2026-03-29T10:15:46.999Z</time></trkpt><trkpt lat="43.24205462106002" lon="12.13396955310781"><ele>559.0</ele><time>2026-03-29T10:15:47.999Z</time></trkpt><trkpt lat="43.2419720575012" lon="12.13392336399485"><ele>562.2</ele><time>2026-03-29T10:15:48.999Z</time></trkpt><trkpt lat="43.24190078505242" lon="12.133874710864893"><ele>565.4</ele><time>2026-03-29T10:15:49.999Z</time></trkpt><trkpt lat="43.241773196756085" lon="12.13381634568984"><ele>568.6</ele><time>2026-03-29T10:15:51.999Z</time></trkpt><trkpt lat="43.241682390051615" lon="12.133787846575668"><ele>571.8</ele><time>2026-03-29T10:15:52.999Z</time></trkpt><trkpt lat="43.24158995118492" lon="12.1337469964408"><ele>575.0</ele><time>2026-03-29T10:15:53.999Z</time></trkpt><trkpt lat="43.24149374193628" lon="12.133715193459441"><ele>579.5</ele><time>2026-03-29T10:15:54.999Z</time></trkpt><trkpt lat="43.24141521439167" lon="12.133674523906716"><ele>584.0</ele><time>2026-03-29T10:15:55.999Z</time></trkpt><trkpt lat="43.24133024687063" lon="12.133648434966712"><ele>588.5</ele><time>2026-03-29T10:15:56.999Z</time></trkpt><trkpt lat="43.24124999103276" lon="12.133624387618895"><ele>593.0</ele><time>2026-03-29T10:15:57.999Z</time></trkpt><trkpt lat="43.24118016675748" lon="12.133633608516169"><ele>597.5</ele><time>2026-03-29T10:15:58.999Z</time></trkpt><trkpt lat="43.241067198260325" lon="12.133653994098717"><ele>602.0</ele><time>2026-03-29T10:16:00.999Z</time></trkpt><trkpt lat="43.24100221920151" lon="12.133675169476687"><ele>602.0</ele><time>2026-03-29T10:16:01.999Z</time></trkpt><trkpt lat="43.24089823940715" lon="12.133670040023631"><ele>602.0</ele><time>2026-03-29T10:16:03.999Z</time></trkpt><trkpt lat="43.24080464143793" lon="12.13362902446213"><ele>602.0</ele><time>2026-03-29T10:16:05.999Z</time></trkpt><trkpt lat="43.240743301356474" lon="12.133601107131513"><ele>602.0</ele><time>2026-03-29T10:16:06.999Z</time></trkpt><trkpt lat="43.24067620053661" lon="12.133562368675706"><ele>602.0</ele><time>2026-03-29T10:16:07.999Z</time></trkpt><trkpt lat="43.24060954253586" lon="12.133543148170789"><ele>602.0</ele><time>2026-03-29T10:16:08.999Z</time></trkpt><trkpt lat="43.24052620168445" lon="12.133520518961655"><ele>607.2</ele><time>2026-03-29T10:16:09.999Z</time></trkpt><trkpt lat="43.24044042177272" lon="12.133491206551238"><ele>612.4000000000001</ele><time>2026-03-29T10:16:10.999Z</time></trkpt><trkpt lat="43.240358660211186" lon="12.13344701388749"><ele>617.5999999999999</ele><time>2026-03-29T10:16:11.999Z</time></trkpt><trkpt lat="43.2402677834549" lon="12.13341605218057"><ele>622.8</ele><time>2026-03-29T10:16:12.999Z</time></trkpt><trkpt lat="43.24016813426625" lon="12.133408313691119"><ele>628.0</ele><time>2026-03-29T10:16:13.999Z</time></trkpt><trkpt lat="43.24008711358904" lon="12.133401872500333"><ele>628.0</ele><time>2026-03-29T10:16:14.999Z</time></trkpt><trkpt lat="43.24000373112187" lon="12.133346595992203"><ele>628.0</ele><time>2026-03-29T10:16:16.999Z</time></trkpt><trkpt lat="43.23994210833966" lon="12.133296165934551"><ele>628.0</ele><time>2026-03-29T10:16:17.999Z</time></trkpt><trkpt lat="43.2398810549521" lon="12.133266230268156"><ele>628.0</ele><time>2026-03-29T10:16:18.999Z</time></trkpt><trkpt lat="43.23977402745806" lon="12.133198705522707"><ele>628.0</ele><time>2026-03-29T10:16:20.999Z</time></trkpt><trkpt lat="43.23965852285715" lon="12.13313600807457"><ele>631.8333333333334</ele><time>2026-03-29T10:16:22.999Z</time></trkpt><trkpt lat="43.23957846368696" lon="12.133063861797181"><ele>635.6666666666667</ele><time>2026-03-29T10:16:24.999Z</time></trkpt><trkpt lat="43.23951182461999" lon="12.133033466500901"><ele>639.5</ele><time>2026-03-29T10:16:25.999Z</time></trkpt><trkpt lat="43.239447436550684" lon="12.132986304799815"><ele>643.3333333333334</ele><time>2026-03-29T10:16:26.999Z</time></trkpt><trkpt lat="43.239364154625626" lon="12.133045666974885"><ele>647.1666666666666</ele><time>2026-03-29T10:16:28.999Z</time></trkpt><trkpt lat="43.239299819761214" lon="12.133103303822766"><ele>651.0</ele><time>2026-03-29T10:16:29.999Z</time></trkpt><trkpt lat="43.23914993573827" lon="12.133125635912794"><ele>651.0</ele><time>2026-03-29T10:16:31.999Z</time></trkpt><trkpt lat="43.2390359272284" lon="12.13310824390764"><ele>651.0</ele><time>2026-03-29T10:16:32.999Z</time></trkpt><trkpt lat="43.238956381439216" lon="12.13308400840052"><ele>651.0</ele><time>2026-03-29T10:16:33.999Z</time></trkpt><trkpt lat="43.23892233690008" lon="12.132994766444583"><ele>651.0</ele><time>2026-03-29T10:16:35.999Z</time></trkpt><trkpt lat="43.23891269303472" lon="12.13290367019812"><ele>651.0</ele><time>2026-03-29T10:16:36.999Z</time></trkpt><trkpt lat="43.23888117341041" lon="12.132741993211758"><ele>652.0</ele><time>2026-03-29T10:16:37.999Z</time></trkpt><trkpt lat="43.238835087909905" lon="12.132610246195188"><ele>653.0</ele><time>2026-03-29T10:16:38.999Z</time></trkpt><trkpt lat="43.23876994171373" lon="12.132537598899008"><ele>654.0</ele><time>2026-03-29T10:16:39.999Z</time></trkpt><trkpt lat="43.238687883306035" lon="12.132485659291069"><ele>655.0</ele><time>2026-03-29T10:16:40.999Z</time></trkpt><trkpt lat="43.2385720153227" lon="12.132418202225535"><ele>656.0</ele><time>2026-03-29T10:16:41.999Z</time></trkpt><trkpt lat="43.23845955424234" lon="12.132370784770151"><ele>659.8</ele><time>2026-03-29T10:16:42.999Z</time></trkpt><trkpt lat="43.23837075968774" lon="12.13230020448161"><ele>663.5999999999999</ele><time>2026-03-29T10:16:43.999Z</time></trkpt><trkpt lat="43.23828159572855" lon="12.132261805926564"><ele>667.4</ele><time>2026-03-29T10:16:44.999Z</time></trkpt><trkpt lat="43.23820071804159" lon="12.132261053154119"><ele>671.2</ele><time>2026-03-29T10:16:45.999Z</time></trkpt><trkpt lat="43.23808953471826" lon="12.132255487071497"><ele>675.0</ele><time>2026-03-29T10:16:46.999Z</time></trkpt><trkpt lat="43.23797275007487" lon="12.132262428695398"><ele>675.8</ele><time>2026-03-29T10:16:47.999Z</time></trkpt><trkpt lat="43.23789016652095" lon="12.132266038477765"><ele>676.6</ele><time>2026-03-29T10:16:48.999Z</time></trkpt><trkpt lat="43.237808815133555" lon="12.132246680794704"><ele>677.4000000000001</ele><time>2026-03-29T10:16:49.999Z</time></trkpt><trkpt lat="43.23768159731506" lon="12.132241058977696"><ele>678.2</ele><time>2026-03-29T10:16:50.999Z</time></trkpt><trkpt lat="43.237569425708365" lon="12.132260050196294"><ele>679.0</ele><time>2026-03-29T10:16:51.999Z</time></trkpt><trkpt lat="43.23738385657302" lon="12.132347746863287"><ele>674.8000000000001</ele><time>2026-03-29T10:16:53.999Z</time></trkpt><trkpt lat="43.23729302613033" lon="12.132399412692871"><ele>670.6</ele><time>2026-03-29T10:16:54.999Z</time></trkpt><trkpt lat="43.2372124922183" lon="12.132439879132008"><ele>666.4</ele><time>2026-03-29T10:16:55.999Z</time></trkpt><trkpt lat="43.237131309770874" lon="12.132507505220223"><ele>662.2</ele><time>2026-03-29T10:16:56.999Z</time></trkpt><trkpt lat="43.23706165838451" lon="12.132563788441441"><ele>658.0</ele><time>2026-03-29T10:16:57.999Z</time></trkpt><trkpt lat="43.23697702091732" lon="12.132706445768894"><ele>658.0</ele><time>2026-03-29T10:16:59.999Z</time></trkpt><trkpt lat="43.236908312271865" lon="12.132748921712254"><ele>658.0</ele><time>2026-03-29T10:17:00.999Z</time></trkpt><trkpt lat="43.236796328087436" lon="12.132685163374727"><ele>658.0</ele><time>2026-03-29T10:17:01.999Z</time></trkpt><trkpt lat="43.2367012347142" lon="12.132608901099456"><ele>658.0</ele><time>2026-03-29T10:17:02.999Z</time></trkpt><trkpt lat="43.2365908584783" lon="12.132521455829684"><ele>658.0</ele><time>2026-03-29T10:17:03.999Z</time></trkpt><trkpt lat="43.23650834934323" lon="12.13246309574099"><ele>658.4</ele><time>2026-03-29T10:17:04.999Z</time></trkpt><trkpt lat="43.236422897753314" lon="12.132404319258018"><ele>658.8</ele><time>2026-03-29T10:17:05.999Z</time></trkpt><trkpt lat="43.23630971724005" lon="12.132424782190522"><ele>659.2</ele><time>2026-03-29T10:17:07.999Z</time></trkpt><trkpt lat="43.23620772070953" lon="12.132407642655489"><ele>659.6</ele><time>2026-03-29T10:17:08.999Z</time></trkpt><trkpt lat="43.23615839964538" lon="12.132471684472247"><ele>660.0</ele><time>2026-03-29T10:17:09.999Z</time></trkpt><trkpt lat="43.23604502111906" lon="12.131908811322235"><ele>664.0</ele><time>2026-03-29T10:17:10.999Z</time></trkpt><trkpt lat="43.2359760035857" lon="12.131832374415044"><ele>668.0</ele><time>2026-03-29T10:17:11.999Z</time></trkpt><trkpt lat="43.235889609330776" lon="12.131787582103092"><ele>672.0</ele><time>2026-03-29T10:17:12.999Z</time></trkpt><trkpt lat="43.235800154185995" lon="12.131768301899262"><ele>676.0</ele><time>2026-03-29T10:17:13.999Z</time></trkpt><trkpt lat="43.23570824407103" lon="12.13179391447426"><ele>680.0</ele><time>2026-03-29T10:17:14.999Z</time></trkpt><trkpt lat="43.23563743141463" lon="12.131856870193628"><ele>684.4</ele><time>2026-03-29T10:17:15.999Z</time></trkpt><trkpt lat="43.23551443032885" lon="12.13196492952793"><ele>688.8</ele><time>2026-03-29T10:17:17.999Z</time></trkpt><trkpt lat="43.23544213734448" lon="12.13201277099227"><ele>693.2</ele><time>2026-03-29T10:17:18.999Z</time></trkpt><trkpt lat="43.23537914026038" lon="12.132033961257196"><ele>697.6</ele><time>2026-03-29T10:17:19.999Z</time></trkpt><trkpt lat="43.235279658404885" lon="12.132050316764671"><ele>702.0</ele><time>2026-03-29T10:17:20.999Z</time></trkpt><trkpt lat="43.23514256625463" lon="12.132047770169452"><ele>702.0</ele><time>2026-03-29T10:17:21.999Z</time></trkpt><trkpt lat="43.234976810994844" lon="12.132030235551076"><ele>702.0</ele><time>2026-03-29T10:17:22.999Z</time></trkpt><trkpt lat="43.23481878631074" lon="12.132018047596913"><ele>702.0</ele><time>2026-03-29T10:17:23.999Z</time></trkpt><trkpt lat="43.234675029531026" lon="12.132066078439978"><ele>704.75</ele><time>2026-03-29T10:17:24.999Z</time></trkpt><trkpt lat="43.234509024053175" lon="12.13210703321772"><ele>707.5</ele><time>2026-03-29T10:17:25.999Z</time></trkpt><trkpt lat="43.234367741679634" lon="12.132151410743914"><ele>710.25</ele><time>2026-03-29T10:17:26.999Z</time></trkpt><trkpt lat="43.23427837008309" lon="12.132161637147416"><ele>713.0</ele><time>2026-03-29T10:17:27.999Z</time></trkpt><trkpt lat="43.23417007863102" lon="12.132114681395814"><ele>713.0</ele><time>2026-03-29T10:17:29.999Z</time></trkpt><trkpt lat="43.234097067497814" lon="12.132045165851773"><ele>713.0</ele><time>2026-03-29T10:17:30.999Z</time></trkpt><trkpt lat="43.2339990674292" lon="12.131959729061826"><ele>713.0</ele><time>2026-03-29T10:17:31.999Z</time></trkpt><trkpt lat="43.233871968768476" lon="12.131848452906311"><ele>713.0</ele><time>2026-03-29T10:17:32.999Z</time></trkpt><trkpt lat="43.23372695979653" lon="12.131723169959416"><ele>713.8</ele><time>2026-03-29T10:17:33.999Z</time></trkpt><trkpt lat="43.2336050212784" lon="12.131623847172307"><ele>714.5999999999999</ele><time>2026-03-29T10:17:34.999Z</time></trkpt><trkpt lat="43.2335221861473" lon="12.131567050985149"><ele>715.4000000000001</ele><time>2026-03-29T10:17:35.999Z</time></trkpt><trkpt lat="43.23345828612703" lon="12.131535917960573"><ele>716.2</ele><time>2026-03-29T10:17:36.999Z</time></trkpt><trkpt lat="43.23335498360168" lon="12.131603571239534"><ele>717.0</ele><time>2026-03-29T10:17:38.999Z</time></trkpt><trkpt lat="43.233314963507055" lon="12.131785041017025"><ele>717.0</ele><time>2026-03-29T10:17:39.999Z</time></trkpt><trkpt lat="43.233285685611314" lon="12.131894026725078"><ele>717.0</ele><time>2026-03-29T10:17:40.999Z</time></trkpt><trkpt lat="43.233245546500406" lon="12.132010730078894"><ele>717.0</ele><time>2026-03-29T10:17:41.999Z</time></trkpt><trkpt lat="43.233182418124045" lon="12.1321301554115"><ele>717.0</ele><time>2026-03-29T10:17:42.999Z</time></trkpt><trkpt lat="43.233105443187064" lon="12.132205788183606"><ele>717.0</ele><time>2026-03-29T10:17:43.999Z</time></trkpt><trkpt lat="43.23301307292554" lon="12.132255732903392"><ele>719.75</ele><time>2026-03-29T10:17:44.999Z</time></trkpt><trkpt lat="43.23291418336877" lon="12.132272801757813"><ele>722.5</ele><time>2026-03-29T10:17:45.999Z</time></trkpt><trkpt lat="43.23278804047444" lon="12.132255741929223"><ele>725.25</ele><time>2026-03-29T10:17:46.999Z</time></trkpt><trkpt lat="43.232632829145146" lon="12.1322446471546"><ele>728.0</ele><time>2026-03-29T10:17:47.999Z</time></trkpt><trkpt lat="43.232478110187934" lon="12.132248317343898"><ele>728.0</ele><time>2026-03-29T10:17:48.999Z</time></trkpt><trkpt lat="43.23234632209086" lon="12.132250155961277"><ele>728.0</ele><time>2026-03-29T10:17:49.999Z</time></trkpt><trkpt lat="43.23223950504183" lon="12.132294674997725"><ele>728.0</ele><time>2026-03-29T10:17:50.999Z</time></trkpt><trkpt lat="43.23211075249159" lon="12.132356806153455"><ele>728.0</ele><time>2026-03-29T10:17:51.999Z</time></trkpt><trkpt lat="43.23196854155519" lon="12.132463951420876"><ele>726.75</ele><time>2026-03-29T10:17:52.999Z</time></trkpt><trkpt lat="43.231834018097445" lon="12.132535529939318"><ele>725.5</ele><time>2026-03-29T10:17:53.999Z</time></trkpt><trkpt lat="43.23172754331243" lon="12.132586152244102"><ele>724.25</ele><time>2026-03-29T10:17:54.999Z</time></trkpt><trkpt lat="43.231621287202934" lon="12.13260157155886"><ele>723.0</ele><time>2026-03-29T10:17:55.999Z</time></trkpt><trkpt lat="43.23152211196345" lon="12.132585238450531"><ele>723.2</ele><time>2026-03-29T10:17:56.999Z</time></trkpt><trkpt lat="43.23143150765298" lon="12.132509224342154"><ele>723.4</ele><time>2026-03-29T10:17:57.999Z</time></trkpt><trkpt lat="43.23134467182037" lon="12.132433734238672"><ele>723.6</ele><time>2026-03-29T10:17:58.999Z</time></trkpt><trkpt lat="43.23130171652686" lon="12.132360319992133"><ele>723.8000000000001</ele><time>2026-03-29T10:17:59.999Z</time></trkpt><trkpt lat="43.23122832667469" lon="12.132292474567864"><ele>724.0</ele><time>2026-03-29T10:18:01.999Z</time></trkpt><trkpt lat="43.231133636600035" lon="12.132300635752397"><ele>724.0</ele><time>2026-03-29T10:18:03.999Z</time></trkpt><trkpt lat="43.2310635587195" lon="12.13232857451742"><ele>724.0</ele><time>2026-03-29T10:18:06.999Z</time></trkpt><trkpt lat="43.23104684697221" lon="12.13241446674707"><ele>724.0</ele><time>2026-03-29T10:18:07.999Z</time></trkpt><trkpt lat="43.23108552278267" lon="12.132496334961825"><ele>724.0</ele><time>2026-03-29T10:18:13.999Z</time></trkpt><trkpt lat="43.23104996260349" lon="12.132646214749013"><ele>724.0</ele><time>2026-03-29T10:18:15.999Z</time></trkpt><trkpt lat="43.23102259103864" lon="12.132734603174569"><ele>724.0</ele><time>2026-03-29T10:18:16.999Z</time></trkpt><trkpt lat="43.23100423509212" lon="12.132845354998164"><ele>724.0</ele><time>2026-03-29T10:18:17.999Z</time></trkpt><trkpt lat="43.23095893182327" lon="12.132977885855329"><ele>724.0</ele><time>2026-03-29T10:18:18.999Z</time></trkpt><trkpt lat="43.23093468346306" lon="12.133139100350771"><ele>724.0</ele><time>2026-03-29T10:18:19.999Z</time></trkpt><trkpt lat="43.23092903096148" lon="12.13327206911135"><ele>724.0</ele><time>2026-03-29T10:18:20.999Z</time></trkpt><trkpt lat="43.230950022805196" lon="12.133394046829261"><ele>724.0</ele><time>2026-03-29T10:18:21.999Z</time></trkpt><trkpt lat="43.23098310617519" lon="12.133560980521013"><ele>724.1666666666667</ele><time>2026-03-29T10:18:22.999Z</time></trkpt><trkpt lat="43.23098839786177" lon="12.133728899577845"><ele>724.3333333333334</ele><time>2026-03-29T10:18:23.999Z</time></trkpt><trkpt lat="43.23100718958484" lon="12.133875090341546"><ele>724.5</ele><time>2026-03-29T10:18:24.999Z</time></trkpt><trkpt lat="43.23101822481562" lon="12.133960938800067"><ele>724.6666666666666</ele><time>2026-03-29T10:18:25.999Z</time></trkpt><trkpt lat="43.23103038728577" lon="12.13406637978508"><ele>724.8333333333333</ele><time>2026-03-29T10:18:26.999Z</time></trkpt><trkpt lat="43.231040348968" lon="12.134156967035485"><ele>725.0</ele><time>2026-03-29T10:18:27.999Z</time></trkpt><trkpt lat="43.231050452037685" lon="12.134254163129176"><ele>725.4</ele><time>2026-03-29T10:18:28.999Z</time></trkpt><trkpt lat="43.2310598511451" lon="12.134393939649769"><ele>725.8</ele><time>2026-03-29T10:18:29.999Z</time></trkpt><trkpt lat="43.23106489866987" lon="12.13455039054338"><ele>726.2</ele><time>2026-03-29T10:18:30.999Z</time></trkpt><trkpt lat="43.23108173048512" lon="12.1347224565952"><ele>726.6</ele><time>2026-03-29T10:18:31.999Z</time></trkpt><trkpt lat="43.231079754827974" lon="12.134848241351607"><ele>727.0</ele><time>2026-03-29T10:18:32.999Z</time></trkpt><trkpt lat="43.23107569940228" lon="12.135013708052394"><ele>725.6</ele><time>2026-03-29T10:18:33.999Z</time></trkpt><trkpt lat="43.23105434407419" lon="12.135150516684481"><ele>724.2</ele><time>2026-03-29T10:18:34.999Z</time></trkpt><trkpt lat="43.23104728245113" lon="12.135277780411995"><ele>722.8</ele><time>2026-03-29T10:18:35.999Z</time></trkpt><trkpt lat="43.23102795252587" lon="12.135377909548577"><ele>721.4</ele><time>2026-03-29T10:18:36.999Z</time></trkpt><trkpt lat="43.230983497463825" lon="12.135479271549135"><ele>720.0</ele><time>2026-03-29T10:18:37.999Z</time></trkpt><trkpt lat="43.23091021150036" lon="12.135573903874253"><ele>720.0</ele><time>2026-03-29T10:18:38.999Z</time></trkpt><trkpt lat="43.23083228677416" lon="12.135617513112047"><ele>720.0</ele><time>2026-03-29T10:18:39.999Z</time></trkpt><trkpt lat="43.230750697177065" lon="12.135623276925452"><ele>720.0</ele><time>2026-03-29T10:18:40.999Z</time></trkpt><trkpt lat="43.23067173399313" lon="12.135649010274003"><ele>720.0</ele><time>2026-03-29T10:18:41.999Z</time></trkpt><trkpt lat="43.230593822412125" lon="12.135691098108888"><ele>720.0</ele><time>2026-03-29T10:18:42.999Z</time></trkpt><trkpt lat="43.23050673464738" lon="12.135719289264284"><ele>720.0</ele><time>2026-03-29T10:18:43.999Z</time></trkpt><trkpt lat="43.23038882661545" lon="12.135793589921699"><ele>718.8</ele><time>2026-03-29T10:18:44.999Z</time></trkpt><trkpt lat="43.23029142747913" lon="12.135833913970474"><ele>717.6</ele><time>2026-03-29T10:18:45.999Z</time></trkpt><trkpt lat="43.23019513898735" lon="12.135888078589279"><ele>716.4000000000001</ele><time>2026-03-29T10:18:46.999Z</time></trkpt><trkpt lat="43.230120104124595" lon="12.135957511986852"><ele>715.2</ele><time>2026-03-29T10:18:47.999Z</time></trkpt><trkpt lat="43.230040633646595" lon="12.13600801029656"><ele>714.0</ele><time>2026-03-29T10:18:48.999Z</time></trkpt><trkpt lat="43.229969999145325" lon="12.136061851436335"><ele>714.0</ele><time>2026-03-29T10:18:49.999Z</time></trkpt><trkpt lat="43.22988439502389" lon="12.136143433794864"><ele>714.0</ele><time>2026-03-29T10:18:50.999Z</time></trkpt><trkpt lat="43.2298304045067" lon="12.136225937039177"><ele>714.0</ele><time>2026-03-29T10:18:51.999Z</time></trkpt><trkpt lat="43.229749784967574" lon="12.13636240321223"><ele>714.0</ele><time>2026-03-29T10:18:53.999Z</time></trkpt><trkpt lat="43.229695102647725" lon="12.136484244298344"><ele>714.0</ele><time>2026-03-29T10:18:54.999Z</time></trkpt><trkpt lat="43.22965432169979" lon="12.13660500239194"><ele>715.6666666666666</ele><time>2026-03-29T10:18:55.999Z</time></trkpt><trkpt lat="43.22963844560024" lon="12.136709698327461"><ele>717.3333333333334</ele><time>2026-03-29T10:18:56.999Z</time></trkpt><trkpt lat="43.229623014637596" lon="12.136848180052803"><ele>719.0</ele><time>2026-03-29T10:18:57.999Z</time></trkpt><trkpt lat="43.229613067241495" lon="12.136982394972414"><ele>720.6666666666667</ele><time>2026-03-29T10:18:58.999Z</time></trkpt><trkpt lat="43.229616857115815" lon="12.137088610831052"><ele>722.3333333333334</ele><time>2026-03-29T10:18:59.999Z</time></trkpt><trkpt lat="43.22960448485744" lon="12.137178145240402"><ele>724.0</ele><time>2026-03-29T10:19:00.999Z</time></trkpt><trkpt lat="43.22958579891375" lon="12.137281623292234"><ele>721.2</ele><time>2026-03-29T10:19:01.999Z</time></trkpt><trkpt lat="43.22956662000069" lon="12.137398509021125"><ele>718.4000000000001</ele><time>2026-03-29T10:19:02.999Z</time></trkpt><trkpt lat="43.229539781484036" lon="12.137519010002997"><ele>715.6</ele><time>2026-03-29T10:19:03.999Z</time></trkpt><trkpt lat="43.22950301251733" lon="12.137655176277397"><ele>712.8</ele><time>2026-03-29T10:19:04.999Z</time></trkpt><trkpt lat="43.22946574684361" lon="12.137806864594847"><ele>710.0</ele><time>2026-03-29T10:19:05.999Z</time></trkpt><trkpt lat="43.22944218396318" lon="12.13793242001437"><ele>710.0</ele><time>2026-03-29T10:19:06.999Z</time></trkpt><trkpt lat="43.22942736395413" lon="12.138071405660884"><ele>710.0</ele><time>2026-03-29T10:19:07.999Z</time></trkpt><trkpt lat="43.22941942974823" lon="12.138161094515882"><ele>710.0</ele><time>2026-03-29T10:19:08.999Z</time></trkpt><trkpt lat="43.22941450020992" lon="12.138252845582555"><ele>710.0</ele><time>2026-03-29T10:19:09.999Z</time></trkpt><trkpt lat="43.2294334259368" lon="12.138335414952364"><ele>710.0</ele><time>2026-03-29T10:19:10.999Z</time></trkpt><trkpt lat="43.22943855195323" lon="12.13843576845394"><ele>710.0</ele><time>2026-03-29T10:19:12.999Z</time></trkpt><trkpt lat="43.229501522086906" lon="12.138599235446401"><ele>710.0</ele><time>2026-03-29T10:19:14.999Z</time></trkpt><trkpt lat="43.22952913314504" lon="12.138722736396389"><ele>710.0</ele><time>2026-03-29T10:19:15.999Z</time></trkpt><trkpt lat="43.22958866939186" lon="12.138873746317403"><ele>710.0</ele><time>2026-03-29T10:19:16.999Z</time></trkpt><trkpt lat="43.22964292118125" lon="12.139032293411438"><ele>710.0</ele><time>2026-03-29T10:19:17.999Z</time></trkpt><trkpt lat="43.22969713006711" lon="12.139147247601171"><ele>710.0</ele><time>2026-03-29T10:19:18.999Z</time></trkpt><trkpt lat="43.22975723682906" lon="12.139208823378622"><ele>709.6</ele><time>2026-03-29T10:19:19.999Z</time></trkpt><trkpt lat="43.22986361528221" lon="12.139276535508916"><ele>709.2</ele><time>2026-03-29T10:19:21.999Z</time></trkpt><trkpt lat="43.229915306136355" lon="12.1393697195372"><ele>708.8</ele><time>2026-03-29T10:19:22.999Z</time></trkpt><trkpt lat="43.229960653146115" lon="12.139462563172629"><ele>708.4</ele><time>2026-03-29T10:19:23.999Z</time></trkpt><trkpt lat="43.23001358910574" lon="12.139588801537291"><ele>708.0</ele><time>2026-03-29T10:19:24.999Z</time></trkpt><trkpt lat="43.230073861603856" lon="12.139732385144656"><ele>708.0</ele><time>2026-03-29T10:19:25.999Z</time></trkpt><trkpt lat="43.23013952351194" lon="12.139865780653878"><ele>708.0</ele><time>2026-03-29T10:19:26.999Z</time></trkpt><trkpt lat="43.23019253152302" lon="12.13998388008545"><ele>708.0</ele><time>2026-03-29T10:19:27.999Z</time></trkpt><trkpt lat="43.230225511027996" lon="12.140086164308029"><ele>708.0</ele><time>2026-03-29T10:19:28.999Z</time></trkpt><trkpt lat="43.23027172528771" lon="12.140150059088457"><ele>708.0</ele><time>2026-03-29T10:19:29.999Z</time></trkpt><trkpt lat="43.23033089241147" lon="12.140295469758621"><ele>708.2</ele><time>2026-03-29T10:19:31.999Z</time></trkpt><trkpt lat="43.23038431276518" lon="12.140458654471235"><ele>708.4</ele><time>2026-03-29T10:19:33.999Z</time></trkpt><trkpt lat="43.230396460247874" lon="12.140550740132417"><ele>708.6</ele><time>2026-03-29T10:19:34.999Z</time></trkpt><trkpt lat="43.230389122257435" lon="12.14069187095139"><ele>708.8000000000001</ele><time>2026-03-29T10:19:36.999Z</time></trkpt><trkpt lat="43.23038373558411" lon="12.14082184238563"><ele>709.0</ele><time>2026-03-29T10:19:38.999Z</time></trkpt><trkpt lat="43.230341786972026" lon="12.14093645888662"><ele>705.6</ele><time>2026-03-29T10:19:40.999Z</time></trkpt><trkpt lat="43.230295429109944" lon="12.141102610337166"><ele>702.2</ele><time>2026-03-29T10:19:42.999Z</time></trkpt><trkpt lat="43.23027162978542" lon="12.141193043330379"><ele>698.8000000000001</ele><time>2026-03-29T10:19:43.999Z</time></trkpt><trkpt lat="43.230201583492885" lon="12.141355462897872"><ele>695.4000000000001</ele><time>2026-03-29T10:19:45.999Z</time></trkpt><trkpt lat="43.23019517729976" lon="12.141464299883516"><ele>692.0</ele><time>2026-03-29T10:19:46.999Z</time></trkpt><trkpt lat="43.23018048809903" lon="12.141557679283654"><ele>690.5</ele><time>2026-03-29T10:19:47.999Z</time></trkpt><trkpt lat="43.2301668009518" lon="12.141664688319514"><ele>689.0</ele><time>2026-03-29T10:19:48.999Z</time></trkpt><trkpt lat="43.23015137225631" lon="12.141777672515737"><ele>687.5</ele><time>2026-03-29T10:19:49.999Z</time></trkpt><trkpt lat="43.230129320530246" lon="12.141880451026093"><ele>686.0</ele><time>2026-03-29T10:19:50.999Z</time></trkpt><trkpt lat="43.23010560565609" lon="12.141983419256091"><ele>684.5</ele><time>2026-03-29T10:19:51.999Z</time></trkpt><trkpt lat="43.23006224467947" lon="12.142077323248838"><ele>683.0</ele><time>2026-03-29T10:19:52.999Z</time></trkpt><trkpt lat="43.23002158062379" lon="12.142168237293708"><ele>683.0</ele><time>2026-03-29T10:19:53.999Z</time></trkpt><trkpt lat="43.229983197264026" lon="12.1422417897418"><ele>683.0</ele><time>2026-03-29T10:19:54.999Z</time></trkpt><trkpt lat="43.22995911175671" lon="12.14233793830507"><ele>683.0</ele><time>2026-03-29T10:19:55.999Z</time></trkpt><trkpt lat="43.229923288374685" lon="12.142460580059849"><ele>683.0</ele><time>2026-03-29T10:19:56.999Z</time></trkpt><trkpt lat="43.229892361734755" lon="12.142605461697322"><ele>683.0</ele><time>2026-03-29T10:19:57.999Z</time></trkpt><trkpt lat="43.22987791140432" lon="12.142758437259765"><ele>681.5999999999999</ele><time>2026-03-29T10:19:58.999Z</time></trkpt><trkpt lat="43.229846756978105" lon="12.142882014953049"><ele>680.1999999999999</ele><time>2026-03-29T10:19:59.999Z</time></trkpt><trkpt lat="43.22979966003845" lon="12.142977399581488"><ele>678.8</ele><time>2026-03-29T10:20:00.999Z</time></trkpt><trkpt lat="43.229736048084945" lon="12.143086132387618"><ele>677.4</ele><time>2026-03-29T10:20:01.999Z</time></trkpt><trkpt lat="43.229654328935084" lon="12.143247854236828"><ele>676.0</ele><time>2026-03-29T10:20:02.999Z</time></trkpt><trkpt lat="43.22961969156754" lon="12.143402299658389"><ele>675.25</ele><time>2026-03-29T10:20:03.999Z</time></trkpt><trkpt lat="43.229573816687314" lon="12.14355147490449"><ele>674.5</ele><time>2026-03-29T10:20:04.999Z</time></trkpt><trkpt lat="43.22952291494562" lon="12.143705765052298"><ele>673.75</ele><time>2026-03-29T10:20:05.999Z</time></trkpt><trkpt lat="43.2294743633824" lon="12.143845387360043"><ele>673.0</ele><time>2026-03-29T10:20:06.999Z</time></trkpt><trkpt lat="43.22947479120391" lon="12.144014374467583"><ele>674.5</ele><time>2026-03-29T10:20:08.999Z</time></trkpt><trkpt lat="43.229553209834805" lon="12.144148842314427"><ele>676.0</ele><time>2026-03-29T10:20:11Z</time></trkpt><trkpt lat="43.2295947347709" lon="12.144218765965293"><ele>677.5</ele><time>2026-03-29T10:20:12Z</time></trkpt><trkpt lat="43.22957238351137" lon="12.144300970482298"><ele>679.0</ele><time>2026-03-29T10:20:13Z</time></trkpt><trkpt lat="43.22954827933196" lon="12.144435393521428"><ele>680.5</ele><time>2026-03-29T10:20:15Z</time></trkpt><trkpt lat="43.22953060666373" lon="12.14452663111455"><ele>682.0</ele><time>2026-03-29T10:20:16Z</time></trkpt><trkpt lat="43.22950111424971" lon="12.144637234332983"><ele>682.0</ele><time>2026-03-29T10:20:17Z</time></trkpt><trkpt lat="43.229464423779056" lon="12.144760300226809"><ele>682.0</ele><time>2026-03-29T10:20:18Z</time></trkpt><trkpt lat="43.22945468211147" lon="12.144869086022927"><ele>682.0</ele><time>2026-03-29T10:20:19Z</time></trkpt><trkpt lat="43.22944690382847" lon="12.144955947956484"><ele>682.0</ele><time>2026-03-29T10:20:20Z</time></trkpt><trkpt lat="43.22950399764069" lon="12.145025415051775"><ele>682.0</ele><time>2026-03-29T10:20:21Z</time></trkpt><trkpt lat="43.22952928294986" lon="12.145251874099024"><ele>685.0</ele><time>2026-03-29T10:20:23Z</time></trkpt><trkpt lat="43.22953809199633" lon="12.145390133531787"><ele>688.0</ele><time>2026-03-29T10:20:25Z</time></trkpt><trkpt lat="43.2295615489169" lon="12.145617508924033"><ele>691.0</ele><time>2026-03-29T10:20:27Z</time></trkpt><trkpt lat="43.22955247004204" lon="12.145782784139312"><ele>694.0</ele><time>2026-03-29T10:20:28Z</time></trkpt><trkpt lat="43.229565748855485" lon="12.145933417243041"><ele>694.4000000000001</ele><time>2026-03-29T10:20:29Z</time></trkpt><trkpt lat="43.229569764827225" lon="12.14611029649908"><ele>694.8</ele><time>2026-03-29T10:20:30Z</time></trkpt><trkpt lat="43.22958695417996" lon="12.146274066843155"><ele>695.2</ele><time>2026-03-29T10:20:31Z</time></trkpt><trkpt lat="43.22960959975033" lon="12.146398511883719"><ele>695.5999999999999</ele><time>2026-03-29T10:20:32Z</time></trkpt><trkpt lat="43.22963680153964" lon="12.146498602364119"><ele>696.0</ele><time>2026-03-29T10:20:33Z</time></trkpt><trkpt lat="43.22964500160359" lon="12.146600414101599"><ele>695.0</ele><time>2026-03-29T10:20:34Z</time></trkpt><trkpt lat="43.22966634629363" lon="12.146682213364187"><ele>694.0</ele><time>2026-03-29T10:20:35Z</time></trkpt><trkpt lat="43.229690526359505" lon="12.146822686176423"><ele>693.0</ele><time>2026-03-29T10:20:37Z</time></trkpt><trkpt lat="43.229710507409536" lon="12.14700235899415"><ele>692.0</ele><time>2026-03-29T10:20:39Z</time></trkpt><trkpt lat="43.22973165915709" lon="12.147147210154385"><ele>691.0</ele><time>2026-03-29T10:20:40Z</time></trkpt><trkpt lat="43.22977017311462" lon="12.147273816675717"><ele>690.4</ele><time>2026-03-29T10:20:41Z</time></trkpt><trkpt lat="43.22980773397329" lon="12.147378451249384"><ele>689.8</ele><time>2026-03-29T10:20:42Z</time></trkpt><trkpt lat="43.2298214889012" lon="12.147507946853153"><ele>689.1999999999999</ele><time>2026-03-29T10:20:43Z</time></trkpt><trkpt lat="43.22985842591525" lon="12.147645230240713"><ele>688.5999999999999</ele><time>2026-03-29T10:20:44Z</time></trkpt><trkpt lat="43.229914381166715" lon="12.147765977078448"><ele>688.0</ele><time>2026-03-29T10:20:45Z</time></trkpt><trkpt lat="43.22997628381623" lon="12.147909347089623"><ele>688.75</ele><time>2026-03-29T10:20:46Z</time></trkpt><trkpt lat="43.23002896738322" lon="12.148076099875372"><ele>689.5</ele><time>2026-03-29T10:20:47Z</time></trkpt><trkpt lat="43.23009666660231" lon="12.148251390597357"><ele>690.25</ele><time>2026-03-29T10:20:48Z</time></trkpt><trkpt lat="43.23016902463262" lon="12.148457419535989"><ele>691.0</ele><time>2026-03-29T10:20:49Z</time></trkpt><trkpt lat="43.230266473939466" lon="12.148644947738976"><ele>691.0</ele><time>2026-03-29T10:20:50Z</time></trkpt><trkpt lat="43.23034469369297" lon="12.148848061530238"><ele>691.0</ele><time>2026-03-29T10:20:51Z</time></trkpt><trkpt lat="43.23041236274724" lon="12.14902877468463"><ele>691.0</ele><time>2026-03-29T10:20:52Z</time></trkpt><trkpt lat="43.23047900202254" lon="12.149209517314569"><ele>692.0</ele><time>2026-03-29T10:20:53Z</time></trkpt><trkpt lat="43.230557481487565" lon="12.149367708772067"><ele>693.0</ele><time>2026-03-29T10:20:54Z</time></trkpt><trkpt lat="43.23064391192834" lon="12.149524509023783"><ele>694.0</ele><time>2026-03-29T10:20:55Z</time></trkpt><trkpt lat="43.23072841380645" lon="12.149684151478683"><ele>695.0</ele><time>2026-03-29T10:20:56Z</time></trkpt><trkpt lat="43.23078271593377" lon="12.149873440493188"><ele>694.6</ele><time>2026-03-29T10:20:57Z</time></trkpt><trkpt lat="43.23085360044597" lon="12.150025958291977"><ele>694.2</ele><time>2026-03-29T10:20:58Z</time></trkpt><trkpt lat="43.23090662484799" lon="12.150152525325677"><ele>693.8</ele><time>2026-03-29T10:20:59Z</time></trkpt><trkpt lat="43.2309717761771" lon="12.150257447236617"><ele>693.4</ele><time>2026-03-29T10:21:00Z</time></trkpt><trkpt lat="43.23103993035957" lon="12.150343421410591"><ele>693.0</ele><time>2026-03-29T10:21:01Z</time></trkpt><trkpt lat="43.231086354443406" lon="12.150456431856316"><ele>693.0</ele><time>2026-03-29T10:21:02Z</time></trkpt><trkpt lat="43.23113602110154" lon="12.150562476068341"><ele>693.0</ele><time>2026-03-29T10:21:03Z</time></trkpt><trkpt lat="43.23116308622477" lon="12.150679067289088"><ele>693.0</ele><time>2026-03-29T10:21:04Z</time></trkpt><trkpt lat="43.23115810406482" lon="12.150787532925143"><ele>693.0</ele><time>2026-03-29T10:21:05Z</time></trkpt><trkpt lat="43.23113542283012" lon="12.150894642153744"><ele>693.0</ele><time>2026-03-29T10:21:06Z</time></trkpt><trkpt lat="43.23105438459173" lon="12.150981195413062"><ele>693.0</ele><time>2026-03-29T10:21:07Z</time></trkpt><trkpt lat="43.230970642481026" lon="12.151042988829536"><ele>692.3333333333334</ele><time>2026-03-29T10:21:08Z</time></trkpt><trkpt lat="43.23087918765681" lon="12.151084537734139"><ele>691.6666666666666</ele><time>2026-03-29T10:21:09Z</time></trkpt><trkpt lat="43.23077180572459" lon="12.151108162378934"><ele>691.0</ele><time>2026-03-29T10:21:10Z</time></trkpt><trkpt lat="43.23068151633133" lon="12.15112217194307"><ele>690.3333333333333</ele><time>2026-03-29T10:21:11Z</time></trkpt><trkpt lat="43.2306086796337" lon="12.151131739399684"><ele>689.6666666666666</ele><time>2026-03-29T10:21:12Z</time></trkpt><trkpt lat="43.23054866667213" lon="12.151183074137718"><ele>689.0</ele><time>2026-03-29T10:21:13Z</time></trkpt><trkpt lat="43.2305097382822" lon="12.151252576783648"><ele>686.8000000000001</ele><time>2026-03-29T10:21:14Z</time></trkpt><trkpt lat="43.23050038981204" lon="12.151351516814698"><ele>684.6</ele><time>2026-03-29T10:21:15Z</time></trkpt><trkpt lat="43.23055713075585" lon="12.151473274431556"><ele>682.4</ele><time>2026-03-29T10:21:16Z</time></trkpt><trkpt lat="43.23057232683607" lon="12.151642523048217"><ele>680.2</ele><time>2026-03-29T10:21:17Z</time></trkpt><trkpt lat="43.23059512603346" lon="12.15180486975167"><ele>678.0</ele><time>2026-03-29T10:21:17.999Z</time></trkpt><trkpt lat="43.230578258839074" lon="12.151940952558437"><ele>675.75</ele><time>2026-03-29T10:21:18.999Z</time></trkpt><trkpt lat="43.2305189238744" lon="12.152102318688408"><ele>673.5</ele><time>2026-03-29T10:21:19.999Z</time></trkpt><trkpt lat="43.23053033171168" lon="12.152304516837685"><ele>671.25</ele><time>2026-03-29T10:21:20.999Z</time></trkpt><trkpt lat="43.230539201152006" lon="12.152508008126249"><ele>669.0</ele><time>2026-03-29T10:21:21.999Z</time></trkpt><trkpt lat="43.230561815915216" lon="12.152731403932446"><ele>669.0</ele><time>2026-03-29T10:21:22.999Z</time></trkpt><trkpt lat="43.230565902765335" lon="12.152946751442428"><ele>669.0</ele><time>2026-03-29T10:21:23.999Z</time></trkpt><trkpt lat="43.23060996596015" lon="12.153114380751402"><ele>669.0</ele><time>2026-03-29T10:21:24.999Z</time></trkpt><trkpt lat="43.23061691921878" lon="12.153278528073013"><ele>669.0</ele><time>2026-03-29T10:21:25.999Z</time></trkpt><trkpt lat="43.230636957516346" lon="12.1534351997344"><ele>668.4000000000001</ele><time>2026-03-29T10:21:26.999Z</time></trkpt><trkpt lat="43.23066810129268" lon="12.153614136805889"><ele>667.8</ele><time>2026-03-29T10:21:27.999Z</time></trkpt><trkpt lat="43.23068313057623" lon="12.153756326005992"><ele>667.2</ele><time>2026-03-29T10:21:28.999Z</time></trkpt><trkpt lat="43.23069957390243" lon="12.153895578875845"><ele>666.5999999999999</ele><time>2026-03-29T10:21:29.999Z</time></trkpt><trkpt lat="43.23071112751063" lon="12.154014471580657"><ele>666.0</ele><time>2026-03-29T10:21:30.999Z</time></trkpt><trkpt lat="43.23072051421519" lon="12.154124803971408"><ele>665.5999999999999</ele><time>2026-03-29T10:21:31.999Z</time></trkpt><trkpt lat="43.23068559063612" lon="12.154207363370173"><ele>665.2</ele><time>2026-03-29T10:21:32.999Z</time></trkpt><trkpt lat="43.23063818874548" lon="12.154293777995747"><ele>664.8</ele><time>2026-03-29T10:21:33.999Z</time></trkpt><trkpt lat="43.23056211905052" lon="12.154405286604167"><ele>664.4000000000001</ele><time>2026-03-29T10:21:34.999Z</time></trkpt><trkpt lat="43.230475264537105" lon="12.15453037314216"><ele>664.0</ele><time>2026-03-29T10:21:35.999Z</time></trkpt><trkpt lat="43.23039218313681" lon="12.154675477362542"><ele>662.75</ele><time>2026-03-29T10:21:36.999Z</time></trkpt><trkpt lat="43.2303541902702" lon="12.15485746881007"><ele>661.5</ele><time>2026-03-29T10:21:37.999Z</time></trkpt><trkpt lat="43.2303061399956" lon="12.155027860736975"><ele>660.25</ele><time>2026-03-29T10:21:38.999Z</time></trkpt><trkpt lat="43.230263892309054" lon="12.155228838208743"><ele>659.0</ele><time>2026-03-29T10:21:39.999Z</time></trkpt><trkpt lat="43.23020073736602" lon="12.155417446452836"><ele>658.0</ele><time>2026-03-29T10:21:40.999Z</time></trkpt><trkpt lat="43.23013858640448" lon="12.155616612642097"><ele>657.0</ele><time>2026-03-29T10:21:41.999Z</time></trkpt><trkpt lat="43.23008202611574" lon="12.155845630335794"><ele>656.0</ele><time>2026-03-29T10:21:42.999Z</time></trkpt><trkpt lat="43.230027631721285" lon="12.156028826911799"><ele>656.0</ele><time>2026-03-29T10:21:43.999Z</time></trkpt><trkpt lat="43.22998884591124" lon="12.156171469875726"><ele>656.0</ele><time>2026-03-29T10:21:44.999Z</time></trkpt><trkpt lat="43.22995270103858" lon="12.156305483601404"><ele>656.0</ele><time>2026-03-29T10:21:45.999Z</time></trkpt><trkpt lat="43.22991686889782" lon="12.156436349221847"><ele>656.0</ele><time>2026-03-29T10:21:46.999Z</time></trkpt><trkpt lat="43.22987900496197" lon="12.156575186177259"><ele>656.0</ele><time>2026-03-29T10:21:47.999Z</time></trkpt><trkpt lat="43.22981262567953" lon="12.156688095323073"><ele>656.1999999999999</ele><time>2026-03-29T10:21:48.999Z</time></trkpt><trkpt lat="43.229780420616954" lon="12.156806576822719"><ele>656.4</ele><time>2026-03-29T10:21:49.999Z</time></trkpt><trkpt lat="43.229785515498975" lon="12.156936783976473"><ele>656.6</ele><time>2026-03-29T10:21:50.999Z</time></trkpt><trkpt lat="43.22977449614284" lon="12.157076577053317"><ele>656.8</ele><time>2026-03-29T10:21:51.999Z</time></trkpt><trkpt lat="43.22981538158386" lon="12.15720625070836"><ele>657.0</ele><time>2026-03-29T10:21:52.999Z</time></trkpt><trkpt lat="43.22985526350571" lon="12.157341064960482"><ele>654.6</ele><time>2026-03-29T10:21:53.999Z</time></trkpt><trkpt lat="43.22988056020824" lon="12.157496195215728"><ele>652.2</ele><time>2026-03-29T10:21:54.999Z</time></trkpt><trkpt lat="43.22990788649938" lon="12.157634834122218"><ele>649.8</ele><time>2026-03-29T10:21:55.999Z</time></trkpt><trkpt lat="43.22991502743366" lon="12.157757464105128"><ele>647.4</ele><time>2026-03-29T10:21:56.999Z</time></trkpt><trkpt lat="43.229908526977034" lon="12.157887478938735"><ele>645.0</ele><time>2026-03-29T10:21:57.999Z</time></trkpt><trkpt lat="43.22988536206479" lon="12.158024164335178"><ele>645.0</ele><time>2026-03-29T10:21:58.999Z</time></trkpt><trkpt lat="43.22984381993175" lon="12.158180024658003"><ele>645.0</ele><time>2026-03-29T10:21:59.999Z</time></trkpt><trkpt lat="43.22979951048691" lon="12.158369009487211"><ele>645.0</ele><time>2026-03-29T10:22:00.999Z</time></trkpt><trkpt lat="43.22971411003555" lon="12.158508480218101"><ele>645.0</ele><time>2026-03-29T10:22:01.999Z</time></trkpt><trkpt lat="43.22963160843723" lon="12.15861382370881"><ele>642.25</ele><time>2026-03-29T10:22:02.999Z</time></trkpt><trkpt lat="43.22953989467643" lon="12.158696482099144"><ele>639.5</ele><time>2026-03-29T10:22:03.999Z</time></trkpt><trkpt lat="43.229422428914944" lon="12.158798199333804"><ele>636.75</ele><time>2026-03-29T10:22:04.999Z</time></trkpt><trkpt lat="43.22933408279588" lon="12.158896717990073"><ele>634.0</ele><time>2026-03-29T10:22:05.999Z</time></trkpt><trkpt lat="43.22927434828891" lon="12.15898471826092"><ele>635.4</ele><time>2026-03-29T10:22:06.999Z</time></trkpt><trkpt lat="43.229236825772475" lon="12.159088654085837"><ele>636.8</ele><time>2026-03-29T10:22:07.999Z</time></trkpt><trkpt lat="43.229205151566596" lon="12.159214226769217"><ele>638.1999999999999</ele><time>2026-03-29T10:22:08.999Z</time></trkpt><trkpt lat="43.22919027183099" lon="12.159334603640124"><ele>639.5999999999999</ele><time>2026-03-29T10:22:09.999Z</time></trkpt><trkpt lat="43.22918848878124" lon="12.159492427606851"><ele>641.0</ele><time>2026-03-29T10:22:10.999Z</time></trkpt><trkpt lat="43.229167177362946" lon="12.159683064754425"><ele>641.0</ele><time>2026-03-29T10:22:11.999Z</time></trkpt><trkpt lat="43.22910742457948" lon="12.15985205862567"><ele>641.0</ele><time>2026-03-29T10:22:12.999Z</time></trkpt><trkpt lat="43.229036261741136" lon="12.160009611996463"><ele>641.0</ele><time>2026-03-29T10:22:13.999Z</time></trkpt><trkpt lat="43.22895353188141" lon="12.160148262545091"><ele>641.0</ele><time>2026-03-29T10:22:14.999Z</time></trkpt><trkpt lat="43.228859682096214" lon="12.160219791975505"><ele>639.5</ele><time>2026-03-29T10:22:15.999Z</time></trkpt><trkpt lat="43.22873491075913" lon="12.160301240003594"><ele>638.0</ele><time>2026-03-29T10:22:16.999Z</time></trkpt><trkpt lat="43.22861572837501" lon="12.160418781374382"><ele>636.5</ele><time>2026-03-29T10:22:17.999Z</time></trkpt><trkpt lat="43.228526896865326" lon="12.160549269399741"><ele>635.0</ele><time>2026-03-29T10:22:18.999Z</time></trkpt><trkpt lat="43.22846396970667" lon="12.160673777450633"><ele>637.2</ele><time>2026-03-29T10:22:19.999Z</time></trkpt><trkpt lat="43.228429924452115" lon="12.16080519852021"><ele>639.4</ele><time>2026-03-29T10:22:20.999Z</time></trkpt><trkpt lat="43.22841830224676" lon="12.160947086625397"><ele>641.5999999999999</ele><time>2026-03-29T10:22:22Z</time></trkpt><trkpt lat="43.22842659605881" lon="12.161101136683369"><ele>643.8</ele><time>2026-03-29T10:22:23Z</time></trkpt><trkpt lat="43.22842046179996" lon="12.161257424856768"><ele>646.0</ele><time>2026-03-29T10:22:24Z</time></trkpt><trkpt lat="43.22842635184305" lon="12.161384114044452"><ele>646.0</ele><time>2026-03-29T10:22:25Z</time></trkpt><trkpt lat="43.2284269496202" lon="12.161504848017746"><ele>646.0</ele><time>2026-03-29T10:22:26Z</time></trkpt><trkpt lat="43.22842476331946" lon="12.161634510980345"><ele>646.0</ele><time>2026-03-29T10:22:27Z</time></trkpt><trkpt lat="43.22842051129371" lon="12.161771451840208"><ele>646.0</ele><time>2026-03-29T10:22:28Z</time></trkpt><trkpt lat="43.22842236532828" lon="12.161885949943391"><ele>646.0</ele><time>2026-03-29T10:22:29Z</time></trkpt><trkpt lat="43.2283330637879" lon="12.16199725321887"><ele>645.8</ele><time>2026-03-29T10:22:31Z</time></trkpt><trkpt lat="43.2282538223205" lon="12.162035019706035"><ele>645.5999999999999</ele><time>2026-03-29T10:22:32Z</time></trkpt><trkpt lat="43.22815477895471" lon="12.162110132514348"><ele>645.4</ele><time>2026-03-29T10:22:33Z</time></trkpt><trkpt lat="43.22805581634319" lon="12.16219879906543"><ele>645.2</ele><time>2026-03-29T10:22:34Z</time></trkpt><trkpt lat="43.227958450165815" lon="12.162273478935566"><ele>645.0</ele><time>2026-03-29T10:22:35Z</time></trkpt><trkpt lat="43.22785491518489" lon="12.162360104807252"><ele>645.25</ele><time>2026-03-29T10:22:36Z</time></trkpt><trkpt lat="43.227738434859916" lon="12.162438925023123"><ele>645.5</ele><time>2026-03-29T10:22:37Z</time></trkpt><trkpt lat="43.22762230588758" lon="12.1625224479417"><ele>645.75</ele><time>2026-03-29T10:22:38Z</time></trkpt><trkpt lat="43.22749914714571" lon="12.162606966932636"><ele>646.0</ele><time>2026-03-29T10:22:39Z</time></trkpt><trkpt lat="43.22737183213136" lon="12.1626853613155"><ele>643.8</ele><time>2026-03-29T10:22:40Z</time></trkpt><trkpt lat="43.22725917764761" lon="12.16273918382894"><ele>641.5999999999999</ele><time>2026-03-29T10:22:41Z</time></trkpt><trkpt lat="43.22714921796485" lon="12.16280179756766"><ele>639.4</ele><time>2026-03-29T10:22:42Z</time></trkpt><trkpt lat="43.22703305526822" lon="12.162860841820589"><ele>637.2</ele><time>2026-03-29T10:22:43Z</time></trkpt><trkpt lat="43.22694918188335" lon="12.162883275014046"><ele>635.0</ele><time>2026-03-29T10:22:44Z</time></trkpt><trkpt lat="43.22686614459988" lon="12.162840030491598"><ele>635.0</ele><time>2026-03-29T10:22:45Z</time></trkpt><trkpt lat="43.22676062708864" lon="12.16282465606357"><ele>635.0</ele><time>2026-03-29T10:22:46Z</time></trkpt><trkpt lat="43.22663963095867" lon="12.16277118748404"><ele>635.0</ele><time>2026-03-29T10:22:47Z</time></trkpt><trkpt lat="43.22651200547061" lon="12.162712424432344"><ele>635.0</ele><time>2026-03-29T10:22:48Z</time></trkpt><trkpt lat="43.226373484745125" lon="12.162654834869679"><ele>632.75</ele><time>2026-03-29T10:22:49Z</time></trkpt><trkpt lat="43.22622719713002" lon="12.162614287318318"><ele>630.5</ele><time>2026-03-29T10:22:50Z</time></trkpt><trkpt lat="43.22609184557964" lon="12.162557263376701"><ele>628.25</ele><time>2026-03-29T10:22:51Z</time></trkpt><trkpt lat="43.22595638052568" lon="12.162496681408397"><ele>626.0</ele><time>2026-03-29T10:22:52Z</time></trkpt><trkpt lat="43.225823185629196" lon="12.162449540945657"><ele>626.0</ele><time>2026-03-29T10:22:53Z</time></trkpt><trkpt lat="43.22569794993286" lon="12.162406321818683"><ele>626.0</ele><time>2026-03-29T10:22:54Z</time></trkpt><trkpt lat="43.22558056913059" lon="12.162373780377134"><ele>626.0</ele><time>2026-03-29T10:22:55Z</time></trkpt><trkpt lat="43.22546637299607" lon="12.162336353926557"><ele>626.0</ele><time>2026-03-29T10:22:56Z</time></trkpt><trkpt lat="43.22535913113865" lon="12.162303244720729"><ele>622.75</ele><time>2026-03-29T10:22:57Z</time></trkpt><trkpt lat="43.22524147954936" lon="12.162266260911839"><ele>619.5</ele><time>2026-03-29T10:22:58Z</time></trkpt><trkpt lat="43.2251211414885" lon="12.162235542334201"><ele>616.25</ele><time>2026-03-29T10:22:59Z</time></trkpt><trkpt lat="43.224987094474" lon="12.162228564823735"><ele>613.0</ele><time>2026-03-29T10:23:00Z</time></trkpt><trkpt lat="43.224846321205156" lon="12.162237164151223"><ele>610.3333333333334</ele><time>2026-03-29T10:23:01Z</time></trkpt><trkpt lat="43.22469816389434" lon="12.162242633952038"><ele>607.6666666666666</ele><time>2026-03-29T10:23:02Z</time></trkpt><trkpt lat="43.22455091093492" lon="12.162226916791397"><ele>605.0</ele><time>2026-03-29T10:23:03Z</time></trkpt><trkpt lat="43.22439776355796" lon="12.162199176215905"><ele>605.0</ele><time>2026-03-29T10:23:04Z</time></trkpt><trkpt lat="43.22425456398527" lon="12.16218523210099"><ele>605.0</ele><time>2026-03-29T10:23:05Z</time></trkpt><trkpt lat="43.22412501169879" lon="12.162180931987272"><ele>605.0</ele><time>2026-03-29T10:23:06Z</time></trkpt><trkpt lat="43.22398998201811" lon="12.16220305329704"><ele>605.0</ele><time>2026-03-29T10:23:07Z</time></trkpt><trkpt lat="43.223846894785936" lon="12.162239958304696"><ele>602.5</ele><time>2026-03-29T10:23:08Z</time></trkpt><trkpt lat="43.22370264393056" lon="12.162268500883444"><ele>600.0</ele><time>2026-03-29T10:23:09Z</time></trkpt><trkpt lat="43.22355505976676" lon="12.162292142976044"><ele>597.5</ele><time>2026-03-29T10:23:10Z</time></trkpt><trkpt lat="43.22340616405902" lon="12.162311717476145"><ele>595.0</ele><time>2026-03-29T10:23:11Z</time></trkpt><trkpt lat="43.223255898920236" lon="12.16233387217306"><ele>594.25</ele><time>2026-03-29T10:23:12Z</time></trkpt><trkpt lat="43.22312159399252" lon="12.16235613464292"><ele>593.5</ele><time>2026-03-29T10:23:13Z</time></trkpt><trkpt lat="43.222984135862156" lon="12.162375534311645"><ele>592.75</ele><time>2026-03-29T10:23:14Z</time></trkpt><trkpt lat="43.22284355621181" lon="12.162401942194005"><ele>592.0</ele><time>2026-03-29T10:23:15Z</time></trkpt><trkpt lat="43.22271023482931" lon="12.162435889574468"><ele>592.0</ele><time>2026-03-29T10:23:16Z</time></trkpt><trkpt lat="43.222586544308925" lon="12.162475035399613"><ele>592.0</ele><time>2026-03-29T10:23:17Z</time></trkpt><trkpt lat="43.22245843084304" lon="12.1624963522158"><ele>592.0</ele><time>2026-03-29T10:23:18Z</time></trkpt><trkpt lat="43.22234704278806" lon="12.162534956171715"><ele>592.0</ele><time>2026-03-29T10:23:19Z</time></trkpt><trkpt lat="43.22227337819777" lon="12.162558901981658"><ele>592.0</ele><time>2026-03-29T10:23:20Z</time></trkpt><trkpt lat="43.22220785523093" lon="12.162576174765734"><ele>590.25</ele><time>2026-03-29T10:23:21Z</time></trkpt><trkpt lat="43.22212361665563" lon="12.16254262654416"><ele>588.5</ele><time>2026-03-29T10:23:23Z</time></trkpt><trkpt lat="43.22199280973432" lon="12.162543477829452"><ele>586.75</ele><time>2026-03-29T10:23:25Z</time></trkpt><trkpt lat="43.22187093711519" lon="12.162712013987868"><ele>585.0</ele><time>2026-03-29T10:23:26Z</time></trkpt><trkpt lat="43.221754334254136" lon="12.16273532714231"><ele>585.0</ele><time>2026-03-29T10:23:27Z</time></trkpt><trkpt lat="43.221634230252825" lon="12.162724127654894"><ele>585.0</ele><time>2026-03-29T10:23:28Z</time></trkpt><trkpt lat="43.2215090011925" lon="12.162742676500416"><ele>585.0</ele><time>2026-03-29T10:23:29Z</time></trkpt><trkpt lat="43.22140012957785" lon="12.16279832250737"><ele>585.0</ele><time>2026-03-29T10:23:30Z</time></trkpt><trkpt lat="43.221298142156265" lon="12.162832070967154"><ele>583.2</ele><time>2026-03-29T10:23:31Z</time></trkpt><trkpt lat="43.22118470499978" lon="12.162867390904442"><ele>581.4</ele><time>2026-03-29T10:23:32Z</time></trkpt><trkpt lat="43.22110018939775" lon="12.162905812650154"><ele>579.6</ele><time>2026-03-29T10:23:33Z</time></trkpt><trkpt lat="43.220997840209954" lon="12.162937387231683"><ele>577.8</ele><time>2026-03-29T10:23:34Z</time></trkpt><trkpt lat="43.22089335494663" lon="12.162974682881543"><ele>576.0</ele><time>2026-03-29T10:23:35Z</time></trkpt><trkpt lat="43.220823530851376" lon="12.163043257459858"><ele>576.0</ele><time>2026-03-29T10:23:36Z</time></trkpt><trkpt lat="43.22076296278955" lon="12.163138601157796"><ele>576.0</ele><time>2026-03-29T10:23:37Z</time></trkpt><trkpt lat="43.220734083102805" lon="12.163225673668954"><ele>576.0</ele><time>2026-03-29T10:23:38Z</time></trkpt><trkpt lat="43.220713447666206" lon="12.163340778254483"><ele>576.0</ele><time>2026-03-29T10:23:39Z</time></trkpt><trkpt lat="43.22068541491068" lon="12.163445138497043"><ele>576.0</ele><time>2026-03-29T10:23:40Z</time></trkpt><trkpt lat="43.22067464706763" lon="12.163544474495572"><ele>576.0</ele><time>2026-03-29T10:23:41Z</time></trkpt><trkpt lat="43.22069587236225" lon="12.163660793678115"><ele>576.8</ele><time>2026-03-29T10:23:42Z</time></trkpt><trkpt lat="43.22073541452235" lon="12.16380088834816"><ele>577.6</ele><time>2026-03-29T10:23:43Z</time></trkpt><trkpt lat="43.220783372171624" lon="12.163925911814953"><ele>578.4</ele><time>2026-03-29T10:23:44Z</time></trkpt><trkpt lat="43.22083165990993" lon="12.164034732319221"><ele>579.2</ele><time>2026-03-29T10:23:45Z</time></trkpt><trkpt lat="43.22091496001512" lon="12.164145872913911"><ele>580.0</ele><time>2026-03-29T10:23:46Z</time></trkpt><trkpt lat="43.2210063628609" lon="12.16422853364107"><ele>578.4</ele><time>2026-03-29T10:23:47Z</time></trkpt><trkpt lat="43.22110310140062" lon="12.16432114475578"><ele>576.8</ele><time>2026-03-29T10:23:48Z</time></trkpt><trkpt lat="43.22116465872985" lon="12.164424801123712"><ele>575.2</ele><time>2026-03-29T10:23:49Z</time></trkpt><trkpt lat="43.22121736681377" lon="12.164534514829631"><ele>573.6</ele><time>2026-03-29T10:23:50Z</time></trkpt><trkpt lat="43.221279529285155" lon="12.164628373243058"><ele>572.0</ele><time>2026-03-29T10:23:51Z</time></trkpt><trkpt lat="43.22132442159699" lon="12.164729294087486"><ele>572.0</ele><time>2026-03-29T10:23:52Z</time></trkpt><trkpt lat="43.22137029241828" lon="12.164807781013163"><ele>572.0</ele><time>2026-03-29T10:23:53Z</time></trkpt><trkpt lat="43.22145490299309" lon="12.164888402872961"><ele>572.0</ele><time>2026-03-29T10:23:55Z</time></trkpt><trkpt lat="43.221389512199174" lon="12.164978268966639"><ele>572.0</ele><time>2026-03-29T10:23:57.998Z</time></trkpt><trkpt lat="43.22131468629731" lon="12.164986784665084"><ele>572.0</ele><time>2026-03-29T10:23:58.998Z</time></trkpt><trkpt lat="43.221241960002715" lon="12.164959251974764"><ele>572.0</ele><time>2026-03-29T10:24:00.999Z</time></trkpt><trkpt lat="43.22117479304452" lon="12.164976898232908"><ele>568.0</ele><time>2026-03-29T10:24:02.999Z</time></trkpt><trkpt lat="43.22118668668088" lon="12.165094751696216"><ele>564.0</ele><time>2026-03-29T10:24:04.999Z</time></trkpt><trkpt lat="43.221268851648844" lon="12.165176790683832"><ele>560.0</ele><time>2026-03-29T10:24:06.999Z</time></trkpt><trkpt lat="43.221371390087526" lon="12.165213297611102"><ele>556.0</ele><time>2026-03-29T10:24:08.999Z</time></trkpt><trkpt lat="43.22143115989254" lon="12.165252688224362"><ele>552.0</ele><time>2026-03-29T10:24:09.999Z</time></trkpt><trkpt lat="43.22144396783237" lon="12.165392208153946"><ele>552.0</ele><time>2026-03-29T10:24:11.999Z</time></trkpt><trkpt lat="43.22137316195289" lon="12.16546767078968"><ele>552.0</ele><time>2026-03-29T10:24:12.999Z</time></trkpt><trkpt lat="43.221314308406605" lon="12.165520837594471"><ele>552.0</ele><time>2026-03-29T10:24:13.999Z</time></trkpt><trkpt lat="43.2212678729811" lon="12.16559439914861"><ele>552.0</ele><time>2026-03-29T10:24:14.999Z</time></trkpt><trkpt lat="43.221163506206395" lon="12.165653242557585"><ele>552.0</ele><time>2026-03-29T10:24:16.999Z</time></trkpt><trkpt lat="43.221065202920855" lon="12.165676937670401"><ele>552.0</ele><time>2026-03-29T10:24:18.999Z</time></trkpt><trkpt lat="43.221005032612496" lon="12.165728782107415"><ele>549.2</ele><time>2026-03-29T10:24:20.999Z</time></trkpt><trkpt lat="43.22098578986317" lon="12.165849340547835"><ele>546.4000000000001</ele><time>2026-03-29T10:24:22.999Z</time></trkpt><trkpt lat="43.221020030962215" lon="12.16596978125508"><ele>543.5999999999999</ele><time>2026-03-29T10:24:24.999Z</time></trkpt><trkpt lat="43.22097872133941" lon="12.166113782304135"><ele>540.8</ele><time>2026-03-29T10:24:26.999Z</time></trkpt><trkpt lat="43.22094824702634" lon="12.166196997351785"><ele>538.0</ele><time>2026-03-29T10:24:27.999Z</time></trkpt><trkpt lat="43.22091203726566" lon="12.166367940834403"><ele>538.0</ele><time>2026-03-29T10:24:29.999Z</time></trkpt><trkpt lat="43.220917745315404" lon="12.166475482008893"><ele>538.0</ele><time>2026-03-29T10:24:30.999Z</time></trkpt><trkpt lat="43.220916941616274" lon="12.166572923079988"><ele>538.0</ele><time>2026-03-29T10:24:31.999Z</time></trkpt><trkpt lat="43.22090645325264" lon="12.16668509477972"><ele>538.0</ele><time>2026-03-29T10:24:32.999Z</time></trkpt><trkpt lat="43.22095162936961" lon="12.166813918059153"><ele>538.0</ele><time>2026-03-29T10:24:34.999Z</time></trkpt><trkpt lat="43.22101727033235" lon="12.166868650498907"><ele>538.0</ele><time>2026-03-29T10:24:35.999Z</time></trkpt><trkpt lat="43.22107017918754" lon="12.16691856617219"><ele>535.1999999999999</ele><time>2026-03-29T10:24:36.999Z</time></trkpt><trkpt lat="43.22109976518439" lon="12.167092415026437"><ele>532.4</ele><time>2026-03-29T10:24:38.999Z</time></trkpt><trkpt lat="43.22107630473883" lon="12.16724650642818"><ele>529.5999999999999</ele><time>2026-03-29T10:24:40.999Z</time></trkpt><trkpt lat="43.22103629400578" lon="12.167326385929709"><ele>526.8</ele><time>2026-03-29T10:24:41.999Z</time></trkpt><trkpt lat="43.220941760346925" lon="12.167415884708292"><ele>524.0</ele><time>2026-03-29T10:24:43.999Z</time></trkpt><trkpt lat="43.220939327487116" lon="12.167510412862052"><ele>521.5</ele><time>2026-03-29T10:24:45.999Z</time></trkpt><trkpt lat="43.2209812188666" lon="12.16760452783222"><ele>519.0</ele><time>2026-03-29T10:24:47.999Z</time></trkpt><trkpt lat="43.221029570818345" lon="12.16775320802775"><ele>516.5</ele><time>2026-03-29T10:24:49.999Z</time></trkpt><trkpt lat="43.22102954549896" lon="12.167841450185627"><ele>514.0</ele><time>2026-03-29T10:24:50.999Z</time></trkpt><trkpt lat="43.22099391022831" lon="12.167929957592465"><ele>511.49999999999994</ele><time>2026-03-29T10:24:52.999Z</time></trkpt><trkpt lat="43.22093822075851" lon="12.167975220748014"><ele>509.0</ele><time>2026-03-29T10:24:53.999Z</time></trkpt><trkpt lat="43.22086406450081" lon="12.168040497697891"><ele>508.99999999999994</ele><time>2026-03-29T10:24:55.999Z</time></trkpt><trkpt lat="43.220789920033965" lon="12.168064817087613"><ele>509.0</ele><time>2026-03-29T10:24:57.999Z</time></trkpt><trkpt lat="43.22071458889201" lon="12.168086686890298"><ele>509.0</ele><time>2026-03-29T10:25:00Z</time></trkpt><trkpt lat="43.22063542089796" lon="12.16813618976794"><ele>509.0</ele><time>2026-03-29T10:25:03Z</time></trkpt><trkpt lat="43.22057708943894" lon="12.168188594095872"><ele>508.99999999999994</ele><time>2026-03-29T10:25:53Z</time></trkpt><trkpt lat="43.220565300871755" lon="12.168288188872848"><ele>509.0</ele><time>2026-03-29T10:26:07.999Z</time></trkpt><trkpt lat="43.22057348392509" lon="12.168405358687869"><ele>504.66666666666663</ele><time>2026-03-29T10:26:12Z</time></trkpt><trkpt lat="43.22060022070269" lon="12.16852949460552"><ele>500.3333333333333</ele><time>2026-03-29T10:26:15Z</time></trkpt><trkpt lat="43.22060938250988" lon="12.168616132799313"><ele>496.0</ele><time>2026-03-29T10:26:17Z</time></trkpt><trkpt lat="43.22058292460316" lon="12.168736249862391"><ele>491.66666666666663</ele><time>2026-03-29T10:26:20Z</time></trkpt><trkpt lat="43.22049930681776" lon="12.168800214151846"><ele>487.3333333333333</ele><time>2026-03-29T10:26:22Z</time></trkpt><trkpt lat="43.220431755359215" lon="12.16883785272992"><ele>483.0</ele><time>2026-03-29T10:26:23Z</time></trkpt><trkpt lat="43.220370822438184" lon="12.168874343593876"><ele>483.0</ele><time>2026-03-29T10:26:24Z</time></trkpt><trkpt lat="43.22029912801784" lon="12.16893026498243"><ele>482.99999999999994</ele><time>2026-03-29T10:26:25Z</time></trkpt><trkpt lat="43.220252339468615" lon="12.168993287623794"><ele>482.99999999999994</ele><time>2026-03-29T10:26:26Z</time></trkpt><trkpt lat="43.22014873367905" lon="12.169047175531947"><ele>483.0</ele><time>2026-03-29T10:26:28Z</time></trkpt><trkpt lat="43.22005559784991" lon="12.169148852754189"><ele>483.0</ele><time>2026-03-29T10:26:30Z</time></trkpt><trkpt lat="43.21998858543851" lon="12.16925762094909"><ele>480.79999999999995</ele><time>2026-03-29T10:26:32Z</time></trkpt><trkpt lat="43.21994355988885" lon="12.169320521274054"><ele>478.59999999999997</ele><time>2026-03-29T10:26:33Z</time></trkpt><trkpt lat="43.21985896146019" lon="12.169426130634255"><ele>476.40000000000003</ele><time>2026-03-29T10:26:35Z</time></trkpt><trkpt lat="43.21976809954863" lon="12.169479213966415"><ele>474.20000000000005</ele><time>2026-03-29T10:26:37Z</time></trkpt><trkpt lat="43.21971114256648" lon="12.169516063395488"><ele>472.0</ele><time>2026-03-29T10:26:39Z</time></trkpt><trkpt lat="43.219605189390215" lon="12.169554404630414"><ele>469.20000000000005</ele><time>2026-03-29T10:26:42Z</time></trkpt><trkpt lat="43.21949244677058" lon="12.169548348162477"><ele>466.40000000000003</ele><time>2026-03-29T10:26:44Z</time></trkpt><trkpt lat="43.21938795022665" lon="12.1695741193186"><ele>463.59999999999997</ele><time>2026-03-29T10:26:46Z</time></trkpt><trkpt lat="43.21935127207387" lon="12.16970541639513"><ele>460.79999999999995</ele><time>2026-03-29T10:26:48Z</time></trkpt><trkpt lat="43.219317627405346" lon="12.169844810029447"><ele>458.0</ele><time>2026-03-29T10:26:50Z</time></trkpt><trkpt lat="43.21925099300578" lon="12.169888759048538"><ele>457.49999999999994</ele><time>2026-03-29T10:26:51Z</time></trkpt><trkpt lat="43.21916137121656" lon="12.169928455745364"><ele>457.0</ele><time>2026-03-29T10:26:52Z</time></trkpt><trkpt lat="43.219078283081494" lon="12.169976002126146"><ele>456.5</ele><time>2026-03-29T10:26:53Z</time></trkpt><trkpt lat="43.21903083241456" lon="12.170044740009496"><ele>456.0</ele><time>2026-03-29T10:26:54Z</time></trkpt><trkpt lat="43.219009492261186" lon="12.170186680874542"><ele>455.49999999999994</ele><time>2026-03-29T10:26:56Z</time></trkpt><trkpt lat="43.219052612456984" lon="12.170277981685205"><ele>455.0</ele><time>2026-03-29T10:26:58Z</time></trkpt><trkpt lat="43.21911929265262" lon="12.170314158774557"><ele>455.0</ele><time>2026-03-29T10:27:01Z</time></trkpt><trkpt lat="43.21919381529592" lon="12.17030661051103"><ele>455.0</ele><time>2026-03-29T10:27:13Z</time></trkpt><trkpt lat="43.21929348746773" lon="12.170244668830213"><ele>455.0</ele><time>2026-03-29T10:27:15Z</time></trkpt><trkpt lat="43.2193869364373" lon="12.17025508525138"><ele>455.0</ele><time>2026-03-29T10:27:17Z</time></trkpt><trkpt lat="43.21945610227111" lon="12.17029454532822"><ele>455.0</ele><time>2026-03-29T10:27:18Z</time></trkpt><trkpt lat="43.21954424816975" lon="12.170363219939047"><ele>454.99999999999994</ele><time>2026-03-29T10:27:19Z</time></trkpt><trkpt lat="43.2196237894735" lon="12.170393192063509"><ele>455.0</ele><time>2026-03-29T10:27:20Z</time></trkpt><trkpt lat="43.21969386544761" lon="12.17042388854417"><ele>455.0</ele><time>2026-03-29T10:27:21Z</time></trkpt><trkpt lat="43.21978414415377" lon="12.170449959163282"><ele>455.0</ele><time>2026-03-29T10:27:22Z</time></trkpt><trkpt lat="43.2198634514058" lon="12.17045726328258"><ele>454.99999999999994</ele><time>2026-03-29T10:27:23Z</time></trkpt><trkpt lat="43.219942571266635" lon="12.170384835209807"><ele>455.0</ele><time>2026-03-29T10:27:25Z</time></trkpt><trkpt lat="43.220035672101524" lon="12.170330261169948"><ele>455.8333333333333</ele><time>2026-03-29T10:27:27Z</time></trkpt><trkpt lat="43.22011716755267" lon="12.170347019433889"><ele>456.66666666666663</ele><time>2026-03-29T10:27:28Z</time></trkpt><trkpt lat="43.22019899509995" lon="12.17034145036845"><ele>457.5</ele><time>2026-03-29T10:27:29Z</time></trkpt><trkpt lat="43.220295306167515" lon="12.170327087753943"><ele>458.33333333333337</ele><time>2026-03-29T10:27:30Z</time></trkpt><trkpt lat="43.22037970646933" lon="12.1702830527605"><ele>459.1666666666667</ele><time>2026-03-29T10:27:31Z</time></trkpt><trkpt lat="43.22046500071951" lon="12.170225739415136"><ele>460.0</ele><time>2026-03-29T10:27:32Z</time></trkpt><trkpt lat="43.22053209907374" lon="12.170158811911767"><ele>460.0</ele><time>2026-03-29T10:27:33Z</time></trkpt><trkpt lat="43.22062782573657" lon="12.169994055059842"><ele>460.0</ele><time>2026-03-29T10:27:35Z</time></trkpt><trkpt lat="43.22069337706057" lon="12.169944476083602"><ele>460.0</ele><time>2026-03-29T10:27:36Z</time></trkpt><trkpt lat="43.22079331165376" lon="12.169937535667522"><ele>460.0</ele><time>2026-03-29T10:27:38Z</time></trkpt><trkpt lat="43.2208590090236" lon="12.169942577835405"><ele>460.0</ele><time>2026-03-29T10:27:39Z</time></trkpt><trkpt lat="43.2209385300099" lon="12.169912667563578"><ele>457.4</ele><time>2026-03-29T10:27:40Z</time></trkpt><trkpt lat="43.22105878852058" lon="12.169870800303633"><ele>454.8</ele><time>2026-03-29T10:27:41Z</time></trkpt><trkpt lat="43.221146901022884" lon="12.16982412624539"><ele>452.20000000000005</ele><time>2026-03-29T10:27:42Z</time></trkpt><trkpt lat="43.221220617062876" lon="12.169765739672236"><ele>449.6</ele><time>2026-03-29T10:27:43Z</time></trkpt><trkpt lat="43.221305682308895" lon="12.169687714034083"><ele>447.0</ele><time>2026-03-29T10:27:44Z</time></trkpt><trkpt lat="43.221366919284804" lon="12.16960889163075"><ele>448.6</ele><time>2026-03-29T10:27:45Z</time></trkpt><trkpt lat="43.221406182243605" lon="12.169511952703782"><ele>450.20000000000005</ele><time>2026-03-29T10:27:46Z</time></trkpt><trkpt lat="43.22144943388698" lon="12.16936975176566"><ele>451.8</ele><time>2026-03-29T10:27:48Z</time></trkpt><trkpt lat="43.22148838744147" lon="12.169264951975377"><ele>453.4</ele><time>2026-03-29T10:27:49Z</time></trkpt><trkpt lat="43.22152105858246" lon="12.169157973905385"><ele>455.0</ele><time>2026-03-29T10:27:50Z</time></trkpt><trkpt lat="43.22156736114194" lon="12.169046753664572"><ele>457.7142857142857</ele><time>2026-03-29T10:27:51Z</time></trkpt><trkpt lat="43.22159888434164" lon="12.168951646205072"><ele>460.42857142857144</ele><time>2026-03-29T10:27:52Z</time></trkpt><trkpt lat="43.22164273938601" lon="12.168870006396626"><ele>463.1428571428571</ele><time>2026-03-29T10:27:53Z</time></trkpt><trkpt lat="43.221691095692776" lon="12.168797316087812"><ele>465.85714285714283</ele><time>2026-03-29T10:27:54Z</time></trkpt><trkpt lat="43.221752409981335" lon="12.168749995286014"><ele>468.57142857142856</ele><time>2026-03-29T10:27:55Z</time></trkpt><trkpt lat="43.221797235746706" lon="12.168665989233437"><ele>471.2857142857142</ele><time>2026-03-29T10:27:57Z</time></trkpt><trkpt lat="43.22186657388535" lon="12.168623702208233"><ele>473.99999999999994</ele><time>2026-03-29T10:27:59Z</time></trkpt><trkpt lat="43.2219511262369" lon="12.168641517311558"><ele>474.0</ele><time>2026-03-29T10:28:01Z</time></trkpt><trkpt lat="43.221982435216276" lon="12.168789673745954"><ele>474.0</ele><time>2026-03-29T10:28:04Z</time></trkpt><trkpt lat="43.2220505177507" lon="12.16891934459289"><ele>474.0</ele><time>2026-03-29T10:28:06Z</time></trkpt><trkpt lat="43.2220977001094" lon="12.16898620483752"><ele>474.0</ele><time>2026-03-29T10:28:07Z</time></trkpt><trkpt lat="43.22215583306285" lon="12.169094486876713"><ele>474.0</ele><time>2026-03-29T10:28:09Z</time></trkpt><trkpt lat="43.22214210945477" lon="12.169227773999818"><ele>470.8333333333333</ele><time>2026-03-29T10:28:11Z</time></trkpt><trkpt lat="43.22212201954113" lon="12.169341825123881"><ele>467.66666666666663</ele><time>2026-03-29T10:28:13Z</time></trkpt><trkpt lat="43.22219391583261" lon="12.169362179951474"><ele>464.5</ele><time>2026-03-29T10:28:15Z</time></trkpt><trkpt lat="43.222271381185536" lon="12.169368611216095"><ele>461.3333333333333</ele><time>2026-03-29T10:28:19Z</time></trkpt><trkpt lat="43.22228046524357" lon="12.169462710051928"><ele>458.16666666666663</ele><time>2026-03-29T10:28:21Z</time></trkpt><trkpt lat="43.22223723798255" lon="12.16957188029876"><ele>455.0</ele><time>2026-03-29T10:28:22Z</time></trkpt><trkpt lat="43.222202366253306" lon="12.169663987954152"><ele>455.0</ele><time>2026-03-29T10:28:23Z</time></trkpt><trkpt lat="43.22219862851285" lon="12.169769935057978"><ele>455.0</ele><time>2026-03-29T10:28:24Z</time></trkpt><trkpt lat="43.22218940882315" lon="12.169930791356826"><ele>455.0</ele><time>2026-03-29T10:28:25Z</time></trkpt><trkpt lat="43.22215064638044" lon="12.170048881874239"><ele>455.0</ele><time>2026-03-29T10:28:26Z</time></trkpt><trkpt lat="43.22212051770827" lon="12.170203007837054"><ele>455.0</ele><time>2026-03-29T10:28:28Z</time></trkpt><trkpt lat="43.22214430641394" lon="12.17031725888233"><ele>452.3333333333333</ele><time>2026-03-29T10:28:29Z</time></trkpt><trkpt lat="43.22217353318334" lon="12.170424681881048"><ele>449.66666666666663</ele><time>2026-03-29T10:28:30Z</time></trkpt><trkpt lat="43.222208685108534" lon="12.170503861398208"><ele>447.0</ele><time>2026-03-29T10:28:31Z</time></trkpt><trkpt lat="43.22231834675204" lon="12.170543659651697"><ele>444.33333333333337</ele><time>2026-03-29T10:28:33Z</time></trkpt><trkpt lat="43.22238083307165" lon="12.170586842704111"><ele>441.6666666666667</ele><time>2026-03-29T10:28:34Z</time></trkpt><trkpt lat="43.22240143439374" lon="12.170675180145645"><ele>439.0</ele><time>2026-03-29T10:28:35Z</time></trkpt><trkpt lat="43.22240710925433" lon="12.170768871965901"><ele>437.00000000000006</ele><time>2026-03-29T10:28:36Z</time></trkpt><trkpt lat="43.22242661923772" lon="12.170875844366368"><ele>435.0</ele><time>2026-03-29T10:28:37Z</time></trkpt><trkpt lat="43.22247384199907" lon="12.170947409971498"><ele>433.0</ele><time>2026-03-29T10:28:38Z</time></trkpt><trkpt lat="43.22252985941659" lon="12.170989607401514"><ele>431.0</ele><time>2026-03-29T10:28:39Z</time></trkpt><trkpt lat="43.222585374032796" lon="12.171096073190753"><ele>429.00000000000006</ele><time>2026-03-29T10:28:41Z</time></trkpt><trkpt lat="43.22256957215705" lon="12.171278247453783"><ele>427.0</ele><time>2026-03-29T10:28:43Z</time></trkpt><trkpt lat="43.22261053848774" lon="12.171404395080668"><ele>426.0</ele><time>2026-03-29T10:28:44Z</time></trkpt><trkpt lat="43.22266741819145" lon="12.17152400529626"><ele>425.00000000000006</ele><time>2026-03-29T10:28:45Z</time></trkpt><trkpt lat="43.22266788583769" lon="12.171630387829305"><ele>424.0</ele><time>2026-03-29T10:28:46Z</time></trkpt><trkpt lat="43.22261163910032" lon="12.17171796983164"><ele>423.0</ele><time>2026-03-29T10:28:47Z</time></trkpt><trkpt lat="43.222548657331984" lon="12.171856227266991"><ele>422.0</ele><time>2026-03-29T10:28:48Z</time></trkpt><trkpt lat="43.22248818966022" lon="12.172040887516864"><ele>422.0</ele><time>2026-03-29T10:28:49Z</time></trkpt><trkpt lat="43.222436498635005" lon="12.172236468387913"><ele>422.0</ele><time>2026-03-29T10:28:50Z</time></trkpt><trkpt lat="43.22240944782525" lon="12.172398350689456"><ele>422.0</ele><time>2026-03-29T10:28:51Z</time></trkpt><trkpt lat="43.222400565462856" lon="12.172531039016349"><ele>422.0</ele><time>2026-03-29T10:28:52Z</time></trkpt><trkpt lat="43.222402082389436" lon="12.172680640406778"><ele>422.75</ele><time>2026-03-29T10:28:53Z</time></trkpt><trkpt lat="43.22234092022109" lon="12.1728188752999"><ele>423.5</ele><time>2026-03-29T10:28:54Z</time></trkpt><trkpt lat="43.22227698749064" lon="12.172966460785672"><ele>424.25</ele><time>2026-03-29T10:28:55Z</time></trkpt><trkpt lat="43.22221988630178" lon="12.173113022651334"><ele>425.0</ele><time>2026-03-29T10:28:56Z</time></trkpt><trkpt lat="43.22217962222641" lon="12.173218413964161"><ele>422.3333333333333</ele><time>2026-03-29T10:28:57Z</time></trkpt><trkpt lat="43.222120873489914" lon="12.173253806614797"><ele>419.66666666666663</ele><time>2026-03-29T10:28:58Z</time></trkpt><trkpt lat="43.222024359825994" lon="12.173271244482693"><ele>417.0</ele><time>2026-03-29T10:28:59Z</time></trkpt><trkpt lat="43.22192535822733" lon="12.173291087811132"><ele>414.33333333333337</ele><time>2026-03-29T10:29:00Z</time></trkpt><trkpt lat="43.22186781411186" lon="12.173340088208356"><ele>411.6666666666667</ele><time>2026-03-29T10:29:01Z</time></trkpt><trkpt lat="43.22185643430203" lon="12.17349202204257"><ele>409.0</ele><time>2026-03-29T10:29:03Z</time></trkpt><trkpt lat="43.221848212491565" lon="12.173605603940217"><ele>409.0</ele><time>2026-03-29T10:29:04Z</time></trkpt><trkpt lat="43.22184241385607" lon="12.17373074295223"><ele>409.0</ele><time>2026-03-29T10:29:05Z</time></trkpt><trkpt lat="43.22185057583872" lon="12.173863366465408"><ele>409.0</ele><time>2026-03-29T10:29:06Z</time></trkpt><trkpt lat="43.221884142849476" lon="12.174038611734106"><ele>409.0</ele><time>2026-03-29T10:29:07Z</time></trkpt><trkpt lat="43.22191596705486" lon="12.174206186870775"><ele>409.0</ele><time>2026-03-29T10:29:08Z</time></trkpt><trkpt lat="43.221931552714786" lon="12.174365037849565"><ele>408.0</ele><time>2026-03-29T10:29:09Z</time></trkpt><trkpt lat="43.22195325001145" lon="12.174490480348293"><ele>407.0</ele><time>2026-03-29T10:29:10Z</time></trkpt><trkpt lat="43.22200089900205" lon="12.174607183585632"><ele>406.0</ele><time>2026-03-29T10:29:11Z</time></trkpt><trkpt lat="43.222058211313296" lon="12.174722374428123"><ele>405.0</ele><time>2026-03-29T10:29:12Z</time></trkpt><trkpt lat="43.22216446952582" lon="12.174811484104342"><ele>404.0</ele><time>2026-03-29T10:29:13Z</time></trkpt><trkpt lat="43.22223140102746" lon="12.174874178022334"><ele>404.75</ele><time>2026-03-29T10:29:14Z</time></trkpt><trkpt lat="43.22232197034064" lon="12.174917643868008"><ele>405.5</ele><time>2026-03-29T10:29:15Z</time></trkpt><trkpt lat="43.222460067671975" lon="12.174915640777327"><ele>406.25</ele><time>2026-03-29T10:29:16Z</time></trkpt><trkpt lat="43.222627034509095" lon="12.174907531001814"><ele>407.0</ele><time>2026-03-29T10:29:17Z</time></trkpt><trkpt lat="43.22277504741749" lon="12.174903140666327"><ele>407.0</ele><time>2026-03-29T10:29:18Z</time></trkpt><trkpt lat="43.22289449112539" lon="12.174923039447858"><ele>407.0</ele><time>2026-03-29T10:29:19Z</time></trkpt><trkpt lat="43.22300987488293" lon="12.174957810919606"><ele>407.0</ele><time>2026-03-29T10:29:20Z</time></trkpt><trkpt lat="43.22312008367126" lon="12.174988665839443"><ele>407.0</ele><time>2026-03-29T10:29:21Z</time></trkpt><trkpt lat="43.22321998798078" lon="12.17502182762949"><ele>408.8333333333333</ele><time>2026-03-29T10:29:22Z</time></trkpt><trkpt lat="43.22329765392676" lon="12.175046386585116"><ele>410.66666666666663</ele><time>2026-03-29T10:29:23Z</time></trkpt><trkpt lat="43.22335170659432" lon="12.1751028156445"><ele>412.5</ele><time>2026-03-29T10:29:24Z</time></trkpt><trkpt lat="43.22336929695945" lon="12.17519448115627"><ele>414.33333333333337</ele><time>2026-03-29T10:29:25Z</time></trkpt><trkpt lat="43.223349889600065" lon="12.175313413568897"><ele>416.1666666666667</ele><time>2026-03-29T10:29:26Z</time></trkpt><trkpt lat="43.22330358416311" lon="12.175400934181425"><ele>418.0</ele><time>2026-03-29T10:29:27Z</time></trkpt><trkpt lat="43.223231430579126" lon="12.17547298022917"><ele>415.25</ele><time>2026-03-29T10:29:28Z</time></trkpt><trkpt lat="43.22312840551778" lon="12.175472901284868"><ele>412.5</ele><time>2026-03-29T10:29:29Z</time></trkpt><trkpt lat="43.22301161250059" lon="12.175491765597476"><ele>409.75</ele><time>2026-03-29T10:29:30Z</time></trkpt><trkpt lat="43.22290825644574" lon="12.175550695217398"><ele>407.0</ele><time>2026-03-29T10:29:31Z</time></trkpt><trkpt lat="43.22281334842938" lon="12.175666198605848"><ele>405.0</ele><time>2026-03-29T10:29:32Z</time></trkpt><trkpt lat="43.222710163736565" lon="12.175756734039012"><ele>403.0</ele><time>2026-03-29T10:29:33Z</time></trkpt><trkpt lat="43.222611057997" lon="12.175789042687216"><ele>401.0</ele><time>2026-03-29T10:29:34Z</time></trkpt><trkpt lat="43.22249877854052" lon="12.175835786640116"><ele>399.0</ele><time>2026-03-29T10:29:35Z</time></trkpt><trkpt lat="43.22240340457634" lon="12.175922102075678"><ele>399.0</ele><time>2026-03-29T10:29:36Z</time></trkpt><trkpt lat="43.22232091772543" lon="12.176058520042753"><ele>399.0</ele><time>2026-03-29T10:29:37Z</time></trkpt><trkpt lat="43.22223485615053" lon="12.176207757750566"><ele>399.0</ele><time>2026-03-29T10:29:38Z</time></trkpt><trkpt lat="43.22214244348575" lon="12.176320569347538"><ele>399.0</ele><time>2026-03-29T10:29:39Z</time></trkpt><trkpt lat="43.22205893046474" lon="12.176447205134163"><ele>396.6</ele><time>2026-03-29T10:29:40Z</time></trkpt><trkpt lat="43.222000668185196" lon="12.176559902601518"><ele>394.2</ele><time>2026-03-29T10:29:41Z</time></trkpt><trkpt lat="43.22194304478796" lon="12.176604308665972"><ele>391.8</ele><time>2026-03-29T10:29:42Z</time></trkpt><trkpt lat="43.22185363311917" lon="12.176592476604181"><ele>389.40000000000003</ele><time>2026-03-29T10:29:43Z</time></trkpt><trkpt lat="43.22171914919205" lon="12.176576599459176"><ele>387.0</ele><time>2026-03-29T10:29:44Z</time></trkpt><trkpt lat="43.22159741296086" lon="12.176561934980814"><ele>387.0</ele><time>2026-03-29T10:29:45Z</time></trkpt><trkpt lat="43.22150903089901" lon="12.17654258155241"><ele>387.0</ele><time>2026-03-29T10:29:46Z</time></trkpt><trkpt lat="43.22140420254085" lon="12.17651292253303"><ele>387.0</ele><time>2026-03-29T10:29:47Z</time></trkpt><trkpt lat="43.2212928025921" lon="12.176459445931538"><ele>387.0</ele><time>2026-03-29T10:29:48Z</time></trkpt><trkpt lat="43.22116063487068" lon="12.176397079842063"><ele>385.0</ele><time>2026-03-29T10:29:49Z</time></trkpt><trkpt lat="43.221041215167936" lon="12.17634055061"><ele>383.0</ele><time>2026-03-29T10:29:50Z</time></trkpt><trkpt lat="43.22091598032269" lon="12.176285883937442"><ele>381.0</ele><time>2026-03-29T10:29:51Z</time></trkpt><trkpt lat="43.22081928818619" lon="12.176254825603674"><ele>379.0</ele><time>2026-03-29T10:29:52.001Z</time></trkpt><trkpt lat="43.220744176804075" lon="12.176242363923983"><ele>377.0</ele><time>2026-03-29T10:29:53.001Z</time></trkpt><trkpt lat="43.220670411650076" lon="12.176358499145831"><ele>374.25</ele><time>2026-03-29T10:29:55.001Z</time></trkpt><trkpt lat="43.22061652753694" lon="12.17648067941288"><ele>371.5</ele><time>2026-03-29T10:29:56.001Z</time></trkpt><trkpt lat="43.220548629728654" lon="12.176571785200604"><ele>368.75</ele><time>2026-03-29T10:29:57.001Z</time></trkpt><trkpt lat="43.22043158683263" lon="12.176668370068017"><ele>366.0</ele><time>2026-03-29T10:29:58.001Z</time></trkpt><trkpt lat="43.22028725831683" lon="12.176713891320345"><ele>364.3333333333333</ele><time>2026-03-29T10:29:59.001Z</time></trkpt><trkpt lat="43.22011396240999" lon="12.176779227879434"><ele>362.66666666666663</ele><time>2026-03-29T10:30:00.001Z</time></trkpt><trkpt lat="43.21993449731142" lon="12.176853462632314"><ele>361.0</ele><time>2026-03-29T10:30:01.001Z</time></trkpt><trkpt lat="43.21975610026871" lon="12.176939119883677"><ele>357.66666666666663</ele><time>2026-03-29T10:30:02.001Z</time></trkpt><trkpt lat="43.21959253003085" lon="12.177017950833376"><ele>354.3333333333333</ele><time>2026-03-29T10:30:03.001Z</time></trkpt><trkpt lat="43.21944803922149" lon="12.177094857027084"><ele>351.0</ele><time>2026-03-29T10:30:04.001Z</time></trkpt><trkpt lat="43.21930710431579" lon="12.177181524848159"><ele>351.0</ele><time>2026-03-29T10:30:05.001Z</time></trkpt><trkpt lat="43.21917379363174" lon="12.177280014721644"><ele>351.0</ele><time>2026-03-29T10:30:06.001Z</time></trkpt><trkpt lat="43.219049289241696" lon="12.17740838913974"><ele>351.0</ele><time>2026-03-29T10:30:07.001Z</time></trkpt><trkpt lat="43.218912395625644" lon="12.177573827911319"><ele>347.3333333333333</ele><time>2026-03-29T10:30:08.001Z</time></trkpt><trkpt lat="43.21877611214217" lon="12.177713583380081"><ele>343.66666666666663</ele><time>2026-03-29T10:30:09.001Z</time></trkpt><trkpt lat="43.21864374306529" lon="12.177830084592584"><ele>340.0</ele><time>2026-03-29T10:30:10.001Z</time></trkpt><trkpt lat="43.218518355495696" lon="12.177949234284966"><ele>340.0</ele><time>2026-03-29T10:30:11.001Z</time></trkpt><trkpt lat="43.218396742194365" lon="12.178081897877021"><ele>340.0</ele><time>2026-03-29T10:30:12.001Z</time></trkpt><trkpt lat="43.218271969440636" lon="12.178208646145688"><ele>340.0</ele><time>2026-03-29T10:30:13.001Z</time></trkpt><trkpt lat="43.21813447531055" lon="12.178292195798317"><ele>339.0</ele><time>2026-03-29T10:30:14.001Z</time></trkpt><trkpt lat="43.2180059036282" lon="12.178363741455675"><ele>338.0</ele><time>2026-03-29T10:30:15.001Z</time></trkpt><trkpt lat="43.217892503457065" lon="12.178435519421843"><ele>337.0</ele><time>2026-03-29T10:30:16.001Z</time></trkpt><trkpt lat="43.217782534459204" lon="12.178494081311817"><ele>336.0</ele><time>2026-03-29T10:30:17.001Z</time></trkpt><trkpt lat="43.2176907938845" lon="12.178530870948862"><ele>336.0</ele><time>2026-03-29T10:30:18.001Z</time></trkpt><trkpt lat="43.217572600847966" lon="12.178548440469699"><ele>336.0</ele><time>2026-03-29T10:30:20.001Z</time></trkpt><trkpt lat="43.21750914071541" lon="12.17852808783767"><ele>336.0</ele><time>2026-03-29T10:30:21.001Z</time></trkpt><trkpt lat="43.21743023898818" lon="12.178548876331066"><ele>336.0</ele><time>2026-03-29T10:30:23.001Z</time></trkpt><trkpt lat="43.21733551886725" lon="12.17860483765694"><ele>336.0</ele><time>2026-03-29T10:30:27Z</time></trkpt><trkpt lat="43.21726893198251" lon="12.178672088948495"><ele>334.8</ele><time>2026-03-29T10:30:28Z</time></trkpt><trkpt lat="43.21719675251089" lon="12.17873659533516"><ele>333.6</ele><time>2026-03-29T10:30:29Z</time></trkpt><trkpt lat="43.21711902902208" lon="12.178806610095508"><ele>332.4</ele><time>2026-03-29T10:30:30Z</time></trkpt><trkpt lat="43.21702334010572" lon="12.178890389482644"><ele>331.2</ele><time>2026-03-29T10:30:31Z</time></trkpt><trkpt lat="43.21691528549419" lon="12.178981724877817"><ele>330.0</ele><time>2026-03-29T10:30:32Z</time></trkpt><trkpt lat="43.21680453977857" lon="12.179074828210455"><ele>329.6666666666667</ele><time>2026-03-29T10:30:33Z</time></trkpt><trkpt lat="43.216680639009326" lon="12.17917787949024"><ele>329.33333333333337</ele><time>2026-03-29T10:30:34Z</time></trkpt><trkpt lat="43.21654460357033" lon="12.17928788040993"><ele>329.0</ele><time>2026-03-29T10:30:35Z</time></trkpt><trkpt lat="43.21640141951418" lon="12.17940353645237"><ele>326.33333333333337</ele><time>2026-03-29T10:30:36Z</time></trkpt><trkpt lat="43.216255772348" lon="12.179524175188275"><ele>323.6666666666667</ele><time>2026-03-29T10:30:37Z</time></trkpt><trkpt lat="43.21612530689804" lon="12.179659261748151"><ele>321.0</ele><time>2026-03-29T10:30:38Z</time></trkpt><trkpt lat="43.21601017039956" lon="12.179764077818723"><ele>320.6</ele><time>2026-03-29T10:30:39Z</time></trkpt><trkpt lat="43.215926251356294" lon="12.17986122626733"><ele>320.20000000000005</ele><time>2026-03-29T10:30:40Z</time></trkpt><trkpt lat="43.21585313480977" lon="12.179935936898017"><ele>319.79999999999995</ele><time>2026-03-29T10:30:41Z</time></trkpt><trkpt lat="43.21581280005655" lon="12.180057883795367"><ele>319.4</ele><time>2026-03-29T10:30:42Z</time></trkpt><trkpt lat="43.215804649326465" lon="12.180204739498805"><ele>319.0</ele><time>2026-03-29T10:30:43Z</time></trkpt><trkpt lat="43.21581937419767" lon="12.180345885217003"><ele>319.0</ele><time>2026-03-29T10:30:44Z</time></trkpt><trkpt lat="43.21589432212888" lon="12.180446813151063"><ele>319.0</ele><time>2026-03-29T10:30:45Z</time></trkpt><trkpt lat="43.215967427728486" lon="12.180534002464688"><ele>319.0</ele><time>2026-03-29T10:30:46Z</time></trkpt><trkpt lat="43.21607645257277" lon="12.180653319147098"><ele>319.0</ele><time>2026-03-29T10:30:47Z</time></trkpt><trkpt lat="43.216174209986775" lon="12.180812757358936"><ele>318.66666666666663</ele><time>2026-03-29T10:30:48Z</time></trkpt><trkpt lat="43.216300096496056" lon="12.180943537502937"><ele>318.3333333333333</ele><time>2026-03-29T10:30:49Z</time></trkpt><trkpt lat="43.216453777244226" lon="12.181029695560369"><ele>318.0</ele><time>2026-03-29T10:30:50Z</time></trkpt><trkpt lat="43.21656760344814" lon="12.181183892658865"><ele>318.3333333333333</ele><time>2026-03-29T10:30:51Z</time></trkpt><trkpt lat="43.216683005217085" lon="12.181355033948934"><ele>318.66666666666663</ele><time>2026-03-29T10:30:52Z</time></trkpt><trkpt lat="43.2168036613682" lon="12.18153149494716"><ele>319.0</ele><time>2026-03-29T10:30:53Z</time></trkpt><trkpt lat="43.216917184461664" lon="12.181696732903427"><ele>319.0</ele><time>2026-03-29T10:30:54Z</time></trkpt><trkpt lat="43.21703322348132" lon="12.18186802306335"><ele>319.0</ele><time>2026-03-29T10:30:55Z</time></trkpt><trkpt lat="43.21714782765869" lon="12.182037271663864"><ele>319.0</ele><time>2026-03-29T10:30:56Z</time></trkpt><trkpt lat="43.21725955134291" lon="12.182208289138377"><ele>320.3333333333333</ele><time>2026-03-29T10:30:57Z</time></trkpt><trkpt lat="43.217365013575034" lon="12.182369908604647"><ele>321.6666666666667</ele><time>2026-03-29T10:30:58Z</time></trkpt><trkpt lat="43.21747526448701" lon="12.18253886664823"><ele>323.0</ele><time>2026-03-29T10:30:59Z</time></trkpt><trkpt lat="43.217586418167365" lon="12.182707886533237"><ele>323.0</ele><time>2026-03-29T10:31:00Z</time></trkpt><trkpt lat="43.217700427640075" lon="12.182878089013439"><ele>323.0</ele><time>2026-03-29T10:31:01Z</time></trkpt><trkpt lat="43.21781629888266" lon="12.183051070844826"><ele>323.0</ele><time>2026-03-29T10:31:02Z</time></trkpt><trkpt lat="43.217928850798266" lon="12.18321953972278"><ele>323.33333333333337</ele><time>2026-03-29T10:31:03Z</time></trkpt><trkpt lat="43.21804893748867" lon="12.183400492805362"><ele>323.6666666666667</ele><time>2026-03-29T10:31:04Z</time></trkpt><trkpt lat="43.21817272937035" lon="12.183587029077563"><ele>324.0</ele><time>2026-03-29T10:31:05Z</time></trkpt><trkpt lat="43.2182967919933" lon="12.183770779570962"><ele>324.3333333333333</ele><time>2026-03-29T10:31:06Z</time></trkpt><trkpt lat="43.2184205574805" lon="12.1839586406274"><ele>324.66666666666663</ele><time>2026-03-29T10:31:07Z</time></trkpt><trkpt lat="43.21854914703395" lon="12.184153145033765"><ele>325.0</ele><time>2026-03-29T10:31:08Z</time></trkpt><trkpt lat="43.21868524115606" lon="12.18431667852795"><ele>325.0</ele><time>2026-03-29T10:31:09Z</time></trkpt><trkpt lat="43.218784383915775" lon="12.18450197795461"><ele>325.0</ele><time>2026-03-29T10:31:10Z</time></trkpt><trkpt lat="43.21890560120873" lon="12.184644017856996"><ele>325.0</ele><time>2026-03-29T10:31:11.001Z</time></trkpt><trkpt lat="43.21901325024834" lon="12.184793495883488"><ele>325.75</ele><time>2026-03-29T10:31:12.001Z</time></trkpt><trkpt lat="43.21912912816968" lon="12.184915309160454"><ele>326.5</ele><time>2026-03-29T10:31:13.001Z</time></trkpt><trkpt lat="43.21923743761046" lon="12.185019354625252"><ele>327.25</ele><time>2026-03-29T10:31:14.001Z</time></trkpt><trkpt lat="43.21936082153556" lon="12.18516368463414"><ele>328.0</ele><time>2026-03-29T10:31:15.001Z</time></trkpt><trkpt lat="43.21946221287646" lon="12.185303388162104"><ele>328.0</ele><time>2026-03-29T10:31:16.001Z</time></trkpt><trkpt lat="43.21959067572639" lon="12.185444223304104"><ele>328.0</ele><time>2026-03-29T10:31:17.001Z</time></trkpt><trkpt lat="43.21972475414523" lon="12.185571255546296"><ele>328.0</ele><time>2026-03-29T10:31:18.001Z</time></trkpt><trkpt lat="43.219863440281216" lon="12.185681794443248"><ele>325.3333333333333</ele><time>2026-03-29T10:31:19.001Z</time></trkpt><trkpt lat="43.219996803080576" lon="12.185803961720568"><ele>322.6666666666667</ele><time>2026-03-29T10:31:20.001Z</time></trkpt><trkpt lat="43.22013628159683" lon="12.185928107644166"><ele>320.0</ele><time>2026-03-29T10:31:21.001Z</time></trkpt><trkpt lat="43.22027601756359" lon="12.18605726657763"><ele>320.0</ele><time>2026-03-29T10:31:22.001Z</time></trkpt><trkpt lat="43.22041681623911" lon="12.186186101299118"><ele>320.0</ele><time>2026-03-29T10:31:23.001Z</time></trkpt><trkpt lat="43.22055160600912" lon="12.186308869941113"><ele>320.0</ele><time>2026-03-29T10:31:24.001Z</time></trkpt><trkpt lat="43.22066033899626" lon="12.18640262639436"><ele>320.6</ele><time>2026-03-29T10:31:25.001Z</time></trkpt><trkpt lat="43.22072529798794" lon="12.186471091483988"><ele>321.2</ele><time>2026-03-29T10:31:26.001Z</time></trkpt><trkpt lat="43.22079657281945" lon="12.18654880973416"><ele>321.79999999999995</ele><time>2026-03-29T10:31:28.001Z</time></trkpt><trkpt lat="43.220867770077696" lon="12.186625320872873"><ele>322.4</ele><time>2026-03-29T10:31:30.001Z</time></trkpt><trkpt lat="43.220986133652424" lon="12.18653342080928"><ele>323.0</ele><time>2026-03-29T10:31:34.001Z</time></trkpt><trkpt lat="43.22103278162221" lon="12.186409530668664"><ele>323.0</ele><time>2026-03-29T10:31:35.001Z</time></trkpt><trkpt lat="43.22109947312354" lon="12.186254513357358"><ele>323.0</ele><time>2026-03-29T10:31:36.001Z</time></trkpt><trkpt lat="43.22118395264951" lon="12.186099126797714"><ele>323.0</ele><time>2026-03-29T10:31:37.001Z</time></trkpt><trkpt lat="43.22128857272384" lon="12.185976374987563"><ele>323.0</ele><time>2026-03-29T10:31:38.001Z</time></trkpt><trkpt lat="43.221415837589966" lon="12.185862333535184"><ele>325.5</ele><time>2026-03-29T10:31:39.001Z</time></trkpt><trkpt lat="43.221542745660706" lon="12.18575024557938"><ele>328.0</ele><time>2026-03-29T10:31:40.001Z</time></trkpt><trkpt lat="43.22165351066598" lon="12.185649584965885"><ele>330.5</ele><time>2026-03-29T10:31:41.001Z</time></trkpt><trkpt lat="43.221757049957056" lon="12.185557600905112"><ele>333.0</ele><time>2026-03-29T10:31:42.001Z</time></trkpt><trkpt lat="43.22184353579524" lon="12.185482895026768"><ele>333.0</ele><time>2026-03-29T10:31:43.001Z</time></trkpt><trkpt lat="43.22191497339371" lon="12.185419028588058"><ele>333.0</ele><time>2026-03-29T10:31:44.001Z</time></trkpt><trkpt lat="43.22199888077708" lon="12.18543030981719"><ele>333.0</ele><time>2026-03-29T10:31:45.001Z</time></trkpt><trkpt lat="43.222050235090826" lon="12.185530953296968"><ele>333.0</ele><time>2026-03-29T10:31:46.001Z</time></trkpt><trkpt lat="43.222119617506905" lon="12.185632258086178"><ele>333.0</ele><time>2026-03-29T10:31:47.001Z</time></trkpt><trkpt lat="43.22220270409421" lon="12.185746432518322"><ele>333.25</ele><time>2026-03-29T10:31:48.001Z</time></trkpt><trkpt lat="43.22229350805077" lon="12.185878513424912"><ele>333.5</ele><time>2026-03-29T10:31:49.001Z</time></trkpt><trkpt lat="43.22237818557284" lon="12.186017029246369"><ele>333.75</ele><time>2026-03-29T10:31:50.001Z</time></trkpt><trkpt lat="43.22244893103034" lon="12.186148857188392"><ele>334.0</ele><time>2026-03-29T10:31:51.001Z</time></trkpt><trkpt lat="43.2224939195552" lon="12.186278361233736"><ele>336.66666666666663</ele><time>2026-03-29T10:31:52.001Z</time></trkpt><trkpt lat="43.22252815393436" lon="12.186395840797283"><ele>339.3333333333333</ele><time>2026-03-29T10:31:53.001Z</time></trkpt><trkpt lat="43.22256054683704" lon="12.186512851018335"><ele>342.0</ele><time>2026-03-29T10:31:54.001Z</time></trkpt><trkpt lat="43.22259778163657" lon="12.186630805908663"><ele>344.6666666666667</ele><time>2026-03-29T10:31:55.001Z</time></trkpt><trkpt lat="43.22265348569283" lon="12.186707904374137"><ele>347.33333333333337</ele><time>2026-03-29T10:31:56.001Z</time></trkpt><trkpt lat="43.222711345769454" lon="12.186780231487104"><ele>350.0</ele><time>2026-03-29T10:31:57.001Z</time></trkpt><trkpt lat="43.22281857719108" lon="12.186783842572849"><ele>350.0</ele><time>2026-03-29T10:31:58.001Z</time></trkpt><trkpt lat="43.22291299467546" lon="12.186831450535703"><ele>350.0</ele><time>2026-03-29T10:31:59.001Z</time></trkpt><trkpt lat="43.22299655685117" lon="12.186857322104256"><ele>350.0</ele><time>2026-03-29T10:32:00.001Z</time></trkpt><trkpt lat="43.22307317146821" lon="12.186870950238124"><ele>350.0</ele><time>2026-03-29T10:32:01.001Z</time></trkpt><trkpt lat="43.22318245336392" lon="12.186902018436323"><ele>350.0</ele><time>2026-03-29T10:32:02.001Z</time></trkpt><trkpt lat="43.22327444614341" lon="12.186880267966005"><ele>353.75</ele><time>2026-03-29T10:32:03.001Z</time></trkpt><trkpt lat="43.2234031266916" lon="12.186789854215746"><ele>357.5</ele><time>2026-03-29T10:32:05.001Z</time></trkpt><trkpt lat="43.2235203682634" lon="12.186761107772437"><ele>361.25</ele><time>2026-03-29T10:32:06.001Z</time></trkpt><trkpt lat="43.223627109121516" lon="12.186707915327283"><ele>365.0</ele><time>2026-03-29T10:32:07.001Z</time></trkpt><trkpt lat="43.223723256306926" lon="12.1866667134068"><ele>365.0</ele><time>2026-03-29T10:32:08.001Z</time></trkpt><trkpt lat="43.223794057213404" lon="12.186615750567478"><ele>365.0</ele><time>2026-03-29T10:32:09.001Z</time></trkpt><trkpt lat="43.22387927024689" lon="12.18658204224769"><ele>365.0</ele><time>2026-03-29T10:32:10.001Z</time></trkpt><trkpt lat="43.22396833146795" lon="12.186528522155005"><ele>365.0</ele><time>2026-03-29T10:32:11.001Z</time></trkpt><trkpt lat="43.22409624525508" lon="12.186457305134361"><ele>365.0</ele><time>2026-03-29T10:32:12.001Z</time></trkpt><trkpt lat="43.2241901719309" lon="12.186383820570235"><ele>366.83333333333337</ele><time>2026-03-29T10:32:13.001Z</time></trkpt><trkpt lat="43.22427821702628" lon="12.186329306053434"><ele>368.6666666666667</ele><time>2026-03-29T10:32:14.001Z</time></trkpt><trkpt lat="43.2243568913427" lon="12.18629162434433"><ele>370.5</ele><time>2026-03-29T10:32:15.001Z</time></trkpt><trkpt lat="43.224423634292165" lon="12.186259061891688"><ele>372.3333333333333</ele><time>2026-03-29T10:32:16.001Z</time></trkpt><trkpt lat="43.22450093650784" lon="12.186151296434197"><ele>374.16666666666663</ele><time>2026-03-29T10:32:18.001Z</time></trkpt><trkpt lat="43.2245096056806" lon="12.186056739334257"><ele>376.0</ele><time>2026-03-29T10:32:19.001Z</time></trkpt><trkpt lat="43.2244121088663" lon="12.1859256705724"><ele>376.0</ele><time>2026-03-29T10:32:21Z</time></trkpt><trkpt lat="43.22435832328798" lon="12.185836776073245"><ele>376.0</ele><time>2026-03-29T10:32:22Z</time></trkpt><trkpt lat="43.22430326241911" lon="12.185715067409234"><ele>376.0</ele><time>2026-03-29T10:32:23Z</time></trkpt><trkpt lat="43.22424557333776" lon="12.185626726071423"><ele>376.0</ele><time>2026-03-29T10:32:24Z</time></trkpt><trkpt lat="43.22419814983699" lon="12.18555355255147"><ele>376.0</ele><time>2026-03-29T10:32:25Z</time></trkpt><trkpt lat="43.224167189939664" lon="12.185436839451949"><ele>376.0</ele><time>2026-03-29T10:32:27Z</time></trkpt><trkpt lat="43.22418078099385" lon="12.18526111166572"><ele>375.5</ele><time>2026-03-29T10:32:29Z</time></trkpt><trkpt lat="43.224206573880366" lon="12.185111420461986"><ele>375.0</ele><time>2026-03-29T10:32:30Z</time></trkpt><trkpt lat="43.224244697209215" lon="12.184917126608285"><ele>374.5</ele><time>2026-03-29T10:32:31Z</time></trkpt><trkpt lat="43.22428216628989" lon="12.184726167142708"><ele>374.0</ele><time>2026-03-29T10:32:32Z</time></trkpt><trkpt lat="43.22431225229289" lon="12.184571897279572"><ele>373.79999999999995</ele><time>2026-03-29T10:32:33Z</time></trkpt><trkpt lat="43.22432477520599" lon="12.184407638410967"><ele>373.59999999999997</ele><time>2026-03-29T10:32:34Z</time></trkpt><trkpt lat="43.22433871449919" lon="12.184276204267212"><ele>373.4</ele><time>2026-03-29T10:32:35Z</time></trkpt><trkpt lat="43.22432455295636" lon="12.184169845976314"><ele>373.2</ele><time>2026-03-29T10:32:36Z</time></trkpt><trkpt lat="43.22430788202017" lon="12.184047148017173"><ele>373.0</ele><time>2026-03-29T10:32:37Z</time></trkpt><trkpt lat="43.22428003389702" lon="12.183911428298327"><ele>373.75</ele><time>2026-03-29T10:32:38Z</time></trkpt><trkpt lat="43.22427232362481" lon="12.183763713680765"><ele>374.5</ele><time>2026-03-29T10:32:39Z</time></trkpt><trkpt lat="43.22425618888812" lon="12.18358782618374"><ele>375.25</ele><time>2026-03-29T10:32:40Z</time></trkpt><trkpt lat="43.224237438963854" lon="12.18343802882669"><ele>376.0</ele><time>2026-03-29T10:32:41Z</time></trkpt><trkpt lat="43.22423489398188" lon="12.183285956272487"><ele>377.5</ele><time>2026-03-29T10:32:42Z</time></trkpt><trkpt lat="43.22419439594508" lon="12.183157592854984"><ele>379.0</ele><time>2026-03-29T10:32:43Z</time></trkpt><trkpt lat="43.22408098723786" lon="12.183078687126365"><ele>380.5</ele><time>2026-03-29T10:32:44Z</time></trkpt><trkpt lat="43.22399694869535" lon="12.18299411324727"><ele>382.0</ele><time>2026-03-29T10:32:45Z</time></trkpt><trkpt lat="43.22389716882135" lon="12.182863258500186"><ele>382.0</ele><time>2026-03-29T10:32:46Z</time></trkpt><trkpt lat="43.2237655818124" lon="12.182755229771558"><ele>382.0</ele><time>2026-03-29T10:32:47Z</time></trkpt><trkpt lat="43.223626817512354" lon="12.182672505303637"><ele>382.0</ele><time>2026-03-29T10:32:48Z</time></trkpt><trkpt lat="43.223522228611905" lon="12.182617311408771"><ele>382.0</ele><time>2026-03-29T10:32:49Z</time></trkpt><trkpt lat="43.22343933155104" lon="12.182563388457286"><ele>382.0</ele><time>2026-03-29T10:32:50Z</time></trkpt><trkpt lat="43.2233725781112" lon="12.182496364388651"><ele>382.0</ele><time>2026-03-29T10:32:51Z</time></trkpt><trkpt lat="43.22333454184181" lon="12.182384732294373"><ele>382.0</ele><time>2026-03-29T10:32:52Z</time></trkpt><trkpt lat="43.22326018848429" lon="12.182228988268534"><ele>382.0</ele><time>2026-03-29T10:32:53Z</time></trkpt><trkpt lat="43.22318564175974" lon="12.182048578501204"><ele>382.75</ele><time>2026-03-29T10:32:54Z</time></trkpt><trkpt lat="43.22313329361554" lon="12.181862119974607"><ele>383.5</ele><time>2026-03-29T10:32:55Z</time></trkpt><trkpt lat="43.22302272005205" lon="12.181752987738493"><ele>384.25</ele><time>2026-03-29T10:32:56Z</time></trkpt><trkpt lat="43.2229168655721" lon="12.181631547876933"><ele>385.0</ele><time>2026-03-29T10:32:57Z</time></trkpt><trkpt lat="43.22280830922902" lon="12.181495093513897"><ele>386.6</ele><time>2026-03-29T10:32:58Z</time></trkpt><trkpt lat="43.222732912351105" lon="12.181364703704682"><ele>388.2</ele><time>2026-03-29T10:32:59Z</time></trkpt><trkpt lat="43.22268090175759" lon="12.18122565335021"><ele>389.79999999999995</ele><time>2026-03-29T10:33:00Z</time></trkpt><trkpt lat="43.22268781086916" lon="12.181139182705623"><ele>391.4</ele><time>2026-03-29T10:33:01Z</time></trkpt><trkpt lat="43.2226828349482" lon="12.181032032888716"><ele>393.0</ele><time>2026-03-29T10:33:24Z</time></trkpt><trkpt lat="43.22277467253983" lon="12.180946200212308"><ele>393.0</ele><time>2026-03-29T10:33:25Z</time></trkpt><trkpt lat="43.22289041951397" lon="12.18085564197908"><ele>393.0</ele><time>2026-03-29T10:33:27Z</time></trkpt><trkpt lat="43.22296870118315" lon="12.180871286622377"><ele>393.0</ele><time>2026-03-29T10:33:28Z</time></trkpt><trkpt lat="43.223026892756316" lon="12.180915268029484"><ele>393.0</ele><time>2026-03-29T10:33:29Z</time></trkpt><trkpt lat="43.22302850324989" lon="12.181037142824259"><ele>393.0</ele><time>2026-03-29T10:33:30Z</time></trkpt><trkpt lat="43.22307407298681" lon="12.181102474458744"><ele>393.0</ele><time>2026-03-29T10:33:31Z</time></trkpt><trkpt lat="43.22316824188427" lon="12.181096778734231"><ele>396.4</ele><time>2026-03-29T10:33:33Z</time></trkpt><trkpt lat="43.22323878081959" lon="12.181056287095089"><ele>399.79999999999995</ele><time>2026-03-29T10:33:34Z</time></trkpt><trkpt lat="43.2233229411972" lon="12.181056338375065"><ele>403.2</ele><time>2026-03-29T10:33:35Z</time></trkpt><trkpt lat="43.223407684127665" lon="12.18106488663204"><ele>406.6</ele><time>2026-03-29T10:33:36Z</time></trkpt><trkpt lat="43.22352096263642" lon="12.181048010328329"><ele>410.0</ele><time>2026-03-29T10:33:37Z</time></trkpt><trkpt lat="43.22363640529671" lon="12.181078142438404"><ele>410.0</ele><time>2026-03-29T10:33:38Z</time></trkpt><trkpt lat="43.223723804367296" lon="12.181131721365318"><ele>410.0</ele><time>2026-03-29T10:33:39Z</time></trkpt><trkpt lat="43.22382097508954" lon="12.181218512864511"><ele>410.0</ele><time>2026-03-29T10:33:40Z</time></trkpt><trkpt lat="43.22393971174133" lon="12.181252528906587"><ele>410.0</ele><time>2026-03-29T10:33:41Z</time></trkpt><trkpt lat="43.22403915112575" lon="12.181224137744229"><ele>410.0</ele><time>2026-03-29T10:33:42Z</time></trkpt><trkpt lat="43.224120378147255" lon="12.18122305309611"><ele>412.8</ele><time>2026-03-29T10:33:43Z</time></trkpt><trkpt lat="43.22424101559086" lon="12.181209253501395"><ele>415.6</ele><time>2026-03-29T10:33:44Z</time></trkpt><trkpt lat="43.224363294945796" lon="12.181173128105302"><ele>418.4</ele><time>2026-03-29T10:33:45Z</time></trkpt><trkpt lat="43.22445133772539" lon="12.181120827384431"><ele>421.2</ele><time>2026-03-29T10:33:46Z</time></trkpt><trkpt lat="43.224527192296755" lon="12.181076358341299"><ele>424.0</ele><time>2026-03-29T10:33:47Z</time></trkpt><trkpt lat="43.22460620542291" lon="12.181106243010726"><ele>424.00000000000006</ele><time>2026-03-29T10:33:49Z</time></trkpt><trkpt lat="43.22470080152244" lon="12.181106957050348"><ele>424.0</ele><time>2026-03-29T10:33:52Z</time></trkpt><trkpt lat="43.22477332132877" lon="12.181103273887647"><ele>424.0</ele><time>2026-03-29T10:33:53Z</time></trkpt><trkpt lat="43.22486267279421" lon="12.181100742995714"><ele>424.0</ele><time>2026-03-29T10:33:54Z</time></trkpt><trkpt lat="43.22492663832602" lon="12.181130259981133"><ele>424.00000000000006</ele><time>2026-03-29T10:33:55Z</time></trkpt><trkpt lat="43.224989843360014" lon="12.181144112783127"><ele>424.0</ele><time>2026-03-29T10:33:56Z</time></trkpt><trkpt lat="43.22506251169885" lon="12.181133952961337"><ele>425.33333333333337</ele><time>2026-03-29T10:33:57Z</time></trkpt><trkpt lat="43.22515296098151" lon="12.18113448447789"><ele>426.6666666666667</ele><time>2026-03-29T10:33:58Z</time></trkpt><trkpt lat="43.22523067529345" lon="12.181141847174327"><ele>428.0</ele><time>2026-03-29T10:33:59Z</time></trkpt><trkpt lat="43.225314143185166" lon="12.181163529479264"><ele>429.33333333333337</ele><time>2026-03-29T10:34:01Z</time></trkpt><trkpt lat="43.22534935659338" lon="12.181026305298289"><ele>430.6666666666667</ele><time>2026-03-29T10:34:03.001Z</time></trkpt><trkpt lat="43.22532716618407" lon="12.18093349433733"><ele>432.0</ele><time>2026-03-29T10:34:04.001Z</time></trkpt><trkpt lat="43.225294485112414" lon="12.180822314443166"><ele>432.0</ele><time>2026-03-29T10:34:05.001Z</time></trkpt><trkpt lat="43.22525089905727" lon="12.180688198541569"><ele>432.0</ele><time>2026-03-29T10:34:06.001Z</time></trkpt><trkpt lat="43.22520714337577" lon="12.180573801074363"><ele>432.0</ele><time>2026-03-29T10:34:07.001Z</time></trkpt><trkpt lat="43.22514457130176" lon="12.180498682187137"><ele>432.0</ele><time>2026-03-29T10:34:08.001Z</time></trkpt><trkpt lat="43.22508687404988" lon="12.18043448475804"><ele>432.0</ele><time>2026-03-29T10:34:09.001Z</time></trkpt><trkpt lat="43.22501548050236" lon="12.180367103807782"><ele>432.0</ele><time>2026-03-29T10:34:10.001Z</time></trkpt><trkpt lat="43.224957492794815" lon="12.18028888067035"><ele>431.3333333333333</ele><time>2026-03-29T10:34:11.001Z</time></trkpt><trkpt lat="43.224894270036216" lon="12.18022195169476"><ele>430.66666666666663</ele><time>2026-03-29T10:34:12.001Z</time></trkpt><trkpt lat="43.22482086195363" lon="12.180190222993925"><ele>430.0</ele><time>2026-03-29T10:34:13.001Z</time></trkpt><trkpt lat="43.22475674312191" lon="12.18017569141765"><ele>429.3333333333333</ele><time>2026-03-29T10:34:14.001Z</time></trkpt><trkpt lat="43.22470749071274" lon="12.180113428022798"><ele>428.66666666666663</ele><time>2026-03-29T10:34:17.001Z</time></trkpt><trkpt lat="43.224751977654634" lon="12.179996023307964"><ele>428.0</ele><time>2026-03-29T10:34:19.001Z</time></trkpt><trkpt lat="43.2248086674619" lon="12.179832895508218"><ele>431.2</ele><time>2026-03-29T10:34:21.001Z</time></trkpt><trkpt lat="43.22486211609176" lon="12.179715213253635"><ele>434.4</ele><time>2026-03-29T10:34:23.001Z</time></trkpt><trkpt lat="43.22495717169478" lon="12.179676861838137"><ele>437.59999999999997</ele><time>2026-03-29T10:34:25.001Z</time></trkpt><trkpt lat="43.22504545347578" lon="12.179643607510435"><ele>440.79999999999995</ele><time>2026-03-29T10:34:26Z</time></trkpt><trkpt lat="43.22513483311188" lon="12.179599015756017"><ele>444.0</ele><time>2026-03-29T10:34:27Z</time></trkpt><trkpt lat="43.22520527359388" lon="12.179543690928007"><ele>444.0</ele><time>2026-03-29T10:34:28Z</time></trkpt><trkpt lat="43.22530122465044" lon="12.179499478801915"><ele>444.0</ele><time>2026-03-29T10:34:29Z</time></trkpt><trkpt lat="43.225382704404645" lon="12.17944987837074"><ele>444.0</ele><time>2026-03-29T10:34:30Z</time></trkpt><trkpt lat="43.2254278040951" lon="12.179321885517334"><ele>444.0</ele><time>2026-03-29T10:34:32Z</time></trkpt><trkpt lat="43.22544844041794" lon="12.179149086802814"><ele>444.0</ele><time>2026-03-29T10:34:34Z</time></trkpt><trkpt lat="43.2255681369012" lon="12.179080800338495"><ele>445.4</ele><time>2026-03-29T10:34:36Z</time></trkpt><trkpt lat="43.225603486097576" lon="12.178959933234577"><ele>446.79999999999995</ele><time>2026-03-29T10:34:38Z</time></trkpt><trkpt lat="43.225563982993144" lon="12.178876140123824"><ele>448.20000000000005</ele><time>2026-03-29T10:34:39Z</time></trkpt><trkpt lat="43.22549479838201" lon="12.178760232217378"><ele>449.6</ele><time>2026-03-29T10:34:41Z</time></trkpt><trkpt lat="43.225524482646236" lon="12.178646137308922"><ele>451.0</ele><time>2026-03-29T10:34:43Z</time></trkpt><trkpt lat="43.22561978218148" lon="12.178561094729927"><ele>452.4</ele><time>2026-03-29T10:34:45Z</time></trkpt><trkpt lat="43.225680397077866" lon="12.178537181568132"><ele>453.8</ele><time>2026-03-29T10:34:46Z</time></trkpt><trkpt lat="43.22574404272525" lon="12.17846972984131"><ele>455.19999999999993</ele><time>2026-03-29T10:34:47Z</time></trkpt><trkpt lat="43.2257471054732" lon="12.178296599353093"><ele>456.59999999999997</ele><time>2026-03-29T10:34:49Z</time></trkpt><trkpt lat="43.2257355893153" lon="12.178173277716711"><ele>458.0</ele><time>2026-03-29T10:34:50Z</time></trkpt><trkpt lat="43.22574666856543" lon="12.17804016607406"><ele>458.59999999999997</ele><time>2026-03-29T10:34:51Z</time></trkpt><trkpt lat="43.22573013558058" lon="12.17791599932034"><ele>459.19999999999993</ele><time>2026-03-29T10:34:52Z</time></trkpt><trkpt lat="43.225694641963244" lon="12.17778316920397"><ele>459.8</ele><time>2026-03-29T10:34:53Z</time></trkpt><trkpt lat="43.225673623247175" lon="12.177661465552676"><ele>460.4</ele><time>2026-03-29T10:34:54Z</time></trkpt><trkpt lat="43.225670896429136" lon="12.177562566423882"><ele>461.0</ele><time>2026-03-29T10:34:55Z</time></trkpt><trkpt lat="43.2256810678685" lon="12.177371187589749"><ele>462.0</ele><time>2026-03-29T10:34:57Z</time></trkpt><trkpt lat="43.22569436751336" lon="12.177221248078208"><ele>463.0</ele><time>2026-03-29T10:34:58Z</time></trkpt><trkpt lat="43.225722754282565" lon="12.177033058039951"><ele>464.0</ele><time>2026-03-29T10:34:59Z</time></trkpt><trkpt lat="43.225749605109634" lon="12.176865907415353"><ele>465.0</ele><time>2026-03-29T10:35:00Z</time></trkpt><trkpt lat="43.225774961978374" lon="12.176761682133115"><ele>465.0</ele><time>2026-03-29T10:35:01Z</time></trkpt><trkpt lat="43.22583668748219" lon="12.176692226897764"><ele>465.0</ele><time>2026-03-29T10:35:03Z</time></trkpt><trkpt lat="43.22589547291666" lon="12.176647370661064"><ele>465.0</ele><time>2026-03-29T10:35:04Z</time></trkpt><trkpt lat="43.22593926979826" lon="12.176576981512165"><ele>465.0</ele><time>2026-03-29T10:35:05Z</time></trkpt><trkpt lat="43.22598944025896" lon="12.17648778130999"><ele>465.0</ele><time>2026-03-29T10:35:06Z</time></trkpt><trkpt lat="43.22602777731068" lon="12.176396435810227"><ele>465.0</ele><time>2026-03-29T10:35:07Z</time></trkpt><trkpt lat="43.22607168337571" lon="12.176304323625304"><ele>466.3333333333333</ele><time>2026-03-29T10:35:08Z</time></trkpt><trkpt lat="43.22609511999317" lon="12.176220260474588"><ele>467.66666666666663</ele><time>2026-03-29T10:35:09Z</time></trkpt><trkpt lat="43.22611445420441" lon="12.17613316420673"><ele>469.0</ele><time>2026-03-29T10:35:10Z</time></trkpt><trkpt lat="43.22616769063169" lon="12.176021828571347"><ele>470.3333333333333</ele><time>2026-03-29T10:35:12Z</time></trkpt><trkpt lat="43.226173371045746" lon="12.175908082482932"><ele>471.66666666666663</ele><time>2026-03-29T10:35:14Z</time></trkpt><trkpt lat="43.226165764360765" lon="12.1758085266953"><ele>473.0</ele><time>2026-03-29T10:35:15Z</time></trkpt><trkpt lat="43.22618950983916" lon="12.175705128896956"><ele>475.16666666666663</ele><time>2026-03-29T10:35:16Z</time></trkpt><trkpt lat="43.22622945427571" lon="12.175611824988506"><ele>477.3333333333333</ele><time>2026-03-29T10:35:17Z</time></trkpt><trkpt lat="43.22625524360671" lon="12.175489703177576"><ele>479.5</ele><time>2026-03-29T10:35:19Z</time></trkpt><trkpt lat="43.226219124565525" lon="12.175369932744635"><ele>481.66666666666663</ele><time>2026-03-29T10:35:21Z</time></trkpt><trkpt lat="43.22621522163236" lon="12.175266213953165"><ele>483.8333333333333</ele><time>2026-03-29T10:35:24Z</time></trkpt><trkpt lat="43.22623088586753" lon="12.175171122706775"><ele>486.0</ele><time>2026-03-29T10:35:33Z</time></trkpt><trkpt lat="43.22622444831056" lon="12.175072316056754"><ele>486.0</ele><time>2026-03-29T10:35:36Z</time></trkpt><trkpt lat="43.22619058258066" lon="12.174986931167547"><ele>486.0</ele><time>2026-03-29T10:35:38Z</time></trkpt><trkpt lat="43.22615978147144" lon="12.174907148993885"><ele>486.0</ele><time>2026-03-29T10:35:40Z</time></trkpt><trkpt lat="43.226098482427794" lon="12.174779700212886"><ele>486.0</ele><time>2026-03-29T10:35:42Z</time></trkpt><trkpt lat="43.22604133662039" lon="12.174685972270472"><ele>486.0</ele><time>2026-03-29T10:35:43Z</time></trkpt><trkpt lat="43.22598562676059" lon="12.17459810477517"><ele>486.0</ele><time>2026-03-29T10:35:45Z</time></trkpt><trkpt lat="43.22593410604778" lon="12.17447907131979"><ele>488.4</ele><time>2026-03-29T10:35:47Z</time></trkpt><trkpt lat="43.22592828323726" lon="12.174375971674523"><ele>490.8</ele><time>2026-03-29T10:35:49Z</time></trkpt><trkpt lat="43.22601110951677" lon="12.174354391784782"><ele>493.19999999999993</ele><time>2026-03-29T10:35:51Z</time></trkpt><trkpt lat="43.22610780362836" lon="12.174312318135934"><ele>495.59999999999997</ele><time>2026-03-29T10:35:53Z</time></trkpt><trkpt lat="43.226201192506956" lon="12.174259979973954"><ele>498.0</ele><time>2026-03-29T10:35:55Z</time></trkpt><trkpt lat="43.22628504223905" lon="12.174221249625251"><ele>498.0</ele><time>2026-03-29T10:35:57Z</time></trkpt><trkpt lat="43.226349625378546" lon="12.174180755084645"><ele>498.0</ele><time>2026-03-29T10:36:01Z</time></trkpt><trkpt lat="43.22642755546438" lon="12.174135822171277"><ele>498.0</ele><time>2026-03-29T10:36:08Z</time></trkpt><trkpt lat="43.226512443943136" lon="12.174101832520854"><ele>498.0</ele><time>2026-03-29T10:36:10Z</time></trkpt><trkpt lat="43.226590380994615" lon="12.174059145409803"><ele>498.0</ele><time>2026-03-29T10:36:12Z</time></trkpt><trkpt lat="43.226673978138805" lon="12.17401081304616"><ele>498.0</ele><time>2026-03-29T10:36:14Z</time></trkpt><trkpt lat="43.226777603834456" lon="12.174015696963345"><ele>502.1666666666667</ele><time>2026-03-29T10:36:16Z</time></trkpt><trkpt lat="43.22687877309998" lon="12.173990327018789"><ele>506.33333333333337</ele><time>2026-03-29T10:36:18Z</time></trkpt><trkpt lat="43.22694542907415" lon="12.173952778214709"><ele>510.5</ele><time>2026-03-29T10:36:19Z</time></trkpt><trkpt lat="43.22699861872056" lon="12.173868236470602"><ele>514.6666666666667</ele><time>2026-03-29T10:36:21Z</time></trkpt><trkpt lat="43.22695492297554" lon="12.173795257921144"><ele>518.8333333333334</ele><time>2026-03-29T10:36:23Z</time></trkpt><trkpt lat="43.22688425392077" lon="12.173779997675746"><ele>523.0</ele><time>2026-03-29T10:36:25Z</time></trkpt><trkpt lat="43.22686267734331" lon="12.173689449107863"><ele>523.0</ele><time>2026-03-29T10:36:28Z</time></trkpt><trkpt lat="43.226795253330295" lon="12.173556750765634"><ele>523.0</ele><time>2026-03-29T10:36:30Z</time></trkpt><trkpt lat="43.226733788391066" lon="12.173464066746172"><ele>523.0</ele><time>2026-03-29T10:36:31.999Z</time></trkpt><trkpt lat="43.22671115207348" lon="12.173355037563754"><ele>523.0</ele><time>2026-03-29T10:36:32.999Z</time></trkpt><trkpt lat="43.22672167205091" lon="12.173254149138288"><ele>523.0</ele><time>2026-03-29T10:36:33.999Z</time></trkpt><trkpt lat="43.226782526182795" lon="12.173159745880971"><ele>525.4</ele><time>2026-03-29T10:36:35.999Z</time></trkpt><trkpt lat="43.226918211305" lon="12.173109007901004"><ele>527.8</ele><time>2026-03-29T10:36:37.999Z</time></trkpt><trkpt lat="43.226955970228815" lon="12.173014902791213"><ele>530.2</ele><time>2026-03-29T10:36:39.999Z</time></trkpt><trkpt lat="43.226916170385195" lon="12.172931634824444"><ele>532.6</ele><time>2026-03-29T10:36:41.999Z</time></trkpt><trkpt lat="43.22688616158259" lon="12.172799785531364"><ele>535.0</ele><time>2026-03-29T10:36:43.999Z</time></trkpt><trkpt lat="43.22689783414739" lon="12.172712374929706"><ele>535.0</ele><time>2026-03-29T10:36:44.999Z</time></trkpt><trkpt lat="43.226929247784184" lon="12.172605814157276"><ele>535.0</ele><time>2026-03-29T10:36:46.999Z</time></trkpt><trkpt lat="43.22695193798888" lon="12.172486269352556"><ele>535.0</ele><time>2026-03-29T10:36:49.999Z</time></trkpt><trkpt lat="43.22694002293416" lon="12.172354780615617"><ele>535.0</ele><time>2026-03-29T10:36:51.999Z</time></trkpt><trkpt lat="43.2268875474315" lon="12.172206481003348"><ele>535.0</ele><time>2026-03-29T10:36:53.999Z</time></trkpt><trkpt lat="43.22685520147152" lon="12.172128613692324"><ele>537.5</ele><time>2026-03-29T10:36:54.999Z</time></trkpt><trkpt lat="43.2268149368791" lon="12.172059549983079"><ele>540.0</ele><time>2026-03-29T10:36:55.999Z</time></trkpt><trkpt lat="43.22675640416663" lon="12.171944973443308"><ele>542.5</ele><time>2026-03-29T10:36:57.999Z</time></trkpt><trkpt lat="43.226703252561286" lon="12.171887553394013"><ele>545.0</ele><time>2026-03-29T10:36:58.999Z</time></trkpt><trkpt lat="43.226619420754865" lon="12.171744532267763"><ele>547.5</ele><time>2026-03-29T10:37:00.999Z</time></trkpt><trkpt lat="43.226634567601664" lon="12.171635137768515"><ele>550.0</ele><time>2026-03-29T10:37:02.999Z</time></trkpt><trkpt lat="43.22671555046236" lon="12.17155558950672"><ele>550.0</ele><time>2026-03-29T10:37:05Z</time></trkpt><trkpt lat="43.22678567588029" lon="12.171538830072077"><ele>550.0</ele><time>2026-03-29T10:37:06Z</time></trkpt><trkpt lat="43.226877314395345" lon="12.1715207681513"><ele>550.0</ele><time>2026-03-29T10:37:07Z</time></trkpt><trkpt lat="43.22698211423725" lon="12.171511550008987"><ele>550.0</ele><time>2026-03-29T10:37:09Z</time></trkpt><trkpt lat="43.22706851865859" lon="12.171441043359676"><ele>550.0</ele><time>2026-03-29T10:37:11Z</time></trkpt><trkpt lat="43.22705382632477" lon="12.171310574580682"><ele>551.6666666666667</ele><time>2026-03-29T10:37:14Z</time></trkpt><trkpt lat="43.227000299771824" lon="12.171221575260795"><ele>553.3333333333334</ele><time>2026-03-29T10:37:16Z</time></trkpt><trkpt lat="43.22695132883046" lon="12.171121186271218"><ele>555.0</ele><time>2026-03-29T10:37:18Z</time></trkpt><trkpt lat="43.226857646676144" lon="12.171055979605118"><ele>556.6666666666666</ele><time>2026-03-29T10:37:21Z</time></trkpt><trkpt lat="43.226788459092155" lon="12.171007782500283"><ele>558.3333333333333</ele><time>2026-03-29T10:37:22Z</time></trkpt><trkpt lat="43.226749071854194" lon="12.170931346541478"><ele>560.0</ele><time>2026-03-29T10:37:23Z</time></trkpt><trkpt lat="43.226750238641" lon="12.170801332951635"><ele>560.0</ele><time>2026-03-29T10:37:25Z</time></trkpt><trkpt lat="43.22677550552327" lon="12.170712221962724"><ele>560.0</ele><time>2026-03-29T10:37:26Z</time></trkpt><trkpt lat="43.226785211774185" lon="12.170562176675226"><ele>560.0</ele><time>2026-03-29T10:37:28Z</time></trkpt><trkpt lat="43.226885961930805" lon="12.170580780919076"><ele>560.0</ele><time>2026-03-29T10:37:30Z</time></trkpt><trkpt lat="43.22696630488097" lon="12.17063372091798"><ele>560.0</ele><time>2026-03-29T10:37:31Z</time></trkpt><trkpt lat="43.22705329541071" lon="12.170680333776746"><ele>560.0</ele><time>2026-03-29T10:37:32Z</time></trkpt><trkpt lat="43.227165670393674" lon="12.170712090163626"><ele>560.0</ele><time>2026-03-29T10:37:33Z</time></trkpt><trkpt lat="43.227264101831686" lon="12.170741346734918"><ele>560.0</ele><time>2026-03-29T10:37:34Z</time></trkpt><trkpt lat="43.22737190157592" lon="12.170743765360111"><ele>560.0</ele><time>2026-03-29T10:37:36Z</time></trkpt><trkpt lat="43.227456025418576" lon="12.170715564560112"><ele>560.0</ele><time>2026-03-29T10:37:43Z</time></trkpt><trkpt lat="43.227520839770605" lon="12.170789455498209"><ele>562.5</ele><time>2026-03-29T10:37:45Z</time></trkpt><trkpt lat="43.22762132336425" lon="12.17084720681979"><ele>565.0</ele><time>2026-03-29T10:37:47Z</time></trkpt><trkpt lat="43.227729076811904" lon="12.170875623064664"><ele>567.5</ele><time>2026-03-29T10:37:49Z</time></trkpt><trkpt lat="43.22787753058301" lon="12.170915809911978"><ele>570.0</ele><time>2026-03-29T10:37:51Z</time></trkpt><trkpt lat="43.22795792664495" lon="12.170898358131456"><ele>570.0</ele><time>2026-03-29T10:37:52Z</time></trkpt><trkpt lat="43.22802999123989" lon="12.170856043661484"><ele>570.0</ele><time>2026-03-29T10:37:53Z</time></trkpt><trkpt lat="43.228095256335855" lon="12.170817310470452"><ele>570.0</ele><time>2026-03-29T10:37:54Z</time></trkpt><trkpt lat="43.22819457196023" lon="12.170867611751323"><ele>570.0</ele><time>2026-03-29T10:37:56Z</time></trkpt><trkpt lat="43.22827291182729" lon="12.17094829685348"><ele>570.0</ele><time>2026-03-29T10:37:57Z</time></trkpt><trkpt lat="43.228337837587276" lon="12.171053290576106"><ele>570.4</ele><time>2026-03-29T10:37:58Z</time></trkpt><trkpt lat="43.228394847601166" lon="12.171178185854735"><ele>570.8</ele><time>2026-03-29T10:38:00Z</time></trkpt><trkpt lat="43.228541836323686" lon="12.171220912674986"><ele>571.2</ele><time>2026-03-29T10:38:02Z</time></trkpt><trkpt lat="43.2286342321415" lon="12.1712242148362"><ele>571.6</ele><time>2026-03-29T10:38:03Z</time></trkpt><trkpt lat="43.228720978043455" lon="12.171281572980435"><ele>572.0</ele><time>2026-03-29T10:38:04Z</time></trkpt><trkpt lat="43.228789170962266" lon="12.171341603636785"><ele>572.0</ele><time>2026-03-29T10:38:05Z</time></trkpt><trkpt lat="43.22885777378019" lon="12.17139855716148"><ele>572.0</ele><time>2026-03-29T10:38:06Z</time></trkpt><trkpt lat="43.22893504829941" lon="12.17143185974317"><ele>572.0</ele><time>2026-03-29T10:38:07Z</time></trkpt><trkpt lat="43.22902233406905" lon="12.171451513511641"><ele>572.0</ele><time>2026-03-29T10:38:08Z</time></trkpt><trkpt lat="43.22911346403466" lon="12.171487252597062"><ele>572.0</ele><time>2026-03-29T10:38:09Z</time></trkpt><trkpt lat="43.22920096124801" lon="12.171548144197669"><ele>572.0</ele><time>2026-03-29T10:38:10Z</time></trkpt><trkpt lat="43.229300560228616" lon="12.17164460673104"><ele>569.6666666666666</ele><time>2026-03-29T10:38:11Z</time></trkpt><trkpt lat="43.22940500215552" lon="12.171725632336994"><ele>567.3333333333333</ele><time>2026-03-29T10:38:12Z</time></trkpt><trkpt lat="43.229466386437615" lon="12.171796457609439"><ele>565.0</ele><time>2026-03-29T10:38:13Z</time></trkpt><trkpt lat="43.229512877665385" lon="12.17186428656508"><ele>562.6666666666666</ele><time>2026-03-29T10:38:14Z</time></trkpt><trkpt lat="43.22956327489086" lon="12.171943185374992"><ele>560.3333333333334</ele><time>2026-03-29T10:38:15Z</time></trkpt><trkpt lat="43.229638036706774" lon="12.17201749140645"><ele>558.0</ele><time>2026-03-29T10:38:16Z</time></trkpt><trkpt lat="43.22971967686095" lon="12.17206148271268"><ele>558.0</ele><time>2026-03-29T10:38:17Z</time></trkpt><trkpt lat="43.229805060653035" lon="12.172089183480395"><ele>558.0</ele><time>2026-03-29T10:38:18Z</time></trkpt><trkpt lat="43.22990270091603" lon="12.17209549378531"><ele>558.0</ele><time>2026-03-29T10:38:19Z</time></trkpt><trkpt lat="43.23000746294226" lon="12.172112968904234"><ele>558.0</ele><time>2026-03-29T10:38:20Z</time></trkpt><trkpt lat="43.23010696178473" lon="12.172147558914157"><ele>558.0</ele><time>2026-03-29T10:38:21Z</time></trkpt><trkpt lat="43.23017523121033" lon="12.172156867953326"><ele>559.1666666666666</ele><time>2026-03-29T10:38:22Z</time></trkpt><trkpt lat="43.230247566474674" lon="12.172126122195417"><ele>560.3333333333334</ele><time>2026-03-29T10:38:23Z</time></trkpt><trkpt lat="43.230319214308835" lon="12.172083054562219"><ele>561.5</ele><time>2026-03-29T10:38:24Z</time></trkpt><trkpt lat="43.23040204643902" lon="12.172035631992426"><ele>562.6666666666667</ele><time>2026-03-29T10:38:25Z</time></trkpt><trkpt lat="43.23048772772541" lon="12.172000136292855"><ele>563.8333333333334</ele><time>2026-03-29T10:38:26Z</time></trkpt><trkpt lat="43.23055466088735" lon="12.171957911317321"><ele>565.0</ele><time>2026-03-29T10:38:27Z</time></trkpt><trkpt lat="43.23062988135328" lon="12.171876535247126"><ele>563.5</ele><time>2026-03-29T10:38:28Z</time></trkpt><trkpt lat="43.230696537946294" lon="12.171798916784637"><ele>562.0</ele><time>2026-03-29T10:38:29Z</time></trkpt><trkpt lat="43.2307391917584" lon="12.171727674266625"><ele>560.5</ele><time>2026-03-29T10:38:30Z</time></trkpt><trkpt lat="43.23075782627025" lon="12.171631554326769"><ele>559.0</ele><time>2026-03-29T10:38:31Z</time></trkpt><trkpt lat="43.23077204791542" lon="12.171530198851134"><ele>557.5</ele><time>2026-03-29T10:38:32Z</time></trkpt><trkpt lat="43.2308031463846" lon="12.171399458196518"><ele>556.0</ele><time>2026-03-29T10:38:33Z</time></trkpt><trkpt lat="43.230851478150385" lon="12.171287979783799"><ele>556.0</ele><time>2026-03-29T10:38:34Z</time></trkpt><trkpt lat="43.23092563084915" lon="12.171181748230996"><ele>556.0</ele><time>2026-03-29T10:38:35Z</time></trkpt><trkpt lat="43.230976248878825" lon="12.171078909930625"><ele>556.0</ele><time>2026-03-29T10:38:36Z</time></trkpt><trkpt lat="43.23097725411511" lon="12.170989056239362"><ele>556.0</ele><time>2026-03-29T10:38:37Z</time></trkpt><trkpt lat="43.23099456840149" lon="12.170901420309457"><ele>556.0</ele><time>2026-03-29T10:38:38.999Z</time></trkpt><trkpt lat="43.23104136892888" lon="12.17079612399211"><ele>556.0</ele><time>2026-03-29T10:38:41.999Z</time></trkpt><trkpt lat="43.23117659388057" lon="12.170739207963386"><ele>556.0</ele><time>2026-03-29T10:38:43.999Z</time></trkpt><trkpt lat="43.23125168045582" lon="12.170703968631067"><ele>556.0</ele><time>2026-03-29T10:38:44.999Z</time></trkpt><trkpt lat="43.23132612372319" lon="12.170609973172338"><ele>556.0</ele><time>2026-03-29T10:38:45.999Z</time></trkpt><trkpt lat="43.23135766210192" lon="12.170505587285673"><ele>556.0</ele><time>2026-03-29T10:38:46.999Z</time></trkpt><trkpt lat="43.23138125824358" lon="12.170396374645309"><ele>556.0</ele><time>2026-03-29T10:38:47.999Z</time></trkpt><trkpt lat="43.23140553910122" lon="12.17026891434298"><ele>556.0</ele><time>2026-03-29T10:38:48.999Z</time></trkpt><trkpt lat="43.23148037824135" lon="12.170242167538508"><ele>557.0</ele><time>2026-03-29T10:38:50.999Z</time></trkpt><trkpt lat="43.23157578517269" lon="12.170227909501657"><ele>558.0</ele><time>2026-03-29T10:38:51.999Z</time></trkpt><trkpt lat="43.23167338201117" lon="12.170182742561162"><ele>559.0</ele><time>2026-03-29T10:38:52.999Z</time></trkpt><trkpt lat="43.23179127717273" lon="12.17016287680647"><ele>560.0</ele><time>2026-03-29T10:38:53.999Z</time></trkpt><trkpt lat="43.23186483985541" lon="12.170103259480651"><ele>561.0</ele><time>2026-03-29T10:38:54.999Z</time></trkpt><trkpt lat="43.23195690198584" lon="12.170002869515818"><ele>561.0</ele><time>2026-03-29T10:38:55.999Z</time></trkpt><trkpt lat="43.23204020597659" lon="12.169938409970866"><ele>561.0</ele><time>2026-03-29T10:38:57.999Z</time></trkpt><trkpt lat="43.23211029639885" lon="12.169898003056542"><ele>561.0</ele><time>2026-03-29T10:38:58.999Z</time></trkpt><trkpt lat="43.232218257753026" lon="12.169766847988322"><ele>561.0</ele><time>2026-03-29T10:39:00.999Z</time></trkpt><trkpt lat="43.23228864845496" lon="12.169626005600424"><ele>561.0</ele><time>2026-03-29T10:39:01.999Z</time></trkpt><trkpt lat="43.232329619941346" lon="12.169496925355702"><ele>562.2</ele><time>2026-03-29T10:39:02.999Z</time></trkpt><trkpt lat="43.23237232254406" lon="12.169399612703806"><ele>563.4000000000001</ele><time>2026-03-29T10:39:03.999Z</time></trkpt><trkpt lat="43.23248616156335" lon="12.169274596765819"><ele>564.6</ele><time>2026-03-29T10:39:05.999Z</time></trkpt><trkpt lat="43.232564694904426" lon="12.169208360605385"><ele>565.8000000000001</ele><time>2026-03-29T10:39:07Z</time></trkpt><trkpt lat="43.232628163900905" lon="12.169096519723977"><ele>567.0</ele><time>2026-03-29T10:39:09Z</time></trkpt><trkpt lat="43.23268020593427" lon="12.169042351607562"><ele>570.4285714285714</ele><time>2026-03-29T10:39:10Z</time></trkpt><trkpt lat="43.23274277564464" lon="12.16898104627999"><ele>573.8571428571429</ele><time>2026-03-29T10:39:11Z</time></trkpt><trkpt lat="43.23280422670732" lon="12.1688997788661"><ele>577.2857142857142</ele><time>2026-03-29T10:39:12Z</time></trkpt><trkpt lat="43.232863902218426" lon="12.168845626282316"><ele>580.7142857142858</ele><time>2026-03-29T10:39:13Z</time></trkpt><trkpt lat="43.23293478965311" lon="12.168805058385708"><ele>584.1428571428571</ele><time>2026-03-29T10:39:14Z</time></trkpt><trkpt lat="43.233000678749946" lon="12.168768690136707"><ele>587.5714285714286</ele><time>2026-03-29T10:39:15Z</time></trkpt><trkpt lat="43.23306651876705" lon="12.168754533302327"><ele>591.0</ele><time>2026-03-29T10:39:16Z</time></trkpt><trkpt lat="43.23313074489261" lon="12.168767034201727"><ele>588.5</ele><time>2026-03-29T10:39:19Z</time></trkpt><trkpt lat="43.233227545417506" lon="12.168764400255128"><ele>586.0</ele><time>2026-03-29T10:39:21Z</time></trkpt><trkpt lat="43.233298297879315" lon="12.168787602413051"><ele>583.5</ele><time>2026-03-29T10:39:22Z</time></trkpt><trkpt lat="43.2333753425431" lon="12.16879880949662"><ele>581.0</ele><time>2026-03-29T10:39:23Z</time></trkpt><trkpt lat="43.233448174398795" lon="12.168788560210182"><ele>578.5</ele><time>2026-03-29T10:39:24Z</time></trkpt><trkpt lat="43.23349057309415" lon="12.168699035320648"><ele>576.0</ele><time>2026-03-29T10:39:26Z</time></trkpt><trkpt lat="43.23340415806622" lon="12.168618892450171"><ele>576.0</ele><time>2026-03-29T10:39:28Z</time></trkpt><trkpt lat="43.233320883481426" lon="12.168617145010217"><ele>576.0</ele><time>2026-03-29T10:39:30Z</time></trkpt><trkpt lat="43.23325309023453" lon="12.168552096877717"><ele>576.0</ele><time>2026-03-29T10:39:32Z</time></trkpt><trkpt lat="43.23327832375094" lon="12.16842566152009"><ele>576.0</ele><time>2026-03-29T10:39:34Z</time></trkpt><trkpt lat="43.233312877589036" lon="12.168353170805117"><ele>576.0</ele><time>2026-03-29T10:39:35Z</time></trkpt><trkpt lat="43.233352036536054" lon="12.168244649439817"><ele>576.0</ele><time>2026-03-29T10:39:36Z</time></trkpt><trkpt lat="43.23337471226648" lon="12.168137135914698"><ele>577.0</ele><time>2026-03-29T10:39:37Z</time></trkpt><trkpt lat="43.23337959636035" lon="12.167989943313977"><ele>578.0</ele><time>2026-03-29T10:39:38Z</time></trkpt><trkpt lat="43.233349841940765" lon="12.167865007653871"><ele>579.0</ele><time>2026-03-29T10:39:39Z</time></trkpt><trkpt lat="43.23331328260626" lon="12.167771883884628"><ele>580.0</ele><time>2026-03-29T10:39:40Z</time></trkpt><trkpt lat="43.23328561472621" lon="12.167600444234115"><ele>581.0</ele><time>2026-03-29T10:39:42Z</time></trkpt><trkpt lat="43.23328634741494" lon="12.167450716226249"><ele>581.4</ele><time>2026-03-29T10:39:43Z</time></trkpt><trkpt lat="43.23329247571142" lon="12.167306557941242"><ele>581.8</ele><time>2026-03-29T10:39:45Z</time></trkpt><trkpt lat="43.23329907423069" lon="12.167192932181987"><ele>582.1999999999999</ele><time>2026-03-29T10:39:46Z</time></trkpt><trkpt lat="43.23330817964299" lon="12.167031200689438"><ele>582.6</ele><time>2026-03-29T10:39:47Z</time></trkpt><trkpt lat="43.23329567392351" lon="12.166902407920118"><ele>583.0</ele><time>2026-03-29T10:39:48Z</time></trkpt><trkpt lat="43.23329194907725" lon="12.16679176910605"><ele>583.0</ele><time>2026-03-29T10:39:49Z</time></trkpt><trkpt lat="43.23328723593638" lon="12.166651387246603"><ele>583.0</ele><time>2026-03-29T10:39:50Z</time></trkpt><trkpt lat="43.233368499680644" lon="12.166596966796593"><ele>583.0</ele><time>2026-03-29T10:39:52Z</time></trkpt><trkpt lat="43.233495289229076" lon="12.16659976906591"><ele>583.0</ele><time>2026-03-29T10:39:54Z</time></trkpt><trkpt lat="43.23355983324426" lon="12.166598405313398"><ele>583.0</ele><time>2026-03-29T10:39:55Z</time></trkpt><trkpt lat="43.23363646987975" lon="12.166667263587987"><ele>583.0</ele><time>2026-03-29T10:39:56Z</time></trkpt><trkpt lat="43.23375164899828" lon="12.166623642635333"><ele>583.0</ele><time>2026-03-29T10:39:58Z</time></trkpt><trkpt lat="43.23385102342703" lon="12.166551243135283"><ele>583.0</ele><time>2026-03-29T10:39:59Z</time></trkpt><trkpt lat="43.23396965881135" lon="12.166460526720119"><ele>583.0</ele><time>2026-03-29T10:40:00Z</time></trkpt><trkpt lat="43.234060346686654" lon="12.166406958738557"><ele>582.4</ele><time>2026-03-29T10:40:01Z</time></trkpt><trkpt lat="43.23414129190214" lon="12.16637155583027"><ele>581.8</ele><time>2026-03-29T10:40:02Z</time></trkpt><trkpt lat="43.23423822459078" lon="12.166322418340336"><ele>581.2</ele><time>2026-03-29T10:40:03Z</time></trkpt><trkpt lat="43.23431312677235" lon="12.166283737864083"><ele>580.6</ele><time>2026-03-29T10:40:04Z</time></trkpt><trkpt lat="43.23438128100532" lon="12.166320844996893"><ele>580.0</ele><time>2026-03-29T10:40:06Z</time></trkpt><trkpt lat="43.23449323200628" lon="12.166413591410599"><ele>580.0</ele><time>2026-03-29T10:40:08Z</time></trkpt><trkpt lat="43.23457378348791" lon="12.166449655903811"><ele>580.0</ele><time>2026-03-29T10:40:09Z</time></trkpt><trkpt lat="43.23465211958263" lon="12.166472235949094"><ele>580.0</ele><time>2026-03-29T10:40:10Z</time></trkpt><trkpt lat="43.23473861054016" lon="12.166473044836149"><ele>580.0</ele><time>2026-03-29T10:40:11Z</time></trkpt><trkpt lat="43.23482775020633" lon="12.166484897222642"><ele>580.0</ele><time>2026-03-29T10:40:12Z</time></trkpt><trkpt lat="43.23491303955905" lon="12.166505769965182"><ele>580.0</ele><time>2026-03-29T10:40:13Z</time></trkpt><trkpt lat="43.2349826639669" lon="12.166542908276474"><ele>576.8</ele><time>2026-03-29T10:40:14Z</time></trkpt><trkpt lat="43.23505472669323" lon="12.166600848647107"><ele>573.6</ele><time>2026-03-29T10:40:15Z</time></trkpt><trkpt lat="43.2351438775745" lon="12.166660543003646"><ele>570.4</ele><time>2026-03-29T10:40:16Z</time></trkpt><trkpt lat="43.23521415414016" lon="12.16676975228869"><ele>567.2</ele><time>2026-03-29T10:40:17Z</time></trkpt><trkpt lat="43.235266002006284" lon="12.16685474248434"><ele>564.0</ele><time>2026-03-29T10:40:18Z</time></trkpt><trkpt lat="43.23536638756132" lon="12.166936031259969"><ele>564.0</ele><time>2026-03-29T10:40:20Z</time></trkpt><trkpt lat="43.23542717714334" lon="12.166992162976708"><ele>564.0</ele><time>2026-03-29T10:40:21.001Z</time></trkpt><trkpt lat="43.2354925039094" lon="12.167061108164008"><ele>564.0</ele><time>2026-03-29T10:40:22.001Z</time></trkpt><trkpt lat="43.23556703897099" lon="12.167100458152854"><ele>564.0</ele><time>2026-03-29T10:40:23.001Z</time></trkpt><trkpt lat="43.235624222757615" lon="12.167146170933835"><ele>564.0</ele><time>2026-03-29T10:40:24.001Z</time></trkpt><trkpt lat="43.23569530302905" lon="12.167222811339377"><ele>564.0</ele><time>2026-03-29T10:40:25.001Z</time></trkpt><trkpt lat="43.235743249412494" lon="12.16730227967273"><ele>564.8</ele><time>2026-03-29T10:40:26.001Z</time></trkpt><trkpt lat="43.23582185627381" lon="12.167401274500842"><ele>565.5999999999999</ele><time>2026-03-29T10:40:28.001Z</time></trkpt><trkpt lat="43.2359027779313" lon="12.16744699143099"><ele>566.4</ele><time>2026-03-29T10:40:30.001Z</time></trkpt><trkpt lat="43.23595791600876" lon="12.167385584180977"><ele>567.1999999999999</ele><time>2026-03-29T10:40:31.001Z</time></trkpt><trkpt lat="43.23598594533293" lon="12.167294220126411"><ele>568.0</ele><time>2026-03-29T10:40:32.001Z</time></trkpt><trkpt lat="43.236020977732714" lon="12.167138670652532"><ele>568.0</ele><time>2026-03-29T10:40:34.001Z</time></trkpt><trkpt lat="43.23602771709153" lon="12.166997509481849"><ele>568.0</ele><time>2026-03-29T10:40:36.001Z</time></trkpt><trkpt lat="43.23607250581911" lon="12.166869562718556"><ele>568.0</ele><time>2026-03-29T10:40:37.001Z</time></trkpt><trkpt lat="43.23613097393039" lon="12.166779280116998"><ele>568.0</ele><time>2026-03-29T10:40:38.001Z</time></trkpt><trkpt lat="43.23620120059449" lon="12.166740337698787"><ele>568.0</ele><time>2026-03-29T10:40:40.001Z</time></trkpt><trkpt lat="43.23629840031063" lon="12.166768983166333"><ele>568.0</ele><time>2026-03-29T10:40:42.001Z</time></trkpt><trkpt lat="43.23637931519314" lon="12.166811060535942"><ele>568.0</ele><time>2026-03-29T10:40:43.999Z</time></trkpt><trkpt lat="43.23645931989411" lon="12.166845758848433"><ele>568.0</ele><time>2026-03-29T10:40:45.999Z</time></trkpt><trkpt lat="43.236627382314296" lon="12.166928434019193"><ele>568.0</ele><time>2026-03-29T10:40:47.999Z</time></trkpt><trkpt lat="43.236726002410094" lon="12.166962194225137"><ele>565.5</ele><time>2026-03-29T10:40:48.999Z</time></trkpt><trkpt lat="43.23677269437399" lon="12.167033743657308"><ele>563.0</ele><time>2026-03-29T10:40:49.999Z</time></trkpt><trkpt lat="43.23682606569009" lon="12.16710318672726"><ele>560.5</ele><time>2026-03-29T10:40:50.999Z</time></trkpt><trkpt lat="43.2368848115407" lon="12.167171712156568"><ele>558.0</ele><time>2026-03-29T10:40:51.999Z</time></trkpt><trkpt lat="43.237003568157206" lon="12.167164611329193"><ele>555.5</ele><time>2026-03-29T10:40:53.999Z</time></trkpt><trkpt lat="43.237064306414474" lon="12.167132612798055"><ele>553.0</ele><time>2026-03-29T10:40:54.999Z</time></trkpt><trkpt lat="43.2371601732777" lon="12.16710436898788"><ele>553.0</ele><time>2026-03-29T10:40:55.999Z</time></trkpt><trkpt lat="43.237260697649646" lon="12.167071818346257"><ele>553.0</ele><time>2026-03-29T10:40:56.999Z</time></trkpt><trkpt lat="43.23733822135478" lon="12.16702814343898"><ele>553.0</ele><time>2026-03-29T10:40:57.999Z</time></trkpt><trkpt lat="43.2374154477823" lon="12.167000467143225"><ele>553.0</ele><time>2026-03-29T10:40:58.999Z</time></trkpt><trkpt lat="43.237479841250426" lon="12.16699203608222"><ele>553.0</ele><time>2026-03-29T10:40:59.999Z</time></trkpt><trkpt lat="43.237614646672014" lon="12.166962715068273"><ele>551.6666666666667</ele><time>2026-03-29T10:41:01.999Z</time></trkpt><trkpt lat="43.237696760846354" lon="12.166964296127603"><ele>550.3333333333334</ele><time>2026-03-29T10:41:02.999Z</time></trkpt><trkpt lat="43.2377740058438" lon="12.16699674923231"><ele>549.0</ele><time>2026-03-29T10:41:03.999Z</time></trkpt><trkpt lat="43.23783812362242" lon="12.167035355701449"><ele>547.6666666666666</ele><time>2026-03-29T10:41:04.999Z</time></trkpt><trkpt lat="43.23791935612135" lon="12.167061704171195"><ele>546.3333333333333</ele><time>2026-03-29T10:41:05.999Z</time></trkpt><trkpt lat="43.238010372629" lon="12.16706817436361"><ele>545.0</ele><time>2026-03-29T10:41:06.999Z</time></trkpt><trkpt lat="43.23809972987941" lon="12.167070262370851"><ele>541.6</ele><time>2026-03-29T10:41:07.999Z</time></trkpt><trkpt lat="43.238180718497446" lon="12.167039394323321"><ele>538.2</ele><time>2026-03-29T10:41:08.999Z</time></trkpt><trkpt lat="43.23826889019931" lon="12.167016652000116"><ele>534.8</ele><time>2026-03-29T10:41:09.999Z</time></trkpt><trkpt lat="43.238338658418556" lon="12.166983849605746"><ele>531.4</ele><time>2026-03-29T10:41:10.999Z</time></trkpt><trkpt lat="43.23846359601588" lon="12.167058400479219"><ele>528.0</ele><time>2026-03-29T10:41:13Z</time></trkpt><trkpt lat="43.2385720413322" lon="12.167093669715127"><ele>528.0</ele><time>2026-03-29T10:41:14Z</time></trkpt><trkpt lat="43.238635137861685" lon="12.16713377073374"><ele>528.0</ele><time>2026-03-29T10:41:15Z</time></trkpt><trkpt lat="43.23870344482096" lon="12.167123503576414"><ele>528.0</ele><time>2026-03-29T10:41:17Z</time></trkpt><trkpt lat="43.23871419386363" lon="12.167029619384927"><ele>528.0</ele><time>2026-03-29T10:41:20Z</time></trkpt><trkpt lat="43.23871054152899" lon="12.166940991663951"><ele>528.0</ele><time>2026-03-29T10:41:21Z</time></trkpt><trkpt lat="43.23869169111428" lon="12.166821386655284"><ele>528.0</ele><time>2026-03-29T10:41:22Z</time></trkpt><trkpt lat="43.23868379934095" lon="12.166665355057201"><ele>529.0</ele><time>2026-03-29T10:41:23Z</time></trkpt><trkpt lat="43.23866144013513" lon="12.166500821817362"><ele>530.0</ele><time>2026-03-29T10:41:24Z</time></trkpt><trkpt lat="43.23863243829" lon="12.166361835073094"><ele>531.0</ele><time>2026-03-29T10:41:25Z</time></trkpt><trkpt lat="43.238591478568324" lon="12.166194200141545"><ele>532.0</ele><time>2026-03-29T10:41:26Z</time></trkpt><trkpt lat="43.23854624256485" lon="12.166012793169886"><ele>532.0</ele><time>2026-03-29T10:41:27Z</time></trkpt><trkpt lat="43.238500954019116" lon="12.1658311755347"><ele>532.0</ele><time>2026-03-29T10:41:28Z</time></trkpt><trkpt lat="43.23845308511574" lon="12.165629112717047"><ele>532.0</ele><time>2026-03-29T10:41:29Z</time></trkpt><trkpt lat="43.23842916119234" lon="12.165419498894"><ele>532.0</ele><time>2026-03-29T10:41:30Z</time></trkpt><trkpt lat="43.23842537206552" lon="12.165237755991056"><ele>532.0</ele><time>2026-03-29T10:41:31Z</time></trkpt><trkpt lat="43.23840489223264" lon="12.165101633358026"><ele>532.0</ele><time>2026-03-29T10:41:32Z</time></trkpt><trkpt lat="43.23837543125236" lon="12.164958828597708"><ele>532.0</ele><time>2026-03-29T10:41:33Z</time></trkpt><trkpt lat="43.23833065267434" lon="12.16480542581213"><ele>532.0</ele><time>2026-03-29T10:41:34Z</time></trkpt><trkpt lat="43.23827796751974" lon="12.164657368167543"><ele>532.0</ele><time>2026-03-29T10:41:35Z</time></trkpt><trkpt lat="43.238234788736335" lon="12.164507966060857"><ele>532.0</ele><time>2026-03-29T10:41:36Z</time></trkpt><trkpt lat="43.23820842548809" lon="12.164328925541351"><ele>532.0</ele><time>2026-03-29T10:41:37Z</time></trkpt><trkpt lat="43.23821976084064" lon="12.164178239385539"><ele>532.0</ele><time>2026-03-29T10:41:38Z</time></trkpt><trkpt lat="43.23824795751503" lon="12.16406177275557"><ele>531.6</ele><time>2026-03-29T10:41:39Z</time></trkpt><trkpt lat="43.238290932892696" lon="12.163925574847715"><ele>531.2</ele><time>2026-03-29T10:41:40Z</time></trkpt><trkpt lat="43.238290595152755" lon="12.163796623282982"><ele>530.8</ele><time>2026-03-29T10:41:41Z</time></trkpt><trkpt lat="43.23826605787135" lon="12.163660673868584"><ele>530.4</ele><time>2026-03-29T10:41:42Z</time></trkpt><trkpt lat="43.23819761196886" lon="12.163518365221963"><ele>530.0</ele><time>2026-03-29T10:41:43Z</time></trkpt><trkpt lat="43.23814416086689" lon="12.163386519961449"><ele>533.6</ele><time>2026-03-29T10:41:44Z</time></trkpt><trkpt lat="43.23808268996944" lon="12.16329049246458"><ele>537.2</ele><time>2026-03-29T10:41:45Z</time></trkpt><trkpt lat="43.238012465622674" lon="12.16320229472068"><ele>540.8</ele><time>2026-03-29T10:41:46Z</time></trkpt><trkpt lat="43.23788838848463" lon="12.163163964771948"><ele>544.4</ele><time>2026-03-29T10:41:47Z</time></trkpt><trkpt lat="43.23777671547499" lon="12.163098579104537"><ele>548.0</ele><time>2026-03-29T10:41:48Z</time></trkpt><trkpt lat="43.23768700239019" lon="12.16304091725411"><ele>548.0</ele><time>2026-03-29T10:41:49Z</time></trkpt><trkpt lat="43.23759994332748" lon="12.16296668684402"><ele>548.0</ele><time>2026-03-29T10:41:50Z</time></trkpt><trkpt lat="43.23759134761561" lon="12.162818140515116"><ele>548.0</ele><time>2026-03-29T10:41:51Z</time></trkpt><trkpt lat="43.237570384799746" lon="12.162694590074693"><ele>548.0</ele><time>2026-03-29T10:41:52Z</time></trkpt><trkpt lat="43.23748759292317" lon="12.16257618108119"><ele>548.0</ele><time>2026-03-29T10:41:53Z</time></trkpt><trkpt lat="43.237414170442136" lon="12.162485080011626"><ele>548.0</ele><time>2026-03-29T10:41:54Z</time></trkpt><trkpt lat="43.23733055641528" lon="12.16237377444333"><ele>548.0</ele><time>2026-03-29T10:41:55Z</time></trkpt><trkpt lat="43.2372247710394" lon="12.162302527113988"><ele>548.0</ele><time>2026-03-29T10:41:56Z</time></trkpt><trkpt lat="43.23711572516553" lon="12.162321467841805"><ele>548.0</ele><time>2026-03-29T10:41:57Z</time></trkpt><trkpt lat="43.23703451189312" lon="12.16233429507299"><ele>548.0</ele><time>2026-03-29T10:41:58Z</time></trkpt><trkpt lat="43.23698085530825" lon="12.16220153011162"><ele>552.4</ele><time>2026-03-29T10:42:00Z</time></trkpt><trkpt lat="43.236989420703495" lon="12.162039081835056"><ele>556.8</ele><time>2026-03-29T10:42:01Z</time></trkpt><trkpt lat="43.23695913680332" lon="12.161866547667888"><ele>561.2</ele><time>2026-03-29T10:42:02Z</time></trkpt><trkpt lat="43.23691289540064" lon="12.161754092609977"><ele>565.6</ele><time>2026-03-29T10:42:03Z</time></trkpt><trkpt lat="43.23685646316841" lon="12.161669721594514"><ele>570.0</ele><time>2026-03-29T10:42:04Z</time></trkpt><trkpt lat="43.23679883517043" lon="12.161586978510796"><ele>570.0</ele><time>2026-03-29T10:42:05Z</time></trkpt><trkpt lat="43.23668914588622" lon="12.16156336509058"><ele>570.0</ele><time>2026-03-29T10:42:06Z</time></trkpt><trkpt lat="43.23658277303752" lon="12.161545608013341"><ele>570.0</ele><time>2026-03-29T10:42:07Z</time></trkpt><trkpt lat="43.236470074690985" lon="12.161514165355737"><ele>570.0</ele><time>2026-03-29T10:42:08Z</time></trkpt><trkpt lat="43.23639778671606" lon="12.161495453781432"><ele>570.0</ele><time>2026-03-29T10:42:09.001Z</time></trkpt><trkpt lat="43.2363398651608" lon="12.161362497976382"><ele>568.75</ele><time>2026-03-29T10:42:11.001Z</time></trkpt><trkpt lat="43.23638764927131" lon="12.161237651314414"><ele>567.5</ele><time>2026-03-29T10:42:12.001Z</time></trkpt><trkpt lat="43.23644808260731" lon="12.16110723578967"><ele>566.25</ele><time>2026-03-29T10:42:13.001Z</time></trkpt><trkpt lat="43.23650570663984" lon="12.160940670699881"><ele>565.0</ele><time>2026-03-29T10:42:14.001Z</time></trkpt><trkpt lat="43.23650560639055" lon="12.160778445602494"><ele>564.25</ele><time>2026-03-29T10:42:15.001Z</time></trkpt><trkpt lat="43.236489089838805" lon="12.160625681113808"><ele>563.5</ele><time>2026-03-29T10:42:16.001Z</time></trkpt><trkpt lat="43.23645919230474" lon="12.160449627023041"><ele>562.75</ele><time>2026-03-29T10:42:17.001Z</time></trkpt><trkpt lat="43.23644528944909" lon="12.160255992412443"><ele>562.0</ele><time>2026-03-29T10:42:18.001Z</time></trkpt><trkpt lat="43.23641512630182" lon="12.1600987960481"><ele>563.5</ele><time>2026-03-29T10:42:19.001Z</time></trkpt><trkpt lat="43.23638724138973" lon="12.159980198989503"><ele>565.0</ele><time>2026-03-29T10:42:20.001Z</time></trkpt><trkpt lat="43.23635599972728" lon="12.159886288240367"><ele>566.5</ele><time>2026-03-29T10:42:21.001Z</time></trkpt><trkpt lat="43.236308360642596" lon="12.159803579209829"><ele>568.0</ele><time>2026-03-29T10:42:22.001Z</time></trkpt><trkpt lat="43.236235252074515" lon="12.159786788482664"><ele>569.5</ele><time>2026-03-29T10:42:23.001Z</time></trkpt><trkpt lat="43.236159917843224" lon="12.159702554391693"><ele>571.0</ele><time>2026-03-29T10:42:29.001Z</time></trkpt><trkpt lat="43.23616787449326" lon="12.15945723465633"><ele>571.0</ele><time>2026-03-29T10:42:31.001Z</time></trkpt><trkpt lat="43.23614872074971" lon="12.159369972292133"><ele>571.0</ele><time>2026-03-29T10:42:32.001Z</time></trkpt><trkpt lat="43.23619540914847" lon="12.159200618177696"><ele>571.0</ele><time>2026-03-29T10:42:34.001Z</time></trkpt><trkpt lat="43.23625524840864" lon="12.159115863985964"><ele>571.0</ele><time>2026-03-29T10:42:35.001Z</time></trkpt><trkpt lat="43.236320676084354" lon="12.159033953405162"><ele>571.0</ele><time>2026-03-29T10:42:36.001Z</time></trkpt><trkpt lat="43.23637468403311" lon="12.158965736208405"><ele>571.0</ele><time>2026-03-29T10:42:37.001Z</time></trkpt><trkpt lat="43.236397730873946" lon="12.158880758857718"><ele>568.6666666666667</ele><time>2026-03-29T10:42:38.001Z</time></trkpt><trkpt lat="43.236445888429365" lon="12.158812694218126"><ele>566.3333333333334</ele><time>2026-03-29T10:42:39.001Z</time></trkpt><trkpt lat="43.23652401525766" lon="12.158773803914674"><ele>564.0</ele><time>2026-03-29T10:42:41.001Z</time></trkpt><trkpt lat="43.23664392305708" lon="12.158832643870813"><ele>561.6666666666666</ele><time>2026-03-29T10:42:43.001Z</time></trkpt><trkpt lat="43.236713818350744" lon="12.158837168010212"><ele>559.3333333333333</ele><time>2026-03-29T10:42:44.001Z</time></trkpt><trkpt lat="43.23678030461034" lon="12.158823172528626"><ele>557.0</ele><time>2026-03-29T10:42:45.001Z</time></trkpt><trkpt lat="43.23684614417917" lon="12.158811852200254"><ele>553.0</ele><time>2026-03-29T10:42:46.001Z</time></trkpt><trkpt lat="43.23697479956453" lon="12.15878784278084"><ele>549.0</ele><time>2026-03-29T10:42:48.001Z</time></trkpt><trkpt lat="43.23704357032188" lon="12.158762863293099"><ele>545.0</ele><time>2026-03-29T10:42:49.001Z</time></trkpt><trkpt lat="43.237155653040375" lon="12.158667182978292"><ele>541.0</ele><time>2026-03-29T10:42:50.999Z</time></trkpt><trkpt lat="43.23725215752206" lon="12.15856283242353"><ele>541.0</ele><time>2026-03-29T10:42:52.999Z</time></trkpt><trkpt lat="43.23727584720735" lon="12.158467180154958"><ele>541.0</ele><time>2026-03-29T10:42:53.999Z</time></trkpt><trkpt lat="43.23731587366279" lon="12.158300475029082"><ele>541.0</ele><time>2026-03-29T10:42:55.999Z</time></trkpt><trkpt lat="43.23742855383962" lon="12.158227494415502"><ele>541.0</ele><time>2026-03-29T10:42:57.999Z</time></trkpt><trkpt lat="43.23748749278411" lon="12.158126122282194"><ele>541.0</ele><time>2026-03-29T10:42:59.999Z</time></trkpt><trkpt lat="43.23748747323671" lon="12.158024433111885"><ele>536.8333333333334</ele><time>2026-03-29T10:43:00.999Z</time></trkpt><trkpt lat="43.2374881042151" lon="12.157904418573589"><ele>532.6666666666667</ele><time>2026-03-29T10:43:01.999Z</time></trkpt><trkpt lat="43.2374910010756" lon="12.157781348924829"><ele>528.5</ele><time>2026-03-29T10:43:02.999Z</time></trkpt><trkpt lat="43.2374787286552" lon="12.157684325669305"><ele>524.3333333333334</ele><time>2026-03-29T10:43:03.999Z</time></trkpt><trkpt lat="43.23746137469528" lon="12.157591211319653"><ele>520.1666666666666</ele><time>2026-03-29T10:43:04.999Z</time></trkpt><trkpt lat="43.237496439203504" lon="12.157444671244567"><ele>516.0</ele><time>2026-03-29T10:43:06.999Z</time></trkpt><trkpt lat="43.23753282657917" lon="12.15733403386644"><ele>513.6666666666666</ele><time>2026-03-29T10:43:07.999Z</time></trkpt><trkpt lat="43.23754897847118" lon="12.157235910295496"><ele>511.33333333333337</ele><time>2026-03-29T10:43:08.999Z</time></trkpt><trkpt lat="43.23754773593613" lon="12.157140671123292"><ele>509.0</ele><time>2026-03-29T10:43:09.999Z</time></trkpt><trkpt lat="43.237511265460334" lon="12.157040891295368"><ele>506.6666666666667</ele><time>2026-03-29T10:43:10.999Z</time></trkpt><trkpt lat="43.2374793704025" lon="12.156935805394982"><ele>504.33333333333337</ele><time>2026-03-29T10:43:12Z</time></trkpt><trkpt lat="43.23745294449191" lon="12.15678519836113"><ele>502.0</ele><time>2026-03-29T10:43:14Z</time></trkpt><trkpt lat="43.23737551146119" lon="12.156659840123726"><ele>504.6</ele><time>2026-03-29T10:43:16Z</time></trkpt><trkpt lat="43.23729290007377" lon="12.156598546603908"><ele>507.20000000000005</ele><time>2026-03-29T10:43:18Z</time></trkpt><trkpt lat="43.237342477414415" lon="12.156475266296109"><ele>509.8</ele><time>2026-03-29T10:43:20Z</time></trkpt><trkpt lat="43.237414121231964" lon="12.156393880067045"><ele>512.4</ele><time>2026-03-29T10:43:21Z</time></trkpt><trkpt lat="43.237520141868636" lon="12.156276586449868"><ele>515.0</ele><time>2026-03-29T10:43:23Z</time></trkpt><trkpt lat="43.23758815015995" lon="12.156219722613935"><ele>510.7142857142857</ele><time>2026-03-29T10:43:24Z</time></trkpt><trkpt lat="43.23764130413033" lon="12.1561663061401"><ele>506.42857142857144</ele><time>2026-03-29T10:43:25Z</time></trkpt><trkpt lat="43.23770124890814" lon="12.15609816668461"><ele>502.14285714285717</ele><time>2026-03-29T10:43:26Z</time></trkpt><trkpt lat="43.2377443814801" lon="12.156018679787286"><ele>497.8571428571429</ele><time>2026-03-29T10:43:27Z</time></trkpt><trkpt lat="43.237768127635434" lon="12.15593780909041"><ele>493.57142857142856</ele><time>2026-03-29T10:43:29Z</time></trkpt><trkpt lat="43.23783183528806" lon="12.155887729767326"><ele>489.28571428571433</ele><time>2026-03-29T10:43:42Z</time></trkpt><trkpt lat="43.237906423910886" lon="12.155904170446927"><ele>485.00000000000006</ele><time>2026-03-29T10:43:44Z</time></trkpt><trkpt lat="43.237972660107644" lon="12.155882499479638"><ele>485.00000000000006</ele><time>2026-03-29T10:43:45Z</time></trkpt><trkpt lat="43.238034253558126" lon="12.155837836170218"><ele>485.0</ele><time>2026-03-29T10:43:46Z</time></trkpt><trkpt lat="43.23808799806514" lon="12.155790020520818"><ele>485.00000000000006</ele><time>2026-03-29T10:43:48Z</time></trkpt><trkpt lat="43.23803966473379" lon="12.155848938045166"><ele>485.00000000000006</ele><time>2026-03-29T10:43:52Z</time></trkpt><trkpt lat="43.23797220867474" lon="12.155868916422726"><ele>485.0</ele><time>2026-03-29T10:43:53Z</time></trkpt><trkpt lat="43.237885490014534" lon="12.15589849099521"><ele>485.00000000000006</ele><time>2026-03-29T10:43:54Z</time></trkpt><trkpt lat="43.237807670150254" lon="12.155901616604401"><ele>485.00000000000006</ele><time>2026-03-29T10:43:55.001Z</time></trkpt><trkpt lat="43.23773849098696" lon="12.15585842688483"><ele>484.99999999999994</ele><time>2026-03-29T10:43:56.001Z</time></trkpt><trkpt lat="43.23765318341778" lon="12.15581977770197"><ele>485.0</ele><time>2026-03-29T10:43:57.001Z</time></trkpt><trkpt lat="43.23756085895634" lon="12.155802806742432"><ele>485.0</ele><time>2026-03-29T10:43:58.001Z</time></trkpt><trkpt lat="43.23747970355302" lon="12.1557686916794"><ele>485.0</ele><time>2026-03-29T10:43:59.001Z</time></trkpt><trkpt lat="43.23740891153741" lon="12.155726140933716"><ele>484.99999999999994</ele><time>2026-03-29T10:44:00.001Z</time></trkpt><trkpt lat="43.23732208367821" lon="12.155715344501742"><ele>485.0</ele><time>2026-03-29T10:44:01.001Z</time></trkpt><trkpt lat="43.23722588703578" lon="12.155683134754415"><ele>483.8</ele><time>2026-03-29T10:44:02.001Z</time></trkpt><trkpt lat="43.237129763817414" lon="12.155677593428004"><ele>482.6</ele><time>2026-03-29T10:44:03.001Z</time></trkpt><trkpt lat="43.2370477505617" lon="12.15565885656798"><ele>481.4</ele><time>2026-03-29T10:44:04.001Z</time></trkpt><trkpt lat="43.23696947156258" lon="12.155600611447449"><ele>480.2</ele><time>2026-03-29T10:44:05.001Z</time></trkpt><trkpt lat="43.236880922795706" lon="12.155492441104723"><ele>479.0</ele><time>2026-03-29T10:44:06.001Z</time></trkpt><trkpt lat="43.2368129021716" lon="12.15546145863843"><ele>479.0</ele><time>2026-03-29T10:44:07.001Z</time></trkpt><trkpt lat="43.236698877136845" lon="12.15549844754558"><ele>479.0</ele><time>2026-03-29T10:44:09.001Z</time></trkpt><trkpt lat="43.2366322193247" lon="12.15554028705551"><ele>479.0</ele><time>2026-03-29T10:44:10.001Z</time></trkpt><trkpt lat="43.23657215673399" lon="12.15556840897135"><ele>479.0</ele><time>2026-03-29T10:44:11.001Z</time></trkpt><trkpt lat="43.236462318975626" lon="12.1555577313009"><ele>479.0</ele><time>2026-03-29T10:44:12.001Z</time></trkpt><trkpt lat="43.236367441513856" lon="12.155500288788424"><ele>485.25</ele><time>2026-03-29T10:44:13.001Z</time></trkpt><trkpt lat="43.236274410447805" lon="12.155397875486091"><ele>491.5</ele><time>2026-03-29T10:44:14.001Z</time></trkpt><trkpt lat="43.23618250059645" lon="12.15533294030861"><ele>497.75</ele><time>2026-03-29T10:44:15.001Z</time></trkpt><trkpt lat="43.23606281003282" lon="12.155396541617783"><ele>504.0</ele><time>2026-03-29T10:44:17.001Z</time></trkpt><trkpt lat="43.235953408913474" lon="12.155446048124267"><ele>504.0</ele><time>2026-03-29T10:44:19.001Z</time></trkpt><trkpt lat="43.23587603207391" lon="12.155374996871268"><ele>504.0</ele><time>2026-03-29T10:44:21.001Z</time></trkpt><trkpt lat="43.23586417117235" lon="12.155244468450556"><ele>504.0</ele><time>2026-03-29T10:44:23.001Z</time></trkpt><trkpt lat="43.23578840356499" lon="12.155262568979563"><ele>504.0</ele><time>2026-03-29T10:44:27.001Z</time></trkpt><trkpt lat="43.23567878640642" lon="12.155414393914018"><ele>504.0</ele><time>2026-03-29T10:44:29.001Z</time></trkpt><trkpt lat="43.23560475772603" lon="12.15547659050045"><ele>511.6</ele><time>2026-03-29T10:44:30.001Z</time></trkpt><trkpt lat="43.235539475423565" lon="12.155530193618771"><ele>519.2</ele><time>2026-03-29T10:44:31.001Z</time></trkpt><trkpt lat="43.235483075462035" lon="12.15567038081169"><ele>526.8000000000001</ele><time>2026-03-29T10:44:33.001Z</time></trkpt><trkpt lat="43.235426247743995" lon="12.155743469249517"><ele>534.4</ele><time>2026-03-29T10:44:34.001Z</time></trkpt><trkpt lat="43.23530236465462" lon="12.155821938183113"><ele>542.0</ele><time>2026-03-29T10:44:36.001Z</time></trkpt><trkpt lat="43.23523027886018" lon="12.155880718669613"><ele>542.0</ele><time>2026-03-29T10:44:37.001Z</time></trkpt><trkpt lat="43.23514203294385" lon="12.155883296445502"><ele>542.0</ele><time>2026-03-29T10:44:39.001Z</time></trkpt><trkpt lat="43.235119873725864" lon="12.155801967529328"><ele>542.0</ele><time>2026-03-29T10:44:49.001Z</time></trkpt><trkpt lat="43.235096302188616" lon="12.15566869450477"><ele>542.0</ele><time>2026-03-29T10:44:51.001Z</time></trkpt><trkpt lat="43.23508686312732" lon="12.15555801296461"><ele>542.0</ele><time>2026-03-29T10:44:52.002Z</time></trkpt><trkpt lat="43.23507289394073" lon="12.155437801936047"><ele>542.0</ele><time>2026-03-29T10:44:54.002Z</time></trkpt><trkpt lat="43.23511899197054" lon="12.155296395641198"><ele>544.0</ele><time>2026-03-29T10:44:56Z</time></trkpt><trkpt lat="43.23512010372495" lon="12.155180105142074"><ele>546.0</ele><time>2026-03-29T10:44:57Z</time></trkpt><trkpt lat="43.23513325365371" lon="12.155072610233614"><ele>548.0</ele><time>2026-03-29T10:44:58Z</time></trkpt><trkpt lat="43.23513896086328" lon="12.154967359128394"><ele>550.0</ele><time>2026-03-29T10:44:59Z</time></trkpt><trkpt lat="43.235135591498704" lon="12.154846840077614"><ele>552.0</ele><time>2026-03-29T10:45:00Z</time></trkpt><trkpt lat="43.23512038286186" lon="12.154747211579505"><ele>554.0</ele><time>2026-03-29T10:45:01Z</time></trkpt><trkpt lat="43.23507950042568" lon="12.154669954163662"><ele>554.1666666666666</ele><time>2026-03-29T10:45:02Z</time></trkpt><trkpt lat="43.23502303076715" lon="12.154615002615893"><ele>554.3333333333333</ele><time>2026-03-29T10:45:03Z</time></trkpt><trkpt lat="43.23495361644373" lon="12.154571275498304"><ele>554.5</ele><time>2026-03-29T10:45:04Z</time></trkpt><trkpt lat="43.2348841167603" lon="12.154399026947209"><ele>554.6666666666666</ele><time>2026-03-29T10:45:06Z</time></trkpt><trkpt lat="43.234868130775546" lon="12.154298737140783"><ele>554.8333333333334</ele><time>2026-03-29T10:45:07Z</time></trkpt><trkpt lat="43.23479960843276" lon="12.154240664019248"><ele>555.0</ele><time>2026-03-29T10:45:09Z</time></trkpt><trkpt lat="43.234734422256714" lon="12.154251453197944"><ele>559.6666666666666</ele><time>2026-03-29T10:45:10Z</time></trkpt><trkpt lat="43.234660966646175" lon="12.154251985168774"><ele>564.3333333333334</ele><time>2026-03-29T10:45:11Z</time></trkpt><trkpt lat="43.23458370862571" lon="12.154258560147506"><ele>569.0</ele><time>2026-03-29T10:45:12Z</time></trkpt><trkpt lat="43.23449320209102" lon="12.154289378176047"><ele>573.6666666666667</ele><time>2026-03-29T10:45:13Z</time></trkpt><trkpt lat="43.23439825878264" lon="12.154306656691492"><ele>578.3333333333334</ele><time>2026-03-29T10:45:14Z</time></trkpt><trkpt lat="43.23430472146933" lon="12.154234167062873"><ele>583.0</ele><time>2026-03-29T10:45:16Z</time></trkpt><trkpt lat="43.234246233609596" lon="12.154118698618989"><ele>583.0</ele><time>2026-03-29T10:45:17Z</time></trkpt><trkpt lat="43.234180290534574" lon="12.154048060470435"><ele>583.0</ele><time>2026-03-29T10:45:18Z</time></trkpt><trkpt lat="43.23409888965062" lon="12.154093662310196"><ele>583.0</ele><time>2026-03-29T10:45:20Z</time></trkpt><trkpt lat="43.23402508430851" lon="12.154269913210868"><ele>583.0</ele><time>2026-03-29T10:45:22Z</time></trkpt><trkpt lat="43.233996705740104" lon="12.154382366322942"><ele>583.0</ele><time>2026-03-29T10:45:23Z</time></trkpt><trkpt lat="43.23400043189704" lon="12.154476977951951"><ele>583.0</ele><time>2026-03-29T10:45:24Z</time></trkpt><trkpt lat="43.234029491437376" lon="12.154574760197706"><ele>583.0</ele><time>2026-03-29T10:45:25Z</time></trkpt><trkpt lat="43.23409949592314" lon="12.154673189891547"><ele>583.0</ele><time>2026-03-29T10:45:26Z</time></trkpt><trkpt lat="43.23413802598319" lon="12.154753195852008"><ele>583.0</ele><time>2026-03-29T10:45:27Z</time></trkpt><trkpt lat="43.23412323846023" lon="12.154838027004994"><ele>583.0</ele><time>2026-03-29T10:45:29Z</time></trkpt><trkpt lat="43.23413371824658" lon="12.154942806180637"><ele>583.0</ele><time>2026-03-29T10:45:30Z</time></trkpt><trkpt lat="43.23414071040161" lon="12.155075146838508"><ele>584.0</ele><time>2026-03-29T10:45:31Z</time></trkpt><trkpt lat="43.234092221554235" lon="12.155148694323563"><ele>585.0</ele><time>2026-03-29T10:45:32Z</time></trkpt><trkpt lat="43.23403277793733" lon="12.155241232633907"><ele>586.0</ele><time>2026-03-29T10:45:33Z</time></trkpt><trkpt lat="43.23393604396385" lon="12.155298353662184"><ele>587.0</ele><time>2026-03-29T10:45:34Z</time></trkpt><trkpt lat="43.23385593781686" lon="12.155333972728823"><ele>588.0</ele><time>2026-03-29T10:45:35Z</time></trkpt><trkpt lat="43.23374349070853" lon="12.155381111949918"><ele>592.5</ele><time>2026-03-29T10:45:36Z</time></trkpt><trkpt lat="43.23366446125729" lon="12.155393610321008"><ele>597.0</ele><time>2026-03-29T10:45:37Z</time></trkpt><trkpt lat="43.23358925748549" lon="12.155381084844025"><ele>601.5</ele><time>2026-03-29T10:45:38Z</time></trkpt><trkpt lat="43.23352431906332" lon="12.155354063940173"><ele>606.0</ele><time>2026-03-29T10:45:39Z</time></trkpt><trkpt lat="43.23348853353666" lon="12.155279731619435"><ele>610.5</ele><time>2026-03-29T10:45:40Z</time></trkpt><trkpt lat="43.2334544915354" lon="12.15511848160897"><ele>615.0</ele><time>2026-03-29T10:45:42Z</time></trkpt><trkpt lat="43.23341463784618" lon="12.15504444893984"><ele>615.0</ele><time>2026-03-29T10:45:43Z</time></trkpt><trkpt lat="43.233315586631996" lon="12.155101598680854"><ele>615.0</ele><time>2026-03-29T10:45:45Z</time></trkpt><trkpt lat="43.233260643694315" lon="12.155163046100604"><ele>615.0</ele><time>2026-03-29T10:45:46.001Z</time></trkpt><trkpt lat="43.23318686513766" lon="12.155138278378407"><ele>615.0</ele><time>2026-03-29T10:45:48.001Z</time></trkpt><trkpt lat="43.233095961611426" lon="12.15509602319383"><ele>615.0</ele><time>2026-03-29T10:45:49.001Z</time></trkpt><trkpt lat="43.2330050028522" lon="12.155073627760382"><ele>615.0</ele><time>2026-03-29T10:45:50.001Z</time></trkpt><trkpt lat="43.2329041414314" lon="12.15505175663134"><ele>619.2</ele><time>2026-03-29T10:45:51.001Z</time></trkpt><trkpt lat="43.232812666340116" lon="12.155033123252617"><ele>623.4</ele><time>2026-03-29T10:45:52.001Z</time></trkpt><trkpt lat="43.23270500896628" lon="12.155013972450325"><ele>627.6</ele><time>2026-03-29T10:45:53.001Z</time></trkpt><trkpt lat="43.2325883748906" lon="12.154989915653118"><ele>631.8</ele><time>2026-03-29T10:45:54.001Z</time></trkpt><trkpt lat="43.232482765569756" lon="12.154991497609716"><ele>636.0</ele><time>2026-03-29T10:45:55.001Z</time></trkpt><trkpt lat="43.23239723103109" lon="12.154976239363076"><ele>636.0</ele><time>2026-03-29T10:45:56.001Z</time></trkpt><trkpt lat="43.23231107645591" lon="12.154991548001801"><ele>636.0</ele><time>2026-03-29T10:45:57.001Z</time></trkpt><trkpt lat="43.232249335070435" lon="12.15503100534976"><ele>636.0</ele><time>2026-03-29T10:45:58.001Z</time></trkpt><trkpt lat="43.23222102696667" lon="12.155125671905138"><ele>636.0</ele><time>2026-03-29T10:46:00.001Z</time></trkpt><trkpt lat="43.232226526296074" lon="12.155222609066259"><ele>636.0</ele><time>2026-03-29T10:46:01.001Z</time></trkpt><trkpt lat="43.2322331763701" lon="12.15531604403356"><ele>636.0</ele><time>2026-03-29T10:46:02.001Z</time></trkpt><trkpt lat="43.23220784953906" lon="12.155410667872129"><ele>636.0</ele><time>2026-03-29T10:46:03.001Z</time></trkpt><trkpt lat="43.23215132805197" lon="12.155548565248575"><ele>637.0</ele><time>2026-03-29T10:46:04.001Z</time></trkpt><trkpt lat="43.232115016739044" lon="12.155689097363751"><ele>638.0</ele><time>2026-03-29T10:46:05.001Z</time></trkpt><trkpt lat="43.23210829088356" lon="12.155820151030692"><ele>639.0</ele><time>2026-03-29T10:46:06.001Z</time></trkpt><trkpt lat="43.231981817106096" lon="12.155903438691858"><ele>640.0</ele><time>2026-03-29T10:46:08.001Z</time></trkpt><trkpt lat="43.23191924541428" lon="12.155922515886425"><ele>641.0</ele><time>2026-03-29T10:46:09.001Z</time></trkpt><trkpt lat="43.23180354640221" lon="12.15588786181051"><ele>641.0</ele><time>2026-03-29T10:46:10.001Z</time></trkpt><trkpt lat="43.23168443916238" lon="12.155845245844498"><ele>641.0</ele><time>2026-03-29T10:46:11.001Z</time></trkpt><trkpt lat="43.23155062065197" lon="12.155786136672566"><ele>641.0</ele><time>2026-03-29T10:46:12.001Z</time></trkpt><trkpt lat="43.23141268661989" lon="12.155715752016413"><ele>641.0</ele><time>2026-03-29T10:46:13.001Z</time></trkpt><trkpt lat="43.23128980257039" lon="12.155642166176008"><ele>643.5</ele><time>2026-03-29T10:46:14.001Z</time></trkpt><trkpt lat="43.23118919508925" lon="12.155593108206784"><ele>646.0</ele><time>2026-03-29T10:46:15.001Z</time></trkpt><trkpt lat="43.23109161155006" lon="12.155604953704707"><ele>648.5</ele><time>2026-03-29T10:46:17.001Z</time></trkpt><trkpt lat="43.23104098344757" lon="12.155790287656686"><ele>651.0</ele><time>2026-03-29T10:46:19.001Z</time></trkpt><trkpt lat="43.231054606078835" lon="12.155933151527064"><ele>651.0</ele><time>2026-03-29T10:46:20.001Z</time></trkpt><trkpt lat="43.23107266323232" lon="12.15606069068434"><ele>651.0</ele><time>2026-03-29T10:46:21.001Z</time></trkpt><trkpt lat="43.23107091815184" lon="12.156252382199396"><ele>651.0</ele><time>2026-03-29T10:46:22.001Z</time></trkpt><trkpt lat="43.2310720698367" lon="12.156451264696756"><ele>651.0</ele><time>2026-03-29T10:46:23.001Z</time></trkpt><trkpt lat="43.2310748292969" lon="12.156603528206595"><ele>650.5999999999999</ele><time>2026-03-29T10:46:24.001Z</time></trkpt><trkpt lat="43.23107117613888" lon="12.156757872079782"><ele>650.2</ele><time>2026-03-29T10:46:25.001Z</time></trkpt><trkpt lat="43.23102196399759" lon="12.156892529295876"><ele>649.8</ele><time>2026-03-29T10:46:26.001Z</time></trkpt><trkpt lat="43.23097564345218" lon="12.157008379044004"><ele>649.4000000000001</ele><time>2026-03-29T10:46:27.001Z</time></trkpt><trkpt lat="43.23090809438254" lon="12.157107750450924"><ele>649.0</ele><time>2026-03-29T10:46:28.001Z</time></trkpt><trkpt lat="43.23083446497918" lon="12.157170620975192"><ele>649.0</ele><time>2026-03-29T10:46:29.001Z</time></trkpt><trkpt lat="43.23072327717266" lon="12.157238809776365"><ele>649.0</ele><time>2026-03-29T10:46:30.001Z</time></trkpt><trkpt lat="43.23058237222273" lon="12.157332054378697"><ele>649.0</ele><time>2026-03-29T10:46:31.001Z</time></trkpt><trkpt lat="43.23043435672091" lon="12.157451917363858"><ele>648.2</ele><time>2026-03-29T10:46:32.001Z</time></trkpt><trkpt lat="43.23032169469111" lon="12.157544965565114"><ele>647.4000000000001</ele><time>2026-03-29T10:46:33.001Z</time></trkpt><trkpt lat="43.23024161889396" lon="12.157625695345331"><ele>646.6</ele><time>2026-03-29T10:46:34.001Z</time></trkpt><trkpt lat="43.23017121731856" lon="12.157717676465253"><ele>645.8</ele><time>2026-03-29T10:46:35.001Z</time></trkpt><trkpt lat="43.23011409222679" lon="12.157777761309767"><ele>645.0</ele><time>2026-03-29T10:46:36.001Z</time></trkpt><trkpt lat="43.23002200767314" lon="12.157805649374831"><ele>645.0</ele><time>2026-03-29T10:46:38.001Z</time></trkpt><trkpt lat="43.22995236123196" lon="12.157809555487443"><ele>645.0</ele><time>2026-03-29T10:47:49.001Z</time></trkpt><trkpt lat="43.22990468345534" lon="12.15789008658424"><ele>645.0</ele><time>2026-03-29T10:47:52.001Z</time></trkpt><trkpt lat="43.22988578895963" lon="12.158091985217272"><ele>645.0</ele><time>2026-03-29T10:47:54.001Z</time></trkpt><trkpt lat="43.22984207352426" lon="12.158245437228159"><ele>645.0</ele><time>2026-03-29T10:47:55.001Z</time></trkpt><trkpt lat="43.22979036632403" lon="12.15838402067822"><ele>642.8</ele><time>2026-03-29T10:47:56.001Z</time></trkpt><trkpt lat="43.229714305912545" lon="12.158508109953406"><ele>640.6</ele><time>2026-03-29T10:47:57.001Z</time></trkpt><trkpt lat="43.22964769252972" lon="12.158601827053504"><ele>638.4</ele><time>2026-03-29T10:47:58.001Z</time></trkpt><trkpt lat="43.22956261885268" lon="12.158676803862408"><ele>636.2</ele><time>2026-03-29T10:47:59.001Z</time></trkpt><trkpt lat="43.229503551273545" lon="12.158748610274966"><ele>634.0</ele><time>2026-03-29T10:48:00.001Z</time></trkpt><trkpt lat="43.22942280414533" lon="12.158812968920293"><ele>634.0</ele><time>2026-03-29T10:48:02.001Z</time></trkpt><trkpt lat="43.229361212144774" lon="12.15885424623736"><ele>634.0</ele><time>2026-03-29T10:48:03.001Z</time></trkpt><trkpt lat="43.22929400799846" lon="12.15892052781339"><ele>634.0</ele><time>2026-03-29T10:48:04.001Z</time></trkpt><trkpt lat="43.229244629280544" lon="12.159010102847821"><ele>634.0</ele><time>2026-03-29T10:48:05.001Z</time></trkpt><trkpt lat="43.229217655264044" lon="12.159105857435138"><ele>634.0</ele><time>2026-03-29T10:48:06.001Z</time></trkpt><trkpt lat="43.229207913370125" lon="12.15921071317181"><ele>634.0</ele><time>2026-03-29T10:48:07.001Z</time></trkpt><trkpt lat="43.22920419857312" lon="12.159314132346609"><ele>635.75</ele><time>2026-03-29T10:48:08.001Z</time></trkpt><trkpt lat="43.22919841981526" lon="12.159456621167168"><ele>637.5</ele><time>2026-03-29T10:48:09.001Z</time></trkpt><trkpt lat="43.22917846825773" lon="12.159621360356295"><ele>639.25</ele><time>2026-03-29T10:48:10.001Z</time></trkpt><trkpt lat="43.22913879446037" lon="12.159784512552344"><ele>641.0</ele><time>2026-03-29T10:48:11.001Z</time></trkpt><trkpt lat="43.22907196600484" lon="12.159927840844631"><ele>642.0</ele><time>2026-03-29T10:48:12.001Z</time></trkpt><trkpt lat="43.2290192413003" lon="12.160080922720425"><ele>643.0</ele><time>2026-03-29T10:48:13.001Z</time></trkpt><trkpt lat="43.22892694202855" lon="12.160204227720913"><ele>644.0</ele><time>2026-03-29T10:48:14.001Z</time></trkpt><trkpt lat="43.22880669782037" lon="12.160259833734376"><ele>645.0</ele><time>2026-03-29T10:48:15.001Z</time></trkpt><trkpt lat="43.228696857352816" lon="12.160336797267457"><ele>645.2</ele><time>2026-03-29T10:48:16.001Z</time></trkpt><trkpt lat="43.22860441964375" lon="12.160430603544427"><ele>645.4</ele><time>2026-03-29T10:48:17.001Z</time></trkpt><trkpt lat="43.22853100924868" lon="12.160552146731838"><ele>645.5999999999999</ele><time>2026-03-29T10:48:18.001Z</time></trkpt><trkpt lat="43.22847171286263" lon="12.16066404697334"><ele>645.8</ele><time>2026-03-29T10:48:19.001Z</time></trkpt><trkpt lat="43.228435423855544" lon="12.160778193880217"><ele>646.0</ele><time>2026-03-29T10:48:20.001Z</time></trkpt><trkpt lat="43.22841667408558" lon="12.160893960671428"><ele>646.0</ele><time>2026-03-29T10:48:21.001Z</time></trkpt><trkpt lat="43.22841100928851" lon="12.161024222474506"><ele>646.0</ele><time>2026-03-29T10:48:22.001Z</time></trkpt><trkpt lat="43.22841975203373" lon="12.16117670865616"><ele>646.0</ele><time>2026-03-29T10:48:23.001Z</time></trkpt><trkpt lat="43.228435479170656" lon="12.161331599041493"><ele>646.0</ele><time>2026-03-29T10:48:24.001Z</time></trkpt><trkpt lat="43.22842694961913" lon="12.16146475600224"><ele>646.0</ele><time>2026-03-29T10:48:25.001Z</time></trkpt><trkpt lat="43.22843991467483" lon="12.161557821331233"><ele>651.0</ele><time>2026-03-29T10:48:26.001Z</time></trkpt><trkpt lat="43.22842032862158" lon="12.161641318944062"><ele>651.0</ele><time>2026-03-29T10:50:08.001Z</time></trkpt></trkseg></trk></gpx>